weather-station
Time Windspeed Humidity Temperature
2017-08-02 01:20:030.06m/s64.50%20.90C
2017-08-02 00:07:430.00m/s62.10%21.80C
2017-08-02 00:21:240.00m/s62.10%21.70C
2017-08-02 01:14:030.00m/s64.30%20.90C
2017-08-02 01:15:030.00m/s64.40%20.90C
2017-08-02 01:38:030.00m/s65.20%20.70C
2017-08-02 01:59:030.00m/s65.80%20.50C
2017-08-02 02:07:030.00m/s66.30%20.50C
2017-08-02 01:11:030.00m/s64.40%21.00C
2017-08-02 01:32:030.00m/s65.00%20.80C
2017-08-02 02:13:030.00m/s66.30%20.40C
2017-08-02 02:16:030.00m/s66.20%20.40C
2017-08-02 02:19:030.00m/s66.30%20.40C
2017-08-02 02:22:030.00m/s66.10%20.30C
2017-08-02 02:31:030.00m/s66.10%20.20C
2017-08-02 02:35:030.00m/s66.10%20.20C
2017-08-02 02:38:030.00m/s66.10%20.20C
2017-08-02 02:36:020.00m/s66.20%20.20C
2017-08-02 02:50:020.00m/s66.00%20.10C
2017-08-02 02:51:020.00m/s66.40%20.10C
2017-08-02 02:55:020.00m/s66.70%20.10C
2017-08-02 03:09:020.00m/s66.20%19.90C
2017-08-02 03:14:030.00m/s66.70%19.90C
2017-08-02 03:22:030.00m/s67.10%19.90C
2017-08-02 02:54:030.00m/s66.30%20.00C
2017-08-02 02:58:030.00m/s66.70%20.00C
2017-08-02 03:05:080.00m/s66.70%20.00C
2017-08-02 03:08:030.00m/s67.00%20.00C
2017-08-02 03:47:030.00m/s66.70%19.80C
2017-08-02 03:51:020.00m/s67.10%19.80C
2017-08-02 03:56:030.00m/s67.10%19.80C
2017-08-02 03:50:020.00m/s67.00%19.80C
2017-08-02 03:25:030.00m/s66.80%19.90C
2017-08-02 03:32:030.00m/s66.50%19.80C
2017-08-02 03:41:020.00m/s66.70%19.80C
2017-08-02 03:42:030.00m/s66.60%19.80C
2017-08-02 03:24:030.00m/s67.00%19.90C
2017-08-02 04:34:030.06m/s67.90%19.60C
2017-08-02 04:00:030.00m/s67.40%19.70C
2017-08-02 04:05:030.00m/s67.50%19.70C
2017-08-02 04:08:020.00m/s67.10%19.70C
2017-08-02 04:21:030.00m/s67.50%19.60C
2017-08-02 04:45:030.00m/s67.90%19.50C
2017-08-02 04:51:020.00m/s67.80%19.50C
2017-08-02 04:53:040.00m/s67.90%19.50C
2017-08-02 04:24:030.00m/s67.60%19.60C
2017-08-02 04:56:030.00m/s67.90%19.50C
2017-08-02 04:58:030.00m/s67.80%19.50C
2017-08-02 05:00:040.00m/s67.90%19.50C
2017-08-02 05:11:020.00m/s68.10%19.40C
2017-08-02 05:20:030.00m/s68.30%19.40C
2017-08-02 05:25:030.00m/s68.20%19.40C
2017-08-02 05:36:030.00m/s68.10%19.30C
2017-08-02 05:39:030.00m/s68.50%19.30C
2017-08-02 05:19:030.00m/s68.00%19.40C
2017-08-02 05:46:030.00m/s68.10%19.30C
2017-08-02 05:50:030.00m/s68.50%19.30C
2017-08-02 06:11:110.00m/s68.40%19.20C
2017-08-02 06:13:030.00m/s68.30%19.20C
2017-08-02 06:14:030.00m/s68.40%19.20C
2017-08-02 06:16:030.00m/s68.60%19.20C
2017-08-02 05:45:030.00m/s68.30%19.30C
2017-08-02 05:49:030.00m/s68.30%19.30C
2017-08-02 05:51:030.00m/s68.30%19.30C
2017-08-02 06:20:020.00m/s68.50%19.20C
2017-08-02 06:21:030.00m/s68.50%19.20C
2017-08-02 06:24:020.00m/s68.60%19.20C
2017-08-02 06:25:030.00m/s68.70%19.20C
2017-08-02 06:27:030.00m/s68.30%19.20C
2017-08-02 06:28:030.00m/s68.60%19.20C
2017-08-02 06:35:030.00m/s68.50%19.10C
2017-08-02 06:46:030.00m/s68.70%19.10C
2017-08-02 06:51:030.00m/s68.80%19.10C
2017-08-02 07:00:030.00m/s69.00%19.10C
2017-08-02 07:02:030.00m/s68.80%19.00C
2017-08-02 07:10:040.00m/s69.10%19.00C
2017-08-02 07:16:030.00m/s69.40%19.00C
2017-08-02 07:18:030.00m/s69.10%19.00C
2017-08-02 07:28:040.00m/s69.30%19.00C
2017-08-02 07:32:030.00m/s69.40%19.00C
2017-08-02 07:36:020.00m/s69.60%19.00C
2017-08-02 07:44:030.00m/s69.70%19.00C
2017-08-02 08:34:030.00m/s72.30%19.20C
2017-08-02 08:41:030.00m/s72.50%19.20C
2017-08-02 08:49:040.00m/s72.60%19.20C
2017-08-02 09:00:040.00m/s72.30%19.20C
2017-08-02 09:11:030.00m/s72.30%19.20C
2017-08-02 09:12:030.00m/s72.30%19.20C
2017-08-02 09:14:030.00m/s72.60%19.30C
2017-08-02 09:13:030.00m/s72.30%19.30C
2017-08-02 07:52:030.00m/s70.00%19.10C
2017-08-02 09:51:020.06m/s71.30%19.60C
2017-08-02 09:19:020.00m/s72.40%19.30C
2017-08-02 09:20:040.00m/s72.40%19.30C
2017-08-02 09:29:030.00m/s71.70%19.30C
2017-08-02 09:37:030.00m/s71.80%19.40C
2017-08-02 09:38:030.00m/s71.70%19.30C
2017-08-02 09:40:030.00m/s71.80%19.40C
2017-08-02 09:50:030.00m/s71.30%19.50C
2017-08-02 09:22:030.00m/s72.30%19.30C
2017-08-02 09:56:050.00m/s71.20%19.60C
2017-08-02 09:58:021.64m/s71.00%19.60C
2017-08-02 10:10:020.00m/s70.20%19.90C
2017-08-02 10:17:030.00m/s69.70%20.10C
2017-08-02 10:18:030.00m/s69.40%20.10C
2017-08-02 10:25:030.00m/s68.80%20.20C
2017-08-02 10:26:030.00m/s68.80%20.30C
2017-08-02 10:13:020.85m/s70.00%20.00C
2017-08-02 10:12:030.00m/s69.90%19.90C
2017-08-02 11:03:032.42m/s64.90%21.10C
2017-08-02 10:30:030.00m/s68.20%20.30C
2017-08-02 10:55:020.00m/s65.20%20.90C
2017-08-02 11:10:020.00m/s63.90%21.30C
2017-08-02 11:17:040.00m/s61.70%21.40C
2017-08-02 11:20:030.06m/s62.50%21.50C
2017-08-02 10:51:030.00m/s65.70%20.70C
2017-08-02 10:58:020.00m/s65.00%20.90C
2017-08-02 11:30:030.00m/s62.00%21.70C
2017-08-02 11:48:030.85m/s59.80%22.00C
2017-08-02 11:35:020.00m/s61.50%21.80C
2017-08-02 11:37:030.00m/s60.80%21.90C
2017-08-02 11:51:030.00m/s59.60%22.10C
2017-08-02 11:52:030.00m/s59.50%22.10C
2017-08-02 11:53:280.00m/s59.90%22.20C
2017-08-02 11:57:030.00m/s59.40%22.20C
2017-08-02 11:43:030.00m/s59.40%22.00C
2017-08-02 11:47:030.00m/s60.90%22.00C
2017-08-02 12:25:030.06m/s58.40%22.90C
2017-08-02 12:41:030.06m/s52.90%23.20C
2017-08-02 12:48:030.85m/s53.90%23.40C
2017-08-02 12:08:030.00m/s58.60%22.50C
2017-08-02 12:12:030.00m/s58.30%22.60C
2017-08-02 12:44:030.00m/s54.30%23.20C
2017-08-02 12:13:030.00m/s59.00%22.60C
2017-08-02 12:14:030.00m/s59.00%22.70C
2017-08-02 13:05:030.00m/s52.90%23.90C
2017-08-02 13:12:036.35m/s52.70%24.10C
2017-08-02 13:19:021.64m/s51.30%24.20C
2017-08-02 13:23:031.64m/s51.10%24.30C
2017-08-02 14:10:020.06m/s46.70%25.10C
2017-08-02 13:30:030.00m/s50.20%24.50C
2017-08-02 13:35:030.00m/s49.90%24.60C
2017-08-02 13:13:020.06m/s50.10%24.10C
2017-08-02 13:26:030.00m/s50.40%24.40C
2017-08-02 13:56:040.00m/s47.80%25.00C
2017-08-02 14:25:033.21m/s46.20%25.50C
2017-08-02 14:52:037.14m/s42.60%25.70C
2017-08-02 14:14:034.78m/s45.80%25.30C
2017-08-02 14:20:024.78m/s45.70%25.40C
2017-08-02 14:13:044.00m/s45.90%25.30C
2017-08-02 14:23:040.06m/s45.70%25.40C
2017-08-02 14:48:030.00m/s43.90%25.60C
2017-08-02 14:31:030.00m/s44.60%25.60C
2017-08-02 14:46:040.00m/s43.60%25.60C
2017-08-02 15:02:033.21m/s42.80%25.70C
2017-08-02 15:11:034.78m/s43.80%25.40C
2017-08-02 15:27:030.85m/s45.90%25.10C
2017-08-02 15:30:020.85m/s45.60%25.10C
2017-08-02 15:06:030.00m/s44.40%25.60C
2017-08-02 15:07:030.00m/s43.30%25.60C
2017-08-02 15:29:030.00m/s46.30%25.10C
2017-08-02 15:36:030.00m/s46.30%25.20C
2017-08-02 15:38:020.00m/s46.90%25.20C
2017-08-02 16:25:035.57m/s48.80%24.60C
2017-08-02 16:16:034.00m/s48.10%24.60C
2017-08-02 16:24:024.00m/s48.60%24.60C
2017-08-02 15:46:031.64m/s47.50%25.20C
2017-08-02 16:09:040.85m/s47.60%24.70C
2017-08-02 16:20:031.64m/s47.90%24.60C
2017-08-02 15:47:030.00m/s47.80%25.30C
2017-08-02 15:39:030.00m/s47.20%25.20C
2017-08-02 15:40:020.00m/s47.20%25.20C
2017-08-02 16:26:0310.29m/s48.50%24.60C
2017-08-02 16:59:033.21m/s47.40%24.50C
2017-08-02 16:44:022.42m/s48.30%24.60C
2017-08-02 17:04:034.78m/s46.90%24.40C
2017-08-02 17:02:034.00m/s47.10%24.40C
2017-08-02 16:58:030.00m/s47.40%24.50C
2017-08-02 17:05:030.00m/s46.80%24.40C
2017-08-02 16:34:030.00m/s49.00%24.60C
2017-08-02 16:43:020.00m/s48.60%24.60C
2017-08-02 17:19:035.57m/s47.20%24.10C
2017-08-02 17:25:033.21m/s47.60%24.00C
2017-08-02 17:11:022.42m/s46.70%24.20C
2017-08-02 17:24:034.78m/s47.70%24.00C
2017-08-02 17:36:029.50m/s50.30%23.80C
2017-08-02 17:23:021.64m/s47.30%24.10C
2017-08-02 17:17:020.00m/s46.90%24.10C
2017-08-02 17:32:030.00m/s49.20%23.90C
2017-08-02 17:18:030.85m/s47.10%24.10C
2017-08-02 17:52:033.21m/s52.50%23.60C
2017-08-02 17:56:030.06m/s53.40%23.50C
2017-08-02 17:43:030.00m/s51.30%23.70C
2017-08-02 17:45:030.00m/s51.30%23.70C
2017-08-02 17:50:030.00m/s52.50%23.60C
2017-08-02 18:00:030.00m/s53.80%23.40C
2017-08-02 18:02:030.00m/s54.20%23.40C
2017-08-02 18:05:030.00m/s54.80%23.30C
2017-08-02 18:18:030.00m/s55.70%23.10C
2017-08-02 18:34:030.00m/s57.60%22.90C
2017-08-02 18:36:030.00m/s57.70%22.90C
2017-08-02 20:16:030.00m/s63.50%21.60C
2017-08-02 20:29:030.00m/s64.70%21.50C
2017-08-02 20:31:020.00m/s64.80%21.40C
2017-08-02 18:42:030.06m/s57.80%22.80C
2017-08-02 18:25:030.00m/s56.90%23.00C
2017-08-02 20:35:030.00m/s65.00%21.40C
2017-08-02 20:37:030.00m/s65.40%21.40C
2017-08-02 21:05:020.85m/s66.80%21.00C
2017-08-02 21:09:030.85m/s66.80%21.00C
2017-08-02 20:51:020.00m/s66.30%21.20C
2017-08-02 20:56:020.00m/s66.80%21.10C
2017-08-02 21:21:030.00m/s66.70%20.90C
2017-08-02 21:22:030.00m/s66.70%20.90C
2017-08-02 21:25:020.00m/s66.60%20.80C
2017-08-02 21:12:030.00m/s66.80%21.00C
2017-08-02 21:23:030.00m/s67.00%20.90C
2017-08-02 22:16:032.42m/s70.20%20.30C
2017-08-02 21:39:030.85m/s67.10%20.60C
2017-08-02 22:12:030.06m/s70.20%20.40C
2017-08-02 21:27:030.00m/s66.90%20.80C
2017-08-02 21:30:030.00m/s67.40%20.80C
2017-08-02 21:52:030.00m/s68.30%20.50C
2017-08-02 21:54:030.00m/s68.40%20.50C
2017-08-02 22:07:030.00m/s69.50%20.40C
2017-08-02 22:10:030.00m/s69.60%20.40C
2017-08-02 22:37:034.78m/s72.00%20.20C
2017-08-02 22:39:032.42m/s71.80%20.20C
2017-08-02 22:35:030.06m/s71.70%20.10C
2017-08-02 22:17:030.00m/s70.40%20.30C
2017-08-02 22:18:020.00m/s69.90%20.30C
2017-08-02 22:23:030.00m/s70.90%20.30C
2017-08-02 22:28:030.00m/s70.90%20.30C
2017-08-02 22:29:020.00m/s70.60%20.20C
2017-08-02 22:38:030.00m/s71.40%20.20C
2017-08-02 22:41:030.00m/s71.70%20.20C
2017-08-02 22:51:030.00m/s72.50%20.10C
2017-08-02 23:27:030.00m/s73.80%19.90C
2017-08-02 23:30:030.00m/s74.10%19.80C
2017-08-02 23:38:031.64m/s74.00%19.80C
2017-08-02 22:49:031.64m/s72.10%20.10C
2017-08-02 23:06:030.00m/s72.70%20.00C
2017-08-02 23:07:030.00m/s73.20%20.00C
2017-08-02 23:14:020.00m/s73.50%20.00C
2017-08-03 00:26:022.42m/s75.90%19.60C
2017-08-03 00:07:033.21m/s74.70%19.70C
2017-08-03 00:19:030.85m/s75.20%19.60C
2017-08-02 23:42:030.00m/s74.50%19.80C
2017-08-02 23:57:030.00m/s74.60%19.70C
2017-08-02 23:58:030.00m/s74.30%19.70C
2017-08-03 00:06:020.00m/s74.50%19.70C
2017-08-03 00:10:030.00m/s74.50%19.70C
2017-08-03 00:22:030.00m/s75.80%19.60C
2017-08-03 01:08:022.42m/s75.50%19.50C
2017-08-03 00:30:030.00m/s76.10%19.60C
2017-08-03 00:32:020.00m/s75.90%19.60C
2017-08-03 00:43:020.00m/s75.50%19.60C
2017-08-03 00:50:030.00m/s75.60%19.50C
2017-08-03 00:54:030.00m/s75.30%19.50C
2017-08-03 01:06:030.00m/s75.60%19.50C
2017-08-03 00:55:030.00m/s75.50%19.50C
2017-08-03 01:05:030.00m/s75.50%19.50C
2017-08-03 01:49:030.85m/s76.60%19.30C
2017-08-03 01:18:030.00m/s75.20%19.40C
2017-08-03 01:20:030.00m/s75.10%19.40C
2017-08-03 01:29:030.00m/s75.60%19.40C
2017-08-03 01:37:030.00m/s76.30%19.40C
2017-08-03 01:48:030.00m/s76.20%19.30C
2017-08-03 01:58:030.00m/s76.60%19.30C
2017-08-03 01:17:030.00m/s75.00%19.40C
2017-08-03 01:25:030.00m/s75.40%19.40C
2017-08-03 02:24:042.42m/s78.00%19.20C
2017-08-03 02:11:033.21m/s77.30%19.30C
2017-08-03 02:12:030.85m/s77.50%19.30C
2017-08-03 02:01:031.64m/s76.90%19.30C
2017-08-03 02:05:030.00m/s76.70%19.30C
2017-08-03 02:39:030.00m/s78.40%19.20C
2017-08-03 02:41:030.00m/s77.90%19.10C
2017-08-03 02:16:030.00m/s78.00%19.30C
2017-08-03 02:18:031.64m/s77.20%19.20C
2017-08-03 02:44:023.21m/s78.40%19.10C
2017-08-03 03:16:032.42m/s80.00%19.00C
2017-08-03 02:55:040.06m/s78.90%19.10C
2017-08-03 02:58:030.06m/s79.50%19.10C
2017-08-03 03:15:040.06m/s79.90%19.00C
2017-08-03 02:45:040.00m/s78.70%19.10C
2017-08-03 02:54:030.00m/s78.90%19.10C
2017-08-03 02:47:030.00m/s78.10%19.10C
2017-08-03 02:59:030.00m/s79.30%19.00C
2017-08-03 03:18:0315.79m/s80.20%19.00C
2017-08-03 03:22:0311.07m/s80.20%19.00C
2017-08-03 03:17:033.21m/s80.10%19.00C
2017-08-03 03:48:020.00m/s80.60%18.90C
2017-08-03 03:20:040.00m/s80.30%19.00C
2017-08-03 03:23:030.00m/s80.20%19.00C
2017-08-03 03:33:030.00m/s80.50%19.00C
2017-08-03 03:51:030.00m/s81.00%18.90C
2017-08-03 03:59:040.00m/s80.90%18.90C
2017-08-03 04:24:034.78m/s80.40%18.80C
2017-08-03 04:21:030.06m/s80.50%18.80C
2017-08-03 04:02:030.00m/s80.70%18.90C
2017-08-03 04:07:030.00m/s80.30%18.80C
2017-08-03 04:10:030.00m/s80.70%18.80C
2017-08-03 04:12:030.00m/s80.70%18.80C
2017-08-03 04:15:040.00m/s80.70%18.80C
2017-08-03 04:19:030.00m/s80.10%18.80C
2017-08-03 04:27:030.00m/s80.10%18.80C
2017-08-03 04:46:030.00m/s80.40%18.80C
2017-08-03 04:53:020.00m/s80.20%18.70C
2017-08-03 04:54:030.00m/s80.50%18.80C
2017-08-03 04:56:030.00m/s80.20%18.70C
2017-08-03 05:03:020.00m/s80.80%18.70C
2017-08-03 05:06:020.00m/s80.60%18.70C
2017-08-03 05:07:030.00m/s80.50%18.70C
2017-08-03 04:44:030.00m/s80.80%18.80C
2017-08-03 04:29:060.00m/s80.00%18.80C
2017-08-03 05:45:030.85m/s81.50%18.60C
2017-08-03 05:50:030.06m/s81.70%18.60C
2017-08-03 05:08:030.00m/s80.40%18.70C
2017-08-03 05:12:030.00m/s80.80%18.70C
2017-08-03 05:34:020.00m/s81.40%18.60C
2017-08-03 05:13:030.00m/s81.00%18.70C
2017-08-03 05:21:030.00m/s81.00%18.70C
2017-08-03 05:22:030.00m/s81.00%18.70C
2017-08-03 05:23:030.00m/s80.70%18.70C
2017-08-03 06:23:038.71m/s82.20%18.60C
2017-08-03 06:24:030.06m/s82.40%18.60C
2017-08-03 05:52:030.00m/s81.80%18.60C
2017-08-03 05:56:030.00m/s81.40%18.60C
2017-08-03 05:57:020.00m/s81.60%18.70C
2017-08-03 06:09:030.00m/s82.10%18.60C
2017-08-03 06:19:030.00m/s82.10%18.60C
2017-08-03 06:20:030.00m/s82.10%18.60C
2017-08-03 05:54:030.00m/s81.60%18.60C
2017-08-03 06:49:034.00m/s83.50%18.60C
2017-08-03 06:31:030.85m/s82.80%18.60C
2017-08-03 06:54:030.06m/s83.90%18.50C
2017-08-03 06:40:040.00m/s82.80%18.60C
2017-08-03 06:46:030.00m/s83.40%18.60C
2017-08-03 07:00:041.64m/s84.40%18.60C
2017-08-03 07:15:030.00m/s84.90%18.60C
2017-08-03 07:03:030.00m/s85.00%18.60C
2017-08-03 07:07:030.00m/s84.60%18.60C
2017-08-03 07:18:034.78m/s85.00%18.60C
2017-08-03 07:41:037.93m/s85.60%18.60C
2017-08-03 07:30:030.06m/s85.40%18.60C
2017-08-03 07:26:030.00m/s85.50%18.60C
2017-08-03 07:34:030.00m/s85.50%18.60C
2017-08-03 07:35:030.00m/s85.40%18.60C
2017-08-03 07:38:021.64m/s85.30%18.60C
2017-08-03 07:44:030.00m/s85.90%18.70C
2017-08-03 07:17:020.00m/s85.00%18.60C
2017-08-03 07:56:032.42m/s85.50%18.70C
2017-08-03 07:59:034.78m/s86.00%18.70C
2017-08-03 07:45:039.50m/s85.90%18.70C
2017-08-03 08:00:033.21m/s85.70%18.70C
2017-08-03 07:55:030.06m/s85.50%18.70C
2017-08-03 08:03:030.85m/s86.20%18.70C
2017-08-03 07:53:030.00m/s85.80%18.70C
2017-08-03 08:05:030.00m/s85.80%18.70C
2017-08-03 08:09:030.00m/s86.10%18.80C
2017-08-03 08:12:034.00m/s85.70%18.80C
2017-08-03 08:21:030.85m/s86.00%18.90C
2017-08-03 08:26:030.06m/s86.40%18.90C
2017-08-03 08:33:030.06m/s86.10%19.00C
2017-08-03 08:11:020.00m/s86.10%18.80C
2017-08-03 08:27:030.00m/s86.10%18.90C
2017-08-03 08:19:030.00m/s86.00%18.80C
2017-08-03 08:22:030.00m/s86.00%18.90C
2017-08-03 08:31:031.64m/s85.90%18.90C
2017-08-03 09:10:0211.07m/s85.80%19.50C
2017-08-03 08:55:0415.00m/s85.90%19.20C
2017-08-03 09:08:025.57m/s85.70%19.40C
2017-08-03 09:18:032.42m/s85.00%19.60C
2017-08-03 09:23:034.00m/s84.70%19.70C
2017-08-03 08:52:030.85m/s85.50%19.10C
2017-08-03 08:46:030.00m/s85.80%19.10C
2017-08-03 09:31:030.00m/s84.50%19.80C
2017-08-03 09:01:030.00m/s85.30%19.30C
2017-08-03 09:39:036.35m/s84.80%19.80C
2017-08-03 09:40:037.93m/s84.80%19.80C
2017-08-03 09:56:035.57m/s84.80%19.80C
2017-08-03 10:02:032.42m/s84.80%19.80C
2017-08-03 10:05:037.93m/s84.80%19.80C
2017-08-03 09:42:030.85m/s84.80%19.80C
2017-08-03 09:57:030.85m/s84.80%19.80C
2017-08-03 10:04:030.85m/s84.80%19.80C
2017-08-03 09:51:050.00m/s85.00%19.80C
2017-08-03 10:33:0414.22m/s86.10%19.80C
2017-08-03 10:11:034.78m/s84.90%19.80C
2017-08-03 10:24:043.21m/s86.10%19.80C
2017-08-03 10:32:038.71m/s86.20%19.80C
2017-08-03 10:19:023.21m/s85.80%19.80C
2017-08-03 10:23:030.06m/s86.00%19.80C
2017-08-03 10:30:031.64m/s86.40%19.80C
2017-08-03 10:31:090.00m/s86.40%19.80C
2017-08-03 10:20:031.64m/s85.80%19.80C
2017-08-03 10:38:033.21m/s87.10%19.80C
2017-08-03 10:42:032.42m/s87.30%19.80C
2017-08-03 10:48:032.42m/s87.30%19.80C
2017-08-03 11:21:032.42m/s88.20%19.80C
2017-08-03 11:22:034.78m/s88.00%19.80C
2017-08-03 11:29:033.21m/s88.70%19.90C
2017-08-03 10:46:040.00m/s87.50%19.80C
2017-08-03 10:47:020.00m/s87.40%19.80C
2017-08-03 11:13:020.00m/s87.80%19.90C
2017-08-03 12:07:0321.30m/s80.70%20.90C
2017-08-03 11:33:0310.29m/s88.60%19.90C
2017-08-03 11:36:0211.86m/s88.90%19.90C
2017-08-03 11:57:033.21m/s84.40%20.50C
2017-08-03 11:32:034.00m/s88.80%19.90C
2017-08-03 11:52:034.00m/s85.70%20.30C
2017-08-03 11:53:037.93m/s85.30%20.30C
2017-08-03 11:49:020.06m/s86.70%20.20C
2017-08-03 11:48:030.00m/s86.80%20.20C
2017-08-03 12:12:0314.22m/s79.20%21.10C
2017-08-03 12:50:0311.07m/s67.50%22.50C
2017-08-03 12:23:035.57m/s75.60%21.50C
2017-08-03 12:34:038.71m/s73.10%21.80C
2017-08-03 12:45:024.78m/s68.90%22.30C
2017-08-03 12:48:037.93m/s66.80%22.50C
2017-08-03 12:10:042.42m/s79.70%21.00C
2017-08-03 12:25:037.93m/s75.50%21.60C
2017-08-03 12:28:020.85m/s74.00%21.70C
2017-08-03 14:58:0318.94m/s47.20%26.50C
2017-08-03 15:20:0214.22m/s46.60%26.90C
2017-08-03 14:56:0311.07m/s48.40%26.40C
2017-08-03 13:14:037.14m/s61.90%23.30C
2017-08-03 15:17:037.14m/s45.50%26.80C
2017-08-03 14:57:034.00m/s48.70%26.50C
2017-08-03 15:26:034.00m/s44.30%26.90C
2017-08-03 13:07:039.50m/s64.10%23.10C
2017-08-03 15:11:030.00m/s45.80%26.60C
2017-08-03 16:15:0312.65m/s43.30%27.00C
2017-08-03 15:43:036.35m/s44.40%26.80C
2017-08-03 15:53:033.21m/s44.50%27.10C
2017-08-03 15:54:028.71m/s44.40%27.10C
2017-08-03 15:56:037.14m/s44.20%27.10C
2017-08-03 16:01:034.78m/s43.40%27.10C
2017-08-03 15:44:020.06m/s44.70%26.90C
2017-08-03 15:45:030.00m/s45.50%26.80C
2017-08-03 16:13:030.00m/s43.00%27.00C
2017-08-03 17:02:0322.87m/s43.90%27.00C
2017-08-03 16:28:0312.65m/s42.90%27.10C
2017-08-03 16:47:0211.86m/s43.40%27.10C
2017-08-03 16:48:0312.65m/s43.40%27.10C
2017-08-03 17:03:037.93m/s43.80%27.00C
2017-08-03 16:39:032.42m/s41.90%27.00C
2017-08-03 16:49:039.50m/s42.80%27.10C
2017-08-03 17:04:032.42m/s43.70%27.10C
2017-08-03 17:13:030.85m/s43.20%26.90C
2017-08-03 17:30:0313.43m/s44.30%26.70C
2017-08-03 17:31:0311.07m/s44.30%26.70C
2017-08-03 17:50:0410.29m/s43.70%26.40C
2017-08-03 17:57:0314.22m/s43.30%26.30C
2017-08-03 17:15:037.93m/s43.70%26.90C
2017-08-03 17:18:036.35m/s44.00%26.90C
2017-08-03 17:19:039.50m/s43.50%26.90C
2017-08-03 17:29:030.06m/s43.90%26.70C
2017-08-03 17:25:031.64m/s43.80%26.80C
2017-08-03 18:17:0219.72m/s43.70%26.00C
2017-08-03 18:27:0316.58m/s44.90%25.90C
2017-08-03 18:06:0314.22m/s42.30%26.10C
2017-08-03 18:31:0311.07m/s44.20%25.80C
2017-08-03 18:01:036.35m/s44.00%26.30C
2017-08-03 18:12:033.21m/s44.10%26.00C
2017-08-03 18:21:027.14m/s44.30%25.90C
2017-08-03 18:22:037.14m/s44.70%25.90C
2017-08-03 18:34:036.35m/s44.00%25.70C
2017-08-03 19:31:0322.08m/s44.90%24.70C
2017-08-03 18:56:0310.29m/s44.50%25.40C
2017-08-03 19:24:0310.29m/s45.60%24.80C
2017-08-03 18:51:023.21m/s44.50%25.40C
2017-08-03 19:08:036.35m/s45.50%24.90C
2017-08-03 19:12:029.50m/s45.60%25.00C
2017-08-03 18:44:034.00m/s43.90%25.50C
2017-08-03 19:30:046.35m/s44.70%24.70C
2017-08-03 18:52:031.64m/s44.40%25.50C
2017-08-03 19:44:0315.00m/s45.30%24.40C
2017-08-03 19:41:036.35m/s45.10%24.40C
2017-08-03 19:48:037.93m/s45.60%24.30C
2017-08-03 19:59:033.21m/s46.30%24.10C
2017-08-03 20:02:038.71m/s46.50%24.10C
2017-08-03 19:39:039.50m/s45.80%24.50C
2017-08-03 19:42:024.00m/s44.40%24.40C
2017-08-03 20:08:030.00m/s46.60%23.90C
2017-08-03 20:11:030.06m/s46.90%23.90C
2017-08-03 20:36:032.42m/s48.30%23.50C
2017-08-03 20:38:034.00m/s48.60%23.40C
2017-08-03 20:41:034.00m/s48.70%23.40C
2017-08-03 21:06:034.78m/s50.10%23.10C
2017-08-03 21:08:034.00m/s50.00%23.00C
2017-08-03 20:32:031.64m/s48.40%23.70C
2017-08-03 20:23:030.00m/s47.90%23.80C
2017-08-03 20:28:030.00m/s47.90%23.70C
2017-08-03 20:55:030.00m/s49.30%23.30C
2017-08-03 21:10:033.21m/s50.40%23.00C
2017-08-03 21:55:028.71m/s52.10%22.20C
2017-08-03 22:01:028.71m/s52.60%22.20C
2017-08-03 21:34:035.57m/s51.00%22.60C
2017-08-03 21:26:032.42m/s50.80%22.80C
2017-08-03 21:38:032.42m/s51.50%22.50C
2017-08-03 21:39:031.64m/s51.60%22.50C
2017-08-03 21:25:030.00m/s51.20%22.80C
2017-08-03 21:28:030.00m/s51.20%22.70C
2017-08-03 22:08:0312.65m/s53.20%22.20C
2017-08-03 22:02:029.50m/s52.70%22.20C
2017-08-03 22:10:030.85m/s52.90%22.10C
2017-08-03 22:03:030.00m/s52.90%22.20C
2017-08-03 22:12:030.00m/s53.30%22.10C
2017-08-03 22:16:020.00m/s53.50%22.10C
2017-08-03 22:17:030.00m/s53.70%22.10C
2017-08-03 22:30:040.00m/s54.30%21.90C
2017-08-03 22:24:030.00m/s54.40%22.00C
2017-08-03 22:56:0314.22m/s55.40%21.60C
2017-08-03 22:39:028.71m/s54.50%21.80C
2017-08-03 22:42:026.35m/s54.50%21.80C
2017-08-03 22:59:035.57m/s55.60%21.50C
2017-08-03 23:01:032.42m/s56.20%21.50C
2017-08-03 22:52:030.00m/s55.30%21.70C
2017-08-03 23:08:020.00m/s56.70%21.40C
2017-08-03 23:11:020.00m/s56.80%21.40C
2017-08-03 23:16:030.00m/s57.30%21.40C
2017-08-03 23:30:033.21m/s58.00%21.30C
2017-08-03 23:35:023.21m/s58.30%21.20C
2017-08-03 23:56:023.21m/s59.50%20.90C
2017-08-03 23:41:034.00m/s58.80%21.10C
2017-08-03 23:58:031.64m/s59.50%20.90C
2017-08-03 23:37:030.00m/s58.30%21.10C
2017-08-03 23:42:030.00m/s58.80%21.10C
2017-08-03 23:28:030.00m/s58.00%21.30C
2017-08-03 23:31:030.00m/s58.20%21.20C
2017-08-04 00:20:023.21m/s60.00%20.60C
2017-08-04 00:21:062.42m/s59.90%20.60C
2017-08-04 00:25:042.42m/s60.20%20.50C
2017-08-04 00:07:027.14m/s59.80%20.80C
2017-08-04 00:30:033.21m/s60.50%20.50C
2017-08-04 00:29:022.42m/s60.50%20.50C
2017-08-04 00:13:020.85m/s59.90%20.70C
2017-08-04 00:51:030.85m/s61.50%20.20C
2017-08-04 00:41:030.00m/s61.20%20.40C
2017-08-04 01:04:037.93m/s61.90%20.10C
2017-08-04 01:03:032.42m/s62.00%20.10C
2017-08-04 01:10:037.14m/s62.00%20.00C
2017-08-04 01:32:023.21m/s62.80%19.80C
2017-08-04 01:12:020.06m/s62.30%19.90C
2017-08-04 01:16:030.85m/s62.50%19.90C
2017-08-04 01:18:030.85m/s62.60%19.90C
2017-08-04 01:34:030.00m/s62.90%19.80C
2017-08-04 01:05:030.00m/s62.00%20.00C
2017-08-04 01:44:038.71m/s63.10%19.60C
2017-08-04 01:48:027.14m/s63.30%19.60C
2017-08-04 01:53:037.93m/s63.50%19.60C
2017-08-04 01:52:030.06m/s63.10%19.60C
2017-08-04 02:06:030.85m/s63.80%19.40C
2017-08-04 01:57:030.00m/s63.30%19.50C
2017-08-04 01:58:030.00m/s63.60%19.50C
2017-08-04 02:11:030.00m/s63.60%19.40C
2017-08-04 02:15:031.64m/s64.10%19.40C
2017-08-04 02:50:033.21m/s65.00%19.00C
2017-08-04 02:18:031.64m/s64.20%19.40C
2017-08-04 02:34:020.00m/s64.60%19.20C
2017-08-04 02:49:031.64m/s65.00%19.10C
2017-08-04 02:32:020.85m/s64.20%19.20C
2017-08-04 02:53:030.06m/s65.00%19.00C
2017-08-04 02:25:030.00m/s64.30%19.30C
2017-08-04 02:47:020.00m/s65.00%19.10C
2017-08-04 02:55:030.00m/s65.00%19.00C
2017-08-04 03:26:034.78m/s65.50%18.70C
2017-08-04 03:29:032.42m/s65.70%18.70C
2017-08-04 03:10:030.85m/s65.50%18.90C
2017-08-04 03:38:030.06m/s65.70%18.60C
2017-08-04 03:39:020.00m/s66.10%18.70C
2017-08-04 03:42:030.00m/s66.10%18.60C
2017-08-04 03:45:030.00m/s66.20%18.60C
2017-08-04 03:03:030.00m/s64.90%18.90C
2017-08-04 03:34:030.00m/s66.00%18.60C
2017-08-04 04:24:0310.29m/s68.10%18.30C
2017-08-04 03:48:022.42m/s66.00%18.60C
2017-08-04 03:53:033.21m/s66.20%18.50C
2017-08-04 04:01:035.57m/s66.90%18.50C
2017-08-04 03:50:040.06m/s66.20%18.60C
2017-08-04 03:47:020.00m/s66.50%18.60C
2017-08-04 03:54:030.00m/s66.30%18.50C
2017-08-04 04:15:040.00m/s67.50%18.30C
2017-08-04 03:55:040.00m/s66.50%18.50C
2017-08-04 04:37:0311.86m/s68.70%18.20C
2017-08-04 04:29:035.57m/s68.40%18.20C
2017-08-04 04:33:033.21m/s68.70%18.20C
2017-08-04 04:45:023.21m/s69.30%18.10C
2017-08-04 04:55:034.00m/s69.70%18.10C
2017-08-04 04:57:032.42m/s70.00%18.00C
2017-08-04 04:56:030.85m/s70.00%18.10C
2017-08-04 05:00:041.64m/s70.00%18.10C
2017-08-04 04:28:031.64m/s68.20%18.20C
2017-08-04 05:47:034.78m/s71.20%17.80C
2017-08-04 05:52:034.78m/s71.10%17.80C
2017-08-04 05:32:034.00m/s70.80%17.90C
2017-08-04 05:02:020.85m/s70.30%18.00C
2017-08-04 05:58:020.00m/s71.10%17.80C
2017-08-04 06:00:040.00m/s71.20%17.80C
2017-08-04 06:01:031.64m/s71.30%17.80C
2017-08-04 05:08:030.00m/s70.50%18.00C
2017-08-04 05:16:030.00m/s70.50%18.00C
2017-08-04 06:07:0211.07m/s71.30%17.80C
2017-08-04 06:03:036.35m/s71.30%17.80C
2017-08-04 06:06:038.71m/s71.40%17.80C
2017-08-04 06:08:034.78m/s71.70%17.80C
2017-08-04 06:16:036.35m/s71.50%17.80C
2017-08-04 06:24:036.35m/s72.00%17.80C
2017-08-04 06:05:030.06m/s71.50%17.80C
2017-08-04 06:09:040.06m/s71.50%17.80C
2017-08-04 06:04:030.00m/s71.50%17.80C
2017-08-04 06:28:033.21m/s71.90%17.80C
2017-08-04 06:52:026.35m/s72.40%17.70C
2017-08-04 07:02:032.42m/s72.60%17.70C
2017-08-04 06:38:037.93m/s72.00%17.70C
2017-08-04 06:27:037.14m/s71.80%17.80C
2017-08-04 07:00:040.06m/s72.40%17.70C
2017-08-04 06:49:030.00m/s72.20%17.70C
2017-08-04 07:12:030.00m/s72.60%17.70C
2017-08-04 06:42:030.00m/s72.00%17.70C
2017-08-04 07:23:0316.58m/s73.00%17.70C
2017-08-04 07:14:0310.29m/s72.70%17.70C
2017-08-04 07:39:034.78m/s73.40%17.80C
2017-08-04 07:13:034.78m/s72.70%17.70C
2017-08-04 07:19:024.00m/s73.00%17.70C
2017-08-04 07:43:030.06m/s73.30%17.80C
2017-08-04 07:57:030.85m/s74.00%17.90C
2017-08-04 07:16:030.00m/s72.90%17.70C
2017-08-04 07:20:030.00m/s73.00%17.70C
2017-08-04 08:02:0311.86m/s74.50%17.90C
2017-08-04 08:20:0311.86m/s74.60%17.90C
2017-08-04 10:00:0311.07m/s75.50%18.70C
2017-08-04 08:08:032.42m/s74.50%17.90C
2017-08-04 09:49:036.35m/s75.90%18.60C
2017-08-04 09:56:037.93m/s75.50%18.60C
2017-08-04 10:03:030.06m/s75.40%18.70C
2017-08-04 08:04:021.64m/s74.50%17.90C
2017-08-04 08:15:030.00m/s74.90%17.90C
2017-08-04 10:19:0311.07m/s75.30%18.80C
2017-08-04 10:17:034.78m/s75.20%18.80C
2017-08-04 10:43:033.21m/s76.40%18.90C
2017-08-04 11:10:034.78m/s75.30%19.00C
2017-08-04 10:20:024.00m/s75.30%18.80C
2017-08-04 10:11:031.64m/s75.00%18.80C
2017-08-04 10:15:040.00m/s75.20%18.80C
2017-08-04 10:46:031.64m/s76.30%18.90C
2017-08-04 11:04:021.64m/s75.50%19.00C
2017-08-04 11:23:0315.00m/s74.70%19.40C
2017-08-04 11:20:032.42m/s74.90%19.30C
2017-08-04 11:43:035.57m/s69.70%20.30C
2017-08-04 11:45:037.93m/s69.60%20.40C
2017-08-04 12:01:038.71m/s62.70%21.20C
2017-08-04 11:50:034.00m/s66.10%20.60C
2017-08-04 11:12:025.57m/s75.10%19.10C
2017-08-04 11:27:021.64m/s74.20%19.60C
2017-08-04 11:14:030.00m/s75.10%19.10C
2017-08-04 12:58:0310.29m/s55.90%23.30C
2017-08-04 12:50:034.00m/s57.80%23.10C
2017-08-04 12:39:036.35m/s58.80%22.80C
2017-08-04 12:13:020.85m/s61.00%21.90C
2017-08-04 12:29:031.64m/s59.40%22.70C
2017-08-04 12:40:040.85m/s58.40%22.90C
2017-08-04 12:04:030.00m/s62.60%21.40C
2017-08-04 12:37:030.00m/s58.90%22.80C
2017-08-04 12:26:031.64m/s58.60%22.60C
2017-08-04 13:19:0317.36m/s54.70%24.00C
2017-08-04 13:22:0315.79m/s54.70%24.10C
2017-08-04 13:06:037.14m/s55.30%23.50C
2017-08-04 13:34:034.78m/s53.00%24.50C
2017-08-04 13:04:032.42m/s55.00%23.40C
2017-08-04 13:30:032.42m/s53.70%24.40C
2017-08-04 13:28:035.57m/s53.30%24.30C
2017-08-04 13:11:030.00m/s54.70%23.60C
2017-08-04 13:24:030.00m/s53.20%24.10C
2017-08-04 13:35:0318.15m/s53.50%24.60C
2017-08-04 13:52:0316.58m/s51.30%25.10C
2017-08-04 14:08:0311.07m/s50.00%25.50C
2017-08-04 13:46:038.71m/s51.00%24.90C
2017-08-04 14:03:034.78m/s51.20%25.40C
2017-08-04 14:10:055.57m/s49.80%25.50C
2017-08-04 13:42:035.57m/s52.50%24.90C
2017-08-04 14:01:035.57m/s51.10%25.30C
2017-08-04 13:37:030.06m/s52.90%24.60C
2017-08-04 14:15:025.57m/s49.00%25.50C
2017-08-04 14:24:047.14m/s49.20%25.50C
2017-08-04 14:31:046.35m/s49.90%25.50C
2017-08-04 14:41:033.21m/s51.10%25.70C
2017-08-04 14:44:037.14m/s51.20%25.70C
2017-08-04 14:25:034.78m/s48.90%25.60C
2017-08-04 14:29:034.00m/s49.50%25.50C
2017-08-04 14:35:030.00m/s49.90%25.60C
2017-08-04 14:43:040.00m/s51.10%25.70C
2017-08-04 15:07:033.21m/s51.00%25.70C
2017-08-04 14:52:030.85m/s51.40%25.70C
2017-08-04 14:54:031.64m/s50.60%25.70C
2017-08-04 14:57:040.85m/s51.00%25.70C
2017-08-04 15:05:030.85m/s51.10%25.70C
2017-08-04 14:49:050.00m/s51.40%25.70C
2017-08-04 15:10:030.00m/s49.80%25.60C
2017-08-04 14:48:030.85m/s50.70%25.70C
2017-08-04 15:19:031.64m/s50.50%25.50C
2017-08-04 15:45:0318.94m/s51.20%25.50C
2017-08-04 15:50:0213.43m/s51.20%25.50C
2017-08-04 15:20:034.78m/s50.70%25.50C
2017-08-04 15:22:030.06m/s51.20%25.50C
2017-08-04 15:32:030.06m/s51.30%25.60C
2017-08-04 15:38:031.64m/s51.40%25.50C
2017-08-04 15:47:030.85m/s51.40%25.50C
2017-08-04 15:31:030.00m/s51.30%25.60C
2017-08-04 15:51:020.00m/s51.30%25.50C
2017-08-04 16:10:0310.29m/s52.40%25.30C
2017-08-04 16:59:0315.00m/s49.00%25.30C
2017-08-04 16:50:038.71m/s50.70%25.30C
2017-08-04 16:33:034.00m/s53.40%25.30C
2017-08-04 15:57:030.85m/s51.50%25.40C
2017-08-04 16:27:021.64m/s53.10%25.30C
2017-08-04 15:58:030.00m/s51.20%25.40C
2017-08-04 16:15:030.00m/s52.00%25.30C
2017-08-04 16:25:030.00m/s53.00%25.30C
2017-08-04 17:18:033.21m/s46.30%25.80C
2017-08-04 17:25:036.35m/s46.00%25.80C
2017-08-04 17:07:032.42m/s48.00%25.50C
2017-08-04 17:30:032.42m/s46.40%25.90C
2017-08-04 17:02:030.06m/s47.80%25.30C
2017-08-04 17:08:031.64m/s47.80%25.50C
2017-08-04 17:12:030.06m/s47.90%25.60C
2017-08-04 17:36:030.06m/s46.40%26.00C
2017-08-04 17:22:030.00m/s46.00%25.80C
2017-08-04 17:54:033.21m/s45.10%26.30C
2017-08-04 18:14:034.00m/s45.20%26.40C
2017-08-04 17:46:031.64m/s45.00%26.20C
2017-08-04 17:51:031.64m/s45.60%26.30C
2017-08-04 17:58:031.64m/s45.70%26.40C
2017-08-04 18:01:030.06m/s46.00%26.40C
2017-08-04 18:06:030.06m/s45.20%26.40C
2017-08-04 17:49:030.00m/s45.30%26.30C
2017-08-04 18:16:030.00m/s45.40%26.40C
2017-08-04 18:28:0210.29m/s46.20%26.30C
2017-08-04 18:24:039.50m/s45.80%26.30C
2017-08-04 18:17:031.64m/s45.80%26.40C
2017-08-04 18:41:031.64m/s46.00%26.10C
2017-08-04 18:23:030.00m/s46.10%26.30C
2017-08-04 18:43:030.00m/s46.50%26.10C
2017-08-04 19:03:030.00m/s47.40%25.80C
2017-08-04 19:00:030.00m/s46.90%25.90C
2017-08-04 18:37:020.00m/s46.20%26.20C
2017-08-04 19:04:0312.65m/s46.60%25.80C
2017-08-04 19:13:031.64m/s47.00%25.60C
2017-08-04 19:32:031.64m/s48.50%25.30C
2017-08-04 19:47:030.06m/s49.80%25.10C
2017-08-04 19:30:030.00m/s48.10%25.30C
2017-08-04 19:48:030.00m/s49.90%25.10C
2017-08-04 19:29:030.00m/s48.00%25.40C
2017-08-04 19:38:020.00m/s49.00%25.20C
2017-08-04 19:52:030.00m/s50.70%25.00C
2017-08-04 20:31:038.71m/s51.90%24.30C
2017-08-04 20:35:032.42m/s51.70%24.20C
2017-08-04 19:53:030.06m/s50.10%25.00C
2017-08-04 19:56:080.06m/s50.10%24.90C
2017-08-04 20:00:030.00m/s50.30%24.90C
2017-08-04 20:06:030.00m/s50.20%24.80C
2017-08-04 20:11:030.00m/s50.50%24.60C
2017-08-04 20:20:030.00m/s51.10%24.50C
2017-08-04 19:54:030.00m/s50.60%25.00C
2017-08-04 20:53:037.14m/s51.00%23.90C
2017-08-04 21:03:030.06m/s51.00%23.70C
2017-08-04 20:51:030.00m/s51.60%23.90C
2017-08-04 21:01:030.00m/s50.80%23.70C
2017-08-04 21:14:030.00m/s51.70%23.40C
2017-08-04 21:16:030.00m/s51.40%23.30C
2017-08-04 21:22:040.00m/s51.70%23.20C
2017-08-04 20:43:030.85m/s52.10%24.10C
2017-08-04 21:05:030.00m/s51.00%23.60C
2017-08-04 21:35:031.64m/s52.30%22.90C
2017-08-04 21:43:030.00m/s52.60%22.70C
2017-08-04 21:47:030.00m/s52.80%22.60C
2017-08-04 22:10:040.00m/s53.60%22.20C
2017-08-04 22:14:030.00m/s53.90%22.10C
2017-08-04 22:15:030.00m/s53.90%22.10C
2017-08-04 21:28:030.00m/s52.20%23.00C
2017-08-04 21:50:030.00m/s53.00%22.60C
2017-08-04 22:16:030.00m/s54.10%22.10C
2017-08-04 22:24:030.06m/s54.60%21.90C
2017-08-04 22:30:030.00m/s54.50%21.80C
2017-08-04 22:31:030.00m/s54.50%21.80C
2017-08-04 22:35:030.00m/s54.50%21.70C
2017-08-04 22:37:030.00m/s54.50%21.70C
2017-08-04 22:20:030.00m/s54.40%22.00C
2017-08-04 22:22:030.00m/s54.40%22.00C
2017-08-04 22:38:030.00m/s54.70%21.70C
2017-08-04 22:19:030.00m/s54.00%22.00C
2017-08-04 23:10:030.06m/s56.80%21.10C
2017-08-04 22:44:020.00m/s55.10%21.60C
2017-08-04 22:52:030.00m/s55.70%21.40C
2017-08-04 23:04:020.00m/s56.50%21.20C
2017-08-04 23:08:030.00m/s56.60%21.10C
2017-08-04 22:41:030.00m/s55.00%21.60C
2017-08-04 22:50:030.00m/s55.40%21.40C
2017-08-04 22:58:020.00m/s56.30%21.30C
2017-08-04 23:00:030.00m/s56.00%21.30C
2017-08-04 23:24:030.00m/s57.60%20.90C
2017-08-04 23:31:030.00m/s58.20%20.80C
2017-08-04 23:33:030.00m/s58.20%20.80C
2017-08-04 23:34:030.00m/s58.30%20.80C
2017-08-04 23:37:030.00m/s58.60%20.70C
2017-08-04 23:38:030.00m/s58.60%20.70C
2017-08-04 23:40:040.00m/s58.40%20.70C
2017-08-04 23:41:030.00m/s58.60%20.70C
2017-08-04 23:44:030.00m/s58.80%20.60C
2017-08-04 23:46:030.00m/s58.80%20.60C
2017-08-04 23:47:020.00m/s58.90%20.60C
2017-08-04 23:58:030.00m/s59.70%20.40C
2017-08-05 00:00:040.00m/s59.70%20.40C
2017-08-05 00:01:030.00m/s59.70%20.40C
2017-08-05 00:02:020.00m/s59.70%20.40C
2017-08-05 00:19:030.00m/s60.60%20.20C
2017-08-05 00:21:030.00m/s60.80%20.20C
2017-08-05 00:25:030.00m/s61.00%20.10C
2017-08-05 00:35:030.00m/s61.20%19.90C
2017-08-05 00:41:030.00m/s61.50%19.90C
2017-08-05 00:43:030.00m/s61.30%19.80C
2017-08-05 00:48:030.00m/s61.60%19.80C
2017-08-05 00:50:040.00m/s61.70%19.80C
2017-08-05 00:28:030.00m/s60.70%20.00C
2017-08-05 00:31:030.00m/s60.90%20.00C
2017-08-05 00:29:030.00m/s61.00%20.00C
2017-08-05 00:34:030.00m/s61.00%20.00C
2017-08-05 01:04:030.00m/s62.40%19.60C
2017-08-05 01:07:030.00m/s62.30%19.50C
2017-08-05 01:09:030.00m/s62.20%19.50C
2017-08-05 01:11:030.00m/s62.30%19.50C
2017-08-05 01:17:030.00m/s62.70%19.40C
2017-08-05 01:23:040.00m/s62.90%19.40C
2017-08-05 01:29:030.00m/s63.20%19.30C
2017-08-05 01:32:030.00m/s63.40%19.30C
2017-08-05 01:22:020.00m/s63.00%19.40C
2017-08-05 01:37:030.00m/s63.70%19.20C
2017-08-05 01:41:030.00m/s63.60%19.20C
2017-08-05 01:42:020.00m/s63.40%19.20C
2017-08-05 01:48:020.00m/s63.80%19.10C
2017-08-05 02:03:030.00m/s64.50%18.90C
2017-08-05 02:11:030.00m/s64.70%18.90C
2017-08-05 02:13:030.00m/s64.10%18.80C
2017-08-05 01:53:030.00m/s63.70%19.00C
2017-08-05 02:00:040.00m/s64.00%19.00C
2017-08-05 02:16:020.00m/s64.70%18.80C
2017-08-05 02:49:030.00m/s64.70%18.60C
2017-08-05 02:50:030.00m/s64.90%18.60C
2017-08-05 02:59:030.00m/s65.10%18.50C
2017-08-05 02:25:040.00m/s64.80%18.80C
2017-08-05 02:32:020.00m/s64.70%18.70C
2017-08-05 02:35:030.00m/s64.70%18.70C
2017-08-05 02:36:030.00m/s64.70%18.70C
2017-08-05 02:42:030.00m/s64.60%18.60C
2017-08-05 03:02:030.00m/s65.70%18.50C
2017-08-05 03:12:030.00m/s65.80%18.40C
2017-08-05 05:11:020.00m/s68.90%17.80C
2017-08-05 05:16:030.00m/s69.10%17.80C
2017-08-05 05:17:030.00m/s69.40%17.80C
2017-08-05 05:18:030.00m/s69.30%17.70C
2017-08-05 05:24:030.00m/s69.50%17.70C
2017-08-05 03:03:030.00m/s66.00%18.40C
2017-08-05 04:50:020.00m/s67.00%18.10C
2017-08-05 05:27:030.00m/s69.50%17.70C
2017-08-05 05:34:020.00m/s69.50%17.70C
2017-08-05 05:39:030.00m/s69.80%17.70C
2017-08-05 05:51:030.00m/s69.80%17.70C
2017-08-05 05:57:030.00m/s69.90%17.70C
2017-08-05 06:01:030.00m/s70.10%17.60C
2017-08-05 06:07:030.00m/s70.10%17.60C
2017-08-05 06:09:030.00m/s70.10%17.60C
2017-08-05 06:13:030.00m/s70.10%17.60C
2017-08-05 06:17:030.06m/s70.10%17.60C
2017-08-05 06:30:040.06m/s70.10%17.60C
2017-08-05 06:15:030.00m/s70.10%17.60C
2017-08-05 06:18:030.00m/s70.10%17.60C
2017-08-05 06:19:030.00m/s70.10%17.60C
2017-08-05 06:20:030.00m/s70.10%17.60C
2017-08-05 06:35:040.00m/s70.30%17.60C
2017-08-05 06:36:030.00m/s70.40%17.60C
2017-08-05 06:37:030.00m/s70.20%17.60C
2017-08-05 06:55:030.85m/s70.50%17.60C
2017-08-05 07:15:050.06m/s70.90%17.60C
2017-08-05 06:41:030.00m/s70.30%17.60C
2017-08-05 06:42:030.00m/s70.30%17.60C
2017-08-05 07:04:030.00m/s70.80%17.60C
2017-08-05 07:08:030.00m/s70.90%17.60C
2017-08-05 07:11:030.00m/s70.90%17.60C
2017-08-05 07:00:040.00m/s70.60%17.60C
2017-08-05 07:09:030.00m/s71.00%17.60C
2017-08-05 07:46:033.21m/s71.70%17.60C
2017-08-05 08:03:030.85m/s71.60%17.70C
2017-08-05 07:36:030.00m/s71.30%17.60C
2017-08-05 07:40:030.00m/s71.30%17.60C
2017-08-05 07:51:030.00m/s71.80%17.60C
2017-08-05 07:52:030.00m/s71.70%17.60C
2017-08-05 07:53:030.00m/s71.70%17.60C
2017-08-05 07:21:030.00m/s71.00%17.60C
2017-08-05 07:26:030.00m/s71.00%17.60C
2017-08-05 08:15:030.00m/s71.90%17.70C
2017-08-05 08:23:030.00m/s72.10%17.80C
2017-08-05 08:39:030.00m/s72.20%17.90C
2017-08-05 08:10:040.00m/s72.00%17.70C
2017-08-05 08:19:020.00m/s72.00%17.70C
2017-08-05 08:22:030.00m/s72.00%17.70C
2017-08-05 08:28:030.00m/s72.00%17.80C
2017-08-05 08:51:030.00m/s72.70%18.00C
2017-08-05 08:52:030.00m/s72.60%18.00C
2017-08-05 09:21:022.42m/s74.00%18.10C
2017-08-05 09:23:025.57m/s74.00%18.20C
2017-08-05 09:13:030.85m/s73.70%18.10C
2017-08-05 09:36:030.00m/s74.80%18.30C
2017-08-05 09:42:031.64m/s74.50%18.40C
2017-08-05 08:59:030.00m/s72.70%18.00C
2017-08-05 09:01:030.00m/s72.80%18.00C
2017-08-05 09:04:030.00m/s72.90%18.00C
2017-08-05 09:29:031.64m/s74.20%18.20C
2017-08-05 09:44:033.21m/s74.40%18.50C
2017-08-05 09:56:030.85m/s74.30%18.90C
2017-08-05 09:47:030.00m/s74.40%18.60C
2017-08-05 10:15:030.00m/s73.40%19.30C
2017-08-05 10:24:030.00m/s73.30%19.40C
2017-08-05 10:03:030.00m/s73.80%19.00C
2017-08-05 10:04:030.00m/s73.70%19.00C
2017-08-05 10:16:020.00m/s73.30%19.30C
2017-08-05 10:23:030.00m/s73.40%19.40C
2017-08-05 10:47:036.35m/s72.30%19.90C
2017-08-05 10:31:030.06m/s73.00%19.60C
2017-08-05 10:58:030.06m/s72.40%20.00C
2017-08-05 10:26:020.00m/s73.20%19.40C
2017-08-05 10:27:030.00m/s73.30%19.50C
2017-08-05 10:28:030.00m/s73.30%19.50C
2017-08-05 10:46:020.00m/s72.60%19.90C
2017-08-05 10:51:030.00m/s72.30%19.90C
2017-08-05 10:55:020.00m/s72.40%20.00C
2017-08-05 11:22:030.85m/s73.10%20.20C
2017-08-05 11:53:030.06m/s75.50%20.00C
2017-08-05 11:02:030.00m/s72.40%20.10C
2017-08-05 11:03:030.00m/s72.40%20.10C
2017-08-05 11:18:030.00m/s72.50%20.20C
2017-08-05 11:28:030.00m/s73.50%20.20C
2017-08-05 11:34:020.00m/s73.60%20.10C
2017-08-05 11:47:020.00m/s74.70%20.00C
2017-08-05 11:50:030.00m/s75.20%20.00C
2017-08-05 12:20:030.06m/s76.70%19.90C
2017-08-05 12:39:031.64m/s78.70%20.00C
2017-08-05 12:09:030.00m/s75.20%19.90C
2017-08-05 12:23:030.00m/s78.50%19.90C
2017-08-05 12:25:030.00m/s77.30%19.90C
2017-08-05 12:55:030.00m/s79.40%19.90C
2017-08-05 12:05:030.00m/s74.90%19.90C
2017-08-05 11:54:020.00m/s75.30%20.00C
2017-08-05 12:30:020.00m/s77.90%20.00C
2017-08-05 13:35:030.00m/s78.80%20.10C
2017-08-05 13:57:030.00m/s78.80%20.10C
2017-08-05 14:01:030.00m/s78.70%20.10C
2017-08-05 13:11:020.00m/s79.50%20.00C
2017-08-05 13:12:030.00m/s79.50%20.00C
2017-08-05 13:16:030.00m/s78.70%20.00C
2017-08-05 13:19:030.00m/s78.70%20.00C
2017-08-05 13:28:030.00m/s78.70%20.00C
2017-08-05 13:32:020.00m/s79.00%20.00C
2017-08-05 14:15:030.85m/s78.50%20.10C
2017-08-05 14:02:020.00m/s78.80%20.10C
2017-08-05 14:04:020.00m/s78.80%20.10C
2017-08-05 14:06:020.00m/s78.60%20.10C
2017-08-05 14:09:030.00m/s78.30%20.10C
2017-08-05 14:18:030.00m/s78.40%20.10C
2017-08-05 14:47:030.00m/s77.50%20.30C
2017-08-05 14:50:030.00m/s77.40%20.30C
2017-08-05 14:43:030.00m/s78.00%20.30C
2017-08-05 15:40:032.42m/s69.00%22.20C
2017-08-05 15:10:030.85m/s74.30%20.90C
2017-08-05 15:21:030.85m/s72.50%21.40C
2017-08-05 15:26:030.85m/s72.30%21.60C
2017-08-05 14:55:030.00m/s76.80%20.40C
2017-08-05 14:59:030.00m/s75.90%20.50C
2017-08-05 15:24:020.00m/s72.50%21.60C
2017-08-05 15:29:030.00m/s71.60%21.70C
2017-08-05 14:57:030.00m/s76.50%20.50C
2017-08-05 15:41:032.42m/s69.30%22.20C
2017-08-05 15:42:022.42m/s68.90%22.30C
2017-08-05 15:59:027.93m/s66.10%23.10C
2017-08-05 15:48:020.00m/s68.40%22.60C
2017-08-05 16:05:020.00m/s65.20%23.30C
2017-08-05 16:07:030.00m/s64.60%23.40C
2017-08-05 16:12:030.00m/s63.40%23.70C
2017-08-05 16:14:030.00m/s63.40%23.80C
2017-08-05 16:01:030.00m/s65.20%23.20C
2017-08-05 16:39:020.06m/s58.80%24.70C
2017-08-05 16:53:031.64m/s57.40%25.00C
2017-08-05 16:15:030.00m/s62.90%23.80C
2017-08-05 16:16:020.00m/s62.90%23.80C
2017-08-05 16:30:030.00m/s60.90%24.40C
2017-08-05 16:40:030.00m/s58.70%24.80C
2017-08-05 16:48:030.00m/s57.30%24.90C
2017-08-05 17:00:030.00m/s57.50%25.10C
2017-08-05 16:19:030.06m/s62.90%23.90C
2017-08-05 17:02:030.06m/s57.30%25.10C
2017-08-05 17:12:030.85m/s56.40%25.10C
2017-08-05 17:14:020.00m/s56.30%25.10C
2017-08-05 17:17:030.00m/s55.80%25.10C
2017-08-05 17:46:030.00m/s55.20%25.10C
2017-08-05 17:35:030.06m/s55.10%25.10C
2017-08-05 17:40:030.00m/s55.00%25.10C
2017-08-05 17:41:030.00m/s55.00%25.10C
2017-08-05 17:57:030.00m/s54.50%25.00C
2017-08-05 18:16:024.78m/s53.70%24.90C
2017-08-05 18:07:030.00m/s53.80%24.90C
2017-08-05 18:11:030.00m/s53.70%24.90C
2017-08-05 18:14:020.00m/s54.10%24.90C
2017-08-05 18:24:030.00m/s54.30%24.90C
2017-08-05 18:25:030.00m/s54.60%24.80C
2017-08-05 18:29:020.00m/s54.50%24.80C
2017-08-05 18:30:030.00m/s54.60%24.80C
2017-08-05 18:35:030.00m/s54.40%24.80C
2017-08-05 18:44:035.57m/s53.90%24.60C
2017-08-05 19:20:035.57m/s54.00%24.10C
2017-08-05 19:15:027.14m/s54.20%24.20C
2017-08-05 19:12:030.85m/s54.50%24.20C
2017-08-05 19:25:030.85m/s54.50%24.00C
2017-08-05 18:37:030.00m/s54.30%24.80C
2017-08-05 19:22:020.00m/s53.90%24.10C
2017-08-05 19:23:030.00m/s54.20%24.00C
2017-08-05 19:24:030.00m/s54.00%24.00C
2017-08-05 19:59:020.06m/s54.60%23.40C
2017-08-05 19:35:030.00m/s54.50%23.80C
2017-08-05 19:53:020.00m/s54.90%23.50C
2017-08-05 20:02:030.00m/s54.90%23.30C
2017-08-05 20:03:030.00m/s54.80%23.30C
2017-08-05 20:08:030.00m/s54.90%23.20C
2017-08-05 19:27:031.64m/s54.00%24.00C
2017-08-05 19:41:030.00m/s55.00%23.80C
2017-08-05 20:19:030.00m/s55.60%23.00C
2017-08-05 20:32:037.93m/s55.40%22.70C
2017-08-05 20:23:032.42m/s55.50%22.90C
2017-08-05 20:40:037.93m/s55.40%22.40C
2017-08-05 20:21:031.64m/s55.50%22.90C
2017-08-05 20:30:030.06m/s55.40%22.70C
2017-08-05 20:28:030.00m/s55.40%22.70C
2017-08-05 20:37:030.00m/s55.20%22.50C
2017-08-05 20:45:030.00m/s56.10%22.20C
2017-08-05 20:46:030.00m/s56.00%22.20C
2017-08-05 20:48:024.78m/s56.20%22.20C
2017-08-05 20:55:021.64m/s56.90%22.10C
2017-08-05 21:12:030.00m/s58.30%21.80C
2017-08-05 21:18:030.00m/s58.60%21.70C
2017-08-05 21:19:030.00m/s58.70%21.60C
2017-08-05 21:27:020.00m/s59.30%21.50C
2017-08-05 20:56:030.00m/s56.90%22.00C
2017-08-05 20:58:030.00m/s57.60%22.00C
2017-08-05 21:06:030.00m/s58.00%21.90C
2017-08-05 21:34:030.06m/s59.80%21.40C
2017-08-05 21:47:030.06m/s60.60%21.10C
2017-08-05 21:31:030.00m/s59.60%21.40C
2017-08-05 21:40:030.00m/s60.50%21.30C
2017-08-05 21:46:030.00m/s60.30%21.10C
2017-08-05 21:59:030.00m/s61.50%20.90C
2017-08-05 22:01:030.00m/s61.70%20.90C
2017-08-05 21:50:020.00m/s60.40%21.00C
2017-08-05 22:08:030.00m/s62.00%20.80C
2017-08-05 22:13:030.00m/s62.50%20.70C
2017-08-05 22:16:020.00m/s62.50%20.70C
2017-08-05 22:25:030.00m/s62.60%20.50C
2017-08-05 22:26:020.00m/s62.90%20.50C
2017-08-05 22:30:040.00m/s63.20%20.50C
2017-08-06 00:06:030.00m/s66.70%18.90C
2017-08-06 00:13:030.00m/s66.70%18.80C
2017-08-06 00:15:030.00m/s67.10%18.80C
2017-08-06 00:21:030.00m/s67.40%18.70C
2017-08-06 00:23:030.00m/s67.50%18.70C
2017-08-06 00:26:030.00m/s67.30%18.70C
2017-08-06 00:27:030.00m/s67.50%18.60C
2017-08-06 00:28:030.00m/s67.50%18.60C
2017-08-06 00:40:030.00m/s67.90%18.40C
2017-08-06 00:45:030.00m/s68.30%18.40C
2017-08-06 00:49:030.00m/s68.10%18.30C
2017-08-06 00:25:030.00m/s67.70%18.70C
2017-08-06 00:50:020.00m/s68.30%18.30C
2017-08-06 01:01:030.00m/s68.40%18.20C
2017-08-06 01:04:030.00m/s68.40%18.20C
2017-08-06 01:06:030.00m/s68.60%18.20C
2017-08-06 01:11:030.00m/s68.70%18.10C
2017-08-06 01:24:030.00m/s69.10%17.90C
2017-08-06 01:13:030.00m/s68.80%18.00C
2017-08-06 01:16:030.00m/s68.80%18.00C
2017-08-06 01:18:030.00m/s69.00%17.90C
2017-08-06 01:23:030.00m/s68.90%17.90C
2017-08-06 01:49:020.06m/s69.80%17.70C
2017-08-06 01:30:030.00m/s69.20%17.90C
2017-08-06 01:34:020.00m/s69.50%17.80C
2017-08-06 01:44:020.00m/s69.90%17.70C
2017-08-06 01:54:020.00m/s70.10%17.60C
2017-08-06 01:57:030.00m/s70.30%17.50C
2017-08-06 02:07:030.00m/s70.40%17.40C
2017-08-06 01:56:020.00m/s70.00%17.50C
2017-08-06 02:04:030.00m/s70.00%17.40C
2017-08-06 02:10:020.00m/s70.20%17.40C
2017-08-06 02:30:030.00m/s70.60%17.20C
2017-08-06 02:39:030.00m/s71.20%17.10C
2017-08-06 03:08:030.00m/s71.60%16.90C
2017-08-06 03:11:030.00m/s71.70%16.80C
2017-08-06 02:38:030.00m/s71.00%17.10C
2017-08-06 02:42:030.00m/s71.10%17.10C
2017-08-06 02:56:020.00m/s71.50%17.00C
2017-08-06 03:01:030.00m/s71.60%17.00C
2017-08-06 03:27:030.00m/s71.90%16.70C
2017-08-06 03:30:030.00m/s71.90%16.70C
2017-08-06 03:37:030.00m/s72.10%16.70C
2017-08-06 03:45:030.00m/s72.20%16.60C
2017-08-06 04:10:030.00m/s72.50%16.40C
2017-08-06 03:13:030.00m/s72.00%16.80C
2017-08-06 03:20:030.00m/s72.00%16.80C
2017-08-06 03:21:030.00m/s72.00%16.80C
2017-08-06 03:28:030.00m/s72.00%16.70C
2017-08-06 04:12:030.00m/s72.60%16.40C
2017-08-06 04:14:020.00m/s72.70%16.40C
2017-08-06 04:25:030.00m/s72.80%16.30C
2017-08-06 04:49:020.00m/s73.30%16.10C
2017-08-06 04:56:020.00m/s73.20%16.10C
2017-08-06 04:29:030.00m/s73.00%16.30C
2017-08-06 04:37:030.00m/s73.00%16.20C
2017-08-06 04:57:030.00m/s73.40%16.00C
2017-08-06 04:58:030.00m/s73.50%16.00C
2017-08-06 05:13:030.00m/s73.80%15.90C
2017-08-06 05:15:030.00m/s73.70%15.90C
2017-08-06 05:25:130.00m/s74.20%15.80C
2017-08-06 05:26:030.00m/s74.10%15.90C
2017-08-06 05:30:030.00m/s74.20%15.80C
2017-08-06 05:36:030.00m/s74.40%15.80C
2017-08-06 04:59:030.00m/s73.60%16.00C
2017-08-06 05:02:030.00m/s73.70%16.00C
2017-08-06 05:38:030.00m/s74.80%15.80C
2017-08-06 05:41:030.00m/s74.30%15.70C
2017-08-06 05:42:030.00m/s74.60%15.80C
2017-08-06 05:51:020.00m/s74.60%15.70C
2017-08-06 05:39:030.00m/s74.80%15.80C
2017-08-06 05:56:030.00m/s74.60%15.60C
2017-08-06 05:58:020.00m/s74.60%15.60C
2017-08-06 06:03:030.00m/s74.60%15.60C
2017-08-06 06:04:020.00m/s74.60%15.60C
2017-08-06 06:05:030.00m/s74.60%15.60C
2017-08-06 06:06:020.00m/s74.60%15.60C
2017-08-06 06:10:030.00m/s74.60%15.60C
2017-08-06 06:15:030.00m/s74.60%15.60C
2017-08-06 06:17:030.00m/s74.50%15.50C
2017-08-06 06:19:020.00m/s74.50%15.50C
2017-08-06 06:20:030.00m/s74.50%15.50C
2017-08-06 06:21:030.00m/s74.50%15.50C
2017-08-06 06:25:030.00m/s74.50%15.50C
2017-08-06 06:26:030.00m/s74.50%15.50C
2017-08-06 06:43:030.00m/s74.90%15.40C
2017-08-06 06:49:020.00m/s75.10%15.40C
2017-08-06 06:50:030.00m/s75.30%15.40C
2017-08-06 06:52:030.00m/s75.20%15.40C
2017-08-06 07:01:030.00m/s75.20%15.40C
2017-08-06 06:32:030.00m/s74.50%15.50C
2017-08-06 06:41:030.00m/s75.00%15.50C
2017-08-06 06:46:030.00m/s75.00%15.40C
2017-08-06 07:06:030.00m/s75.30%15.30C
2017-08-06 07:31:030.00m/s76.20%15.30C
2017-08-06 07:38:030.00m/s76.60%15.30C
2017-08-06 07:40:030.00m/s76.50%15.20C
2017-08-06 07:41:030.00m/s76.50%15.20C
2017-08-06 07:08:030.00m/s75.30%15.40C
2017-08-06 07:10:020.00m/s75.20%15.30C
2017-08-06 07:19:030.00m/s75.70%15.30C
2017-08-06 07:23:020.00m/s75.70%15.30C
2017-08-06 07:09:030.00m/s75.30%15.30C
2017-08-06 07:43:030.06m/s76.60%15.20C
2017-08-06 07:51:030.00m/s77.40%15.20C
2017-08-06 07:57:030.00m/s77.50%15.20C
2017-08-06 08:00:031.64m/s77.60%15.20C
2017-08-06 08:01:030.00m/s77.60%15.20C
2017-08-06 08:11:030.00m/s78.10%15.20C
2017-08-06 08:10:020.00m/s78.00%15.20C
2017-08-06 08:13:030.00m/s78.20%15.20C
2017-08-06 08:14:030.00m/s78.20%15.20C
2017-08-06 08:37:032.42m/s79.70%15.40C
2017-08-06 08:16:030.00m/s78.40%15.20C
2017-08-06 08:17:030.00m/s78.60%15.20C
2017-08-06 08:21:020.00m/s78.90%15.30C
2017-08-06 08:23:030.00m/s78.80%15.30C
2017-08-06 08:28:031.64m/s79.20%15.30C
2017-08-06 08:39:030.00m/s79.80%15.40C
2017-08-06 08:43:021.64m/s80.10%15.40C
2017-08-06 08:45:030.00m/s80.40%15.50C
2017-08-06 09:10:034.78m/s80.60%15.90C
2017-08-06 08:47:030.06m/s80.20%15.50C
2017-08-06 09:13:030.85m/s80.70%15.90C
2017-08-06 08:53:030.00m/s80.90%15.60C
2017-08-06 09:03:030.00m/s80.90%15.80C
2017-08-06 09:06:030.00m/s80.60%15.80C
2017-08-06 09:08:030.00m/s80.50%15.80C
2017-08-06 09:12:030.00m/s80.70%15.90C
2017-08-06 08:50:030.00m/s80.50%15.50C
2017-08-06 09:19:032.42m/s80.60%16.00C
2017-08-06 09:26:022.42m/s80.60%16.20C
2017-08-06 09:49:034.78m/s79.50%16.90C
2017-08-06 09:15:030.85m/s80.80%16.00C
2017-08-06 09:14:030.00m/s80.70%15.90C
2017-08-06 09:20:020.00m/s80.80%16.10C
2017-08-06 09:28:030.00m/s80.60%16.30C
2017-08-06 09:29:020.00m/s80.70%16.30C
2017-08-06 09:39:031.64m/s80.10%16.60C
2017-08-06 10:10:032.42m/s77.20%17.70C
2017-08-06 10:27:037.14m/s74.70%18.40C
2017-08-06 10:37:030.85m/s73.00%18.90C
2017-08-06 10:09:031.64m/s77.30%17.60C
2017-08-06 10:24:030.00m/s75.10%18.30C
2017-08-06 10:30:030.00m/s74.10%18.60C
2017-08-06 10:11:020.00m/s77.00%17.70C
2017-08-06 10:41:030.00m/s72.10%19.00C
2017-08-06 10:06:031.64m/s77.50%17.50C
2017-08-06 10:49:034.78m/s69.80%19.30C
2017-08-06 10:54:034.78m/s68.90%19.50C
2017-08-06 10:56:035.57m/s68.60%19.60C
2017-08-06 11:00:030.06m/s67.40%19.70C
2017-08-06 11:01:030.00m/s67.40%19.80C
2017-08-06 11:05:031.64m/s66.70%19.90C
2017-08-06 11:11:020.00m/s66.30%20.20C
2017-08-06 11:15:030.00m/s66.20%20.40C
2017-08-06 10:55:031.64m/s68.60%19.60C
2017-08-06 11:38:036.35m/s63.00%21.50C
2017-08-06 11:52:030.06m/s58.80%22.10C
2017-08-06 11:24:020.00m/s64.30%20.80C
2017-08-06 11:33:030.00m/s64.20%21.30C
2017-08-06 11:35:030.00m/s63.10%21.40C
2017-08-06 11:44:030.00m/s61.70%21.90C
2017-08-06 11:47:030.00m/s61.40%21.90C
2017-08-06 11:27:030.00m/s64.30%21.00C
2017-08-06 11:37:030.00m/s63.00%21.50C
2017-08-06 12:22:0311.07m/s50.70%22.60C
2017-08-06 12:13:034.78m/s58.10%23.00C
2017-08-06 12:31:036.35m/s50.30%23.00C
2017-08-06 11:56:030.00m/s60.90%22.30C
2017-08-06 11:57:030.00m/s60.40%22.30C
2017-08-06 12:21:020.00m/s49.40%22.50C
2017-08-06 12:25:030.00m/s47.30%22.70C
2017-08-06 12:28:020.00m/s48.80%22.70C
2017-08-06 12:27:030.85m/s47.70%22.70C
2017-08-06 12:40:032.42m/s50.00%24.00C
2017-08-06 13:10:031.64m/s47.90%25.50C
2017-08-06 13:20:030.06m/s47.10%25.90C
2017-08-06 12:42:030.00m/s50.50%24.10C
2017-08-06 12:43:030.00m/s50.80%24.20C
2017-08-06 12:51:030.00m/s49.60%24.70C
2017-08-06 12:58:030.00m/s48.40%24.90C
2017-08-06 12:47:030.06m/s50.40%24.40C
2017-08-06 13:18:030.00m/s47.00%25.80C
2017-08-06 13:29:036.35m/s45.00%26.10C
2017-08-06 13:48:036.35m/s42.30%26.70C
2017-08-06 14:00:034.78m/s42.50%27.00C
2017-08-06 13:28:030.06m/s45.00%26.10C
2017-08-06 13:58:030.85m/s42.30%27.00C
2017-08-06 13:43:030.00m/s42.30%26.60C
2017-08-06 14:04:030.00m/s40.90%27.20C
2017-08-06 14:01:030.85m/s42.10%27.10C
2017-08-06 13:21:030.00m/s46.90%25.90C
2017-08-06 14:05:026.35m/s41.30%27.20C
2017-08-06 14:33:030.06m/s41.20%27.60C
2017-08-06 14:15:030.00m/s41.80%27.20C
2017-08-06 14:17:030.00m/s41.80%27.30C
2017-08-06 14:18:030.00m/s40.60%27.30C
2017-08-06 14:44:030.00m/s41.80%27.60C
2017-08-06 14:51:020.00m/s41.80%27.90C
2017-08-06 14:09:030.85m/s41.20%27.20C
2017-08-06 14:26:020.00m/s41.50%27.50C
2017-08-06 15:17:030.85m/s40.20%29.00C
2017-08-06 14:57:030.00m/s41.50%28.10C
2017-08-06 15:01:030.00m/s41.40%28.30C
2017-08-06 15:12:020.00m/s40.70%28.80C
2017-08-06 15:15:030.00m/s40.10%28.90C
2017-08-06 15:22:020.00m/s39.60%29.10C
2017-08-06 15:28:030.00m/s39.90%29.30C
2017-08-06 15:10:030.85m/s40.70%28.70C
2017-08-06 14:55:030.00m/s41.40%28.00C
2017-08-06 15:54:035.57m/s39.00%29.30C
2017-08-06 15:55:032.42m/s39.40%29.30C
2017-08-06 16:13:032.42m/s40.20%29.00C
2017-08-06 15:57:034.78m/s39.30%29.30C
2017-08-06 15:37:030.00m/s39.30%29.40C
2017-08-06 15:58:030.00m/s39.10%29.30C
2017-08-06 16:16:030.00m/s40.10%28.90C
2017-08-06 15:49:030.00m/s39.40%29.40C
2017-08-06 16:01:030.00m/s39.10%29.10C
2017-08-06 16:23:030.06m/s39.70%28.80C
2017-08-06 16:38:030.06m/s39.90%28.60C
2017-08-06 16:24:030.00m/s39.70%28.80C
2017-08-06 16:35:030.00m/s39.90%28.60C
2017-08-06 16:37:030.00m/s40.20%28.70C
2017-08-06 16:53:030.00m/s40.20%28.40C
2017-08-06 16:56:030.00m/s39.80%28.40C
2017-08-06 16:32:020.00m/s40.00%28.70C
2017-08-06 16:50:030.00m/s40.00%28.50C
2017-08-06 17:13:031.64m/s41.00%28.20C
2017-08-06 17:16:030.06m/s40.90%28.10C
2017-08-06 18:43:020.06m/s43.30%27.50C
2017-08-06 18:44:020.06m/s43.30%27.50C
2017-08-06 16:58:030.00m/s40.30%28.40C
2017-08-06 16:59:020.00m/s40.90%28.30C
2017-08-06 17:03:030.00m/s41.10%28.30C
2017-08-06 17:09:030.00m/s40.60%28.20C
2017-08-06 17:17:030.00m/s40.90%28.10C
2017-08-06 18:50:024.78m/s44.00%27.40C
2017-08-06 18:53:020.00m/s43.60%27.30C
2017-08-06 18:57:030.00m/s43.60%27.30C
2017-08-06 19:01:030.00m/s44.10%27.30C
2017-08-06 19:17:030.00m/s43.30%26.90C
2017-08-06 19:24:030.00m/s43.70%26.90C
2017-08-06 19:30:030.00m/s44.50%26.80C
2017-08-06 19:34:030.00m/s44.70%26.80C
2017-08-06 19:15:030.00m/s43.30%27.00C
2017-08-06 19:45:030.00m/s45.30%26.60C
2017-08-06 19:52:030.00m/s45.30%26.50C
2017-08-06 19:53:030.00m/s45.20%26.50C
2017-08-06 20:01:030.00m/s46.10%26.40C
2017-08-06 20:04:020.00m/s46.40%26.30C
2017-08-06 20:06:030.00m/s46.10%26.20C
2017-08-06 20:22:030.00m/s46.80%25.90C
2017-08-06 20:29:030.00m/s47.20%25.70C
2017-08-06 20:31:020.00m/s47.10%25.70C
2017-08-06 21:14:030.06m/s48.80%24.50C
2017-08-06 21:06:020.00m/s48.20%24.80C
2017-08-06 21:17:030.00m/s49.10%24.50C
2017-08-06 21:20:030.00m/s49.30%24.40C
2017-08-06 21:23:030.00m/s49.60%24.30C
2017-08-06 20:41:030.00m/s47.30%25.30C
2017-08-06 20:54:030.00m/s47.60%25.00C
2017-08-06 21:01:030.00m/s48.00%24.80C
2017-08-06 21:21:030.00m/s49.40%24.40C
2017-08-06 21:44:020.00m/s51.20%23.80C
2017-08-06 21:55:030.00m/s52.20%23.50C
2017-08-06 22:00:040.00m/s52.50%23.40C
2017-08-06 22:36:030.00m/s54.70%22.50C
2017-08-06 22:39:020.00m/s55.10%22.50C
2017-08-06 22:51:030.00m/s54.90%22.20C
2017-08-06 22:16:020.00m/s53.50%23.00C
2017-08-06 22:42:030.00m/s55.00%22.40C
2017-08-06 22:50:030.00m/s55.00%22.30C
2017-08-06 22:58:030.00m/s55.30%22.10C
2017-08-06 23:18:140.00m/s56.30%21.70C
2017-08-06 23:03:030.00m/s55.70%22.00C
2017-08-06 23:06:030.00m/s55.90%21.90C
2017-08-06 23:08:020.00m/s55.90%21.90C
2017-08-06 23:12:020.00m/s56.00%21.80C
2017-08-06 23:30:030.00m/s57.00%21.50C
2017-08-06 23:36:030.00m/s57.00%21.40C
2017-08-06 23:44:030.00m/s57.20%21.20C
2017-08-06 23:50:030.00m/s57.40%21.10C
2017-08-07 00:02:030.00m/s58.20%20.90C
2017-08-07 00:06:030.00m/s58.60%20.90C
2017-08-07 00:09:030.00m/s58.60%20.80C
2017-08-07 00:22:020.00m/s59.20%20.60C
2017-08-07 00:23:020.00m/s59.10%20.50C
2017-08-06 23:57:030.00m/s57.80%21.00C
2017-08-06 23:58:030.00m/s57.90%21.00C
2017-08-07 00:18:030.00m/s59.00%20.60C
2017-08-07 00:33:030.00m/s59.60%20.40C
2017-08-07 00:41:030.00m/s59.60%20.30C
2017-08-07 00:53:030.00m/s59.80%20.10C
2017-08-07 00:54:030.00m/s59.70%20.10C
2017-08-07 00:55:080.00m/s59.80%20.10C
2017-08-07 00:56:030.00m/s59.50%20.10C
2017-08-07 01:12:030.00m/s60.60%19.80C
2017-08-07 00:31:030.00m/s59.50%20.50C
2017-08-07 01:03:030.00m/s60.10%20.00C
2017-08-07 01:13:030.00m/s60.70%19.80C
2017-08-07 01:17:030.00m/s60.30%19.80C
2017-08-07 01:24:020.00m/s60.50%19.70C
2017-08-07 01:26:020.00m/s60.80%19.60C
2017-08-07 01:29:030.00m/s60.80%19.60C
2017-08-07 01:32:030.00m/s61.30%19.50C
2017-08-07 01:38:030.00m/s61.10%19.50C
2017-08-07 01:49:030.00m/s61.20%19.30C
2017-08-07 01:46:030.00m/s61.00%19.40C
2017-08-07 01:52:030.06m/s61.40%19.30C
2017-08-07 01:59:030.00m/s61.40%19.20C
2017-08-07 02:00:030.00m/s61.80%19.10C
2017-08-07 02:03:020.00m/s61.60%19.20C
2017-08-07 02:04:030.00m/s61.60%19.20C
2017-08-07 02:08:030.00m/s62.10%19.10C
2017-08-07 02:13:030.00m/s61.70%19.00C
2017-08-07 02:15:030.00m/s61.80%19.00C
2017-08-07 02:14:030.00m/s62.00%19.00C
2017-08-07 03:22:030.06m/s64.10%18.20C
2017-08-07 02:25:030.00m/s62.30%18.90C
2017-08-07 02:31:030.00m/s62.40%18.80C
2017-08-07 02:45:030.00m/s63.20%18.60C
2017-08-07 02:54:020.00m/s63.30%18.50C
2017-08-07 03:10:030.00m/s63.70%18.30C
2017-08-07 03:20:030.00m/s64.10%18.20C
2017-08-07 02:34:020.00m/s62.80%18.80C
2017-08-07 02:17:030.00m/s62.00%19.00C
2017-08-07 03:56:030.00m/s64.80%17.90C
2017-08-07 04:18:020.00m/s65.50%17.70C
2017-08-07 04:27:030.00m/s65.90%17.60C
2017-08-07 04:28:030.00m/s65.80%17.60C
2017-08-07 03:26:020.00m/s64.20%18.20C
2017-08-07 03:31:030.00m/s64.10%18.10C
2017-08-07 03:38:020.00m/s64.10%18.10C
2017-08-07 03:39:030.00m/s64.10%18.00C
2017-08-07 03:46:030.00m/s64.70%18.00C
2017-08-07 04:29:030.00m/s65.90%17.60C
2017-08-07 04:42:030.00m/s66.10%17.40C
2017-08-07 04:45:030.00m/s66.10%17.40C
2017-08-07 04:46:020.00m/s66.30%17.40C
2017-08-07 04:48:020.00m/s66.30%17.40C
2017-08-07 05:01:030.00m/s66.60%17.30C
2017-08-07 05:06:030.00m/s66.60%17.20C
2017-08-07 05:09:030.00m/s66.80%17.20C
2017-08-07 04:49:030.00m/s66.30%17.30C
2017-08-07 05:10:030.00m/s66.80%17.20C
2017-08-07 05:11:030.00m/s66.80%17.10C
2017-08-07 05:48:030.00m/s67.20%16.90C
2017-08-07 05:50:030.00m/s67.20%16.90C
2017-08-07 05:52:030.00m/s67.40%16.90C
2017-08-07 05:55:030.00m/s67.30%16.80C
2017-08-07 05:56:020.00m/s67.30%16.80C
2017-08-07 05:21:030.00m/s67.00%17.10C
2017-08-07 05:38:030.00m/s67.10%17.00C
2017-08-07 06:10:030.06m/s67.60%16.80C
2017-08-07 05:57:030.00m/s67.50%16.80C
2017-08-07 06:01:030.00m/s67.40%16.80C
2017-08-07 06:02:030.00m/s67.50%16.80C
2017-08-07 06:03:030.00m/s67.60%16.80C
2017-08-07 06:11:030.00m/s67.60%16.80C
2017-08-07 06:12:030.00m/s67.60%16.80C
2017-08-07 06:19:030.00m/s67.60%16.70C
2017-08-07 06:26:020.00m/s67.70%16.70C
2017-08-07 06:49:030.06m/s68.00%16.50C
2017-08-07 06:34:030.00m/s67.90%16.60C
2017-08-07 06:52:030.00m/s68.10%16.50C
2017-08-07 06:59:020.00m/s68.30%16.50C
2017-08-07 07:00:020.00m/s68.20%16.40C
2017-08-07 07:01:030.00m/s68.10%16.40C
2017-08-07 06:30:030.00m/s67.70%16.70C
2017-08-07 06:31:030.00m/s67.60%16.60C
2017-08-07 06:50:030.00m/s68.00%16.50C
2017-08-07 07:09:030.00m/s68.50%16.40C
2017-08-07 07:10:030.00m/s68.50%16.40C
2017-08-07 07:15:030.00m/s68.40%16.30C
2017-08-07 07:17:030.00m/s68.60%16.30C
2017-08-07 07:54:020.00m/s69.50%16.20C
2017-08-07 07:56:020.00m/s69.70%16.20C
2017-08-07 08:00:020.00m/s69.70%16.20C
2017-08-07 08:02:031.64m/s69.90%16.20C
2017-08-07 07:40:030.00m/s69.00%16.30C
2017-08-07 08:06:030.06m/s70.00%16.30C
2017-08-07 08:27:030.06m/s70.80%16.30C
2017-08-07 08:36:030.85m/s71.80%16.40C
2017-08-07 08:04:030.00m/s69.90%16.30C
2017-08-07 08:42:030.00m/s71.90%16.50C
2017-08-07 09:01:030.00m/s75.60%16.70C
2017-08-07 09:06:030.00m/s75.20%16.80C
2017-08-07 08:41:030.00m/s72.00%16.50C
2017-08-07 08:49:030.00m/s72.00%16.50C
2017-08-07 09:45:033.21m/s70.80%17.70C
2017-08-07 10:00:033.21m/s68.80%18.20C
2017-08-07 09:08:030.00m/s74.40%16.80C
2017-08-07 09:24:030.00m/s72.80%17.20C
2017-08-07 09:28:030.00m/s72.40%17.30C
2017-08-07 09:41:030.00m/s71.30%17.60C
2017-08-07 09:17:030.00m/s73.50%17.00C
2017-08-07 09:53:020.00m/s69.70%18.00C
2017-08-07 09:55:030.00m/s69.50%18.00C
2017-08-07 10:47:032.42m/s62.50%20.00C
2017-08-07 10:19:035.57m/s65.90%18.90C
2017-08-07 10:25:034.00m/s65.00%19.10C
2017-08-07 10:48:031.64m/s62.50%20.10C
2017-08-07 10:08:030.00m/s67.80%18.50C
2017-08-07 10:37:030.00m/s63.80%19.60C
2017-08-07 10:14:020.00m/s67.00%18.70C
2017-08-07 10:21:030.00m/s65.40%19.00C
2017-08-07 10:22:020.00m/s65.50%19.00C
2017-08-07 11:09:033.21m/s59.20%20.90C
2017-08-07 10:55:029.50m/s60.90%20.30C
2017-08-07 11:22:024.00m/s57.60%21.50C
2017-08-07 10:52:030.85m/s61.60%20.20C
2017-08-07 10:57:030.06m/s60.30%20.40C
2017-08-07 11:07:030.00m/s59.50%20.80C
2017-08-07 11:08:030.00m/s59.40%20.80C
2017-08-07 11:10:030.00m/s59.40%20.90C
2017-08-07 11:14:030.00m/s59.10%21.10C
2017-08-07 11:42:024.78m/s55.10%22.40C
2017-08-07 11:26:025.57m/s57.20%21.60C
2017-08-07 11:27:035.57m/s57.00%21.70C
2017-08-07 11:40:032.42m/s55.00%22.30C
2017-08-07 11:55:034.00m/s53.50%22.90C
2017-08-07 11:33:021.64m/s56.70%21.90C
2017-08-07 11:38:020.06m/s56.40%22.20C
2017-08-07 11:31:030.00m/s56.40%21.90C
2017-08-07 11:50:030.00m/s54.10%22.80C
2017-08-07 14:13:033.21m/s40.70%28.90C
2017-08-07 14:08:034.78m/s40.70%28.70C
2017-08-07 11:56:030.85m/s52.80%23.00C
2017-08-07 12:04:030.00m/s52.50%23.30C
2017-08-07 12:14:030.00m/s52.30%23.80C
2017-08-07 12:17:030.00m/s51.80%23.90C
2017-08-07 12:25:030.00m/s50.50%24.30C
2017-08-07 12:31:030.00m/s50.40%24.50C
2017-08-07 13:47:020.00m/s42.20%27.70C
2017-08-07 14:30:033.21m/s39.30%29.60C
2017-08-07 14:55:023.21m/s38.10%30.40C
2017-08-07 14:16:030.85m/s40.20%29.00C
2017-08-07 14:25:030.06m/s39.70%29.40C
2017-08-07 14:26:030.06m/s39.70%29.50C
2017-08-07 14:42:030.06m/s38.20%30.00C
2017-08-07 14:45:030.85m/s38.50%30.10C
2017-08-07 15:01:020.06m/s37.40%30.60C
2017-08-07 14:39:030.00m/s38.00%29.90C
2017-08-07 15:23:030.00m/s35.10%31.20C
2017-08-07 15:27:030.00m/s35.30%31.20C
2017-08-07 15:37:030.00m/s34.90%31.40C
2017-08-07 15:38:030.00m/s34.90%31.40C
2017-08-07 15:40:030.00m/s34.90%31.40C
2017-08-07 15:10:030.00m/s36.30%31.00C
2017-08-07 15:11:020.00m/s36.50%31.00C
2017-08-07 15:12:030.00m/s36.60%31.00C
2017-08-07 15:26:020.00m/s35.20%31.20C
2017-08-07 16:01:031.64m/s34.50%31.90C
2017-08-07 15:50:030.00m/s34.40%31.60C
2017-08-07 15:52:020.00m/s34.40%31.60C
2017-08-07 15:56:030.00m/s34.40%31.80C
2017-08-07 15:41:030.00m/s35.00%31.50C
2017-08-07 16:11:030.00m/s33.90%32.00C
2017-08-07 16:17:030.00m/s33.50%32.00C
2017-08-07 16:20:020.00m/s33.40%32.00C
2017-08-07 16:21:030.00m/s33.40%32.00C
2017-08-07 16:56:030.06m/s32.20%32.00C
2017-08-07 17:00:030.85m/s32.40%32.10C
2017-08-07 16:59:030.00m/s32.50%32.10C
2017-08-07 16:23:030.00m/s33.20%32.00C
2017-08-07 16:27:020.00m/s32.60%32.00C
2017-08-07 16:28:030.00m/s32.20%32.00C
2017-08-07 16:30:030.00m/s32.40%32.00C
2017-08-07 16:44:020.00m/s32.20%32.00C
2017-08-07 16:51:030.00m/s31.90%32.00C
2017-08-07 17:01:030.06m/s32.50%32.10C
2017-08-07 17:06:030.06m/s31.80%32.00C
2017-08-07 17:04:030.00m/s31.80%32.10C
2017-08-07 17:15:030.00m/s32.50%32.10C
2017-08-07 17:18:020.00m/s32.50%32.10C
2017-08-07 17:21:030.00m/s32.60%32.10C
2017-08-07 17:11:020.00m/s32.30%32.00C
2017-08-07 17:31:030.00m/s33.20%32.20C
2017-08-07 17:32:030.00m/s33.00%32.10C
2017-08-07 17:38:030.85m/s33.60%32.10C
2017-08-07 17:58:030.06m/s34.10%31.90C
2017-08-07 17:36:030.00m/s33.30%32.10C
2017-08-07 17:46:030.00m/s33.30%32.10C
2017-08-07 18:06:030.00m/s34.20%31.80C
2017-08-07 17:51:030.00m/s33.50%32.00C
2017-08-07 17:52:020.00m/s33.10%32.00C
2017-08-07 18:09:030.00m/s33.70%31.70C
2017-08-07 17:47:030.00m/s33.00%32.00C
2017-08-07 18:16:030.00m/s34.30%31.60C
2017-08-07 18:21:030.00m/s34.30%31.50C
2017-08-07 18:22:030.00m/s34.30%31.50C
2017-08-07 18:41:030.06m/s35.50%31.20C
2017-08-07 18:10:030.00m/s34.10%31.70C
2017-08-07 18:12:030.00m/s34.10%31.70C
2017-08-07 18:23:030.00m/s34.80%31.50C
2017-08-07 18:43:030.00m/s35.20%31.10C
2017-08-07 18:20:030.00m/s34.50%31.50C
2017-08-07 18:57:030.06m/s36.10%30.80C
2017-08-07 19:03:030.06m/s36.40%30.70C
2017-08-07 19:07:020.06m/s36.50%30.60C
2017-08-07 18:52:030.00m/s35.40%30.90C
2017-08-07 18:53:030.00m/s35.60%30.90C
2017-08-07 19:09:030.00m/s36.70%30.60C
2017-08-07 19:17:030.00m/s36.90%30.40C
2017-08-07 19:20:030.00m/s37.40%30.30C
2017-08-07 19:08:030.00m/s36.60%30.60C
2017-08-07 19:21:032.42m/s37.50%30.30C
2017-08-07 19:43:030.06m/s38.80%29.60C
2017-08-07 19:23:020.00m/s37.70%30.30C
2017-08-07 19:28:020.00m/s37.90%30.10C
2017-08-07 19:48:030.00m/s39.40%29.50C
2017-08-07 19:52:030.00m/s39.50%29.40C
2017-08-07 19:56:030.00m/s39.30%29.20C
2017-08-07 20:02:030.00m/s40.20%29.10C
2017-08-07 19:30:030.00m/s38.20%30.00C
2017-08-07 20:08:030.00m/s40.10%28.90C
2017-08-07 20:09:030.00m/s40.10%28.90C
2017-08-07 20:17:020.00m/s40.40%28.60C
2017-08-07 20:20:030.00m/s40.60%28.50C
2017-08-07 20:25:020.00m/s41.20%28.40C
2017-08-07 20:30:030.00m/s41.40%28.30C
2017-08-07 20:31:030.00m/s41.40%28.20C
2017-08-07 20:04:030.00m/s40.10%29.10C
2017-08-07 20:14:030.00m/s40.00%28.70C
2017-08-07 20:49:030.06m/s42.70%27.60C
2017-08-07 20:43:020.00m/s42.30%27.80C
2017-08-07 20:50:030.00m/s42.90%27.50C
2017-08-07 20:54:030.00m/s42.70%27.40C
2017-08-07 21:00:030.00m/s43.40%27.20C
2017-08-07 21:03:030.00m/s43.40%27.10C
2017-08-07 21:31:030.00m/s45.90%26.10C
2017-08-07 21:32:030.00m/s46.40%26.10C
2017-08-07 20:58:030.00m/s43.30%27.30C
2017-08-07 22:15:031.64m/s52.30%24.50C
2017-08-07 21:43:030.00m/s47.70%25.80C
2017-08-07 21:44:030.00m/s47.60%25.70C
2017-08-07 21:48:020.00m/s48.10%25.60C
2017-08-07 21:50:030.00m/s48.40%25.60C
2017-08-07 21:52:030.00m/s48.60%25.50C
2017-08-07 21:58:030.00m/s49.20%25.30C
2017-08-07 22:14:030.00m/s52.40%24.50C
2017-08-07 22:16:030.00m/s52.40%24.40C
2017-08-07 22:20:020.06m/s54.10%23.90C
2017-08-07 22:44:030.06m/s54.10%23.80C
2017-08-07 22:23:020.00m/s54.30%23.90C
2017-08-07 22:24:030.00m/s54.20%23.90C
2017-08-07 22:25:030.00m/s54.30%23.90C
2017-08-07 22:29:020.00m/s54.40%24.00C
2017-08-07 22:33:020.00m/s54.10%24.00C
2017-08-07 22:43:030.00m/s54.00%23.80C
2017-08-07 22:45:030.00m/s54.00%23.80C
2017-08-07 23:40:036.35m/s55.80%22.70C
2017-08-07 23:03:030.00m/s54.70%23.40C
2017-08-07 23:09:020.00m/s54.80%23.30C
2017-08-07 23:10:030.00m/s54.80%23.30C
2017-08-07 23:22:030.00m/s55.70%23.10C
2017-08-07 23:04:030.00m/s55.00%23.40C
2017-08-07 23:08:030.00m/s55.00%23.30C
2017-08-07 23:11:030.00m/s55.00%23.30C
2017-08-07 23:25:030.00m/s55.60%23.00C
2017-08-07 23:43:030.85m/s56.20%22.70C
2017-08-07 23:41:030.00m/s55.80%22.70C
2017-08-08 00:01:030.00m/s56.90%22.30C
2017-08-08 00:05:030.00m/s57.30%22.20C
2017-08-08 00:08:030.00m/s57.50%22.20C
2017-08-08 00:03:030.06m/s57.30%22.30C
2017-08-07 23:52:030.00m/s56.50%22.50C
2017-08-08 00:19:020.00m/s57.70%22.00C
2017-08-08 00:20:030.00m/s57.80%22.00C
2017-08-08 00:38:031.64m/s58.50%21.70C
2017-08-08 00:54:020.06m/s59.40%21.50C
2017-08-08 00:26:030.00m/s58.20%21.90C
2017-08-08 00:33:020.00m/s58.50%21.80C
2017-08-08 00:43:030.00m/s58.50%21.60C
2017-08-08 00:47:030.00m/s59.20%21.60C
2017-08-08 00:21:030.00m/s58.20%22.00C
2017-08-08 00:23:030.00m/s58.20%22.00C
2017-08-08 00:46:030.00m/s59.00%21.60C
2017-08-08 01:02:022.42m/s59.70%21.40C
2017-08-08 01:07:030.00m/s59.90%21.30C
2017-08-08 01:11:080.00m/s60.10%21.30C
2017-08-08 01:14:030.00m/s60.10%21.20C
2017-08-08 01:22:030.00m/s59.90%21.10C
2017-08-08 01:32:020.00m/s60.40%20.90C
2017-08-08 01:33:030.00m/s60.30%20.90C
2017-08-08 01:36:020.00m/s60.50%20.90C
2017-08-08 01:21:030.00m/s60.10%21.10C
2017-08-08 02:01:143.21m/s61.60%20.60C
2017-08-08 01:38:030.06m/s60.20%20.90C
2017-08-08 02:18:031.64m/s61.90%20.40C
2017-08-08 02:28:031.64m/s62.50%20.30C
2017-08-08 01:39:020.00m/s60.70%20.90C
2017-08-08 02:26:030.00m/s62.50%20.40C
2017-08-08 02:27:031.64m/s62.30%20.30C
2017-08-08 02:04:030.00m/s61.60%20.60C
2017-08-08 02:14:030.00m/s62.00%20.50C
2017-08-08 02:32:023.21m/s62.90%20.30C
2017-08-08 02:37:034.78m/s62.50%20.20C
2017-08-08 02:29:022.42m/s62.50%20.30C
2017-08-08 02:41:036.35m/s63.20%20.20C
2017-08-08 02:39:030.06m/s63.30%20.20C
2017-08-08 02:33:030.00m/s62.40%20.20C
2017-08-08 02:38:030.00m/s62.90%20.20C
2017-08-08 02:47:020.00m/s63.70%20.10C
2017-08-08 02:31:030.85m/s62.30%20.30C
2017-08-08 02:49:035.57m/s63.60%20.10C
2017-08-08 03:10:028.71m/s63.80%19.90C
2017-08-08 03:11:033.21m/s64.10%19.90C
2017-08-08 02:53:031.64m/s63.70%20.10C
2017-08-08 02:59:031.64m/s64.10%20.00C
2017-08-08 03:05:030.85m/s63.90%20.00C
2017-08-08 03:03:030.00m/s63.80%19.90C
2017-08-08 02:58:030.00m/s63.60%20.00C
2017-08-08 03:04:020.00m/s64.20%20.00C
2017-08-08 03:21:026.35m/s64.30%19.80C
2017-08-08 03:38:030.06m/s64.50%19.70C
2017-08-08 03:59:030.85m/s65.10%19.60C
2017-08-08 04:00:030.85m/s65.50%19.60C
2017-08-08 03:34:030.00m/s64.50%19.70C
2017-08-08 03:36:030.00m/s64.60%19.70C
2017-08-08 03:37:030.00m/s64.80%19.70C
2017-08-08 03:47:040.00m/s64.90%19.70C
2017-08-08 04:02:031.64m/s65.40%19.50C
2017-08-08 04:17:032.42m/s65.30%19.40C
2017-08-08 04:09:030.85m/s65.40%19.50C
2017-08-08 04:08:030.00m/s65.40%19.50C
2017-08-08 04:10:030.00m/s65.40%19.50C
2017-08-08 04:14:330.00m/s65.30%19.40C
2017-08-08 04:15:030.00m/s65.30%19.40C
2017-08-08 04:26:030.00m/s65.30%19.40C
2017-08-08 04:31:020.00m/s65.30%19.40C
2017-08-08 04:32:021.64m/s65.20%19.30C
2017-08-08 04:43:030.85m/s65.20%19.30C
2017-08-08 04:54:030.06m/s65.60%19.20C
2017-08-08 04:34:030.00m/s65.20%19.30C
2017-08-08 04:46:031.64m/s65.20%19.30C
2017-08-08 04:47:030.00m/s65.40%19.30C
2017-08-08 04:51:020.00m/s65.50%19.20C
2017-08-08 04:56:020.00m/s65.70%19.20C
2017-08-08 04:57:030.00m/s65.70%19.20C
2017-08-08 04:35:030.00m/s65.40%19.40C
2017-08-08 05:31:030.06m/s66.20%18.90C
2017-08-08 05:03:030.00m/s65.90%19.10C
2017-08-08 05:08:030.00m/s66.30%19.10C
2017-08-08 05:26:030.00m/s66.30%18.90C
2017-08-08 05:48:030.00m/s66.60%18.80C
2017-08-08 05:50:030.00m/s66.70%18.80C
2017-08-08 05:51:030.00m/s66.60%18.80C
2017-08-08 05:16:030.00m/s66.10%19.00C
2017-08-08 05:12:030.00m/s66.00%19.00C
2017-08-08 06:00:030.00m/s66.90%18.70C
2017-08-08 06:12:060.00m/s67.10%18.70C
2017-08-08 06:17:020.00m/s67.40%18.60C
2017-08-08 06:22:030.00m/s67.40%18.50C
2017-08-08 06:33:020.00m/s67.70%18.50C
2017-08-08 06:44:030.00m/s67.80%18.50C
2017-08-08 06:50:020.00m/s67.90%18.50C
2017-08-08 06:02:030.00m/s67.00%18.70C
2017-08-08 06:24:030.00m/s67.50%18.50C
2017-08-08 07:02:030.00m/s68.30%18.50C
2017-08-08 07:08:030.00m/s68.30%18.40C
2017-08-08 07:14:030.00m/s68.30%18.40C
2017-08-08 07:17:030.00m/s68.50%18.40C
2017-08-08 07:31:030.00m/s68.90%18.40C
2017-08-08 07:36:030.00m/s68.90%18.40C
2017-08-08 07:13:030.06m/s68.40%18.40C
2017-08-08 07:24:030.00m/s68.40%18.40C
2017-08-08 08:58:020.00m/s70.00%18.60C
2017-08-08 09:12:030.00m/s69.80%18.70C
2017-08-08 09:14:030.00m/s69.80%18.70C
2017-08-08 09:24:020.00m/s69.70%18.80C
2017-08-08 09:33:020.00m/s69.60%18.90C
2017-08-08 09:36:030.00m/s69.80%18.90C
2017-08-08 09:21:020.00m/s69.80%18.80C
2017-08-08 09:05:020.00m/s70.00%18.70C
2017-08-08 09:07:030.00m/s70.00%18.70C
2017-08-08 09:13:020.00m/s70.00%18.70C
2017-08-08 09:38:020.06m/s69.80%18.90C
2017-08-08 10:06:030.85m/s69.20%19.10C
2017-08-08 09:39:030.00m/s69.80%18.90C
2017-08-08 09:42:030.00m/s69.70%18.90C
2017-08-08 09:44:020.00m/s69.70%18.90C
2017-08-08 09:46:020.00m/s69.60%18.90C
2017-08-08 09:53:030.00m/s69.40%19.00C
2017-08-08 10:18:030.00m/s69.00%19.10C
2017-08-08 10:17:030.00m/s69.10%19.10C
2017-08-08 10:29:030.00m/s68.90%19.20C
2017-08-08 10:34:030.00m/s68.90%19.20C
2017-08-08 10:37:030.00m/s68.90%19.20C
2017-08-08 10:44:020.00m/s69.60%19.30C
2017-08-08 10:51:031.64m/s69.20%19.30C
2017-08-08 10:57:020.00m/s68.90%19.30C
2017-08-08 10:20:030.00m/s69.00%19.20C
2017-08-08 10:50:030.00m/s69.00%19.30C
2017-08-08 10:22:030.00m/s69.20%19.20C
2017-08-08 11:05:020.00m/s68.90%19.30C
2017-08-08 11:09:030.00m/s69.30%19.40C
2017-08-08 11:29:030.00m/s69.70%19.40C
2017-08-08 11:38:030.00m/s70.50%19.30C
2017-08-08 11:48:030.00m/s70.50%19.40C
2017-08-08 11:56:030.00m/s70.60%19.40C
2017-08-08 12:11:030.00m/s72.70%19.50C
2017-08-08 12:14:030.00m/s72.80%19.50C
2017-08-08 11:58:020.00m/s71.40%19.40C
2017-08-08 12:18:030.06m/s72.70%19.50C
2017-08-08 12:55:030.06m/s73.50%19.80C
2017-08-08 12:37:030.00m/s73.70%19.60C
2017-08-08 12:40:030.00m/s73.50%19.70C
2017-08-08 12:50:030.00m/s73.50%19.70C
2017-08-08 12:53:030.00m/s73.40%19.80C
2017-08-08 13:25:030.00m/s72.70%19.90C
2017-08-08 12:35:030.00m/s73.60%19.60C
2017-08-08 13:09:030.00m/s73.00%19.80C
2017-08-08 14:08:030.06m/s72.80%19.90C
2017-08-08 13:30:030.00m/s72.70%19.90C
2017-08-08 13:32:020.00m/s72.70%19.90C
2017-08-08 13:39:030.00m/s72.30%19.90C
2017-08-08 14:00:030.00m/s72.80%19.90C
2017-08-08 13:59:020.00m/s73.00%19.90C
2017-08-08 13:42:030.00m/s72.70%20.00C
2017-08-08 14:05:030.00m/s72.90%20.00C
2017-08-08 14:16:030.00m/s72.90%20.00C
2017-08-08 14:30:030.06m/s73.10%19.90C
2017-08-08 14:22:030.00m/s72.70%19.90C
2017-08-08 14:24:020.00m/s72.80%19.90C
2017-08-08 14:32:030.00m/s73.10%19.90C
2017-08-08 14:35:020.00m/s73.80%19.90C
2017-08-08 14:37:030.00m/s74.20%19.90C
2017-08-08 14:38:030.00m/s74.20%19.90C
2017-08-08 14:46:030.00m/s74.30%19.80C
2017-08-08 14:42:030.00m/s73.90%19.90C
2017-08-08 14:48:030.00m/s74.30%19.80C
2017-08-08 14:51:030.00m/s74.60%19.80C
2017-08-08 14:54:030.00m/s74.40%19.80C
2017-08-08 15:01:030.00m/s74.70%19.80C
2017-08-08 15:04:030.00m/s74.90%19.80C
2017-08-08 15:10:030.00m/s75.20%19.80C
2017-08-08 15:30:030.00m/s75.90%19.70C
2017-08-08 15:32:020.00m/s76.10%19.70C
2017-08-08 15:00:030.00m/s74.80%19.80C
2017-08-08 15:43:020.00m/s76.40%19.60C
2017-08-08 15:51:030.00m/s76.20%19.60C
2017-08-08 15:54:030.00m/s75.90%19.60C
2017-08-08 15:58:020.00m/s76.10%19.60C
2017-08-08 16:20:020.00m/s76.60%19.40C
2017-08-08 16:23:030.00m/s76.60%19.40C
2017-08-08 16:24:020.00m/s76.70%19.40C
2017-08-08 16:27:030.00m/s76.50%19.40C
2017-08-08 16:11:030.00m/s76.40%19.40C
2017-08-08 17:43:030.06m/s82.80%19.00C
2017-08-08 16:33:030.00m/s76.70%19.40C
2017-08-08 16:34:021.64m/s76.70%19.40C
2017-08-08 16:43:020.00m/s77.10%19.30C
2017-08-08 16:45:020.00m/s77.60%19.30C
2017-08-08 16:59:030.00m/s78.10%19.30C
2017-08-08 17:36:030.00m/s82.40%19.10C
2017-08-08 17:38:030.00m/s83.10%19.10C
2017-08-08 17:42:020.00m/s83.50%19.00C
2017-08-08 17:46:034.78m/s83.20%19.00C
2017-08-08 18:05:034.78m/s83.00%18.90C
2017-08-08 18:03:020.85m/s83.40%18.90C
2017-08-08 18:11:030.00m/s82.30%18.80C
2017-08-08 18:42:030.00m/s81.20%18.60C
2017-08-08 17:52:030.00m/s84.30%19.00C
2017-08-08 18:17:030.00m/s81.80%18.80C
2017-08-08 18:18:020.00m/s81.70%18.70C
2017-08-08 18:33:030.00m/s80.60%18.60C
2017-08-08 18:49:020.00m/s80.80%18.50C
2017-08-08 18:51:030.00m/s80.90%18.50C
2017-08-08 18:53:020.00m/s80.90%18.50C
2017-08-08 18:58:030.00m/s81.30%18.50C
2017-08-08 19:01:030.00m/s81.10%18.50C
2017-08-08 19:02:030.00m/s81.20%18.50C
2017-08-08 19:11:030.00m/s81.10%18.50C
2017-08-08 19:05:030.00m/s81.00%18.50C
2017-08-08 19:14:020.00m/s81.40%18.40C
2017-08-08 19:18:030.00m/s81.30%18.40C
2017-08-08 19:19:030.00m/s81.60%18.50C
2017-08-08 19:26:030.00m/s81.60%18.40C
2017-08-08 19:37:030.00m/s81.10%18.40C
2017-08-08 19:39:030.00m/s81.30%18.40C
2017-08-08 19:47:030.00m/s81.10%18.40C
2017-08-08 19:20:030.00m/s81.40%18.40C
2017-08-08 19:35:030.00m/s81.00%18.40C
2017-08-08 19:42:030.00m/s81.00%18.40C
2017-08-08 20:51:030.06m/s82.10%18.30C
2017-08-08 19:56:030.00m/s81.30%18.40C
2017-08-08 20:02:030.00m/s81.20%18.40C
2017-08-08 20:36:030.00m/s81.90%18.30C
2017-08-08 20:37:030.00m/s81.80%18.30C
2017-08-08 20:54:020.00m/s82.10%18.30C
2017-08-08 20:19:030.00m/s81.40%18.40C
2017-08-08 20:45:030.00m/s82.00%18.30C
2017-08-08 20:52:020.00m/s82.20%18.20C
2017-08-08 20:57:020.00m/s82.30%18.20C
2017-08-08 21:06:030.00m/s82.40%18.20C
2017-08-08 21:09:030.00m/s82.40%18.20C
2017-08-08 21:21:030.00m/s82.60%18.10C
2017-08-08 21:24:030.00m/s82.40%18.10C
2017-08-08 21:30:030.00m/s82.60%18.00C
2017-08-08 21:31:030.00m/s82.40%18.00C
2017-08-08 21:37:030.00m/s82.40%18.00C
2017-08-08 21:38:030.00m/s82.30%18.00C
2017-08-08 21:51:020.00m/s82.50%17.90C
2017-08-08 22:03:030.00m/s81.90%17.80C
2017-08-08 22:13:030.00m/s82.50%17.80C
2017-08-08 22:14:030.00m/s82.30%17.80C
2017-08-08 22:23:030.00m/s82.30%17.70C
2017-08-08 22:26:030.00m/s82.20%17.70C
2017-08-08 22:32:020.00m/s82.10%17.60C
2017-08-08 21:42:020.00m/s82.20%18.00C
2017-08-08 21:39:030.00m/s82.00%18.00C
2017-08-08 22:58:030.06m/s82.60%17.40C
2017-08-08 23:14:030.06m/s83.00%17.30C
2017-08-08 22:35:030.00m/s82.30%17.60C
2017-08-08 22:39:030.00m/s82.10%17.50C
2017-08-08 22:41:030.00m/s82.20%17.50C
2017-08-08 22:42:020.00m/s82.40%17.50C
2017-08-08 23:01:030.00m/s82.60%17.40C
2017-08-08 23:10:030.00m/s82.60%17.40C
2017-08-08 23:18:030.00m/s82.90%17.30C
2017-08-08 23:48:034.78m/s83.60%17.30C
2017-08-08 23:30:030.06m/s83.00%17.30C
2017-08-08 23:33:030.00m/s83.40%17.30C
2017-08-08 23:42:020.00m/s83.50%17.30C
2017-08-08 23:59:030.00m/s83.70%17.20C
2017-08-09 00:00:030.00m/s83.60%17.20C
2017-08-08 23:23:030.00m/s83.00%17.30C
2017-08-08 23:25:030.00m/s83.00%17.30C
2017-08-08 23:43:020.00m/s83.30%17.30C
2017-08-09 00:01:030.00m/s83.60%17.20C
2017-08-09 00:05:030.00m/s83.50%17.20C
2017-08-09 00:06:030.00m/s83.80%17.20C
2017-08-09 00:07:030.00m/s83.40%17.20C
2017-08-09 00:08:020.00m/s83.40%17.20C
2017-08-09 00:18:030.00m/s83.30%17.10C
2017-08-09 00:24:030.00m/s83.20%17.10C
2017-08-09 00:15:030.00m/s83.20%17.20C
2017-08-09 00:26:030.00m/s83.10%17.10C
2017-08-09 00:32:030.00m/s83.20%17.10C
2017-08-09 00:39:030.00m/s82.90%17.10C
2017-08-09 00:41:030.00m/s82.90%17.10C
2017-08-09 00:47:030.00m/s82.90%17.10C
2017-08-09 00:52:030.00m/s82.80%17.10C
2017-08-09 00:29:020.00m/s83.00%17.10C
2017-08-09 00:34:030.00m/s83.00%17.10C
2017-08-09 00:35:030.00m/s83.00%17.10C
2017-08-09 00:45:030.00m/s83.00%17.10C
2017-08-09 00:58:030.00m/s82.90%17.10C
2017-08-09 01:30:030.00m/s82.60%16.90C
2017-08-09 01:01:030.00m/s82.80%17.00C
2017-08-09 01:02:020.00m/s82.70%17.00C
2017-08-09 01:11:030.00m/s82.80%17.00C
2017-08-09 01:13:020.00m/s82.80%17.00C
2017-08-09 01:24:030.00m/s82.60%17.00C
2017-08-09 01:31:030.00m/s82.80%17.00C
2017-08-09 01:32:020.00m/s82.70%17.00C
2017-08-09 01:37:020.00m/s82.30%16.90C
2017-08-09 01:46:030.00m/s82.50%16.90C
2017-08-09 02:01:020.00m/s82.50%16.90C
2017-08-09 02:02:030.00m/s82.50%16.90C
2017-08-09 02:03:030.00m/s82.50%16.90C
2017-08-09 02:11:030.00m/s82.40%16.90C
2017-08-09 02:12:030.00m/s82.30%16.90C
2017-08-09 01:40:030.00m/s82.60%17.00C
2017-08-09 01:41:020.00m/s82.70%17.00C
2017-08-09 02:13:033.21m/s82.30%16.80C
2017-08-09 02:17:033.21m/s82.40%16.80C
2017-08-09 02:16:020.00m/s82.20%16.80C
2017-08-09 02:20:020.00m/s82.40%16.80C
2017-08-09 02:22:030.00m/s82.30%16.80C
2017-08-09 02:26:020.00m/s82.40%16.80C
2017-08-09 02:32:030.00m/s82.30%16.80C
2017-08-09 02:33:030.00m/s82.20%16.80C
2017-08-09 02:36:030.00m/s82.40%16.80C
2017-08-09 03:08:032.42m/s82.90%16.70C
2017-08-09 03:16:034.78m/s83.10%16.60C
2017-08-09 02:37:020.00m/s82.40%16.80C
2017-08-09 02:38:030.00m/s82.40%16.80C
2017-08-09 02:49:030.00m/s82.60%16.80C
2017-08-09 02:50:030.00m/s82.50%16.80C
2017-08-09 03:11:030.00m/s82.90%16.70C
2017-08-09 03:21:030.00m/s83.10%16.60C
2017-08-09 03:13:030.00m/s83.00%16.70C
2017-08-09 03:32:025.57m/s83.30%16.60C
2017-08-09 03:43:033.21m/s83.90%16.60C
2017-08-09 03:49:030.06m/s84.00%16.60C
2017-08-09 03:51:030.06m/s84.10%16.60C
2017-08-09 03:24:030.00m/s83.20%16.60C
2017-08-09 03:31:030.00m/s83.30%16.60C
2017-08-09 03:34:030.00m/s83.50%16.60C
2017-08-09 03:52:020.00m/s84.10%16.50C
2017-08-09 03:56:020.00m/s83.90%16.60C
2017-08-09 05:10:030.06m/s85.70%16.50C
2017-08-09 04:01:030.00m/s84.20%16.50C
2017-08-09 04:12:030.00m/s84.20%16.50C
2017-08-09 04:13:020.00m/s84.30%16.50C
2017-08-09 04:23:020.00m/s84.30%16.50C
2017-08-09 04:47:030.00m/s84.80%16.50C
2017-08-09 05:11:030.00m/s85.70%16.40C
2017-08-09 04:04:030.00m/s84.50%16.50C
2017-08-09 04:22:030.00m/s84.00%16.50C
2017-08-09 05:19:032.42m/s85.40%16.40C
2017-08-09 05:31:030.06m/s86.00%16.40C
2017-08-09 05:16:030.00m/s85.80%16.50C
2017-08-09 05:20:020.00m/s85.70%16.40C
2017-08-09 05:23:030.00m/s85.90%16.50C
2017-08-09 05:28:031.64m/s86.00%16.40C
2017-08-09 05:29:030.00m/s86.10%16.40C
2017-08-09 05:38:030.00m/s86.10%16.40C
2017-08-09 05:25:040.00m/s86.00%16.40C
2017-08-09 05:44:032.42m/s86.50%16.40C
2017-08-09 06:04:035.57m/s86.50%16.40C
2017-08-09 06:10:030.85m/s86.50%16.30C
2017-08-09 05:39:031.64m/s86.50%16.40C
2017-08-09 05:43:030.00m/s86.50%16.40C
2017-08-09 05:49:030.00m/s86.50%16.40C
2017-08-09 05:59:030.00m/s86.60%16.40C
2017-08-09 06:00:030.00m/s86.20%16.30C
2017-08-09 05:42:030.00m/s86.40%16.40C
2017-08-09 08:43:0312.65m/s86.00%16.30C
2017-08-09 06:21:033.21m/s86.50%16.30C
2017-08-09 08:21:032.42m/s86.80%16.20C
2017-08-09 08:23:032.42m/s86.70%16.20C
2017-08-09 08:55:033.21m/s85.90%16.40C
2017-08-09 08:59:035.57m/s85.60%16.40C
2017-08-09 08:30:039.50m/s86.60%16.30C
2017-08-09 08:00:039.50m/s87.50%16.20C
2017-08-09 08:15:030.00m/s87.00%16.20C
2017-08-09 09:26:037.93m/s84.80%16.70C
2017-08-09 09:27:022.42m/s84.60%16.70C
2017-08-09 09:34:036.35m/s84.30%16.80C
2017-08-09 09:36:032.42m/s84.10%16.80C
2017-08-09 09:20:030.85m/s85.00%16.60C
2017-08-09 09:14:031.64m/s85.00%16.50C
2017-08-09 09:38:031.64m/s84.00%16.80C
2017-08-09 09:49:030.00m/s83.40%16.60C
2017-08-09 09:04:030.06m/s85.40%16.40C
2017-08-09 10:15:0310.29m/s81.60%17.20C
2017-08-09 09:50:032.42m/s83.80%16.60C
2017-08-09 10:07:034.00m/s82.30%17.10C
2017-08-09 10:12:034.00m/s82.10%17.20C
2017-08-09 10:02:031.64m/s82.80%17.00C
2017-08-09 10:09:030.00m/s82.30%17.20C
2017-08-09 10:16:030.00m/s81.60%17.30C
2017-08-09 09:59:030.00m/s83.10%17.00C
2017-08-09 10:04:030.00m/s82.60%17.00C
2017-08-09 10:38:0214.22m/s80.80%17.60C
2017-08-09 10:55:0314.22m/s78.80%18.00C
2017-08-09 10:23:023.21m/s81.10%17.30C
2017-08-09 11:04:032.42m/s77.20%18.20C
2017-08-09 10:32:030.85m/s81.00%17.50C
2017-08-09 10:17:030.00m/s81.50%17.30C
2017-08-09 10:19:021.64m/s81.40%17.30C
2017-08-09 10:53:020.00m/s78.80%17.90C
2017-08-09 11:00:031.64m/s77.70%18.10C
2017-08-09 11:29:026.35m/s73.00%19.20C
2017-08-09 11:41:036.35m/s71.50%19.70C
2017-08-09 11:46:036.35m/s70.80%19.90C
2017-08-09 11:48:033.21m/s70.40%20.00C
2017-08-09 11:12:037.93m/s76.10%18.60C
2017-08-09 11:15:027.14m/s75.40%18.70C
2017-08-09 11:06:030.00m/s77.10%18.30C
2017-08-09 11:08:021.64m/s77.20%18.40C
2017-08-09 11:13:030.00m/s76.00%18.60C
2017-08-09 12:16:0211.07m/s66.90%21.10C
2017-08-09 12:06:034.78m/s67.80%20.70C
2017-08-09 12:20:034.00m/s67.10%21.30C
2017-08-09 12:02:034.00m/s67.50%20.50C
2017-08-09 12:10:039.50m/s66.80%20.80C
2017-08-09 12:09:031.64m/s67.60%20.80C
2017-08-09 11:53:020.00m/s68.90%20.20C
2017-08-09 11:56:030.00m/s67.90%20.30C
2017-08-09 12:28:030.00m/s63.20%21.50C
2017-08-09 12:41:034.78m/s61.60%22.00C
2017-08-09 12:58:025.57m/s61.70%22.60C
2017-08-09 13:08:033.21m/s59.40%22.80C
2017-08-09 13:25:024.78m/s58.80%23.40C
2017-08-09 13:27:032.42m/s57.90%23.40C
2017-08-09 13:31:032.42m/s57.40%23.50C
2017-08-09 13:40:024.00m/s56.50%24.00C
2017-08-09 12:32:030.00m/s63.40%21.60C
2017-08-09 12:53:031.64m/s61.40%22.40C
2017-08-09 14:04:033.21m/s53.50%24.80C
2017-08-09 14:19:023.21m/s51.10%25.30C
2017-08-09 14:31:038.71m/s48.80%25.60C
2017-08-09 14:06:034.00m/s53.00%24.90C
2017-08-09 14:01:021.64m/s54.30%24.70C
2017-08-09 14:16:030.85m/s51.90%25.20C
2017-08-09 13:56:030.00m/s54.70%24.50C
2017-08-09 14:14:020.00m/s51.20%25.10C
2017-08-09 14:08:030.00m/s52.00%24.90C
2017-08-09 14:47:034.00m/s48.90%26.00C
2017-08-09 14:32:031.64m/s49.10%25.70C
2017-08-09 14:44:030.00m/s48.70%25.90C
2017-08-09 14:57:020.00m/s48.70%26.20C
2017-08-09 15:10:030.00m/s48.10%26.20C
2017-08-09 15:26:030.00m/s47.70%26.10C
2017-08-09 15:18:030.85m/s48.30%26.30C
2017-08-09 15:06:030.00m/s48.00%26.20C
2017-08-09 15:14:020.00m/s48.20%26.20C
2017-08-09 15:35:033.21m/s47.50%26.20C
2017-08-09 15:37:034.00m/s47.40%26.20C
2017-08-09 15:56:034.00m/s45.90%26.30C
2017-08-09 15:33:030.85m/s47.80%26.20C
2017-08-09 15:45:030.85m/s46.30%26.10C
2017-08-09 15:31:020.00m/s47.50%26.20C
2017-08-09 15:32:020.00m/s47.60%26.20C
2017-08-09 15:46:030.00m/s46.80%26.10C
2017-08-09 15:34:030.00m/s47.20%26.20C
2017-08-09 16:34:038.71m/s47.10%26.40C
2017-08-09 16:40:036.35m/s46.20%26.30C
2017-08-09 16:31:030.06m/s46.20%26.40C
2017-08-09 16:04:030.00m/s45.80%26.20C
2017-08-09 16:22:020.00m/s45.90%26.30C
2017-08-09 16:23:030.00m/s45.60%26.40C
2017-08-09 16:27:030.00m/s46.50%26.40C
2017-08-09 16:41:020.06m/s46.30%26.30C
2017-08-09 16:11:030.00m/s46.40%26.40C
2017-08-09 16:47:033.21m/s46.00%26.30C
2017-08-09 16:45:039.50m/s46.00%26.30C
2017-08-09 16:51:020.85m/s46.70%26.30C
2017-08-09 17:16:031.64m/s45.40%26.10C
2017-08-09 16:58:030.00m/s45.50%26.20C
2017-08-09 17:00:030.00m/s45.50%26.20C
2017-08-09 17:15:020.00m/s45.30%26.10C
2017-08-09 16:49:030.00m/s46.00%26.30C
2017-08-09 17:05:030.00m/s45.00%26.20C
2017-08-09 17:37:034.78m/s45.00%26.10C
2017-08-09 17:30:030.85m/s45.40%26.10C
2017-08-09 17:34:020.06m/s45.00%26.10C
2017-08-09 17:38:030.06m/s45.00%26.10C
2017-08-09 17:25:030.00m/s45.20%26.10C
2017-08-09 17:29:030.00m/s45.70%26.10C
2017-08-09 17:40:030.00m/s45.40%26.10C
2017-08-09 17:36:020.00m/s45.00%26.10C
2017-08-09 17:45:030.00m/s44.00%26.10C
2017-08-09 18:05:033.21m/s44.70%25.90C
2017-08-09 18:23:033.21m/s44.70%25.80C
2017-08-09 18:10:030.85m/s44.80%25.90C
2017-08-09 17:51:020.00m/s43.80%25.90C
2017-08-09 18:03:030.00m/s44.80%25.90C
2017-08-09 18:04:030.00m/s44.50%25.90C
2017-08-09 18:16:030.00m/s44.70%25.80C
2017-08-09 18:09:030.85m/s44.90%25.90C
2017-08-09 17:55:030.00m/s44.00%25.90C
2017-08-09 18:50:037.93m/s44.60%25.50C
2017-08-09 18:52:033.21m/s44.50%25.50C
2017-08-09 18:41:020.06m/s44.70%25.60C
2017-08-09 18:31:030.00m/s44.60%25.70C
2017-08-09 18:44:030.00m/s44.70%25.60C
2017-08-09 18:47:030.00m/s44.60%25.50C
2017-08-09 18:25:030.00m/s44.70%25.70C
2017-08-09 18:49:020.00m/s44.50%25.50C
2017-08-09 18:56:030.00m/s43.40%25.40C
2017-08-09 19:02:035.57m/s44.50%25.40C
2017-08-09 19:18:035.57m/s44.30%25.20C
2017-08-09 19:25:032.42m/s44.30%25.10C
2017-08-09 18:58:030.85m/s44.50%25.40C
2017-08-09 19:11:030.00m/s44.40%25.30C
2017-08-09 19:12:030.00m/s44.40%25.30C
2017-08-09 19:15:030.00m/s44.30%25.20C
2017-08-09 19:22:030.00m/s45.00%25.10C
2017-08-09 19:34:020.00m/s45.00%25.10C
2017-08-09 19:57:023.21m/s46.40%24.90C
2017-08-09 19:35:020.06m/s44.80%25.10C
2017-08-09 19:47:030.85m/s45.40%25.00C
2017-08-09 20:03:030.06m/s47.20%24.80C
2017-08-09 20:11:030.06m/s46.10%24.40C
2017-08-09 20:25:020.00m/s47.60%24.40C
2017-08-09 20:28:020.00m/s47.90%24.40C
2017-08-09 20:24:030.06m/s47.40%24.40C
2017-08-09 20:34:020.00m/s48.30%24.30C
2017-08-09 20:36:020.06m/s48.60%24.20C
2017-08-09 20:39:020.00m/s48.90%24.20C
2017-08-09 20:40:030.00m/s48.70%24.20C
2017-08-09 20:44:020.00m/s49.50%24.10C
2017-08-09 20:46:030.00m/s49.50%24.10C
2017-08-09 20:56:030.00m/s50.30%23.90C
2017-08-09 21:03:020.00m/s51.10%23.70C
2017-08-09 20:37:030.00m/s49.00%24.20C
2017-08-09 20:53:030.00m/s49.90%23.90C
2017-08-09 21:08:030.00m/s51.50%23.60C
2017-08-09 21:23:020.00m/s53.50%23.30C
2017-08-09 21:25:020.00m/s53.50%23.20C
2017-08-09 21:39:030.00m/s54.40%22.90C
2017-08-09 21:48:030.00m/s55.40%22.80C
2017-08-09 21:52:030.00m/s55.40%22.70C
2017-08-09 22:05:030.00m/s56.40%22.50C
2017-08-09 22:06:030.00m/s56.20%22.40C
2017-08-09 21:14:020.00m/s52.50%23.50C
2017-08-09 22:21:020.00m/s57.40%22.20C
2017-08-09 22:23:030.00m/s57.50%22.20C
2017-08-09 22:27:030.00m/s57.60%22.10C
2017-08-09 22:29:030.00m/s57.80%22.10C
2017-08-09 22:30:030.00m/s58.20%22.10C
2017-08-09 22:16:030.00m/s57.00%22.30C
2017-08-09 22:19:020.00m/s57.20%22.20C
2017-08-09 22:32:030.00m/s57.90%22.00C
2017-08-09 22:34:030.00m/s58.10%22.00C
2017-08-09 22:41:030.00m/s58.40%21.90C
2017-08-09 22:52:030.00m/s59.10%21.70C
2017-08-09 23:07:020.00m/s60.20%21.50C
2017-08-09 23:08:030.00m/s60.10%21.50C
2017-08-09 23:16:020.00m/s60.60%21.40C
2017-08-09 23:21:030.00m/s60.50%21.30C
2017-08-09 23:23:030.00m/s60.50%21.30C
2017-08-09 22:35:030.00m/s58.10%22.00C
2017-08-09 22:36:020.00m/s58.00%21.90C
2017-08-09 23:24:030.06m/s60.40%21.20C
2017-08-09 23:27:020.00m/s60.40%21.20C
2017-08-09 23:29:030.00m/s60.40%21.20C
2017-08-09 23:30:030.00m/s60.60%21.20C
2017-08-10 00:01:030.00m/s62.50%20.80C
2017-08-10 00:19:030.00m/s63.30%20.50C
2017-08-09 23:43:030.00m/s61.20%21.00C
2017-08-09 23:44:030.00m/s61.40%21.00C
2017-08-10 00:24:020.00m/s63.50%20.50C
2017-08-10 00:27:020.00m/s63.80%20.50C
2017-08-10 00:28:030.00m/s63.80%20.50C
2017-08-10 00:37:030.00m/s64.50%20.40C
2017-08-10 00:40:030.00m/s64.20%20.30C
2017-08-10 00:44:030.00m/s64.60%20.30C
2017-08-10 00:56:030.00m/s64.80%20.20C
2017-08-10 01:01:030.00m/s65.30%20.10C
2017-08-10 00:55:030.00m/s65.20%20.20C
2017-08-10 00:59:030.00m/s65.10%20.10C
2017-08-10 01:02:030.00m/s65.50%20.10C
2017-08-10 01:20:030.00m/s65.50%19.90C
2017-08-10 01:21:031.64m/s65.70%19.90C
2017-08-10 02:46:030.00m/s67.60%19.00C
2017-08-10 02:47:020.00m/s67.50%19.00C
2017-08-10 02:48:030.00m/s67.60%19.00C
2017-08-10 01:12:020.00m/s65.80%20.00C
2017-08-10 01:13:030.00m/s65.80%20.00C
2017-08-10 01:19:030.00m/s65.80%20.00C
2017-08-10 02:51:030.00m/s67.70%18.90C
2017-08-10 02:54:030.00m/s67.40%18.90C
2017-08-10 03:09:020.00m/s67.80%18.70C
2017-08-10 03:10:030.00m/s67.60%18.70C
2017-08-10 03:15:030.00m/s68.10%18.70C
2017-08-10 03:26:030.00m/s67.90%18.60C
2017-08-10 03:28:030.00m/s68.30%18.60C
2017-08-10 03:57:030.00m/s68.70%18.20C
2017-08-10 04:03:030.00m/s69.00%18.20C
2017-08-10 04:06:030.00m/s68.90%18.10C
2017-08-10 04:09:030.00m/s68.90%18.10C
2017-08-10 04:16:030.00m/s69.10%18.10C
2017-08-10 04:18:020.00m/s69.50%18.00C
2017-08-10 04:20:030.00m/s69.20%18.00C
2017-08-10 04:31:030.00m/s69.80%18.00C
2017-08-10 04:39:030.00m/s70.00%17.90C
2017-08-10 04:45:030.00m/s70.00%17.80C
2017-08-10 04:15:030.00m/s69.00%18.00C
2017-08-10 04:47:020.06m/s70.10%17.80C
2017-08-10 04:52:030.00m/s70.20%17.80C
2017-08-10 04:59:020.00m/s70.30%17.80C
2017-08-10 05:01:030.00m/s70.20%17.70C
2017-08-10 05:03:030.00m/s70.20%17.70C
2017-08-10 05:07:030.00m/s70.40%17.70C
2017-08-10 05:17:030.00m/s70.80%17.60C
2017-08-10 05:31:020.00m/s70.90%17.60C
2017-08-10 05:27:020.00m/s71.00%17.60C
2017-08-10 05:37:030.00m/s71.10%17.60C
2017-08-10 05:40:030.00m/s71.30%17.60C
2017-08-10 05:47:030.00m/s71.30%17.50C
2017-08-10 05:49:030.00m/s71.70%17.50C
2017-08-10 06:00:030.00m/s71.70%17.40C
2017-08-10 06:01:030.00m/s71.60%17.40C
2017-08-10 06:12:030.00m/s71.90%17.40C
2017-08-10 06:13:030.00m/s71.90%17.40C
2017-08-10 05:48:030.00m/s71.50%17.50C
2017-08-10 06:34:030.00m/s72.10%17.30C
2017-08-10 06:38:030.00m/s72.40%17.30C
2017-08-10 06:42:020.00m/s72.60%17.30C
2017-08-10 06:44:030.00m/s72.30%17.20C
2017-08-10 06:46:030.00m/s72.50%17.20C
2017-08-10 06:47:020.00m/s72.40%17.30C
2017-08-10 06:24:030.00m/s72.00%17.30C
2017-08-10 06:32:030.00m/s72.30%17.30C
2017-08-10 06:33:030.00m/s72.30%17.30C
2017-08-10 06:50:030.00m/s72.50%17.20C
2017-08-10 06:51:030.00m/s72.60%17.20C
2017-08-10 06:52:030.00m/s72.60%17.20C
2017-08-10 06:55:020.00m/s72.60%17.20C
2017-08-10 06:57:020.00m/s72.60%17.20C
2017-08-10 07:00:030.00m/s72.60%17.20C
2017-08-10 07:06:030.00m/s72.70%17.20C
2017-08-10 07:08:030.00m/s72.90%17.20C
2017-08-10 07:13:030.00m/s72.90%17.20C
2017-08-10 07:34:030.00m/s73.20%17.10C
2017-08-10 07:51:030.00m/s73.30%17.10C
2017-08-10 08:06:030.00m/s73.60%17.10C
2017-08-10 08:07:030.00m/s73.50%17.10C
2017-08-10 08:19:020.00m/s73.70%17.10C
2017-08-10 07:22:030.00m/s73.00%17.10C
2017-08-10 07:28:030.00m/s73.00%17.10C
2017-08-10 07:32:020.00m/s73.10%17.10C
2017-08-10 07:33:030.00m/s73.10%17.10C
2017-08-10 08:29:030.06m/s73.80%17.10C
2017-08-10 08:20:030.00m/s73.80%17.10C
2017-08-10 08:25:020.00m/s73.70%17.10C
2017-08-10 08:30:030.00m/s73.90%17.10C
2017-08-10 08:57:030.00m/s74.10%17.20C
2017-08-10 08:58:030.00m/s74.20%17.10C
2017-08-10 08:37:030.00m/s74.00%17.10C
2017-08-10 08:41:030.00m/s74.00%17.10C
2017-08-10 09:04:030.00m/s74.20%17.20C
2017-08-10 09:36:030.06m/s74.20%17.40C
2017-08-10 09:08:030.00m/s74.40%17.20C
2017-08-10 09:15:030.00m/s74.20%17.30C
2017-08-10 09:26:030.00m/s74.20%17.30C
2017-08-10 09:55:030.00m/s74.30%17.60C
2017-08-10 09:57:020.00m/s74.40%17.60C
2017-08-10 09:59:030.00m/s74.60%17.70C
2017-08-10 09:17:020.00m/s74.30%17.30C
2017-08-10 09:28:020.00m/s74.40%17.40C
2017-08-10 10:13:020.00m/s77.40%17.80C
2017-08-10 10:20:030.00m/s76.80%17.90C
2017-08-10 10:37:020.00m/s75.80%18.20C
2017-08-10 10:42:020.00m/s75.60%18.30C
2017-08-10 10:44:030.00m/s75.40%18.30C
2017-08-10 10:49:030.00m/s75.20%18.40C
2017-08-10 10:31:020.00m/s76.10%18.10C
2017-08-10 10:52:030.00m/s75.00%18.40C
2017-08-10 10:54:030.00m/s75.00%18.50C
2017-08-10 10:57:030.00m/s74.80%18.50C
2017-08-10 11:02:030.00m/s74.70%18.60C
2017-08-10 11:05:030.00m/s74.50%18.60C
2017-08-10 11:09:030.00m/s74.50%18.70C
2017-08-10 11:11:030.00m/s74.40%18.70C
2017-08-10 11:15:020.00m/s74.10%18.70C
2017-08-10 11:18:030.00m/s74.20%18.80C
2017-08-10 11:22:030.00m/s74.10%18.80C
2017-08-10 11:25:020.00m/s74.10%18.80C
2017-08-10 12:01:020.06m/s73.60%19.00C
2017-08-10 12:06:030.06m/s73.80%19.00C
2017-08-10 11:30:030.00m/s73.90%18.80C
2017-08-10 11:41:030.00m/s73.70%18.90C
2017-08-10 11:27:020.00m/s74.00%18.80C
2017-08-10 11:50:030.00m/s73.80%19.00C
2017-08-10 11:58:020.00m/s73.80%19.00C
2017-08-10 12:02:030.00m/s73.70%19.00C
2017-08-10 12:04:030.00m/s73.70%19.00C
2017-08-10 12:22:020.06m/s73.30%19.10C
2017-08-10 12:15:031.64m/s73.50%19.00C
2017-08-10 12:27:030.00m/s73.40%19.10C
2017-08-10 12:28:030.00m/s73.40%19.10C
2017-08-10 12:36:030.00m/s73.20%19.10C
2017-08-10 12:50:030.00m/s73.20%19.10C
2017-08-10 12:51:030.00m/s73.20%19.10C
2017-08-10 12:12:030.00m/s73.50%19.00C
2017-08-10 13:00:030.00m/s73.00%19.10C
2017-08-10 13:06:030.00m/s73.30%19.20C
2017-08-10 13:13:020.00m/s73.40%19.10C
2017-08-10 13:14:030.00m/s73.30%19.20C
2017-08-10 13:23:030.00m/s73.30%19.10C
2017-08-10 13:31:030.00m/s73.40%19.20C
2017-08-10 13:32:030.00m/s73.30%19.10C
2017-08-10 13:44:030.00m/s73.40%19.10C
2017-08-10 13:02:020.00m/s73.00%19.10C
2017-08-10 13:09:030.00m/s73.20%19.20C
2017-08-10 13:48:030.00m/s73.50%19.20C
2017-08-10 13:50:030.00m/s73.60%19.20C
2017-08-10 13:51:020.00m/s73.60%19.20C
2017-08-10 13:55:030.00m/s73.50%19.20C
2017-08-10 13:56:030.00m/s73.50%19.20C
2017-08-10 13:59:030.00m/s73.70%19.20C
2017-08-10 14:03:030.00m/s73.60%19.20C
2017-08-10 14:04:020.00m/s73.70%19.20C
2017-08-10 14:12:030.00m/s73.70%19.20C
2017-08-10 14:21:030.00m/s73.70%19.20C
2017-08-10 14:28:030.00m/s73.60%19.20C
2017-08-10 14:29:030.00m/s73.60%19.20C
2017-08-10 14:36:030.00m/s73.80%19.30C
2017-08-10 14:37:030.00m/s73.80%19.30C
2017-08-10 14:47:030.00m/s73.60%19.30C
2017-08-10 14:57:020.00m/s73.90%19.40C
2017-08-10 15:05:030.00m/s73.90%19.40C
2017-08-10 15:04:030.00m/s74.00%19.40C
2017-08-10 15:09:030.00m/s74.20%19.40C
2017-08-10 15:17:030.00m/s74.20%19.40C
2017-08-10 15:26:030.00m/s74.10%19.40C
2017-08-10 15:41:030.00m/s74.60%19.40C
2017-08-10 15:42:020.00m/s74.80%19.40C
2017-08-10 15:57:030.00m/s75.70%19.50C
2017-08-10 15:59:020.00m/s75.70%19.50C
2017-08-10 16:07:020.00m/s75.20%19.50C
2017-08-10 16:13:030.00m/s75.20%19.50C
2017-08-10 16:49:030.06m/s75.00%19.60C
2017-08-10 16:26:030.00m/s74.80%19.60C
2017-08-10 16:40:030.00m/s75.10%19.60C
2017-08-10 16:41:020.00m/s75.10%19.60C
2017-08-10 17:13:030.00m/s74.90%19.70C
2017-08-10 16:20:030.00m/s75.00%19.50C
2017-08-10 16:29:030.00m/s75.00%19.50C
2017-08-10 16:38:020.00m/s75.00%19.60C
2017-08-10 16:59:030.00m/s75.00%19.70C
2017-08-10 18:05:020.06m/s75.30%19.80C
2017-08-10 17:28:020.00m/s74.70%19.80C
2017-08-10 17:41:030.00m/s75.10%19.80C
2017-08-10 17:43:030.00m/s74.90%19.80C
2017-08-10 17:57:030.00m/s75.10%19.80C
2017-08-10 18:07:030.00m/s75.30%19.80C
2017-08-10 18:08:030.00m/s75.50%19.80C
2017-08-10 18:09:030.00m/s75.30%19.80C
2017-08-10 17:29:030.00m/s74.80%19.80C
2017-08-10 18:15:030.00m/s75.40%19.80C
2017-08-10 18:20:020.00m/s75.60%19.80C
2017-08-10 18:22:030.00m/s75.50%19.80C
2017-08-10 18:24:030.00m/s75.60%19.80C
2017-08-10 18:27:030.00m/s75.40%19.80C
2017-08-10 18:39:030.00m/s75.50%19.80C
2017-08-10 18:47:030.00m/s75.30%19.70C
2017-08-10 18:58:030.00m/s75.60%19.70C
2017-08-10 19:01:020.00m/s75.60%19.70C
2017-08-10 19:02:030.00m/s75.40%19.70C
2017-08-10 19:03:030.00m/s75.50%19.70C
2017-08-10 19:08:030.00m/s75.20%19.70C
2017-08-10 19:19:030.00m/s75.50%19.60C
2017-08-10 19:21:030.00m/s75.40%19.60C
2017-08-10 19:22:030.00m/s75.30%19.60C
2017-08-10 19:29:020.00m/s75.40%19.60C
2017-08-10 19:34:030.00m/s75.50%19.60C
2017-08-10 19:41:030.00m/s75.30%19.50C
2017-08-10 20:06:190.06m/s76.30%19.50C
2017-08-10 20:02:030.00m/s76.10%19.40C
2017-08-10 20:12:020.00m/s76.50%19.40C
2017-08-10 20:13:020.00m/s76.30%19.40C
2017-08-10 20:17:030.00m/s76.60%19.40C
2017-08-10 20:30:030.00m/s77.10%19.30C
2017-08-10 22:06:030.00m/s77.60%18.80C
2017-08-10 22:07:030.00m/s77.60%18.80C
2017-08-10 19:58:030.00m/s76.00%19.50C
2017-08-10 22:08:020.00m/s77.60%18.80C
2017-08-10 22:09:030.00m/s77.60%18.80C
2017-08-10 22:15:020.00m/s77.50%18.70C
2017-08-10 22:17:030.00m/s77.50%18.70C
2017-08-10 22:19:030.00m/s77.50%18.70C
2017-08-10 22:20:030.00m/s77.60%18.80C
2017-08-10 22:26:030.00m/s77.50%18.70C
2017-08-10 22:27:020.00m/s77.50%18.70C
2017-08-10 22:31:030.00m/s77.60%18.70C
2017-08-10 22:36:030.00m/s77.60%18.70C
2017-08-10 22:40:030.00m/s77.90%18.60C
2017-08-10 22:43:030.00m/s77.70%18.60C
2017-08-10 22:48:030.00m/s78.20%18.60C
2017-08-10 22:52:030.00m/s78.30%18.60C
2017-08-10 22:58:020.00m/s77.90%18.60C
2017-08-10 23:01:030.00m/s78.50%18.60C
2017-08-10 23:03:020.00m/s78.60%18.50C
2017-08-10 22:34:020.00m/s77.70%18.70C
2017-08-10 23:10:030.00m/s78.40%18.50C
2017-08-10 23:12:030.00m/s78.60%18.50C
2017-08-10 23:18:020.00m/s78.80%18.50C
2017-08-10 23:31:030.00m/s78.70%18.40C
2017-08-10 23:37:030.00m/s78.90%18.40C
2017-08-10 23:40:030.00m/s78.90%18.40C
2017-08-10 23:43:030.00m/s79.00%18.40C
2017-08-10 23:56:020.00m/s79.00%18.40C
2017-08-10 23:15:030.00m/s78.50%18.50C
2017-08-11 00:11:020.00m/s79.10%18.30C
2017-08-11 00:14:030.00m/s79.10%18.30C
2017-08-11 00:23:030.00m/s79.40%18.30C
2017-08-11 00:33:030.00m/s79.30%18.20C
2017-08-11 00:34:030.00m/s79.50%18.30C
2017-08-11 00:44:030.00m/s79.40%18.20C
2017-08-11 00:47:030.00m/s79.60%18.20C
2017-08-11 00:15:020.00m/s79.00%18.30C
2017-08-11 00:31:020.00m/s79.20%18.20C
2017-08-11 00:55:020.00m/s79.70%18.20C
2017-08-11 00:59:020.00m/s79.60%18.20C
2017-08-11 01:06:030.00m/s79.60%18.10C
2017-08-11 01:08:020.00m/s79.70%18.10C
2017-08-11 01:42:020.00m/s80.40%18.00C
2017-08-11 01:47:020.00m/s80.30%18.00C
2017-08-11 01:57:030.00m/s81.00%17.90C
2017-08-11 01:23:030.00m/s80.00%18.10C
2017-08-11 01:25:020.00m/s80.00%18.00C
2017-08-11 02:02:030.00m/s81.10%17.90C
2017-08-11 02:03:030.00m/s81.10%17.90C
2017-08-11 02:04:020.00m/s81.10%17.90C
2017-08-11 02:17:030.00m/s81.20%17.80C
2017-08-11 02:24:030.00m/s81.20%17.80C
2017-08-11 02:27:030.00m/s81.30%17.80C
2017-08-11 01:58:030.00m/s81.00%17.90C
2017-08-11 02:10:030.00m/s81.00%17.90C
2017-08-11 02:25:030.00m/s81.00%17.80C
2017-08-11 02:30:030.00m/s81.20%17.80C
2017-08-11 02:36:030.00m/s81.20%17.80C
2017-08-11 02:38:030.00m/s81.10%17.80C
2017-08-11 02:49:030.00m/s81.40%17.80C
2017-08-11 02:51:030.00m/s81.20%17.70C
2017-08-11 02:58:020.00m/s81.40%17.70C
2017-08-11 03:00:030.00m/s81.30%17.70C
2017-08-11 03:04:030.00m/s81.50%17.70C
2017-08-11 03:14:030.00m/s81.80%17.70C
2017-08-11 03:15:030.00m/s81.40%17.60C
2017-08-11 03:34:030.00m/s81.70%17.60C
2017-08-11 03:37:020.00m/s81.70%17.50C
2017-08-11 03:49:020.00m/s81.80%17.50C
2017-08-11 03:52:020.00m/s81.80%17.50C
2017-08-11 03:56:030.00m/s81.90%17.50C
2017-08-11 03:57:020.00m/s81.90%17.50C
2017-08-11 03:50:030.00m/s82.00%17.50C
2017-08-11 03:58:020.00m/s82.00%17.50C
2017-08-11 04:18:030.06m/s81.90%17.50C
2017-08-11 04:01:020.00m/s81.90%17.50C
2017-08-11 04:06:030.00m/s81.80%17.50C
2017-08-11 04:10:030.00m/s81.90%17.50C
2017-08-11 04:11:030.00m/s81.80%17.50C
2017-08-11 04:12:030.00m/s81.80%17.50C
2017-08-11 04:14:020.00m/s81.90%17.50C
2017-08-11 04:13:030.00m/s82.00%17.50C
2017-08-11 04:15:030.00m/s82.00%17.40C
2017-08-11 04:21:020.00m/s81.90%17.40C
2017-08-11 04:37:030.00m/s81.80%17.40C
2017-08-11 04:43:030.00m/s81.80%17.40C
2017-08-11 04:44:030.00m/s81.90%17.40C
2017-08-11 04:48:030.00m/s81.90%17.40C
2017-08-11 05:22:030.00m/s81.90%17.20C
2017-08-11 05:26:030.00m/s81.90%17.20C
2017-08-11 05:02:030.00m/s82.00%17.30C
2017-08-11 05:28:030.00m/s82.00%17.20C
2017-08-11 05:42:030.06m/s82.20%17.10C
2017-08-11 05:32:030.00m/s81.90%17.10C
2017-08-11 05:37:030.00m/s81.90%17.10C
2017-08-11 05:48:030.00m/s82.20%17.10C
2017-08-11 05:50:030.00m/s82.20%17.10C
2017-08-11 05:52:030.00m/s81.90%17.10C
2017-08-11 05:53:030.00m/s82.00%17.10C
2017-08-11 05:58:030.00m/s82.10%17.00C
2017-08-11 06:02:030.00m/s82.20%17.00C
2017-08-11 06:22:030.00m/s82.10%16.90C
2017-08-11 06:25:030.00m/s82.10%16.90C
2017-08-11 06:26:030.00m/s82.10%16.90C
2017-08-11 06:28:020.00m/s82.10%16.90C
2017-08-11 06:33:020.00m/s82.10%16.90C
2017-08-11 06:40:020.00m/s82.10%16.90C
2017-08-11 06:08:030.00m/s82.20%17.00C
2017-08-11 06:13:030.00m/s82.20%17.00C
2017-08-11 06:37:030.00m/s82.00%16.90C
2017-08-11 06:54:030.00m/s82.30%16.80C
2017-08-11 06:56:030.00m/s82.30%16.70C
2017-08-11 07:00:020.00m/s82.30%16.80C
2017-08-11 07:09:030.00m/s82.40%16.70C
2017-08-11 07:10:020.00m/s82.30%16.70C
2017-08-11 07:34:030.00m/s82.50%16.60C
2017-08-11 06:41:030.00m/s82.00%16.80C
2017-08-11 06:44:030.00m/s82.00%16.80C
2017-08-11 06:52:030.00m/s82.00%16.80C
2017-08-11 07:45:020.06m/s82.80%16.50C
2017-08-11 07:42:030.00m/s82.70%16.60C
2017-08-11 07:47:030.00m/s82.80%16.50C
2017-08-11 08:02:030.00m/s83.10%16.50C
2017-08-11 08:03:020.00m/s83.30%16.50C
2017-08-11 08:11:030.00m/s83.40%16.50C
2017-08-11 08:17:030.00m/s83.30%16.60C
2017-08-11 07:54:030.00m/s83.00%16.50C
2017-08-11 08:21:030.00m/s83.50%16.50C
2017-08-11 08:47:030.06m/s83.40%16.60C
2017-08-11 08:40:020.00m/s83.40%16.60C
2017-08-11 08:41:020.00m/s83.50%16.60C
2017-08-11 09:00:020.00m/s83.30%16.60C
2017-08-11 09:03:030.00m/s83.30%16.70C
2017-08-11 09:09:030.00m/s83.20%16.70C
2017-08-11 09:14:030.00m/s83.50%16.70C
2017-08-11 09:19:030.00m/s83.50%16.70C
2017-08-11 09:33:030.00m/s84.30%16.80C
2017-08-11 09:38:030.00m/s84.20%16.90C
2017-08-11 10:17:030.00m/s82.70%17.50C
2017-08-11 10:18:030.00m/s82.70%17.50C
2017-08-11 10:47:030.00m/s80.50%18.30C
2017-08-11 09:42:030.00m/s84.00%16.90C
2017-08-11 10:04:030.00m/s83.20%17.20C
2017-08-11 10:08:030.00m/s83.30%17.30C
2017-08-11 10:20:020.00m/s82.60%17.60C
2017-08-11 10:21:030.00m/s82.60%17.60C
2017-08-11 10:58:020.00m/s79.40%18.70C
2017-08-11 11:01:020.00m/s78.90%18.80C
2017-08-11 11:02:030.00m/s78.90%18.80C
2017-08-11 11:25:030.00m/s77.60%19.40C
2017-08-11 11:28:020.00m/s77.20%19.50C
2017-08-11 11:30:030.00m/s77.10%19.50C
2017-08-11 10:49:030.00m/s80.40%18.40C
2017-08-11 11:10:030.00m/s78.30%19.00C
2017-08-11 11:17:020.00m/s78.00%19.20C
2017-08-11 11:35:020.00m/s76.70%19.60C
2017-08-11 11:38:030.00m/s76.20%19.70C
2017-08-11 11:50:030.00m/s74.40%20.20C
2017-08-11 12:01:030.00m/s73.60%20.50C
2017-08-11 12:05:020.00m/s73.40%20.60C
2017-08-11 12:06:030.00m/s73.10%20.60C
2017-08-11 12:13:030.00m/s72.60%20.80C
2017-08-11 11:56:030.00m/s74.00%20.40C
2017-08-11 12:10:030.00m/s73.00%20.70C
2017-08-11 12:15:030.06m/s72.70%20.80C
2017-08-11 12:16:030.00m/s72.50%20.80C
2017-08-11 12:20:030.00m/s72.30%20.90C
2017-08-11 12:29:030.00m/s71.30%21.20C
2017-08-11 12:36:030.00m/s70.80%21.50C
2017-08-11 12:44:020.00m/s69.30%21.80C
2017-08-11 12:46:030.00m/s69.20%21.90C
2017-08-11 12:50:030.00m/s68.30%22.10C
2017-08-11 12:22:030.00m/s72.00%21.00C
2017-08-11 12:51:020.06m/s68.70%22.20C
2017-08-11 12:52:030.06m/s68.50%22.30C
2017-08-11 13:46:030.06m/s59.10%25.00C
2017-08-11 12:55:030.00m/s68.20%22.40C
2017-08-11 12:58:030.00m/s68.30%22.60C
2017-08-11 12:59:030.00m/s68.10%22.60C
2017-08-11 13:38:030.00m/s60.90%24.60C
2017-08-11 13:19:030.00m/s64.00%23.70C
2017-08-11 13:48:030.00m/s59.00%25.10C
2017-08-11 14:07:032.42m/s54.90%26.00C
2017-08-11 14:17:020.06m/s53.90%26.30C
2017-08-11 13:49:030.00m/s58.90%25.20C
2017-08-11 13:50:030.00m/s58.50%25.30C
2017-08-11 13:54:030.00m/s57.70%25.40C
2017-08-11 14:00:040.00m/s56.30%25.70C
2017-08-11 14:22:030.00m/s53.30%26.50C
2017-08-11 14:14:020.00m/s54.30%26.30C
2017-08-11 14:26:030.00m/s53.00%26.60C
2017-08-11 14:39:034.78m/s52.20%27.10C
2017-08-11 14:59:033.21m/s49.70%27.60C
2017-08-11 15:03:033.21m/s49.60%27.60C
2017-08-11 15:16:034.00m/s49.30%27.70C
2017-08-11 16:48:020.06m/s41.90%28.80C
2017-08-11 14:40:030.00m/s51.40%27.10C
2017-08-11 14:51:030.00m/s50.80%27.40C
2017-08-11 16:55:020.00m/s42.40%28.90C
2017-08-11 16:43:030.00m/s42.80%28.80C
2017-08-11 17:24:0313.43m/s41.70%28.70C
2017-08-11 17:16:035.57m/s42.00%28.80C
2017-08-11 17:01:030.85m/s41.60%28.90C
2017-08-11 17:29:030.06m/s42.10%28.60C
2017-08-11 17:33:030.06m/s42.70%28.50C
2017-08-11 16:57:030.00m/s42.30%28.90C
2017-08-11 17:09:020.00m/s41.40%28.90C
2017-08-11 17:32:030.00m/s42.50%28.60C
2017-08-11 17:34:030.00m/s41.80%28.50C
2017-08-11 18:16:031.64m/s43.80%27.50C
2017-08-11 18:27:031.64m/s44.60%27.20C
2017-08-11 18:04:030.00m/s43.20%27.80C
2017-08-11 18:07:030.00m/s43.50%27.70C
2017-08-11 18:11:030.00m/s43.50%27.60C
2017-08-11 18:29:030.00m/s44.30%27.10C
2017-08-11 18:08:020.06m/s42.60%27.60C
2017-08-11 17:47:030.00m/s43.00%28.20C
2017-08-11 18:01:030.00m/s43.00%27.90C
2017-08-11 19:02:033.21m/s46.60%26.30C
2017-08-11 18:54:024.78m/s46.10%26.50C
2017-08-11 18:42:031.64m/s45.40%26.70C
2017-08-11 19:07:030.00m/s46.60%26.10C
2017-08-11 19:14:030.00m/s46.50%25.90C
2017-08-11 19:21:020.00m/s46.90%25.70C
2017-08-11 18:38:020.00m/s45.00%26.80C
2017-08-11 19:12:030.00m/s46.40%26.00C
2017-08-11 19:35:030.00m/s48.00%25.40C
2017-08-11 19:37:030.00m/s48.20%25.40C
2017-08-11 19:39:030.00m/s48.70%25.30C
2017-08-11 19:55:020.00m/s49.10%24.80C
2017-08-11 20:00:030.00m/s49.50%24.70C
2017-08-11 20:03:030.00m/s49.70%24.60C
2017-08-11 20:18:030.00m/s50.20%24.30C
2017-08-11 20:19:020.00m/s50.20%24.30C
2017-08-11 20:16:030.00m/s50.40%24.40C
2017-08-11 20:17:030.00m/s50.30%24.30C
2017-08-11 20:29:030.00m/s50.80%24.10C
2017-08-11 20:32:030.00m/s50.80%24.10C
2017-08-11 20:41:030.00m/s51.40%23.90C
2017-08-11 20:42:030.00m/s51.30%23.80C
2017-08-11 20:53:030.00m/s51.90%23.60C
2017-08-11 20:56:020.00m/s52.10%23.60C
2017-08-11 20:58:030.00m/s52.30%23.50C
2017-08-11 21:00:040.00m/s52.40%23.50C
2017-08-11 20:34:020.00m/s50.80%24.00C
2017-08-11 21:07:030.00m/s52.70%23.30C
2017-08-11 21:12:030.00m/s53.20%23.30C
2017-08-11 21:13:030.00m/s53.10%23.20C
2017-08-11 21:15:030.00m/s53.40%23.20C
2017-08-11 21:18:020.00m/s53.60%23.20C
2017-08-11 21:39:020.00m/s54.70%22.80C
2017-08-11 21:40:030.00m/s54.50%22.70C
2017-08-11 21:49:030.00m/s55.20%22.50C
2017-08-11 21:10:030.00m/s53.00%23.30C
2017-08-11 21:58:031.64m/s55.10%22.40C
2017-08-11 21:56:030.00m/s55.10%22.40C
2017-08-11 22:00:030.00m/s55.10%22.40C
2017-08-11 22:08:030.00m/s54.90%22.20C
2017-08-11 22:16:020.00m/s55.40%22.10C
2017-08-11 22:35:030.00m/s56.40%21.80C
2017-08-11 22:38:030.00m/s56.60%21.70C
2017-08-11 22:39:030.00m/s56.50%21.70C
2017-08-11 22:47:030.00m/s56.90%21.60C
2017-08-11 23:17:020.06m/s58.50%21.00C
2017-08-11 23:38:030.06m/s59.40%20.70C
2017-08-11 22:51:020.00m/s57.30%21.50C
2017-08-11 22:59:030.00m/s57.60%21.30C
2017-08-11 23:05:030.00m/s57.80%21.30C
2017-08-11 23:07:030.00m/s57.80%21.20C
2017-08-11 23:33:020.00m/s59.30%20.80C
2017-08-11 23:03:020.00m/s58.00%21.30C
2017-08-11 23:26:030.00m/s59.00%20.90C
2017-08-12 00:08:033.21m/s58.60%20.20C
2017-08-12 00:15:025.57m/s59.00%20.10C
2017-08-11 23:58:020.06m/s59.20%20.30C
2017-08-11 23:40:040.00m/s59.80%20.60C
2017-08-11 23:46:030.00m/s59.70%20.50C
2017-08-11 23:48:030.00m/s59.70%20.50C
2017-08-12 00:13:030.00m/s59.40%20.10C
2017-08-12 00:06:030.00m/s59.20%20.20C
2017-08-12 00:17:030.00m/s59.20%20.00C
2017-08-12 00:27:034.78m/s59.20%19.90C
2017-08-12 00:29:022.42m/s59.20%19.80C
2017-08-12 00:31:033.21m/s59.60%19.80C
2017-08-12 00:37:024.78m/s59.70%19.70C
2017-08-12 00:28:030.00m/s59.20%19.90C
2017-08-12 00:30:020.00m/s59.50%19.80C
2017-08-12 00:36:030.00m/s59.70%19.80C
2017-08-12 00:18:030.00m/s59.30%20.00C
2017-08-12 00:19:030.00m/s59.30%20.00C
2017-08-12 00:55:023.21m/s60.80%19.50C
2017-08-12 00:39:030.00m/s59.80%19.70C
2017-08-12 00:40:030.00m/s59.90%19.70C
2017-08-12 01:05:020.00m/s61.40%19.30C
2017-08-12 01:12:030.00m/s61.70%19.30C
2017-08-12 01:17:030.00m/s61.90%19.30C
2017-08-12 01:15:020.00m/s62.30%19.30C
2017-08-12 01:18:020.00m/s62.20%19.20C
2017-08-12 00:38:030.00m/s60.00%19.70C
2017-08-12 01:41:034.00m/s63.30%19.00C
2017-08-12 01:33:030.85m/s63.00%19.10C
2017-08-12 01:21:020.00m/s62.10%19.20C
2017-08-12 01:23:030.00m/s62.40%19.20C
2017-08-12 01:27:030.00m/s62.90%19.20C
2017-08-12 01:50:031.64m/s63.80%18.90C
2017-08-12 01:58:030.00m/s64.40%18.90C
2017-08-12 02:02:030.00m/s64.60%18.80C
2017-08-12 02:05:030.00m/s64.70%18.80C
2017-08-12 02:38:033.21m/s66.00%18.50C
2017-08-12 02:32:034.00m/s65.40%18.50C
2017-08-12 03:17:036.35m/s68.10%18.20C
2017-08-12 02:06:030.00m/s64.70%18.80C
2017-08-12 02:51:031.64m/s66.80%18.40C
2017-08-12 02:58:031.64m/s67.00%18.40C
2017-08-12 03:23:030.00m/s68.50%18.20C
2017-08-12 02:44:030.00m/s66.00%18.50C
2017-08-12 02:59:030.00m/s67.00%18.30C
2017-08-12 03:49:032.42m/s70.60%18.10C
2017-08-12 04:03:031.64m/s71.40%17.90C
2017-08-12 04:05:030.00m/s71.80%17.90C
2017-08-12 03:27:030.00m/s69.20%18.20C
2017-08-12 03:36:021.64m/s70.10%18.10C
2017-08-12 03:53:020.00m/s71.30%18.00C
2017-08-12 04:02:020.00m/s71.40%18.00C
2017-08-12 04:14:030.00m/s72.90%17.90C
2017-08-12 04:23:030.00m/s72.80%17.80C
2017-08-12 04:24:032.42m/s72.70%17.80C
2017-08-12 04:45:032.42m/s73.60%17.70C
2017-08-12 05:03:025.57m/s74.90%17.70C
2017-08-12 04:29:030.00m/s72.70%17.80C
2017-08-12 04:51:030.00m/s73.60%17.70C
2017-08-12 05:00:020.00m/s74.60%17.70C
2017-08-12 05:01:031.64m/s74.90%17.70C
2017-08-12 04:53:020.00m/s74.00%17.70C
2017-08-12 05:04:030.00m/s75.00%17.70C
2017-08-12 05:56:020.06m/s77.10%17.50C
2017-08-12 05:07:030.00m/s75.20%17.70C
2017-08-12 05:20:030.00m/s76.50%17.60C
2017-08-12 05:24:030.00m/s76.50%17.60C
2017-08-12 05:31:030.00m/s76.10%17.60C
2017-08-12 05:36:030.00m/s76.50%17.60C
2017-08-12 05:49:030.00m/s76.50%17.60C
2017-08-12 05:53:030.00m/s76.40%17.50C
2017-08-12 05:43:020.00m/s76.60%17.60C
2017-08-12 06:31:0311.07m/s79.00%17.50C
2017-08-12 06:34:034.78m/s79.40%17.40C
2017-08-12 06:24:030.85m/s78.60%17.40C
2017-08-12 06:00:031.64m/s77.80%17.50C
2017-08-12 06:01:020.00m/s77.20%17.50C
2017-08-12 06:10:030.00m/s78.20%17.50C
2017-08-12 06:12:020.00m/s78.60%17.50C
2017-08-12 06:13:030.00m/s78.30%17.50C
2017-08-12 06:18:031.64m/s78.90%17.50C
2017-08-12 06:35:023.21m/s78.90%17.40C
2017-08-12 06:40:032.42m/s79.30%17.40C
2017-08-12 06:47:037.14m/s79.70%17.40C
2017-08-12 06:49:030.85m/s79.70%17.40C
2017-08-12 06:41:020.00m/s79.20%17.40C
2017-08-12 06:43:020.00m/s79.20%17.40C
2017-08-12 06:45:020.00m/s79.70%17.40C
2017-08-12 06:51:030.00m/s79.70%17.40C
2017-08-12 07:00:030.00m/s80.10%17.40C
2017-08-12 07:06:037.93m/s80.20%17.40C
2017-08-12 07:07:033.21m/s80.20%17.40C
2017-08-12 07:35:022.42m/s81.80%17.40C
2017-08-12 07:31:020.06m/s81.40%17.30C
2017-08-12 07:33:020.06m/s81.60%17.30C
2017-08-12 07:09:020.00m/s81.10%17.40C
2017-08-12 07:10:030.00m/s80.90%17.40C
2017-08-12 07:13:031.64m/s80.60%17.40C
2017-08-12 07:27:020.00m/s81.10%17.30C
2017-08-12 08:31:036.35m/s84.00%17.40C
2017-08-12 08:02:034.78m/s82.40%17.40C
2017-08-12 08:00:030.85m/s82.20%17.40C
2017-08-12 07:40:030.00m/s81.90%17.40C
2017-08-12 07:49:030.00m/s82.10%17.40C
2017-08-12 08:04:030.00m/s82.40%17.30C
2017-08-12 08:27:030.00m/s83.70%17.30C
2017-08-12 07:59:030.00m/s82.00%17.40C
2017-08-12 08:32:031.64m/s84.40%17.40C
2017-08-12 08:47:030.06m/s84.50%17.40C
2017-08-12 08:35:030.00m/s84.20%17.40C
2017-08-12 08:39:031.64m/s84.30%17.40C
2017-08-12 08:43:030.00m/s84.10%17.40C
2017-08-12 08:48:020.00m/s84.70%17.40C
2017-08-12 08:53:030.00m/s84.70%17.40C
2017-08-12 09:08:020.00m/s85.30%17.40C
2017-08-12 09:06:020.85m/s85.40%17.40C
2017-08-12 08:34:030.00m/s84.00%17.40C
2017-08-12 09:14:034.00m/s85.40%17.50C
2017-08-12 09:32:034.00m/s86.90%17.50C
2017-08-12 09:10:030.06m/s85.30%17.50C
2017-08-12 09:42:030.06m/s86.30%17.50C
2017-08-12 09:54:030.85m/s87.40%17.60C
2017-08-12 09:56:030.06m/s87.50%17.60C
2017-08-12 10:06:030.00m/s87.30%17.60C
2017-08-12 09:41:030.00m/s87.00%17.50C
2017-08-12 10:02:030.00m/s87.00%17.60C
2017-08-12 10:47:034.00m/s88.20%17.90C
2017-08-12 10:13:030.85m/s87.00%17.70C
2017-08-12 10:32:030.00m/s88.60%17.80C
2017-08-12 10:42:020.00m/s88.50%17.80C
2017-08-12 10:45:030.00m/s89.20%17.90C
2017-08-12 10:51:030.00m/s89.20%17.90C
2017-08-12 10:40:030.00m/s88.00%17.80C
2017-08-12 10:58:030.00m/s89.30%18.00C
2017-08-12 11:00:030.00m/s88.60%18.00C
2017-08-12 11:32:023.21m/s89.50%18.20C
2017-08-12 11:08:030.06m/s89.30%18.00C
2017-08-12 11:12:030.00m/s89.20%18.10C
2017-08-12 11:16:030.00m/s89.40%18.10C
2017-08-12 11:19:020.00m/s89.40%18.10C
2017-08-12 11:20:030.00m/s89.40%18.10C
2017-08-12 11:21:021.64m/s89.90%18.10C
2017-08-12 11:22:030.00m/s89.40%18.10C
2017-08-12 11:40:030.00m/s90.10%18.30C
2017-08-12 11:43:030.06m/s90.00%18.40C
2017-08-12 12:08:030.85m/s90.00%18.80C
2017-08-12 12:15:030.85m/s90.00%18.90C
2017-08-12 11:51:031.64m/s90.30%18.50C
2017-08-12 11:56:030.00m/s89.90%18.60C
2017-08-12 11:59:030.00m/s90.80%18.70C
2017-08-12 12:03:030.00m/s90.20%18.70C
2017-08-12 11:53:030.00m/s90.00%18.50C
2017-08-12 12:09:030.00m/s90.00%18.80C
2017-08-12 12:18:020.06m/s89.80%19.00C
2017-08-12 12:44:030.06m/s90.00%19.50C
2017-08-12 12:37:030.00m/s88.90%19.30C
2017-08-12 12:42:030.00m/s89.60%19.40C
2017-08-12 12:32:030.85m/s90.20%19.20C
2017-08-12 12:16:030.00m/s90.10%19.00C
2017-08-12 12:21:030.00m/s89.70%19.00C
2017-08-12 12:22:030.00m/s89.80%19.00C
2017-08-12 12:23:030.00m/s90.00%19.10C
2017-08-12 12:58:024.78m/s87.80%20.00C
2017-08-12 13:27:033.21m/s83.80%20.60C
2017-08-12 13:47:035.57m/s82.70%20.80C
2017-08-12 13:24:030.06m/s84.50%20.60C
2017-08-12 13:38:031.64m/s83.00%20.70C
2017-08-12 13:52:030.06m/s82.10%20.80C
2017-08-12 12:46:020.00m/s88.90%19.50C
2017-08-12 13:41:030.00m/s82.80%20.70C
2017-08-12 13:28:030.00m/s83.60%20.60C
2017-08-12 14:37:033.21m/s79.90%21.40C
2017-08-12 14:22:032.42m/s80.20%21.30C
2017-08-12 14:03:021.64m/s81.60%21.00C
2017-08-12 14:47:030.85m/s78.60%21.50C
2017-08-12 14:35:030.00m/s79.80%21.40C
2017-08-12 14:45:030.00m/s78.60%21.50C
2017-08-12 14:49:030.06m/s78.50%21.50C
2017-08-12 14:25:030.00m/s80.00%21.30C
2017-08-12 14:28:030.00m/s80.00%21.30C
2017-08-12 15:59:0311.86m/s72.80%22.60C
2017-08-12 15:34:023.21m/s75.10%22.20C
2017-08-12 16:09:036.35m/s71.90%22.70C
2017-08-12 16:25:033.21m/s71.10%23.00C
2017-08-12 15:30:031.64m/s75.30%22.10C
2017-08-12 15:48:031.64m/s74.20%22.50C
2017-08-12 16:00:030.85m/s72.70%22.60C
2017-08-12 15:21:030.00m/s75.60%21.90C
2017-08-12 15:01:030.85m/s77.50%21.50C
2017-08-12 16:45:037.14m/s69.40%23.50C
2017-08-12 16:54:035.57m/s69.50%23.80C
2017-08-12 16:35:037.93m/s70.50%23.20C
2017-08-12 16:31:021.64m/s70.50%23.10C
2017-08-12 17:02:030.06m/s68.00%24.10C
2017-08-12 16:49:030.00m/s69.30%23.60C
2017-08-12 16:50:030.00m/s69.40%23.70C
2017-08-12 16:51:030.00m/s69.50%23.80C
2017-08-12 16:27:030.00m/s70.60%23.00C
2017-08-12 17:22:034.78m/s65.50%24.60C
2017-08-12 17:04:032.42m/s67.00%24.20C
2017-08-12 17:40:029.50m/s63.80%24.80C
2017-08-12 17:03:031.64m/s67.80%24.10C
2017-08-12 17:30:030.06m/s64.50%24.70C
2017-08-12 17:10:030.00m/s66.90%24.30C
2017-08-12 17:34:030.00m/s64.30%24.80C
2017-08-12 17:38:030.00m/s63.30%24.80C
2017-08-12 17:25:030.00m/s65.60%24.60C
2017-08-12 17:48:033.21m/s63.10%24.90C
2017-08-12 18:12:036.35m/s62.80%24.90C
2017-08-12 18:22:024.00m/s63.50%24.90C
2017-08-12 18:04:034.00m/s63.10%25.00C
2017-08-12 17:45:030.00m/s63.70%24.90C
2017-08-12 17:52:020.00m/s63.50%24.90C
2017-08-12 18:40:030.00m/s62.90%24.70C
2017-08-12 18:09:030.00m/s62.40%25.00C
2017-08-12 18:13:030.00m/s62.90%24.90C
2017-08-12 19:07:024.78m/s62.70%24.30C
2017-08-12 18:45:030.06m/s62.90%24.60C
2017-08-12 18:47:030.06m/s62.90%24.50C
2017-08-12 18:43:030.00m/s62.50%24.60C
2017-08-12 18:54:030.00m/s62.80%24.40C
2017-08-12 19:09:030.00m/s63.10%24.30C
2017-08-12 19:13:030.00m/s63.30%24.20C
2017-08-12 19:17:030.00m/s63.30%24.20C
2017-08-12 18:59:020.85m/s63.40%24.40C
2017-08-12 20:42:020.00m/s66.70%22.90C
2017-08-12 20:49:030.00m/s66.80%22.70C
2017-08-12 20:54:030.00m/s67.20%22.60C
2017-08-12 21:11:030.00m/s68.10%22.30C
2017-08-12 21:32:020.00m/s68.20%21.90C
2017-08-12 21:35:030.00m/s68.50%21.90C
2017-08-12 21:37:030.00m/s68.40%21.80C
2017-08-12 21:39:030.00m/s68.50%21.80C
2017-08-12 20:59:030.00m/s67.50%22.50C
2017-08-12 21:50:030.00m/s68.70%21.60C
2017-08-12 21:57:030.00m/s69.20%21.50C
2017-08-12 22:10:030.00m/s69.70%21.20C
2017-08-12 22:16:030.00m/s70.10%21.20C
2017-08-12 21:53:030.00m/s69.00%21.50C
2017-08-12 22:26:030.00m/s70.60%21.00C
2017-08-12 22:29:030.00m/s70.50%21.00C
2017-08-12 22:31:030.00m/s70.90%21.00C
2017-08-12 22:14:030.00m/s70.00%21.20C
2017-08-12 23:21:020.06m/s72.60%20.30C
2017-08-12 22:41:030.00m/s71.20%20.90C
2017-08-12 22:47:030.00m/s71.20%20.80C
2017-08-12 22:52:030.00m/s71.30%20.70C
2017-08-12 22:58:020.00m/s71.70%20.60C
2017-08-12 23:04:030.00m/s71.70%20.50C
2017-08-12 23:08:030.00m/s72.20%20.50C
2017-08-12 23:10:020.00m/s72.10%20.40C
2017-08-12 23:12:030.00m/s72.30%20.40C
2017-08-12 23:23:030.00m/s72.50%20.20C
2017-08-12 23:24:020.00m/s72.50%20.20C
2017-08-12 23:27:030.00m/s72.50%20.20C
2017-08-12 23:33:030.00m/s72.60%20.10C
2017-08-12 23:34:030.00m/s72.90%20.10C
2017-08-12 23:48:030.00m/s73.10%19.90C
2017-08-12 23:35:030.00m/s73.00%20.10C
2017-08-12 23:40:030.00m/s73.00%20.10C
2017-08-12 23:42:030.00m/s73.10%20.00C
2017-08-12 23:49:030.00m/s73.20%19.90C
2017-08-12 23:53:020.00m/s73.40%19.80C
2017-08-13 00:01:030.00m/s73.60%19.70C
2017-08-13 00:03:030.00m/s73.80%19.70C
2017-08-13 00:13:030.00m/s73.90%19.50C
2017-08-13 00:55:030.00m/s75.30%19.10C
2017-08-13 00:25:030.00m/s74.40%19.40C
2017-08-13 00:54:030.00m/s75.10%19.10C
2017-08-13 00:57:030.00m/s75.20%19.00C
2017-08-13 01:11:030.00m/s75.60%18.90C
2017-08-13 01:23:030.00m/s75.90%18.80C
2017-08-13 01:31:030.00m/s76.40%18.80C
2017-08-13 01:39:030.00m/s76.30%18.70C
2017-08-13 01:41:020.00m/s76.20%18.70C
2017-08-13 01:42:030.00m/s76.50%18.70C
2017-08-13 01:43:020.00m/s76.40%18.70C
2017-08-13 01:47:030.00m/s76.20%18.60C
2017-08-13 01:48:030.00m/s76.30%18.60C
2017-08-13 01:55:030.00m/s76.50%18.60C
2017-08-13 02:15:030.00m/s76.80%18.40C
2017-08-13 02:28:030.00m/s77.00%18.20C
2017-08-13 02:31:030.00m/s77.00%18.20C
2017-08-13 02:33:020.00m/s77.00%18.20C
2017-08-13 02:35:030.00m/s77.00%18.20C
2017-08-13 02:41:020.00m/s77.00%18.10C
2017-08-13 02:50:030.00m/s76.90%18.00C
2017-08-13 02:51:030.00m/s76.90%18.00C
2017-08-13 02:55:030.00m/s76.80%17.90C
2017-08-13 02:56:030.00m/s76.80%17.90C
2017-08-13 03:14:030.00m/s77.30%17.80C
2017-08-13 03:22:030.00m/s77.40%17.70C
2017-08-13 03:23:030.00m/s77.40%17.70C
2017-08-13 03:27:030.00m/s77.50%17.70C
2017-08-13 02:54:030.00m/s76.90%18.00C
2017-08-13 02:59:030.00m/s76.90%17.90C
2017-08-13 03:05:020.00m/s77.00%17.80C
2017-08-13 03:29:030.00m/s77.50%17.60C
2017-08-13 03:30:030.00m/s77.20%17.60C
2017-08-13 03:31:020.00m/s77.40%17.60C
2017-08-13 03:45:030.00m/s77.70%17.50C
2017-08-13 03:49:030.00m/s77.90%17.50C
2017-08-13 03:50:030.00m/s77.80%17.40C
2017-08-13 04:04:020.00m/s77.90%17.30C
2017-08-13 04:09:030.00m/s78.00%17.30C
2017-08-13 03:35:030.00m/s77.60%17.60C
2017-08-13 04:20:030.06m/s78.00%17.20C
2017-08-13 04:10:030.00m/s77.70%17.30C
2017-08-13 04:11:030.00m/s77.70%17.20C
2017-08-13 04:15:030.00m/s78.10%17.20C
2017-08-13 04:30:020.00m/s78.20%17.10C
2017-08-13 04:26:020.00m/s78.10%17.10C
2017-08-13 04:36:030.00m/s78.30%17.00C
2017-08-13 04:37:030.00m/s78.40%17.00C
2017-08-13 04:38:030.00m/s78.40%17.00C
2017-08-13 04:46:030.00m/s79.10%16.90C
2017-08-13 04:59:030.00m/s79.90%16.80C
2017-08-13 05:24:030.00m/s80.30%16.70C
2017-08-13 05:26:020.00m/s80.40%16.70C
2017-08-13 05:48:030.00m/s80.60%16.70C
2017-08-13 05:50:030.00m/s80.80%16.70C
2017-08-13 05:52:020.00m/s80.50%16.70C
2017-08-13 04:44:030.00m/s78.90%16.90C
2017-08-13 05:55:030.00m/s80.70%16.70C
2017-08-13 06:07:030.00m/s80.70%16.60C
2017-08-13 06:24:030.00m/s80.90%16.60C
2017-08-13 06:29:020.00m/s81.10%16.60C
2017-08-13 07:03:030.00m/s81.60%16.40C
2017-08-13 06:10:030.06m/s80.60%16.60C
2017-08-13 06:01:030.00m/s80.70%16.70C
2017-08-13 06:25:020.00m/s81.00%16.60C
2017-08-13 06:30:030.00m/s81.00%16.60C
2017-08-13 06:35:030.00m/s81.00%16.50C
2017-08-13 07:10:020.06m/s81.50%16.30C
2017-08-13 07:15:030.00m/s81.50%16.30C
2017-08-13 07:20:020.00m/s81.60%16.30C
2017-08-13 07:21:030.00m/s81.60%16.30C
2017-08-13 07:23:030.00m/s81.70%16.30C
2017-08-13 07:25:030.00m/s81.80%16.30C
2017-08-13 07:29:030.00m/s81.90%16.30C
2017-08-13 07:35:030.00m/s81.80%16.30C
2017-08-13 07:27:030.00m/s82.00%16.30C
2017-08-13 07:48:020.00m/s82.40%16.20C
2017-08-13 07:49:030.00m/s82.60%16.20C
2017-08-13 07:55:020.00m/s82.50%16.20C
2017-08-13 07:56:020.00m/s82.60%16.20C
2017-08-13 07:59:030.00m/s82.80%16.20C
2017-08-13 08:10:030.00m/s83.20%16.30C
2017-08-13 08:13:030.00m/s83.20%16.30C
2017-08-13 08:15:030.00m/s83.40%16.30C
2017-08-13 08:08:030.00m/s83.00%16.30C
2017-08-13 08:17:030.00m/s83.40%16.30C
2017-08-13 08:54:030.00m/s84.80%16.50C
2017-08-13 09:00:030.00m/s85.20%16.60C
2017-08-13 09:03:020.00m/s85.40%16.70C
2017-08-13 09:08:030.00m/s85.30%16.70C
2017-08-13 09:10:020.00m/s85.40%16.80C
2017-08-13 09:13:030.00m/s85.90%16.80C
2017-08-13 08:16:030.00m/s83.30%16.30C
2017-08-13 08:49:030.00m/s85.00%16.50C
2017-08-13 09:19:020.00m/s86.40%16.90C
2017-08-13 09:29:030.00m/s86.50%17.10C
2017-08-13 09:30:030.00m/s86.70%17.20C
2017-08-13 09:49:030.00m/s85.40%17.70C
2017-08-13 10:03:030.00m/s85.20%18.10C
2017-08-13 09:57:030.06m/s86.00%18.00C
2017-08-13 09:37:030.00m/s86.30%17.30C
2017-08-13 09:45:020.00m/s86.00%17.60C
2017-08-13 10:05:030.00m/s85.00%18.20C
2017-08-13 11:03:030.85m/s76.40%20.30C
2017-08-13 10:10:140.00m/s84.10%18.30C
2017-08-13 10:18:030.00m/s83.30%18.50C
2017-08-13 10:20:030.00m/s83.10%18.60C
2017-08-13 10:38:030.00m/s80.40%19.20C
2017-08-13 10:43:030.00m/s79.70%19.50C
2017-08-13 10:45:030.00m/s79.60%19.50C
2017-08-13 10:54:030.00m/s78.40%19.90C
2017-08-13 10:50:030.00m/s78.70%19.70C
2017-08-13 11:27:030.06m/s73.60%21.30C
2017-08-13 11:06:030.00m/s76.30%20.40C
2017-08-13 11:17:030.00m/s74.70%20.90C
2017-08-13 11:35:030.00m/s72.20%21.60C
2017-08-13 11:40:030.00m/s71.70%21.80C
2017-08-13 11:42:020.00m/s71.60%21.80C
2017-08-13 11:44:020.00m/s71.40%21.90C
2017-08-13 11:21:030.00m/s74.10%21.00C
2017-08-13 11:47:030.00m/s70.60%22.00C
2017-08-13 11:56:020.85m/s69.70%22.40C
2017-08-13 11:58:020.00m/s69.10%22.50C
2017-08-13 11:59:030.00m/s68.70%22.50C
2017-08-13 12:03:030.00m/s68.50%22.70C
2017-08-13 12:04:030.00m/s68.50%22.80C
2017-08-13 12:14:020.00m/s66.90%23.10C
2017-08-13 12:09:020.00m/s67.90%22.90C
2017-08-13 12:10:030.00m/s67.20%23.00C
2017-08-13 12:18:020.00m/s66.00%23.30C
2017-08-13 12:33:034.78m/s63.70%24.00C
2017-08-13 12:22:030.00m/s65.30%23.50C
2017-08-13 12:26:020.00m/s65.30%23.70C
2017-08-13 12:35:020.00m/s63.60%24.10C
2017-08-13 12:38:030.00m/s63.80%24.20C
2017-08-13 12:52:030.00m/s62.30%24.40C
2017-08-13 12:55:030.00m/s61.90%24.50C
2017-08-13 12:54:030.00m/s62.00%24.50C
2017-08-13 12:57:020.00m/s61.60%24.60C
2017-08-13 13:02:020.00m/s61.50%24.80C
2017-08-13 13:03:030.00m/s61.30%24.80C
2017-08-13 13:07:030.00m/s60.90%24.80C
2017-08-13 13:09:020.00m/s60.70%24.90C
2017-08-13 13:24:020.00m/s58.90%25.20C
2017-08-13 13:26:030.00m/s58.70%25.20C
2017-08-13 13:36:030.00m/s52.80%25.10C
2017-08-13 13:38:030.00m/s54.40%25.10C
2017-08-13 13:22:030.00m/s59.20%25.20C
2017-08-13 14:24:032.42m/s52.90%26.90C
2017-08-13 13:40:030.00m/s55.40%25.10C
2017-08-13 13:43:030.00m/s54.90%25.30C
2017-08-13 13:47:020.00m/s55.20%25.50C
2017-08-13 13:49:030.00m/s55.20%25.50C
2017-08-13 14:03:030.00m/s53.40%25.90C
2017-08-13 14:22:030.00m/s52.90%26.80C
2017-08-13 14:36:030.00m/s51.10%27.50C
2017-08-13 14:15:020.00m/s53.40%26.40C
2017-08-13 15:03:030.85m/s47.60%28.30C
2017-08-13 14:56:030.00m/s48.10%28.30C
2017-08-13 15:04:030.00m/s47.80%28.40C
2017-08-13 15:14:030.00m/s46.50%28.30C
2017-08-13 15:17:020.00m/s46.60%28.40C
2017-08-13 15:28:020.00m/s46.60%28.50C
2017-08-13 15:07:030.00m/s47.30%28.30C
2017-08-13 15:37:020.00m/s46.00%28.70C
2017-08-13 15:39:030.00m/s45.80%28.80C
2017-08-13 15:42:032.42m/s45.20%28.80C
2017-08-13 15:57:030.06m/s43.90%28.80C
2017-08-13 16:12:030.06m/s43.80%28.90C
2017-08-13 15:40:030.00m/s45.40%28.80C
2017-08-13 15:52:020.00m/s44.30%28.80C
2017-08-13 16:08:030.00m/s43.60%28.90C
2017-08-13 16:10:030.00m/s43.80%28.90C
2017-08-13 16:11:030.00m/s43.80%28.90C
2017-08-13 16:21:030.00m/s42.50%29.00C
2017-08-13 16:28:030.00m/s42.50%29.10C
2017-08-13 16:32:020.00m/s42.60%29.20C
2017-08-13 16:51:020.00m/s41.70%29.30C
2017-08-13 16:53:030.00m/s42.10%29.30C
2017-08-13 16:56:030.00m/s42.10%29.40C
2017-08-13 17:03:030.00m/s41.60%29.30C
2017-08-13 17:18:020.00m/s41.90%29.20C
2017-08-13 16:23:030.00m/s42.10%29.00C
2017-08-13 16:42:030.00m/s42.20%29.20C
2017-08-13 17:52:030.06m/s43.50%28.70C
2017-08-13 17:25:030.00m/s42.20%29.10C
2017-08-13 17:47:030.00m/s43.40%28.70C
2017-08-13 17:50:030.00m/s43.60%28.70C
2017-08-13 17:26:030.00m/s42.30%29.00C
2017-08-13 17:27:030.00m/s42.20%29.00C
2017-08-13 17:29:030.00m/s42.60%29.00C
2017-08-13 17:33:030.00m/s42.90%29.00C
2017-08-13 17:41:030.00m/s42.80%28.80C
2017-08-13 17:55:030.06m/s43.20%28.60C
2017-08-13 18:02:020.06m/s43.00%28.40C
2017-08-13 18:31:031.64m/s44.70%27.90C
2017-08-13 18:32:030.06m/s44.10%27.90C
2017-08-13 18:11:030.00m/s43.50%28.20C
2017-08-13 18:17:030.00m/s44.50%28.10C
2017-08-13 18:28:030.00m/s44.60%27.90C
2017-08-13 18:35:030.00m/s44.70%27.80C
2017-08-13 17:58:030.00m/s43.50%28.50C
2017-08-13 18:50:031.64m/s45.40%27.50C
2017-08-13 18:51:031.64m/s45.90%27.50C
2017-08-13 18:43:030.00m/s45.30%27.60C
2017-08-13 18:53:030.00m/s45.20%27.50C
2017-08-13 18:54:030.00m/s45.30%27.40C
2017-08-13 19:03:030.00m/s45.40%27.30C
2017-08-13 19:09:020.00m/s45.70%27.20C
2017-08-13 19:17:030.00m/s45.70%27.10C
2017-08-13 19:19:030.00m/s45.70%27.10C
2017-08-13 20:19:030.06m/s48.60%25.90C
2017-08-13 19:24:030.00m/s45.50%26.90C
2017-08-13 19:48:330.00m/s46.40%26.50C
2017-08-13 20:00:030.00m/s47.80%26.30C
2017-08-13 20:18:030.00m/s48.70%25.90C
2017-08-13 19:23:030.00m/s45.60%27.00C
2017-08-13 20:11:030.00m/s48.00%26.10C
2017-08-13 20:13:020.00m/s48.10%26.00C
2017-08-13 20:20:030.00m/s48.80%25.80C
2017-08-13 20:34:030.00m/s49.90%25.60C
2017-08-13 20:45:020.00m/s50.90%25.10C
2017-08-13 20:54:020.00m/s51.50%24.90C
2017-08-13 20:57:020.00m/s51.60%24.80C
2017-08-13 20:59:030.00m/s51.90%24.80C
2017-08-13 21:03:030.00m/s52.10%24.70C
2017-08-13 21:09:030.00m/s52.40%24.50C
2017-08-13 21:10:030.00m/s52.60%24.50C
2017-08-13 20:50:030.00m/s51.20%25.00C
2017-08-13 21:13:030.00m/s52.80%24.40C
2017-08-13 21:14:030.00m/s52.90%24.40C
2017-08-13 21:19:030.00m/s53.10%24.30C
2017-08-13 22:47:020.00m/s57.30%22.60C
2017-08-13 22:54:030.00m/s57.70%22.50C
2017-08-13 23:08:030.00m/s58.70%22.20C
2017-08-13 23:09:030.00m/s58.90%22.30C
2017-08-13 23:11:030.00m/s58.80%22.20C
2017-08-13 23:13:030.00m/s58.90%22.20C
2017-08-13 23:16:020.00m/s59.10%22.20C
2017-08-13 23:45:030.00m/s60.30%21.80C
2017-08-13 23:50:020.00m/s60.50%21.70C
2017-08-13 23:51:030.00m/s60.50%21.70C
2017-08-13 23:55:030.00m/s60.80%21.70C
2017-08-14 00:02:020.00m/s60.70%21.50C
2017-08-14 00:06:020.00m/s60.70%21.50C
2017-08-13 23:17:030.00m/s59.10%22.10C
2017-08-13 23:33:030.00m/s59.90%21.90C
2017-08-14 00:12:030.00m/s60.60%21.40C
2017-08-14 00:14:030.00m/s60.90%21.40C
2017-08-14 00:16:020.00m/s60.80%21.40C
2017-08-14 00:27:030.00m/s61.40%21.30C
2017-08-14 00:28:030.00m/s61.20%21.30C
2017-08-14 00:40:030.00m/s61.60%21.10C
2017-08-14 00:26:030.00m/s61.30%21.30C
2017-08-14 00:20:020.00m/s61.00%21.30C
2017-08-14 00:45:030.00m/s61.60%21.00C
2017-08-14 00:56:030.00m/s62.30%20.90C
2017-08-14 01:01:030.00m/s62.50%20.80C
2017-08-14 01:03:030.00m/s62.40%20.70C
2017-08-14 01:11:030.00m/s62.90%20.60C
2017-08-14 01:17:030.00m/s63.30%20.50C
2017-08-14 00:52:030.00m/s62.00%20.90C
2017-08-14 01:12:020.00m/s62.60%20.60C
2017-08-14 01:16:030.00m/s63.00%20.50C
2017-08-14 01:24:030.00m/s63.40%20.40C
2017-08-14 02:12:030.06m/s65.50%19.80C
2017-08-14 01:30:030.00m/s63.70%20.30C
2017-08-14 01:40:030.00m/s63.90%20.20C
2017-08-14 01:46:020.00m/s64.20%20.10C
2017-08-14 02:18:030.00m/s65.60%19.80C
2017-08-14 02:21:030.00m/s65.60%19.70C
2017-08-14 02:25:040.00m/s65.60%19.70C
2017-08-14 02:27:020.00m/s65.50%19.60C
2017-08-14 01:41:030.00m/s64.20%20.20C
2017-08-14 02:42:030.06m/s65.30%19.40C
2017-08-14 03:07:030.06m/s66.60%19.10C
2017-08-14 02:28:030.00m/s65.50%19.60C
2017-08-14 02:29:030.00m/s65.50%19.60C
2017-08-14 02:31:030.00m/s65.50%19.60C
2017-08-14 02:34:030.00m/s65.40%19.50C
2017-08-14 03:01:030.00m/s66.50%19.20C
2017-08-14 03:08:030.00m/s66.80%19.10C
2017-08-14 02:51:020.00m/s66.30%19.30C
2017-08-14 03:28:030.00m/s67.30%18.90C
2017-08-14 03:32:280.00m/s67.30%18.90C
2017-08-14 03:33:030.00m/s67.80%18.90C
2017-08-14 03:49:030.00m/s67.90%18.70C
2017-08-14 03:15:030.00m/s67.00%19.10C
2017-08-14 03:21:030.00m/s66.70%19.00C
2017-08-14 03:22:030.00m/s66.90%19.00C
2017-08-14 03:16:020.00m/s67.00%19.00C
2017-08-14 03:23:020.00m/s67.00%19.00C
2017-08-14 04:11:020.06m/s67.90%18.40C
2017-08-14 03:54:020.00m/s67.80%18.60C
2017-08-14 03:57:020.00m/s67.70%18.60C
2017-08-14 04:09:030.00m/s67.80%18.50C
2017-08-14 04:21:030.00m/s68.60%18.30C
2017-08-14 03:51:030.00m/s68.00%18.70C
2017-08-14 04:08:030.00m/s68.00%18.50C
2017-08-14 04:13:020.00m/s68.40%18.40C
2017-08-14 04:17:020.00m/s68.40%18.40C
2017-08-14 04:22:020.00m/s68.40%18.30C
2017-08-14 04:26:020.00m/s68.60%18.30C
2017-08-14 04:45:020.00m/s69.40%18.10C
2017-08-14 04:46:020.00m/s69.20%18.10C
2017-08-14 04:49:020.00m/s69.40%18.10C
2017-08-14 04:40:030.00m/s69.00%18.10C
2017-08-14 04:54:030.00m/s69.40%18.00C
2017-08-14 04:55:030.00m/s69.30%18.00C
2017-08-14 04:59:030.00m/s69.40%18.00C
2017-08-14 05:08:030.06m/s69.60%17.90C
2017-08-14 05:09:020.00m/s69.70%17.90C
2017-08-14 05:13:030.00m/s69.90%17.80C
2017-08-14 05:15:030.00m/s70.10%17.80C
2017-08-14 05:30:020.00m/s70.20%17.70C
2017-08-14 05:32:030.00m/s70.40%17.70C
2017-08-14 05:34:080.00m/s70.50%17.60C
2017-08-14 05:36:030.00m/s70.40%17.60C
2017-08-14 05:19:030.00m/s70.00%17.80C
2017-08-14 05:43:020.00m/s70.80%17.60C
2017-08-14 06:23:030.00m/s71.70%17.30C
2017-08-14 06:24:020.00m/s71.60%17.20C
2017-08-14 06:25:030.00m/s71.90%17.20C
2017-08-14 06:26:030.00m/s71.80%17.20C
2017-08-14 08:09:030.00m/s74.60%17.10C
2017-08-14 06:08:030.00m/s71.30%17.30C
2017-08-14 05:42:030.00m/s71.00%17.60C
2017-08-14 05:55:020.00m/s71.00%17.40C
2017-08-14 08:13:020.06m/s74.80%17.20C
2017-08-14 08:24:030.06m/s75.30%17.20C
2017-08-14 08:45:030.06m/s75.60%17.30C
2017-08-14 08:39:030.00m/s75.20%17.30C
2017-08-14 08:52:030.00m/s75.70%17.40C
2017-08-14 08:53:020.00m/s75.70%17.40C
2017-08-14 08:54:030.00m/s75.60%17.40C
2017-08-14 09:03:020.00m/s76.20%17.50C
2017-08-14 08:21:020.00m/s75.00%17.20C
2017-08-14 09:43:032.42m/s76.00%18.60C
2017-08-14 09:18:030.06m/s76.70%17.80C
2017-08-14 09:08:030.00m/s76.60%17.70C
2017-08-14 09:59:030.00m/s74.30%19.20C
2017-08-14 10:00:030.00m/s74.30%19.20C
2017-08-14 10:02:030.00m/s74.40%19.30C
2017-08-14 10:04:030.00m/s74.20%19.40C
2017-08-14 09:31:030.00m/s77.00%18.10C
2017-08-14 09:12:030.00m/s77.70%17.70C
2017-08-14 10:22:032.42m/s72.40%20.00C
2017-08-14 10:44:025.57m/s69.90%20.90C
2017-08-14 10:14:030.06m/s73.00%19.70C
2017-08-14 10:11:030.00m/s73.10%19.60C
2017-08-14 11:03:030.00m/s67.70%21.80C
2017-08-14 10:13:020.00m/s73.00%19.70C
2017-08-14 10:34:020.00m/s71.00%20.50C
2017-08-14 10:46:030.00m/s70.20%21.00C
2017-08-14 11:07:020.00m/s67.80%22.00C
2017-08-14 11:15:035.57m/s65.90%22.40C
2017-08-14 11:58:033.21m/s61.20%24.10C
2017-08-14 12:08:024.78m/s59.80%24.50C
2017-08-14 11:34:030.06m/s63.60%23.20C
2017-08-14 12:05:030.06m/s59.70%24.30C
2017-08-14 11:11:030.00m/s67.30%22.20C
2017-08-14 11:32:020.00m/s63.90%23.10C
2017-08-14 11:35:030.00m/s63.90%23.20C
2017-08-14 11:49:031.64m/s62.70%23.70C
2017-08-14 12:27:037.93m/s57.00%25.30C
2017-08-14 12:36:034.78m/s54.20%25.80C
2017-08-14 12:41:037.14m/s52.80%26.00C
2017-08-14 12:44:036.35m/s52.70%26.10C
2017-08-14 12:32:038.71m/s56.60%25.60C
2017-08-14 12:30:034.00m/s57.00%25.50C
2017-08-14 12:46:020.06m/s52.40%26.10C
2017-08-14 12:25:030.00m/s56.20%25.30C
2017-08-14 12:26:020.00m/s56.40%25.30C
2017-08-14 13:21:036.35m/s47.50%27.80C
2017-08-14 13:29:033.21m/s45.90%28.30C
2017-08-14 13:33:033.21m/s44.80%28.30C
2017-08-14 13:42:037.93m/s43.10%28.50C
2017-08-14 12:52:034.00m/s52.00%26.50C
2017-08-14 13:45:030.85m/s42.80%28.70C
2017-08-14 13:10:030.00m/s48.50%27.20C
2017-08-14 13:15:030.00m/s48.80%27.50C
2017-08-14 13:26:030.00m/s46.90%28.10C
2017-08-14 13:51:0211.07m/s43.40%29.00C
2017-08-14 13:56:0211.07m/s42.60%29.30C
2017-08-14 13:57:034.78m/s42.10%29.30C
2017-08-14 14:04:030.06m/s40.80%29.30C
2017-08-14 14:14:130.00m/s41.20%29.50C
2017-08-14 14:03:030.00m/s41.30%29.30C
2017-08-14 14:11:030.85m/s41.50%29.50C
2017-08-14 13:50:030.00m/s43.20%29.00C
2017-08-14 13:52:030.00m/s43.10%29.10C
2017-08-14 14:15:033.21m/s41.20%29.50C
2017-08-14 14:48:036.35m/s37.50%30.30C
2017-08-14 14:52:032.42m/s36.90%30.40C
2017-08-14 14:56:034.78m/s37.00%30.40C
2017-08-14 14:19:032.42m/s40.60%29.60C
2017-08-14 14:20:030.00m/s40.60%29.60C
2017-08-14 14:23:030.00m/s40.70%29.70C
2017-08-14 14:24:020.00m/s40.70%29.70C
2017-08-14 14:49:030.00m/s37.30%30.30C
2017-08-14 15:38:0313.43m/s36.80%30.90C
2017-08-14 14:57:024.78m/s36.20%30.40C
2017-08-14 15:20:024.78m/s37.10%30.60C
2017-08-14 15:03:030.06m/s36.60%30.50C
2017-08-14 15:29:021.64m/s36.30%30.80C
2017-08-14 15:13:020.00m/s36.40%30.60C
2017-08-14 15:19:030.00m/s36.70%30.60C
2017-08-14 15:28:030.00m/s36.80%30.70C
2017-08-14 15:30:030.00m/s36.60%30.70C
2017-08-14 15:53:0311.86m/s35.30%30.90C
2017-08-14 15:55:0311.07m/s34.80%31.00C
2017-08-14 15:45:022.42m/s35.40%30.80C
2017-08-14 16:14:037.14m/s34.70%31.10C
2017-08-14 15:39:031.64m/s36.10%30.90C
2017-08-14 16:17:030.06m/s34.70%31.10C
2017-08-14 16:27:031.64m/s34.80%31.20C
2017-08-14 16:03:030.00m/s34.70%31.10C
2017-08-14 16:19:020.00m/s34.70%31.10C
2017-08-14 16:32:037.14m/s33.80%31.20C
2017-08-14 16:34:027.14m/s34.60%31.20C
2017-08-14 16:37:036.35m/s33.80%31.10C
2017-08-14 16:41:022.42m/s33.40%31.10C
2017-08-14 16:29:033.21m/s34.30%31.20C
2017-08-14 17:07:033.21m/s34.80%31.20C
2017-08-14 16:55:030.85m/s34.80%31.20C
2017-08-14 16:43:030.00m/s33.90%31.10C
2017-08-14 16:58:030.00m/s35.20%31.20C
2017-08-14 17:08:034.78m/s34.80%31.20C
2017-08-14 17:17:032.42m/s34.90%31.30C
2017-08-14 17:44:034.78m/s35.40%31.20C
2017-08-14 18:14:036.35m/s35.30%31.10C
2017-08-14 17:16:021.64m/s34.90%31.30C
2017-08-14 17:10:020.00m/s34.80%31.20C
2017-08-14 17:25:030.00m/s34.90%31.30C
2017-08-14 17:41:030.06m/s35.20%31.20C
2017-08-14 17:13:020.00m/s35.00%31.30C
2017-08-14 18:19:023.21m/s34.60%30.90C
2017-08-14 18:36:033.21m/s35.90%30.80C
2017-08-14 18:29:030.06m/s36.00%30.90C
2017-08-14 18:52:031.64m/s36.10%30.70C
2017-08-14 18:27:030.00m/s35.70%30.90C
2017-08-14 18:45:020.00m/s36.50%30.80C
2017-08-14 18:50:030.00m/s35.80%30.70C
2017-08-14 18:44:020.00m/s36.80%30.80C
2017-08-14 18:53:030.00m/s36.60%30.60C
2017-08-14 19:14:034.00m/s37.80%30.10C
2017-08-14 19:05:020.06m/s36.90%30.30C
2017-08-14 19:12:030.06m/s38.10%30.20C
2017-08-14 19:18:020.06m/s38.50%30.00C
2017-08-14 19:42:030.06m/s41.10%29.30C
2017-08-14 18:58:030.00m/s36.90%30.60C
2017-08-14 19:11:030.00m/s37.80%30.20C
2017-08-14 19:37:030.00m/s40.60%29.50C
2017-08-14 19:35:030.06m/s40.60%29.60C
2017-08-14 19:43:030.00m/s41.40%29.30C
2017-08-14 19:52:030.00m/s42.30%29.10C
2017-08-14 20:03:030.00m/s43.40%28.80C
2017-08-14 20:08:030.00m/s43.70%28.60C
2017-08-14 20:15:030.00m/s44.50%28.40C
2017-08-14 20:27:020.00m/s45.70%28.10C
2017-08-14 20:42:030.00m/s47.10%27.70C
2017-08-14 20:50:030.00m/s47.90%27.50C
2017-08-14 20:22:030.00m/s45.00%28.20C
2017-08-14 20:56:030.00m/s48.70%27.30C
2017-08-14 21:01:020.00m/s49.10%27.20C
2017-08-14 21:02:030.00m/s49.20%27.10C
2017-08-14 21:04:030.00m/s49.50%27.10C
2017-08-14 21:17:030.00m/s49.60%26.70C
2017-08-14 21:07:030.00m/s49.80%27.00C
2017-08-14 21:08:030.00m/s49.80%27.00C
2017-08-14 21:09:020.00m/s49.90%27.00C
2017-08-14 21:10:030.00m/s49.90%26.90C
2017-08-14 21:50:030.06m/s53.20%25.90C
2017-08-14 21:27:020.00m/s51.70%26.30C
2017-08-14 21:40:030.00m/s52.50%26.10C
2017-08-14 21:41:030.00m/s52.30%26.10C
2017-08-14 21:43:030.00m/s52.40%26.10C
2017-08-14 21:47:030.00m/s52.60%25.90C
2017-08-14 21:55:020.00m/s53.70%25.80C
2017-08-14 21:44:030.00m/s52.60%26.00C
2017-08-14 21:45:030.00m/s52.80%26.00C
2017-08-14 22:20:030.06m/s54.60%25.20C
2017-08-14 22:05:020.00m/s54.30%25.50C
2017-08-14 22:16:020.00m/s54.70%25.30C
2017-08-14 22:19:030.00m/s54.80%25.30C
2017-08-14 22:21:020.00m/s54.70%25.20C
2017-08-14 22:29:030.00m/s55.20%25.10C
2017-08-14 22:33:030.00m/s55.10%24.90C
2017-08-14 22:35:030.00m/s55.40%24.90C
2017-08-14 22:37:030.00m/s55.60%24.90C
2017-08-14 22:40:030.00m/s55.70%24.80C
2017-08-14 22:48:030.00m/s56.40%24.70C
2017-08-14 22:54:030.00m/s56.80%24.50C
2017-08-14 23:07:030.00m/s56.90%24.30C
2017-08-14 23:15:020.00m/s57.60%24.20C
2017-08-14 23:18:030.00m/s57.60%24.10C
2017-08-14 23:32:030.00m/s58.50%23.90C
2017-08-14 22:57:030.00m/s57.00%24.50C
2017-08-14 22:59:030.00m/s57.00%24.50C
2017-08-15 00:14:030.06m/s60.40%23.20C
2017-08-14 23:54:030.00m/s59.30%23.40C
2017-08-15 00:02:030.00m/s59.70%23.30C
2017-08-15 00:34:020.00m/s61.10%22.90C
2017-08-15 00:40:030.00m/s61.20%22.80C
2017-08-14 23:53:030.00m/s59.40%23.40C
2017-08-15 00:22:030.00m/s60.50%23.00C
2017-08-15 00:43:030.00m/s61.00%22.70C
2017-08-15 00:12:030.00m/s60.00%23.20C
2017-08-15 01:09:030.06m/s61.80%22.40C
2017-08-15 00:47:020.00m/s61.80%22.70C
2017-08-15 01:28:030.00m/s62.80%22.10C
2017-08-15 02:50:030.00m/s64.80%21.10C
2017-08-15 02:52:020.00m/s64.90%21.10C
2017-08-15 02:54:030.00m/s65.20%21.10C
2017-08-15 02:42:020.00m/s65.00%21.20C
2017-08-15 02:49:020.00m/s65.00%21.10C
2017-08-15 03:03:030.00m/s65.20%21.00C
2017-08-15 03:13:020.00m/s65.20%20.90C
2017-08-15 03:18:020.00m/s65.50%20.90C
2017-08-15 03:28:030.00m/s65.90%20.80C
2017-08-15 03:32:020.00m/s66.40%20.80C
2017-08-15 03:34:030.00m/s66.50%20.70C
2017-08-15 03:35:020.00m/s66.50%20.70C
2017-08-15 03:04:030.00m/s65.20%21.00C
2017-08-15 03:08:030.00m/s65.40%21.00C
2017-08-15 03:09:030.00m/s65.80%21.00C
2017-08-15 03:37:030.00m/s66.40%20.70C
2017-08-15 03:39:030.00m/s66.50%20.70C
2017-08-15 03:44:030.00m/s66.50%20.70C
2017-08-15 03:46:020.00m/s66.50%20.60C
2017-08-15 03:49:030.00m/s66.40%20.60C
2017-08-15 03:50:030.00m/s66.50%20.60C
2017-08-15 03:58:020.00m/s66.40%20.50C
2017-08-15 04:04:030.00m/s66.40%20.50C
2017-08-15 04:09:030.00m/s66.60%20.40C
2017-08-15 04:12:030.00m/s66.40%20.50C
2017-08-15 04:15:020.00m/s66.60%20.40C
2017-08-15 04:18:030.00m/s66.80%20.40C
2017-08-15 04:44:020.00m/s67.10%20.20C
2017-08-15 04:55:020.00m/s66.70%20.10C
2017-08-15 04:30:030.00m/s67.00%20.30C
2017-08-15 04:31:020.00m/s67.00%20.30C
2017-08-15 04:37:020.00m/s67.30%20.30C
2017-08-15 04:46:030.00m/s67.20%20.20C
2017-08-15 05:18:020.00m/s67.40%19.90C
2017-08-15 05:21:020.00m/s68.10%19.90C
2017-08-15 05:41:030.00m/s67.90%19.70C
2017-08-15 05:48:030.00m/s68.30%19.70C
2017-08-15 05:01:030.00m/s67.00%20.10C
2017-08-15 05:29:030.00m/s67.90%19.90C
2017-08-15 05:53:030.00m/s68.00%19.60C
2017-08-15 05:54:030.00m/s68.00%19.60C
2017-08-15 05:09:020.00m/s67.40%20.00C
2017-08-15 06:32:030.06m/s68.60%19.30C
2017-08-15 05:59:020.00m/s68.30%19.60C
2017-08-15 06:00:030.00m/s68.50%19.60C
2017-08-15 06:05:030.00m/s67.90%19.50C
2017-08-15 06:19:030.00m/s68.10%19.40C
2017-08-15 06:29:030.00m/s68.40%19.30C
2017-08-15 06:30:030.00m/s68.50%19.30C
2017-08-15 06:33:030.00m/s68.60%19.30C
2017-08-15 05:58:030.00m/s68.00%19.60C
2017-08-15 06:37:030.00m/s68.50%19.20C
2017-08-15 06:44:030.00m/s68.70%19.20C
2017-08-15 07:03:030.00m/s69.20%19.10C
2017-08-15 07:04:030.00m/s69.20%19.10C
2017-08-15 07:28:030.00m/s69.70%18.90C
2017-08-15 06:53:030.00m/s69.00%19.10C
2017-08-15 07:10:020.00m/s69.20%19.00C
2017-08-15 07:12:030.00m/s69.40%19.00C
2017-08-15 07:17:030.00m/s69.40%19.00C
2017-08-15 07:34:030.00m/s69.80%18.90C
2017-08-15 07:38:030.00m/s69.80%19.00C
2017-08-15 07:39:030.00m/s69.90%18.90C
2017-08-15 07:46:030.00m/s69.90%18.90C
2017-08-15 07:44:030.00m/s70.00%18.90C
2017-08-15 07:49:030.00m/s70.00%18.90C
2017-08-15 07:51:030.00m/s70.00%18.90C
2017-08-15 07:52:030.00m/s70.00%18.90C
2017-08-15 07:53:030.00m/s70.00%18.90C
2017-08-15 08:01:030.06m/s70.10%18.90C
2017-08-15 08:07:020.85m/s70.20%18.90C
2017-08-15 08:05:030.00m/s70.50%18.90C
2017-08-15 08:10:030.00m/s70.30%18.90C
2017-08-15 08:15:030.00m/s70.50%19.00C
2017-08-15 08:16:030.00m/s70.50%19.00C
2017-08-15 08:18:030.00m/s70.40%19.00C
2017-08-15 08:23:030.00m/s70.60%19.00C
2017-08-15 07:54:020.00m/s70.00%18.90C
2017-08-15 08:50:030.06m/s70.50%19.00C
2017-08-15 08:40:020.00m/s70.70%19.10C
2017-08-15 08:42:030.00m/s70.60%19.10C
2017-08-15 08:45:030.00m/s70.40%19.10C
2017-08-15 08:57:030.00m/s70.70%19.10C
2017-08-15 08:26:030.00m/s70.50%19.00C
2017-08-15 08:27:030.00m/s70.40%19.00C
2017-08-15 08:28:030.00m/s70.40%19.00C
2017-08-15 09:00:030.00m/s71.00%19.10C
2017-08-15 09:06:020.00m/s71.50%19.10C
2017-08-15 09:19:020.00m/s71.40%19.10C
2017-08-15 09:41:030.00m/s71.30%19.20C
2017-08-15 09:42:030.00m/s71.40%19.20C
2017-08-15 09:43:030.00m/s71.30%19.20C
2017-08-15 09:52:030.00m/s71.60%19.20C
2017-08-15 09:08:030.00m/s71.10%19.10C
2017-08-15 09:12:030.00m/s71.10%19.10C
2017-08-15 09:26:030.00m/s71.00%19.10C
2017-08-15 10:03:033.21m/s72.10%19.20C
2017-08-15 09:54:030.00m/s71.70%19.30C
2017-08-15 09:55:030.00m/s71.70%19.20C
2017-08-15 10:02:030.00m/s72.10%19.20C
2017-08-15 10:08:030.00m/s72.80%19.20C
2017-08-15 10:09:020.00m/s72.70%19.30C
2017-08-15 10:10:030.00m/s73.00%19.20C
2017-08-15 10:11:030.00m/s73.00%19.20C
2017-08-15 10:12:030.00m/s73.00%19.30C
2017-08-15 10:19:030.00m/s73.70%19.20C
2017-08-15 10:21:030.00m/s73.50%19.30C
2017-08-15 10:43:030.00m/s74.70%19.30C
2017-08-15 10:47:030.00m/s74.60%19.30C
2017-08-15 10:48:020.00m/s74.70%19.20C
2017-08-15 10:52:030.00m/s74.70%19.30C
2017-08-15 11:04:020.00m/s75.10%19.30C
2017-08-15 11:16:030.00m/s75.10%19.30C
2017-08-15 11:20:030.00m/s75.10%19.30C
2017-08-15 11:29:030.00m/s75.50%19.40C
2017-08-15 11:31:030.00m/s75.30%19.40C
2017-08-15 11:34:030.00m/s75.40%19.50C
2017-08-15 11:38:030.00m/s75.70%19.50C
2017-08-15 11:49:030.00m/s75.50%19.60C
2017-08-15 12:12:030.00m/s76.20%19.80C
2017-08-15 12:23:020.00m/s76.50%19.90C
2017-08-15 11:33:020.06m/s75.40%19.40C
2017-08-15 12:07:030.00m/s76.00%19.80C
2017-08-15 12:50:022.42m/s77.90%20.50C
2017-08-15 13:06:020.06m/s77.50%20.90C
2017-08-15 13:13:031.64m/s80.00%21.30C
2017-08-15 12:24:030.00m/s76.30%19.90C
2017-08-15 12:44:030.00m/s76.90%20.30C
2017-08-15 12:53:030.00m/s77.10%20.50C
2017-08-15 13:03:030.00m/s77.40%20.80C
2017-08-15 12:43:030.00m/s77.00%20.20C
2017-08-15 13:25:030.00m/s77.00%21.40C
2017-08-15 13:30:030.00m/s76.10%21.50C
2017-08-15 13:48:030.00m/s75.50%21.60C
2017-08-15 13:53:030.00m/s75.90%21.70C
2017-08-15 13:55:030.00m/s75.40%21.80C
2017-08-15 13:59:030.00m/s75.10%21.90C
2017-08-15 14:12:030.00m/s74.20%22.40C
2017-08-15 14:15:030.00m/s74.20%22.50C
2017-08-15 13:29:020.00m/s76.40%21.40C
2017-08-15 14:06:030.00m/s75.00%22.20C
2017-08-15 14:33:032.42m/s71.60%23.00C
2017-08-15 14:20:020.00m/s73.10%22.60C
2017-08-15 14:39:030.00m/s70.90%23.10C
2017-08-15 14:43:020.00m/s70.50%23.20C
2017-08-15 14:47:030.00m/s70.50%23.30C
2017-08-15 14:50:030.00m/s70.10%23.30C
2017-08-15 14:52:030.00m/s70.10%23.30C
2017-08-15 14:58:030.00m/s70.00%23.40C
2017-08-15 14:30:030.00m/s72.00%23.00C
2017-08-15 15:35:037.93m/s69.00%23.70C
2017-08-15 15:33:030.85m/s69.20%23.70C
2017-08-15 14:59:020.00m/s69.90%23.40C
2017-08-15 15:05:030.00m/s69.20%23.50C
2017-08-15 15:08:030.00m/s69.20%23.50C
2017-08-15 15:10:030.00m/s69.20%23.50C
2017-08-15 15:18:030.00m/s69.30%23.60C
2017-08-15 15:30:020.00m/s69.30%23.70C
2017-08-15 15:48:030.00m/s68.60%23.70C
2017-08-15 16:02:030.00m/s68.60%23.70C
2017-08-15 16:03:030.00m/s68.50%23.70C
2017-08-15 16:05:020.00m/s68.60%23.70C
2017-08-15 16:06:030.00m/s68.60%23.70C
2017-08-15 16:09:030.00m/s68.50%23.70C
2017-08-15 16:14:030.00m/s68.60%23.70C
2017-08-15 16:18:030.00m/s68.60%23.70C
2017-08-15 16:28:030.00m/s68.90%23.70C
2017-08-15 16:24:030.00m/s68.70%23.70C
2017-08-15 16:57:023.21m/s69.40%23.70C
2017-08-15 16:51:030.06m/s69.40%23.70C
2017-08-15 17:07:030.06m/s69.40%23.70C
2017-08-15 16:35:030.00m/s69.20%23.70C
2017-08-15 16:49:040.00m/s69.40%23.70C
2017-08-15 16:59:020.00m/s69.40%23.70C
2017-08-15 17:01:030.00m/s69.40%23.70C
2017-08-15 17:03:030.00m/s69.40%23.70C
2017-08-15 17:04:030.00m/s69.40%23.70C
2017-08-15 17:08:030.06m/s69.40%23.70C
2017-08-15 17:42:031.64m/s69.40%23.70C
2017-08-15 17:13:030.00m/s69.40%23.70C
2017-08-15 17:23:020.00m/s69.50%23.80C
2017-08-15 17:30:030.00m/s69.10%23.70C
2017-08-15 17:39:030.00m/s69.40%23.70C
2017-08-15 17:43:030.00m/s69.40%23.70C
2017-08-15 17:45:020.00m/s69.40%23.70C
2017-08-15 17:50:030.00m/s69.40%23.70C
2017-08-15 18:30:031.64m/s70.40%23.30C
2017-08-15 17:54:030.00m/s69.40%23.70C
2017-08-15 18:05:030.00m/s69.20%23.50C
2017-08-15 18:11:030.00m/s69.40%23.50C
2017-08-15 18:18:030.00m/s69.80%23.40C
2017-08-15 18:23:020.00m/s69.80%23.40C
2017-08-15 18:24:030.00m/s69.90%23.30C
2017-08-15 18:38:030.00m/s71.00%23.20C
2017-08-15 18:39:030.00m/s71.00%23.20C
2017-08-15 19:16:030.06m/s71.50%23.00C
2017-08-15 18:42:020.00m/s70.80%23.20C
2017-08-15 18:49:020.00m/s71.30%23.10C
2017-08-15 19:28:030.00m/s72.20%22.90C
2017-08-15 18:43:030.00m/s71.10%23.10C
2017-08-15 18:45:030.00m/s71.00%23.20C
2017-08-15 19:15:030.00m/s71.50%23.00C
2017-08-15 19:19:050.00m/s71.50%23.00C
2017-08-15 19:26:030.00m/s71.80%23.00C
2017-08-15 19:59:030.06m/s71.90%22.70C
2017-08-15 19:36:030.00m/s72.80%22.70C
2017-08-15 19:49:030.00m/s72.40%22.70C
2017-08-15 20:01:030.00m/s71.90%22.70C
2017-08-15 20:03:030.00m/s72.10%22.70C
2017-08-15 21:48:030.00m/s73.60%21.70C
2017-08-15 21:57:030.00m/s74.20%21.60C
2017-08-15 21:58:020.00m/s73.90%21.60C
2017-08-15 21:51:030.00m/s74.00%21.70C
2017-08-15 22:07:033.21m/s73.80%21.50C
2017-08-15 22:05:031.64m/s74.00%21.50C
2017-08-15 22:00:030.00m/s73.90%21.60C
2017-08-15 22:01:030.00m/s73.90%21.60C
2017-08-15 22:11:030.00m/s74.30%21.40C
2017-08-15 22:22:020.00m/s74.60%21.30C
2017-08-15 22:23:030.00m/s74.50%21.30C
2017-08-15 22:24:030.00m/s74.70%21.30C
2017-08-15 22:25:030.00m/s75.00%21.30C
2017-08-15 22:32:030.00m/s74.50%21.20C
2017-08-15 22:34:020.00m/s74.50%21.10C
2017-08-15 22:35:030.00m/s74.90%21.10C
2017-08-15 22:41:030.00m/s74.70%21.10C
2017-08-15 22:48:020.00m/s74.80%21.10C
2017-08-15 22:59:020.00m/s75.30%20.90C
2017-08-15 23:08:030.00m/s75.40%20.80C
2017-08-15 22:49:030.00m/s75.10%21.00C
2017-08-15 22:55:030.00m/s75.40%21.00C
2017-08-15 23:47:020.00m/s76.70%20.40C
2017-08-15 23:48:020.00m/s76.70%20.40C
2017-08-15 23:52:030.00m/s76.50%20.40C
2017-08-15 23:59:030.00m/s76.80%20.30C
2017-08-16 00:00:030.00m/s76.80%20.30C
2017-08-16 00:16:040.00m/s77.30%20.10C
2017-08-15 23:44:030.00m/s76.50%20.50C
2017-08-15 23:46:030.00m/s76.50%20.50C
2017-08-16 00:13:030.00m/s77.00%20.20C
2017-08-16 00:46:020.06m/s77.50%19.90C
2017-08-16 00:18:030.00m/s77.50%20.10C
2017-08-16 00:25:030.00m/s77.30%20.10C
2017-08-16 00:36:030.00m/s77.20%19.90C
2017-08-16 00:39:030.00m/s77.40%19.90C
2017-08-16 00:56:090.00m/s77.10%19.80C
2017-08-16 00:31:020.00m/s77.40%20.00C
2017-08-16 00:33:020.00m/s77.30%20.00C
2017-08-16 00:27:030.00m/s77.00%20.00C
2017-08-16 00:57:030.00m/s77.40%19.80C
2017-08-16 01:01:020.00m/s77.80%19.70C
2017-08-16 01:11:030.00m/s77.40%19.60C
2017-08-16 01:17:030.00m/s77.40%19.50C
2017-08-16 01:19:030.00m/s77.60%19.50C
2017-08-16 01:29:020.00m/s78.20%19.40C
2017-08-16 01:05:030.00m/s77.60%19.60C
2017-08-16 01:06:030.00m/s77.60%19.60C
2017-08-16 01:16:030.00m/s77.60%19.60C
2017-08-16 01:34:090.00m/s78.10%19.30C
2017-08-16 01:35:030.00m/s77.70%19.30C
2017-08-16 01:38:020.00m/s77.90%19.30C
2017-08-16 01:58:030.00m/s77.90%19.10C
2017-08-16 02:01:030.00m/s77.90%19.10C
2017-08-16 02:22:030.00m/s78.20%18.90C
2017-08-16 02:26:020.00m/s77.80%18.90C
2017-08-16 01:42:050.00m/s78.00%19.20C
2017-08-16 02:10:030.00m/s77.80%19.00C
2017-08-16 02:30:130.00m/s77.70%18.80C
2017-08-16 02:35:020.00m/s78.40%18.80C
2017-08-16 02:37:030.00m/s78.20%18.80C
2017-08-16 02:44:020.00m/s78.10%18.70C
2017-08-16 02:49:030.00m/s78.30%18.70C
2017-08-16 02:50:030.00m/s78.10%18.70C
2017-08-16 02:59:020.00m/s78.30%18.70C
2017-08-16 03:00:020.00m/s78.40%18.60C
2017-08-16 03:06:030.00m/s78.90%18.60C
2017-08-16 03:10:030.00m/s78.90%18.60C
2017-08-16 03:19:020.00m/s78.60%18.50C
2017-08-16 03:20:030.00m/s78.60%18.50C
2017-08-16 03:31:030.00m/s78.70%18.40C
2017-08-16 03:47:030.00m/s78.80%18.30C
2017-08-16 03:35:030.00m/s79.00%18.40C
2017-08-16 03:48:030.00m/s79.00%18.30C
2017-08-16 03:08:020.00m/s78.60%18.60C
2017-08-16 03:13:030.00m/s78.50%18.50C
2017-08-16 03:51:030.00m/s78.80%18.20C
2017-08-16 04:06:020.00m/s79.10%18.20C
2017-08-16 04:13:030.00m/s79.50%18.10C
2017-08-16 03:54:030.00m/s79.00%18.20C
2017-08-16 03:55:020.00m/s79.00%18.20C
2017-08-16 03:56:030.00m/s79.00%18.20C
2017-08-16 03:59:030.00m/s79.20%18.20C
2017-08-16 04:00:030.00m/s79.00%18.20C
2017-08-16 04:02:030.00m/s79.20%18.20C
2017-08-16 04:16:030.00m/s79.30%18.10C
2017-08-16 04:42:030.00m/s79.50%17.90C
2017-08-16 04:47:020.00m/s79.70%17.90C
2017-08-16 04:48:020.00m/s79.70%17.90C
2017-08-16 04:26:030.00m/s79.40%18.00C
2017-08-16 04:28:030.00m/s79.50%18.00C
2017-08-16 04:29:020.00m/s79.30%18.00C
2017-08-16 04:31:030.00m/s79.30%18.00C
2017-08-16 04:32:030.00m/s79.40%18.00C
2017-08-16 04:51:030.00m/s79.70%17.90C
2017-08-16 04:54:020.00m/s79.70%17.80C
2017-08-16 04:59:030.00m/s79.60%17.80C
2017-08-16 05:06:030.00m/s79.70%17.80C
2017-08-16 05:08:020.00m/s79.70%17.80C
2017-08-16 05:09:040.00m/s79.90%17.80C
2017-08-16 05:22:040.00m/s79.80%17.70C
2017-08-16 05:23:030.00m/s79.80%17.70C
2017-08-16 05:26:020.00m/s80.00%17.60C
2017-08-16 05:28:030.00m/s79.90%17.60C
2017-08-16 05:29:020.00m/s80.10%17.60C
2017-08-16 05:35:030.00m/s79.90%17.60C
2017-08-16 05:46:030.00m/s80.20%17.50C
2017-08-16 05:53:030.00m/s80.20%17.50C
2017-08-16 05:33:030.00m/s80.00%17.60C
2017-08-16 05:42:030.00m/s80.00%17.50C
2017-08-16 05:47:030.00m/s80.00%17.50C
2017-08-16 05:49:030.00m/s80.00%17.50C
2017-08-16 05:54:020.00m/s80.10%17.50C
2017-08-16 06:02:020.00m/s80.50%17.40C
2017-08-16 06:38:030.00m/s80.40%17.20C
2017-08-16 06:30:030.00m/s80.30%17.30C
2017-08-16 06:35:030.00m/s80.20%17.20C
2017-08-16 06:37:030.00m/s80.20%17.20C
2017-08-16 06:39:040.00m/s80.20%17.20C
2017-08-16 05:55:030.00m/s80.00%17.40C
2017-08-16 06:22:030.00m/s80.00%17.30C
2017-08-16 06:51:030.00m/s80.40%17.20C
2017-08-16 06:55:030.00m/s80.50%17.10C
2017-08-16 06:56:030.00m/s80.60%17.10C
2017-08-16 07:14:030.00m/s80.60%17.10C
2017-08-16 06:40:020.00m/s80.20%17.20C
2017-08-16 07:29:020.00m/s80.90%17.00C
2017-08-16 07:36:030.00m/s80.90%17.00C
2017-08-16 07:40:030.00m/s80.90%17.00C
2017-08-16 07:41:030.00m/s81.00%17.00C
2017-08-16 08:21:030.00m/s81.90%17.10C
2017-08-16 07:42:030.00m/s81.10%17.00C
2017-08-16 07:50:030.00m/s81.10%17.00C
2017-08-16 07:57:020.00m/s81.30%17.00C
2017-08-16 08:08:030.00m/s81.50%17.00C
2017-08-16 08:17:030.00m/s82.00%17.10C
2017-08-16 08:28:020.00m/s82.00%17.20C
2017-08-16 07:44:030.00m/s81.00%17.00C
2017-08-16 07:52:030.00m/s81.00%17.00C
2017-08-16 08:38:030.06m/s82.40%17.20C
2017-08-16 08:56:020.85m/s83.50%17.40C
2017-08-16 08:30:030.00m/s82.10%17.20C
2017-08-16 08:43:030.00m/s82.70%17.30C
2017-08-16 08:44:031.64m/s82.90%17.30C
2017-08-16 08:45:030.00m/s82.90%17.30C
2017-08-16 09:05:030.00m/s83.60%17.50C
2017-08-16 09:12:020.00m/s83.70%17.60C
2017-08-16 08:54:030.85m/s83.40%17.40C
2017-08-16 09:15:033.21m/s83.90%17.70C
2017-08-16 09:19:032.42m/s83.90%17.70C
2017-08-16 09:46:023.21m/s82.50%18.30C
2017-08-16 09:14:030.06m/s83.70%17.60C
2017-08-16 09:36:020.06m/s83.20%18.10C
2017-08-16 09:35:030.00m/s83.40%18.10C
2017-08-16 09:42:030.00m/s82.90%18.20C
2017-08-16 09:32:030.00m/s83.40%18.00C
2017-08-16 09:47:030.00m/s82.40%18.40C
2017-08-16 09:50:032.42m/s82.10%18.50C
2017-08-16 09:54:033.21m/s81.60%18.60C
2017-08-16 10:17:030.06m/s78.20%19.40C
2017-08-16 09:49:030.00m/s82.10%18.40C
2017-08-16 09:51:030.00m/s81.90%18.50C
2017-08-16 10:06:030.00m/s79.90%19.10C
2017-08-16 10:14:020.00m/s78.10%19.30C
2017-08-16 10:18:030.00m/s78.30%19.50C
2017-08-16 10:33:030.00m/s76.50%20.10C
2017-08-16 10:58:028.71m/s74.50%20.90C
2017-08-16 11:05:034.78m/s73.50%21.20C
2017-08-16 11:17:038.71m/s72.40%21.60C
2017-08-16 10:59:037.14m/s74.00%21.00C
2017-08-16 10:34:030.06m/s76.70%20.10C
2017-08-16 10:39:020.85m/s76.00%20.30C
2017-08-16 10:44:030.85m/s75.60%20.40C
2017-08-16 10:50:030.00m/s75.40%20.60C
2017-08-16 11:13:030.00m/s72.90%21.40C
2017-08-16 11:50:034.78m/s67.00%22.90C
2017-08-16 11:51:025.57m/s67.10%22.90C
2017-08-16 11:55:035.57m/s67.10%23.00C
2017-08-16 11:27:023.21m/s70.10%22.10C
2017-08-16 11:54:034.00m/s67.00%22.90C
2017-08-16 11:42:030.00m/s68.40%22.60C
2017-08-16 11:43:020.00m/s68.70%22.60C
2017-08-16 12:00:030.00m/s66.70%23.20C
2017-08-16 11:28:030.00m/s70.00%22.10C
2017-08-16 12:02:035.57m/s66.40%23.20C
2017-08-16 12:04:043.21m/s66.10%23.30C
2017-08-16 12:03:034.00m/s66.10%23.30C
2017-08-16 12:33:021.64m/s63.30%24.20C
2017-08-16 12:14:030.00m/s64.60%23.50C
2017-08-16 12:17:030.00m/s64.50%23.70C
2017-08-16 12:21:030.00m/s64.80%23.70C
2017-08-16 12:24:020.00m/s64.40%23.80C
2017-08-16 12:27:030.00m/s64.50%23.90C
2017-08-16 12:40:035.57m/s62.90%24.40C
2017-08-16 13:21:033.21m/s57.80%25.60C
2017-08-16 12:45:022.42m/s62.40%24.50C
2017-08-16 13:14:035.57m/s57.70%25.40C
2017-08-16 12:59:030.85m/s60.10%25.00C
2017-08-16 13:05:030.85m/s58.70%25.10C
2017-08-16 12:53:020.00m/s60.60%24.80C
2017-08-16 13:24:030.00m/s57.30%25.60C
2017-08-16 13:28:030.00m/s57.90%25.70C
2017-08-16 13:32:032.42m/s57.40%25.70C
2017-08-16 13:44:044.00m/s56.70%25.80C
2017-08-16 13:34:041.64m/s56.30%25.70C
2017-08-16 13:35:031.64m/s56.40%25.70C
2017-08-16 13:38:031.64m/s56.40%25.70C
2017-08-16 13:56:030.85m/s56.20%25.90C
2017-08-16 13:43:020.00m/s56.10%25.70C
2017-08-16 14:26:030.00m/s55.50%26.10C
2017-08-16 14:29:030.00m/s55.40%26.10C
2017-08-16 14:55:033.21m/s51.80%26.30C
2017-08-16 15:09:023.21m/s53.00%26.70C
2017-08-16 14:33:032.42m/s54.50%26.10C
2017-08-16 15:02:022.42m/s52.70%26.50C
2017-08-16 14:30:034.00m/s55.00%26.10C
2017-08-16 14:52:030.06m/s53.50%26.30C
2017-08-16 14:36:020.00m/s55.10%26.20C
2017-08-16 15:04:020.00m/s53.10%26.60C
2017-08-16 14:39:030.00m/s54.20%26.20C
2017-08-16 15:11:032.42m/s52.30%26.70C
2017-08-16 16:03:034.00m/s49.20%27.90C
2017-08-16 15:36:020.06m/s49.70%27.00C
2017-08-16 15:41:020.85m/s49.70%27.10C
2017-08-16 15:56:030.00m/s49.70%27.60C
2017-08-16 16:08:030.00m/s48.30%27.90C
2017-08-16 15:54:030.00m/s49.60%27.60C
2017-08-16 16:19:020.00m/s47.80%28.00C
2017-08-16 16:15:020.00m/s48.00%28.00C
2017-08-16 16:39:030.85m/s47.70%28.00C
2017-08-16 16:41:030.85m/s47.70%28.00C
2017-08-16 16:50:030.06m/s47.80%27.90C
2017-08-16 16:21:020.00m/s48.60%28.10C
2017-08-16 16:43:030.00m/s47.10%27.90C
2017-08-16 16:44:030.00m/s47.10%27.90C
2017-08-16 16:51:020.00m/s48.10%27.90C
2017-08-16 16:38:030.00m/s47.30%28.00C
2017-08-16 16:52:030.00m/s48.00%27.90C
2017-08-16 17:11:033.21m/s49.00%27.70C
2017-08-16 17:01:020.00m/s48.60%27.80C
2017-08-16 17:13:020.00m/s49.10%27.70C
2017-08-16 17:29:030.00m/s49.70%27.40C
2017-08-16 17:36:030.00m/s50.10%27.40C
2017-08-16 17:37:030.00m/s50.30%27.40C
2017-08-16 17:39:040.00m/s50.30%27.40C
2017-08-16 17:47:030.00m/s50.70%27.30C
2017-08-16 17:09:030.00m/s49.00%27.70C
2017-08-16 17:51:030.00m/s49.80%27.20C
2017-08-16 18:00:030.00m/s50.20%27.10C
2017-08-16 18:04:030.00m/s50.40%27.20C
2017-08-16 18:11:030.00m/s50.90%27.20C
2017-08-16 18:15:030.00m/s50.80%27.20C
2017-08-16 18:25:030.00m/s50.70%27.10C
2017-08-16 17:58:030.00m/s50.20%27.20C
2017-08-16 18:19:030.00m/s51.10%27.10C
2017-08-16 17:52:030.00m/s50.00%27.20C
2017-08-16 18:53:020.06m/s51.90%27.00C
2017-08-16 18:30:030.00m/s50.90%27.10C
2017-08-16 18:58:030.00m/s52.20%26.90C
2017-08-16 19:01:030.00m/s52.20%26.90C
2017-08-16 18:29:030.00m/s51.00%27.10C
2017-08-16 18:33:030.00m/s51.10%27.10C
2017-08-16 18:35:030.00m/s51.10%27.10C
2017-08-16 18:55:020.00m/s52.30%27.00C
2017-08-16 18:57:030.00m/s52.20%27.00C
2017-08-16 19:26:030.06m/s53.40%26.50C
2017-08-16 19:45:060.06m/s54.60%26.20C
2017-08-16 19:05:030.00m/s52.10%26.80C
2017-08-16 19:08:030.00m/s52.50%26.80C
2017-08-16 19:24:020.00m/s53.40%26.60C
2017-08-16 19:44:020.00m/s54.50%26.30C
2017-08-16 20:02:020.00m/s55.50%25.90C
2017-08-16 19:12:030.00m/s52.80%26.80C
2017-08-16 19:13:030.00m/s52.70%26.70C
2017-08-16 20:04:030.00m/s55.80%25.90C
2017-08-16 20:13:030.00m/s56.20%25.80C
2017-08-16 20:18:030.00m/s56.30%25.70C
2017-08-16 20:25:030.00m/s56.60%25.50C
2017-08-16 20:38:020.00m/s57.60%25.30C
2017-08-16 20:23:030.00m/s56.60%25.60C
2017-08-16 20:24:030.00m/s56.60%25.60C
2017-08-16 20:30:030.00m/s57.00%25.40C
2017-08-16 20:50:020.00m/s57.50%25.00C
2017-08-16 20:55:030.00m/s58.30%24.90C
2017-08-16 21:13:030.00m/s59.30%24.50C
2017-08-16 21:14:060.00m/s59.20%24.50C
2017-08-16 21:20:020.00m/s59.50%24.30C
2017-08-16 21:26:030.00m/s59.90%24.20C
2017-08-16 20:52:030.00m/s57.90%24.90C
2017-08-16 21:18:020.00m/s59.40%24.40C
2017-08-16 21:33:030.00m/s60.30%24.00C
2017-08-16 21:31:030.00m/s60.00%24.10C
2017-08-16 21:47:030.06m/s60.50%23.70C
2017-08-16 21:39:030.00m/s60.40%23.90C
2017-08-16 21:40:030.00m/s60.60%23.80C
2017-08-16 21:41:030.00m/s60.50%23.80C
2017-08-16 21:48:030.00m/s60.80%23.60C
2017-08-16 21:55:030.00m/s60.90%23.50C
2017-08-16 22:00:030.00m/s61.30%23.40C
2017-08-16 22:05:030.00m/s61.50%23.30C
2017-08-16 22:12:030.00m/s61.80%23.20C
2017-08-16 22:13:020.00m/s61.80%23.10C
2017-08-16 22:27:030.00m/s62.30%22.90C
2017-08-16 22:30:020.00m/s62.20%22.80C
2017-08-16 22:31:030.00m/s62.40%22.80C
2017-08-16 22:34:030.00m/s62.20%22.70C
2017-08-16 22:43:030.00m/s62.90%22.60C
2017-08-16 22:19:030.00m/s62.10%23.00C
2017-08-16 22:25:030.00m/s62.00%22.90C
2017-08-16 22:41:020.00m/s62.60%22.60C
2017-08-16 22:49:020.00m/s63.50%22.40C
2017-08-16 22:50:030.00m/s63.90%22.40C
2017-08-16 23:17:030.00m/s64.70%21.90C
2017-08-16 23:22:020.00m/s64.80%21.90C
2017-08-16 23:35:030.00m/s65.70%21.60C
2017-08-16 22:48:030.00m/s63.50%22.50C
2017-08-16 23:02:030.00m/s64.00%22.10C
2017-08-16 23:11:020.00m/s64.30%22.00C
2017-08-16 23:19:030.00m/s64.90%21.90C
2017-08-16 23:44:030.00m/s65.70%21.50C
2017-08-16 23:45:030.00m/s65.80%21.50C
2017-08-16 23:48:030.00m/s66.10%21.40C
2017-08-16 23:54:030.00m/s66.50%21.30C
2017-08-16 23:57:030.00m/s66.40%21.30C
2017-08-17 00:10:030.00m/s66.90%21.10C
2017-08-16 23:53:030.00m/s66.30%21.30C
2017-08-17 00:16:020.00m/s66.80%21.00C
2017-08-17 00:18:020.00m/s66.80%21.00C
2017-08-17 00:23:030.00m/s67.20%20.90C
2017-08-17 00:25:030.00m/s67.50%20.90C
2017-08-17 00:36:030.00m/s67.60%20.80C
2017-08-17 02:17:030.00m/s70.10%19.50C
2017-08-17 02:19:030.00m/s69.80%19.50C
2017-08-17 02:26:030.00m/s70.40%19.50C
2017-08-17 02:39:020.00m/s70.50%19.30C
2017-08-17 02:35:030.00m/s70.40%19.40C
2017-08-17 02:18:030.00m/s70.00%19.50C
2017-08-17 02:46:180.00m/s70.40%19.30C
2017-08-17 02:50:030.00m/s70.30%19.20C
2017-08-17 02:52:030.00m/s70.40%19.20C
2017-08-17 03:04:030.00m/s70.70%19.10C
2017-08-17 03:09:030.00m/s70.90%19.10C
2017-08-17 03:48:030.00m/s71.50%18.80C
2017-08-17 03:18:030.06m/s71.00%19.00C
2017-08-17 02:45:030.00m/s70.30%19.30C
2017-08-17 03:23:030.00m/s70.90%19.00C
2017-08-17 04:22:030.06m/s72.00%18.60C
2017-08-17 04:45:030.85m/s72.30%18.50C
2017-08-17 03:50:030.00m/s71.20%18.80C
2017-08-17 04:01:031.64m/s71.20%18.70C
2017-08-17 04:09:030.00m/s71.90%18.70C
2017-08-17 04:13:030.00m/s71.70%18.60C
2017-08-17 04:27:030.00m/s71.90%18.60C
2017-08-17 04:18:020.00m/s71.60%18.60C
2017-08-17 04:26:030.00m/s72.00%18.60C
2017-08-17 04:52:022.42m/s72.50%18.40C
2017-08-17 05:20:033.21m/s73.10%18.40C
2017-08-17 04:48:030.06m/s72.20%18.50C
2017-08-17 04:47:020.00m/s72.20%18.50C
2017-08-17 05:02:030.00m/s72.60%18.40C
2017-08-17 05:09:050.00m/s72.70%18.40C
2017-08-17 05:19:021.64m/s73.00%18.30C
2017-08-17 05:36:020.00m/s73.40%18.30C
2017-08-17 04:54:030.00m/s72.40%18.40C
2017-08-17 05:43:032.42m/s73.60%18.30C
2017-08-17 06:20:036.35m/s74.90%18.20C
2017-08-17 05:58:030.06m/s74.00%18.30C
2017-08-17 06:07:030.06m/s74.30%18.20C
2017-08-17 06:16:030.85m/s74.70%18.20C
2017-08-17 05:39:030.00m/s73.40%18.30C
2017-08-17 05:40:030.00m/s73.40%18.30C
2017-08-17 05:44:020.00m/s73.70%18.30C
2017-08-17 05:52:030.00m/s73.90%18.20C
2017-08-17 06:24:035.57m/s75.20%18.20C
2017-08-17 06:34:030.85m/s75.70%18.20C
2017-08-17 06:40:030.85m/s75.80%18.20C
2017-08-17 06:30:030.00m/s75.30%18.20C
2017-08-17 06:31:021.64m/s75.30%18.20C
2017-08-17 06:39:030.00m/s75.60%18.20C
2017-08-17 06:43:030.00m/s75.70%18.20C
2017-08-17 06:47:030.00m/s75.80%18.20C
2017-08-17 06:55:030.00m/s76.70%18.20C
2017-08-17 07:12:034.78m/s77.00%18.10C
2017-08-17 07:39:035.57m/s77.00%18.20C
2017-08-17 07:45:035.57m/s77.50%18.20C
2017-08-17 07:01:037.14m/s76.50%18.10C
2017-08-17 07:30:024.00m/s77.00%18.20C
2017-08-17 07:02:030.06m/s77.00%18.10C
2017-08-17 07:07:030.85m/s77.00%18.10C
2017-08-17 07:16:020.06m/s77.00%18.20C
2017-08-17 07:08:030.00m/s77.00%18.10C
2017-08-17 08:08:033.21m/s77.70%18.30C
2017-08-17 08:10:034.78m/s78.00%18.30C
2017-08-17 08:20:034.78m/s78.00%18.30C
2017-08-17 08:27:033.21m/s78.40%18.30C
2017-08-17 08:07:030.06m/s77.40%18.30C
2017-08-17 07:57:060.00m/s77.60%18.20C
2017-08-17 08:02:030.00m/s77.10%18.20C
2017-08-17 08:17:020.00m/s77.90%18.20C
2017-08-17 08:11:020.00m/s78.00%18.30C
2017-08-17 08:42:037.14m/s78.20%18.30C
2017-08-17 08:29:030.00m/s78.40%18.30C
2017-08-17 08:36:030.00m/s78.10%18.30C
2017-08-17 08:40:030.00m/s78.70%18.40C
2017-08-17 08:46:030.00m/s78.60%18.40C
2017-08-17 08:54:031.64m/s78.70%18.30C
2017-08-17 08:59:020.00m/s78.70%18.40C
2017-08-17 09:11:020.00m/s79.30%18.40C
2017-08-17 08:28:030.00m/s78.00%18.30C
2017-08-17 09:13:033.21m/s79.30%18.40C
2017-08-17 09:51:026.35m/s80.10%18.70C
2017-08-17 09:29:030.06m/s79.60%18.50C
2017-08-17 09:50:030.06m/s80.00%18.70C
2017-08-17 09:12:030.00m/s79.10%18.40C
2017-08-17 09:15:020.00m/s79.10%18.40C
2017-08-17 09:18:030.00m/s79.30%18.40C
2017-08-17 09:48:031.64m/s80.30%18.70C
2017-08-17 09:54:100.00m/s80.10%18.70C
2017-08-17 10:18:027.93m/s80.10%18.90C
2017-08-17 09:55:034.00m/s79.90%18.70C
2017-08-17 09:58:030.00m/s80.10%18.80C
2017-08-17 10:01:031.64m/s80.10%18.80C
2017-08-17 10:08:031.64m/s80.10%18.80C
2017-08-17 10:14:030.00m/s79.80%18.90C
2017-08-17 10:20:030.00m/s80.30%18.90C
2017-08-17 10:21:030.00m/s80.30%19.00C
2017-08-17 10:07:020.00m/s80.00%18.90C
2017-08-17 10:24:102.42m/s80.20%19.00C
2017-08-17 11:04:033.21m/s81.40%19.10C
2017-08-17 10:48:030.85m/s81.20%19.10C
2017-08-17 10:52:030.06m/s81.20%19.10C
2017-08-17 11:03:020.00m/s81.30%19.10C
2017-08-17 11:05:030.00m/s81.20%19.10C
2017-08-17 10:39:030.00m/s80.70%19.00C
2017-08-17 10:59:030.00m/s81.00%19.10C
2017-08-17 11:14:030.00m/s81.10%19.10C
2017-08-17 11:35:026.35m/s81.30%19.20C
2017-08-17 11:15:090.00m/s81.20%19.10C
2017-08-17 11:34:030.00m/s81.30%19.20C
2017-08-17 11:57:030.00m/s81.70%19.20C
2017-08-17 11:58:030.00m/s81.90%19.20C
2017-08-17 11:17:030.00m/s81.10%19.10C
2017-08-17 11:37:031.64m/s81.20%19.20C
2017-08-17 11:39:030.00m/s81.20%19.20C
2017-08-17 11:46:050.00m/s81.20%19.20C
2017-08-17 12:07:030.85m/s81.90%19.20C
2017-08-17 12:32:030.06m/s83.90%19.10C
2017-08-17 12:02:020.00m/s81.30%19.20C
2017-08-17 12:16:030.00m/s82.70%19.20C
2017-08-17 12:21:030.00m/s83.30%19.10C
2017-08-17 12:23:030.00m/s83.40%19.20C
2017-08-17 12:33:021.64m/s83.80%19.10C
2017-08-17 12:09:030.00m/s82.20%19.20C
2017-08-17 12:35:030.00m/s84.10%19.10C
2017-08-17 12:55:022.42m/s85.50%19.20C
2017-08-17 13:02:027.93m/s85.80%19.20C
2017-08-17 13:12:032.42m/s86.40%19.20C
2017-08-17 13:21:023.21m/s86.40%19.30C
2017-08-17 12:51:020.06m/s84.80%19.20C
2017-08-17 13:03:030.06m/s85.80%19.20C
2017-08-17 13:05:030.85m/s85.90%19.20C
2017-08-17 13:30:040.00m/s86.80%19.30C
2017-08-17 13:14:030.00m/s86.20%19.20C
2017-08-17 13:39:033.21m/s87.40%19.30C
2017-08-17 14:23:033.21m/s86.60%19.70C
2017-08-17 13:48:032.42m/s87.40%19.40C
2017-08-17 14:09:030.85m/s87.20%19.60C
2017-08-17 14:12:030.85m/s87.50%19.60C
2017-08-17 13:31:020.00m/s86.70%19.30C
2017-08-17 13:35:030.00m/s86.60%19.30C
2017-08-17 14:17:031.64m/s86.90%19.60C
2017-08-17 14:18:020.00m/s86.60%19.60C
2017-08-17 15:04:034.78m/s87.10%19.80C
2017-08-17 14:32:034.78m/s86.70%19.70C
2017-08-17 14:48:030.06m/s86.30%19.80C
2017-08-17 14:42:030.00m/s86.80%19.70C
2017-08-17 14:52:030.00m/s86.20%19.80C
2017-08-17 14:53:030.00m/s86.30%19.80C
2017-08-17 15:08:030.00m/s87.10%19.80C
2017-08-17 15:09:020.00m/s87.10%19.80C
2017-08-17 14:40:020.85m/s86.70%19.70C
2017-08-17 15:50:0311.86m/s89.00%19.70C
2017-08-17 15:19:033.21m/s87.00%19.80C
2017-08-17 15:20:035.57m/s87.20%19.80C
2017-08-17 15:43:035.57m/s89.10%19.70C
2017-08-17 15:37:028.71m/s88.50%19.70C
2017-08-17 15:35:020.00m/s88.30%19.70C
2017-08-17 15:58:030.00m/s89.50%19.70C
2017-08-17 16:00:020.00m/s89.70%19.70C
2017-08-17 16:12:030.00m/s90.00%19.70C
2017-08-17 17:15:032.42m/s90.80%19.90C
2017-08-17 16:31:034.00m/s90.40%19.70C
2017-08-17 17:13:025.57m/s90.80%19.80C
2017-08-17 16:41:020.85m/s90.40%19.70C
2017-08-17 16:30:031.64m/s90.40%19.70C
2017-08-17 16:58:030.00m/s90.90%19.70C
2017-08-17 17:00:031.64m/s90.40%19.70C
2017-08-17 17:04:020.00m/s90.80%19.80C
2017-08-17 17:11:030.00m/s91.00%19.80C
2017-08-17 18:24:0315.79m/s90.70%20.40C
2017-08-17 17:28:023.21m/s90.80%19.90C
2017-08-17 18:05:022.42m/s90.60%20.20C
2017-08-17 18:10:024.00m/s90.60%20.20C
2017-08-17 17:47:030.00m/s90.50%20.10C
2017-08-17 17:55:030.00m/s90.50%20.10C
2017-08-17 18:15:030.00m/s90.60%20.30C
2017-08-17 18:23:030.00m/s90.70%20.40C
2017-08-17 17:29:030.85m/s90.90%19.90C
2017-08-17 18:43:0315.79m/s90.20%20.50C
2017-08-17 18:38:035.57m/s90.10%20.50C
2017-08-17 18:49:034.78m/s90.00%20.50C
2017-08-17 18:59:033.21m/s90.00%20.60C
2017-08-17 18:25:030.85m/s90.70%20.40C
2017-08-17 18:56:030.06m/s89.20%20.60C
2017-08-17 18:33:030.00m/s90.50%20.40C
2017-08-17 18:41:020.00m/s90.20%20.50C
2017-08-17 19:05:030.00m/s90.00%20.70C
2017-08-17 19:10:035.57m/s89.90%20.70C
2017-08-17 19:11:026.35m/s89.90%20.70C
2017-08-17 19:12:026.35m/s90.00%20.70C
2017-08-17 19:18:036.35m/s89.40%20.70C
2017-08-17 19:27:033.21m/s89.10%20.70C
2017-08-17 19:25:049.50m/s89.40%20.70C
2017-08-17 19:09:031.64m/s89.40%20.70C
2017-08-17 19:17:031.64m/s89.50%20.70C
2017-08-17 19:23:020.06m/s89.70%20.70C
2017-08-17 19:40:037.93m/s89.20%20.80C
2017-08-17 19:42:041.64m/s89.30%20.80C
2017-08-17 21:00:020.00m/s87.80%20.50C
2017-08-17 21:53:020.00m/s88.20%20.10C
2017-08-17 21:55:030.00m/s88.20%20.10C
2017-08-17 21:43:020.85m/s88.20%20.20C
2017-08-17 21:29:030.00m/s88.00%20.30C
2017-08-17 21:49:030.00m/s88.00%20.10C
2017-08-17 21:54:030.00m/s88.00%20.10C
2017-08-17 22:34:030.06m/s89.10%19.90C
2017-08-17 21:57:030.00m/s88.60%20.10C
2017-08-17 22:18:021.64m/s88.50%19.90C
2017-08-17 22:24:030.00m/s88.80%19.90C
2017-08-17 22:38:030.00m/s89.20%19.90C
2017-08-17 22:05:030.00m/s88.20%20.00C
2017-08-17 22:11:030.00m/s88.50%20.00C
2017-08-17 22:14:030.00m/s88.60%20.00C
2017-08-17 22:16:020.00m/s88.80%20.00C
2017-08-17 22:55:030.06m/s89.40%19.70C
2017-08-17 22:44:030.00m/s89.20%19.80C
2017-08-17 22:52:030.00m/s89.20%19.80C
2017-08-17 23:14:030.00m/s88.20%19.60C
2017-08-17 23:16:040.00m/s87.80%19.60C
2017-08-17 23:18:031.64m/s87.50%19.60C
2017-08-17 22:41:030.00m/s89.00%19.80C
2017-08-17 23:03:030.00m/s88.70%19.70C
2017-08-17 23:24:030.00m/s87.00%19.50C
2017-08-17 23:26:030.00m/s86.70%19.50C
2017-08-17 23:36:030.00m/s85.50%19.30C
2017-08-17 23:41:030.00m/s85.20%19.40C
2017-08-17 23:53:030.00m/s85.10%19.20C
2017-08-17 23:56:030.00m/s84.80%19.20C
2017-08-17 23:57:030.00m/s84.90%19.20C
2017-08-17 23:44:030.06m/s85.30%19.30C
2017-08-17 23:42:020.00m/s85.00%19.30C
2017-08-17 23:54:020.00m/s85.00%19.20C
2017-08-18 00:04:030.00m/s84.50%19.10C
2017-08-18 00:06:030.00m/s84.20%19.10C
2017-08-18 00:27:030.00m/s83.90%18.80C
2017-08-18 00:35:030.00m/s83.90%18.80C
2017-08-18 00:36:030.00m/s83.90%18.80C
2017-08-18 00:45:031.64m/s83.80%18.70C
2017-08-18 00:15:020.00m/s84.40%19.00C
2017-08-18 00:23:030.00m/s84.00%18.90C
2017-08-18 00:31:030.00m/s84.00%18.90C
2017-08-18 01:26:035.57m/s83.10%18.30C
2017-08-18 00:54:030.00m/s83.50%18.60C
2017-08-18 01:01:030.00m/s83.30%18.60C
2017-08-18 01:06:030.00m/s83.20%18.50C
2017-08-18 01:13:030.00m/s83.40%18.50C
2017-08-18 01:25:040.00m/s83.10%18.30C
2017-08-18 01:41:040.00m/s83.30%18.20C
2017-08-18 01:42:040.00m/s83.30%18.20C
2017-08-18 01:40:030.85m/s83.20%18.20C
2017-08-18 01:51:030.00m/s83.20%18.10C
2017-08-18 01:53:030.00m/s83.20%18.10C
2017-08-18 01:54:030.00m/s83.20%18.10C
2017-08-18 01:57:030.00m/s83.20%18.10C
2017-08-18 02:01:030.00m/s83.20%18.10C
2017-08-18 02:16:030.00m/s83.20%17.90C
2017-08-18 02:19:020.00m/s83.50%17.90C
2017-08-18 02:21:100.00m/s83.60%17.90C
2017-08-18 02:12:030.00m/s83.40%18.00C
2017-08-18 02:51:030.00m/s84.20%17.70C
2017-08-18 02:54:020.00m/s84.30%17.70C
2017-08-18 03:06:020.00m/s84.40%17.60C
2017-08-18 03:09:030.00m/s84.70%17.60C
2017-08-18 03:18:020.00m/s84.90%17.60C
2017-08-18 03:19:020.00m/s84.90%17.60C
2017-08-18 02:29:020.00m/s83.90%17.90C
2017-08-18 02:48:050.00m/s84.00%17.70C
2017-08-18 03:08:030.00m/s84.70%17.70C
2017-08-18 03:20:030.00m/s84.80%17.60C
2017-08-18 03:21:030.00m/s84.90%17.60C
2017-08-18 03:31:030.00m/s85.20%17.50C
2017-08-18 03:33:030.00m/s85.10%17.50C
2017-08-18 03:36:030.00m/s85.10%17.50C
2017-08-18 03:41:030.00m/s85.30%17.50C
2017-08-18 03:43:030.00m/s85.30%17.40C
2017-08-18 03:47:020.00m/s85.30%17.40C
2017-08-18 03:51:030.00m/s85.40%17.40C
2017-08-18 04:03:026.35m/s85.70%17.40C
2017-08-18 04:28:022.42m/s86.50%17.40C
2017-08-18 04:34:035.57m/s86.50%17.30C
2017-08-18 04:30:030.85m/s86.40%17.30C
2017-08-18 04:57:020.06m/s87.00%17.20C
2017-08-18 03:54:020.00m/s85.70%17.40C
2017-08-18 04:14:030.00m/s86.10%17.40C
2017-08-18 04:44:030.00m/s86.70%17.30C
2017-08-18 03:52:020.00m/s85.40%17.40C
2017-08-18 05:38:036.35m/s88.50%17.20C
2017-08-18 05:45:033.21m/s88.40%17.10C
2017-08-18 05:00:030.00m/s87.10%17.20C
2017-08-18 05:24:040.00m/s88.50%17.20C
2017-08-18 05:41:030.00m/s88.40%17.10C
2017-08-18 05:42:030.00m/s88.50%17.20C
2017-08-18 05:46:030.00m/s88.40%17.10C
2017-08-18 05:21:030.00m/s88.00%17.20C
2017-08-18 04:58:030.00m/s87.30%17.30C
2017-08-18 06:00:040.06m/s88.40%17.10C
2017-08-18 05:49:030.00m/s88.40%17.10C
2017-08-18 05:50:030.00m/s88.40%17.10C
2017-08-18 05:55:030.00m/s88.40%17.10C
2017-08-18 05:56:030.00m/s88.50%17.20C
2017-08-18 06:09:030.00m/s88.40%17.10C
2017-08-18 06:13:020.00m/s88.40%17.10C
2017-08-18 06:14:030.00m/s88.70%17.10C
2017-08-18 06:22:030.00m/s88.40%17.10C
2017-08-18 06:49:020.06m/s89.30%17.20C
2017-08-18 06:52:030.06m/s89.40%17.20C
2017-08-18 06:27:020.00m/s88.40%17.10C
2017-08-18 06:32:030.00m/s88.70%17.10C
2017-08-18 07:04:030.00m/s89.40%17.20C
2017-08-18 07:09:020.00m/s89.70%17.20C
2017-08-18 06:25:030.00m/s88.50%17.20C
2017-08-18 06:54:030.00m/s89.20%17.20C
2017-08-18 06:56:030.00m/s89.00%17.20C
2017-08-18 07:23:036.35m/s89.90%17.20C
2017-08-18 07:15:030.06m/s89.90%17.20C
2017-08-18 07:20:030.85m/s90.10%17.20C
2017-08-18 07:11:030.00m/s89.70%17.20C
2017-08-18 07:37:020.00m/s90.10%17.20C
2017-08-18 08:00:030.00m/s90.40%17.30C
2017-08-18 07:25:030.00m/s90.00%17.20C
2017-08-18 07:40:030.00m/s90.00%17.20C
2017-08-18 07:45:030.00m/s90.00%17.20C
2017-08-18 08:40:032.42m/s90.60%17.50C
2017-08-18 08:51:037.14m/s90.80%17.60C
2017-08-18 08:28:030.06m/s90.50%17.40C
2017-08-18 08:25:030.00m/s90.50%17.40C
2017-08-18 08:48:030.00m/s90.80%17.50C
2017-08-18 08:49:031.64m/s90.90%17.60C
2017-08-18 08:54:030.00m/s90.80%17.60C
2017-08-18 08:04:020.06m/s90.30%17.30C
2017-08-18 08:11:020.00m/s90.30%17.30C
2017-08-18 09:16:033.21m/s91.80%17.70C
2017-08-18 10:13:034.78m/s93.10%18.20C
2017-08-18 09:00:030.06m/s91.10%17.60C
2017-08-18 09:21:030.85m/s91.90%17.80C
2017-08-18 10:00:030.06m/s92.20%18.10C
2017-08-18 10:08:020.85m/s92.50%18.20C
2017-08-18 09:29:030.85m/s91.80%17.80C
2017-08-18 09:57:030.00m/s92.40%18.00C
2017-08-18 09:58:030.00m/s92.40%18.00C
2017-08-18 10:42:030.06m/s92.40%18.60C
2017-08-18 10:51:060.06m/s92.20%18.70C
2017-08-18 11:11:030.06m/s91.90%19.10C
2017-08-18 10:35:030.00m/s92.70%18.60C
2017-08-18 10:38:030.00m/s92.30%18.60C
2017-08-18 10:39:030.00m/s92.50%18.60C
2017-08-18 11:00:041.64m/s92.00%18.90C
2017-08-18 11:26:020.00m/s91.40%19.30C
2017-08-18 11:10:090.00m/s92.00%19.10C
2017-08-18 11:49:034.78m/s90.30%19.60C
2017-08-18 12:07:036.35m/s90.00%19.70C
2017-08-18 12:17:037.93m/s90.20%19.90C
2017-08-18 11:29:034.00m/s91.10%19.30C
2017-08-18 11:43:030.85m/s90.70%19.50C
2017-08-18 12:39:030.85m/s86.20%20.00C
2017-08-18 11:52:020.00m/s90.30%19.60C
2017-08-18 12:04:020.00m/s90.20%19.70C
2017-08-18 12:18:030.00m/s90.10%19.90C
2017-08-18 13:23:030.85m/s86.50%19.90C
2017-08-18 13:08:030.00m/s86.30%19.90C
2017-08-18 13:17:030.00m/s86.40%19.90C
2017-08-18 12:40:030.85m/s86.10%20.10C
2017-08-18 12:50:020.00m/s86.50%20.00C
2017-08-18 12:54:030.00m/s86.60%20.00C
2017-08-18 12:57:030.00m/s86.50%20.00C
2017-08-18 12:58:030.00m/s86.40%20.00C
2017-08-18 13:01:020.00m/s86.40%20.00C
2017-08-18 13:24:030.00m/s86.60%19.90C
2017-08-18 13:36:031.64m/s87.30%19.90C
2017-08-18 13:42:030.00m/s88.50%19.80C
2017-08-18 13:43:030.00m/s88.90%19.80C
2017-08-18 13:44:030.00m/s88.90%19.80C
2017-08-18 13:47:030.00m/s88.70%19.80C
2017-08-18 13:52:020.00m/s88.30%19.80C
2017-08-18 13:26:030.00m/s86.90%19.90C
2017-08-18 13:29:030.00m/s86.90%19.90C
2017-08-18 14:22:034.78m/s87.00%20.10C
2017-08-18 16:19:035.57m/s76.50%21.00C
2017-08-18 16:26:035.57m/s75.20%21.10C
2017-08-18 14:17:044.00m/s87.20%20.00C
2017-08-18 14:07:021.64m/s87.90%20.00C
2017-08-18 14:08:030.85m/s87.90%20.00C
2017-08-18 16:14:020.00m/s76.80%20.90C
2017-08-18 16:22:020.00m/s75.50%21.00C
2017-08-18 14:02:020.00m/s87.90%20.00C
2017-08-18 16:47:038.71m/s72.80%21.60C
2017-08-18 16:46:031.64m/s73.20%21.60C
2017-08-18 16:52:030.06m/s73.90%21.60C
2017-08-18 16:50:020.00m/s72.50%21.60C
2017-08-18 17:00:030.00m/s73.50%21.70C
2017-08-18 17:04:020.00m/s73.70%21.80C
2017-08-18 17:12:030.00m/s73.60%21.90C
2017-08-18 17:14:030.00m/s73.60%21.90C
2017-08-18 17:23:020.00m/s73.70%21.90C
2017-08-18 17:58:032.42m/s74.30%22.00C
2017-08-18 18:03:037.14m/s74.30%22.00C
2017-08-18 18:12:020.06m/s74.10%21.90C
2017-08-18 17:39:030.00m/s73.70%21.90C
2017-08-18 18:17:030.00m/s74.20%21.90C
2017-08-18 17:24:030.00m/s74.00%21.90C
2017-08-18 17:29:030.00m/s74.00%21.90C
2017-08-18 17:37:030.00m/s74.00%21.90C
2017-08-18 17:38:030.00m/s74.00%22.00C
2017-08-18 19:01:036.35m/s74.20%21.90C
2017-08-18 18:40:032.42m/s75.00%21.90C
2017-08-18 18:59:020.06m/s74.80%21.90C
2017-08-18 19:10:021.64m/s74.10%21.90C
2017-08-18 18:37:030.00m/s74.60%21.90C
2017-08-18 18:49:030.00m/s74.70%21.90C
2017-08-18 18:54:030.00m/s74.20%21.90C
2017-08-18 19:04:030.00m/s74.20%21.90C
2017-08-18 18:26:030.00m/s74.90%21.90C
2017-08-18 19:49:036.35m/s69.90%21.40C
2017-08-18 19:15:030.00m/s73.60%21.80C
2017-08-18 19:18:030.00m/s72.50%21.80C
2017-08-18 19:21:030.00m/s73.20%21.80C
2017-08-18 19:35:030.00m/s72.70%21.60C
2017-08-18 19:57:020.00m/s69.40%21.20C
2017-08-18 20:04:020.00m/s69.60%21.10C
2017-08-18 20:23:030.00m/s69.90%20.80C
2017-08-18 19:23:030.00m/s73.00%21.80C
2017-08-18 20:49:035.57m/s70.30%20.50C
2017-08-18 20:51:025.57m/s70.00%20.40C
2017-08-18 20:45:037.93m/s70.00%20.60C
2017-08-18 20:53:039.50m/s69.60%20.40C
2017-08-18 20:25:041.64m/s70.00%20.80C
2017-08-18 20:33:030.00m/s69.80%20.70C
2017-08-18 21:06:030.00m/s70.30%20.20C
2017-08-18 20:30:030.00m/s69.70%20.70C
2017-08-18 21:04:030.00m/s70.30%20.30C
2017-08-18 21:35:032.42m/s69.40%19.70C
2017-08-18 21:23:034.00m/s69.70%19.90C
2017-08-18 21:08:030.85m/s70.30%20.20C
2017-08-18 21:16:031.64m/s69.60%20.10C
2017-08-18 21:18:030.85m/s69.90%20.00C
2017-08-18 21:13:030.00m/s70.20%20.10C
2017-08-18 21:30:031.64m/s69.00%19.80C
2017-08-18 21:07:030.00m/s70.20%20.20C
2017-08-18 21:14:030.00m/s70.10%20.10C
2017-08-18 21:39:0211.07m/s69.80%19.60C
2017-08-18 21:52:034.78m/s71.40%19.50C
2017-08-18 22:00:032.42m/s71.80%19.40C
2017-08-18 22:10:033.21m/s72.60%19.20C
2017-08-18 22:01:037.93m/s72.20%19.30C
2017-08-18 21:42:030.00m/s70.70%19.60C
2017-08-18 21:56:030.00m/s71.80%19.40C
2017-08-18 22:11:041.64m/s72.50%19.20C
2017-08-18 22:12:030.00m/s72.50%19.20C
2017-08-18 22:45:020.00m/s73.50%18.70C
2017-08-18 22:47:030.00m/s73.40%18.70C
2017-08-18 22:49:020.00m/s73.40%18.60C
2017-08-18 23:00:030.00m/s73.80%18.50C
2017-08-18 22:21:030.00m/s73.00%19.10C
2017-08-18 22:27:030.00m/s73.30%19.00C
2017-08-18 22:28:030.00m/s73.20%19.00C
2017-08-18 22:30:030.00m/s73.50%19.00C
2017-08-18 22:54:030.00m/s73.60%18.60C
2017-08-18 23:31:030.06m/s74.40%18.10C
2017-08-18 23:27:020.00m/s74.70%18.20C
2017-08-18 23:29:030.00m/s74.40%18.20C
2017-08-18 23:33:030.00m/s74.50%18.10C
2017-08-19 00:20:030.00m/s75.60%17.50C
2017-08-19 00:25:030.00m/s74.90%17.30C
2017-08-18 23:38:020.00m/s74.60%18.00C
2017-08-18 23:54:030.00m/s74.80%17.80C
2017-08-19 00:04:030.00m/s74.70%17.70C
2017-08-19 00:49:022.42m/s75.80%17.10C
2017-08-19 01:03:033.21m/s75.80%16.90C
2017-08-19 00:26:020.85m/s75.10%17.30C
2017-08-19 00:30:080.00m/s75.40%17.30C
2017-08-19 00:41:020.00m/s75.60%17.10C
2017-08-19 00:47:031.64m/s75.80%17.10C
2017-08-19 01:09:030.00m/s75.70%16.80C
2017-08-19 00:45:040.00m/s76.00%17.10C
2017-08-19 00:52:030.00m/s75.70%17.00C
2017-08-19 01:32:026.35m/s76.00%16.60C
2017-08-19 02:00:033.21m/s76.50%16.40C
2017-08-19 01:42:030.06m/s76.20%16.50C
2017-08-19 01:22:030.00m/s75.60%16.70C
2017-08-19 01:23:030.00m/s75.60%16.70C
2017-08-19 01:25:030.00m/s75.60%16.70C
2017-08-19 01:31:030.00m/s75.90%16.60C
2017-08-19 01:37:030.00m/s75.80%16.50C
2017-08-19 01:40:030.00m/s76.00%16.50C
2017-08-19 02:26:033.21m/s76.90%16.10C
2017-08-19 02:09:030.06m/s76.40%16.30C
2017-08-19 02:18:030.06m/s76.50%16.20C
2017-08-19 02:08:030.00m/s76.50%16.30C
2017-08-19 02:19:020.00m/s76.50%16.10C
2017-08-19 02:22:030.00m/s76.80%16.20C
2017-08-19 02:24:030.00m/s76.90%16.20C
2017-08-19 02:29:030.00m/s76.80%16.20C
2017-08-19 02:31:030.00m/s76.70%16.10C
2017-08-19 03:17:034.78m/s78.00%15.80C
2017-08-19 03:24:033.21m/s78.10%15.80C
2017-08-19 03:19:020.85m/s78.00%15.80C
2017-08-19 03:07:030.00m/s77.60%15.80C
2017-08-19 03:14:030.00m/s77.70%15.80C
2017-08-19 02:36:030.00m/s77.10%16.10C
2017-08-19 02:40:030.00m/s77.10%16.10C
2017-08-19 02:41:030.00m/s77.10%16.00C
2017-08-19 02:45:030.00m/s77.10%16.00C
2017-08-19 03:26:030.00m/s78.20%15.80C
2017-08-19 03:29:030.00m/s78.10%15.70C
2017-08-19 03:41:021.64m/s78.50%15.60C
2017-08-19 03:45:030.00m/s78.50%15.60C
2017-08-19 03:48:020.00m/s78.70%15.60C
2017-08-19 03:50:030.00m/s78.70%15.60C
2017-08-19 03:51:030.00m/s78.70%15.60C
2017-08-19 03:53:031.64m/s78.80%15.60C
2017-08-19 03:27:030.00m/s78.00%15.80C
2017-08-19 03:59:030.00m/s78.80%15.50C
2017-08-19 04:14:020.00m/s79.40%15.50C
2017-08-19 04:23:030.00m/s79.70%15.40C
2017-08-19 04:24:030.00m/s79.70%15.40C
2017-08-19 04:26:020.00m/s79.80%15.40C
2017-08-19 04:27:030.00m/s79.70%15.40C
2017-08-19 04:00:090.00m/s79.00%15.50C
2017-08-19 04:18:031.64m/s79.50%15.50C
2017-08-19 04:33:030.00m/s80.00%15.40C
2017-08-19 05:26:104.78m/s80.70%15.20C
2017-08-19 04:34:030.06m/s80.10%15.40C
2017-08-19 04:44:030.85m/s80.10%15.40C
2017-08-19 05:06:030.85m/s80.40%15.30C
2017-08-19 05:20:024.00m/s80.50%15.20C
2017-08-19 05:21:030.06m/s80.50%15.20C
2017-08-19 04:39:020.00m/s80.10%15.40C
2017-08-19 04:55:031.64m/s80.20%15.30C
2017-08-19 04:37:024.00m/s80.00%15.40C
2017-08-19 05:33:033.21m/s80.90%15.20C
2017-08-19 05:35:033.21m/s81.00%15.20C
2017-08-19 05:30:030.85m/s80.90%15.20C
2017-08-19 05:32:034.00m/s80.80%15.20C
2017-08-19 06:11:028.71m/s81.20%15.00C
2017-08-19 05:28:030.00m/s80.90%15.20C
2017-08-19 06:02:030.00m/s81.30%15.10C
2017-08-19 06:06:030.00m/s81.20%15.10C
2017-08-19 05:42:030.00m/s81.00%15.10C
2017-08-19 06:19:024.78m/s81.20%15.00C
2017-08-19 06:28:032.42m/s81.30%15.00C
2017-08-19 06:38:032.42m/s81.40%15.00C
2017-08-19 06:43:037.14m/s81.50%15.00C
2017-08-19 06:49:023.21m/s81.70%15.00C
2017-08-19 06:27:029.50m/s81.30%15.00C
2017-08-19 06:33:030.06m/s81.40%15.00C
2017-08-19 06:18:021.64m/s81.20%15.00C
2017-08-19 06:35:030.00m/s81.30%15.00C
2017-08-19 06:52:032.42m/s81.70%15.00C
2017-08-19 06:57:034.78m/s81.80%15.00C
2017-08-19 07:01:032.42m/s81.90%15.00C
2017-08-19 07:25:033.21m/s82.10%15.00C
2017-08-19 07:06:023.21m/s82.00%15.00C
2017-08-19 07:15:033.21m/s82.00%15.00C
2017-08-19 06:58:030.85m/s82.00%15.00C
2017-08-19 07:00:030.06m/s82.00%15.00C
2017-08-19 07:22:038.71m/s82.00%15.00C
2017-08-19 07:47:0313.43m/s82.50%15.00C
2017-08-19 08:11:0312.65m/s83.90%15.10C
2017-08-19 07:30:036.35m/s82.10%14.90C
2017-08-19 07:33:022.42m/s82.30%15.00C
2017-08-19 07:50:033.21m/s82.40%15.00C
2017-08-19 08:04:039.50m/s83.30%15.00C
2017-08-19 08:23:030.06m/s84.00%15.20C
2017-08-19 08:31:038.71m/s83.80%15.20C
2017-08-19 07:36:030.00m/s82.20%15.00C
2017-08-19 09:14:0310.29m/s84.50%15.60C
2017-08-19 08:57:0315.79m/s84.30%15.50C
2017-08-19 08:59:037.93m/s84.30%15.50C
2017-08-19 08:35:030.06m/s84.00%15.20C
2017-08-19 08:52:030.06m/s84.20%15.40C
2017-08-19 08:55:030.85m/s84.40%15.50C
2017-08-19 09:04:030.85m/s84.40%15.50C
2017-08-19 09:19:040.00m/s84.60%15.70C
2017-08-19 08:42:030.00m/s84.30%15.30C
2017-08-19 11:46:0315.79m/s71.20%19.10C
2017-08-19 09:44:0311.07m/s84.90%15.90C
2017-08-19 09:53:025.57m/s85.00%16.00C
2017-08-19 09:37:035.57m/s84.70%15.80C
2017-08-19 09:23:038.71m/s84.60%15.70C
2017-08-19 09:20:031.64m/s84.60%15.70C
2017-08-19 10:05:030.00m/s85.20%16.30C
2017-08-19 11:45:021.64m/s71.40%19.00C
2017-08-19 09:50:030.00m/s85.00%16.00C
2017-08-19 11:55:0315.79m/s71.70%19.30C
2017-08-19 12:23:0312.65m/s68.80%19.80C
2017-08-19 11:54:032.42m/s71.70%19.30C
2017-08-19 12:02:031.64m/s70.70%19.50C
2017-08-19 12:08:030.00m/s69.70%19.60C
2017-08-19 12:13:030.00m/s69.70%19.80C
2017-08-19 12:17:030.00m/s69.60%19.80C
2017-08-19 11:58:020.00m/s71.00%19.40C
2017-08-19 12:31:020.00m/s69.00%20.00C
2017-08-19 12:33:0311.86m/s68.30%20.00C
2017-08-19 13:12:0311.86m/s70.20%20.30C
2017-08-19 12:42:037.14m/s68.20%20.10C
2017-08-19 13:02:033.21m/s69.90%20.20C
2017-08-19 13:16:035.57m/s70.10%20.30C
2017-08-19 12:35:030.06m/s67.60%20.00C
2017-08-19 12:40:030.00m/s68.10%20.10C
2017-08-19 12:57:030.00m/s70.00%20.20C
2017-08-19 13:04:020.00m/s70.00%20.20C
2017-08-19 13:26:034.78m/s70.70%20.20C
2017-08-19 13:27:024.78m/s70.60%20.20C
2017-08-19 13:40:036.35m/s71.40%20.30C
2017-08-19 13:19:030.85m/s70.10%20.20C
2017-08-19 13:24:030.00m/s70.40%20.20C
2017-08-19 13:30:030.00m/s70.90%20.30C
2017-08-19 13:42:020.00m/s71.20%20.30C
2017-08-19 13:43:030.00m/s71.20%20.30C
2017-08-19 13:44:030.00m/s71.30%20.30C
2017-08-19 14:21:0314.22m/s67.40%20.20C
2017-08-19 13:52:035.57m/s72.60%19.90C
2017-08-19 14:07:032.42m/s74.40%19.90C
2017-08-19 14:43:032.42m/s60.30%21.20C
2017-08-19 14:08:030.06m/s74.50%19.90C
2017-08-19 14:12:030.85m/s72.50%20.20C
2017-08-19 14:22:031.64m/s66.10%20.30C
2017-08-19 14:34:021.64m/s66.30%21.00C
2017-08-19 14:24:020.00m/s66.40%20.30C
2017-08-19 15:09:0215.00m/s59.30%21.50C
2017-08-19 15:24:032.42m/s58.80%22.40C
2017-08-19 15:29:035.57m/s57.70%22.60C
2017-08-19 14:49:020.00m/s59.90%20.70C
2017-08-19 14:52:030.00m/s61.60%20.80C
2017-08-19 14:56:030.00m/s61.30%21.10C
2017-08-19 14:59:030.00m/s61.40%21.20C
2017-08-19 15:30:030.00m/s57.80%22.60C
2017-08-19 15:22:030.06m/s59.30%22.30C
2017-08-19 16:30:0211.07m/s53.60%24.40C
2017-08-19 16:03:033.21m/s56.00%23.80C
2017-08-19 15:51:035.57m/s57.60%23.50C
2017-08-19 16:09:024.78m/s54.90%23.90C
2017-08-19 16:00:030.85m/s56.30%23.70C
2017-08-19 15:41:030.00m/s58.50%23.10C
2017-08-19 15:49:030.00m/s57.60%23.40C
2017-08-19 16:22:030.00m/s54.50%24.20C
2017-08-19 16:42:030.00m/s52.00%24.60C
2017-08-19 16:55:037.14m/s50.70%24.80C
2017-08-19 16:59:037.93m/s50.80%24.90C
2017-08-19 17:33:037.93m/s47.60%25.10C
2017-08-19 17:26:034.78m/s48.00%25.10C
2017-08-19 17:17:032.42m/s48.00%25.00C
2017-08-19 16:54:021.64m/s51.20%24.80C
2017-08-19 17:18:031.64m/s48.30%25.00C
2017-08-19 17:39:021.64m/s46.40%25.10C
2017-08-19 17:38:030.00m/s47.40%25.10C
2017-08-19 18:11:0316.58m/s47.30%24.80C
2017-08-19 18:13:034.78m/s46.90%24.80C
2017-08-19 18:09:021.64m/s47.40%24.90C
2017-08-19 18:15:030.00m/s47.80%24.70C
2017-08-19 18:19:030.00m/s48.30%24.70C
2017-08-19 17:47:030.00m/s46.70%25.00C
2017-08-19 17:58:030.00m/s47.10%25.00C
2017-08-19 18:12:030.00m/s47.80%24.80C
2017-08-19 18:34:030.00m/s48.40%24.40C
2017-08-19 18:42:035.57m/s49.10%24.20C
2017-08-19 19:17:036.35m/s50.90%23.60C
2017-08-19 18:58:022.42m/s48.80%23.80C
2017-08-19 18:59:020.00m/s49.70%23.80C
2017-08-19 18:53:030.85m/s48.90%23.90C
2017-08-19 19:02:030.06m/s49.70%23.70C
2017-08-19 19:04:030.00m/s49.70%23.70C
2017-08-19 19:08:030.00m/s49.70%23.70C
2017-08-19 19:11:030.00m/s50.00%23.70C
2017-08-19 19:34:034.00m/s52.80%23.30C
2017-08-19 20:04:030.85m/s55.30%22.60C
2017-08-19 19:40:020.00m/s52.70%23.10C
2017-08-19 20:02:030.00m/s55.40%22.70C
2017-08-19 20:05:030.00m/s55.30%22.60C
2017-08-19 20:06:030.00m/s55.30%22.60C
2017-08-19 20:08:030.00m/s55.20%22.50C
2017-08-19 19:33:030.06m/s52.30%23.30C
2017-08-19 19:52:030.00m/s54.50%23.00C
2017-08-19 20:32:033.21m/s56.40%22.00C
2017-08-19 20:45:034.78m/s56.50%21.60C
2017-08-19 20:24:034.00m/s56.30%22.20C
2017-08-19 20:40:032.42m/s55.80%21.70C
2017-08-19 21:02:022.42m/s57.60%21.20C
2017-08-19 20:18:037.93m/s56.40%22.40C
2017-08-19 20:48:035.57m/s56.50%21.50C
2017-08-19 20:29:030.06m/s56.30%22.10C
2017-08-19 21:00:031.64m/s57.30%21.30C
2017-08-19 21:47:035.57m/s60.50%20.40C
2017-08-19 22:04:033.21m/s61.90%20.10C
2017-08-19 22:12:032.42m/s62.50%20.00C
2017-08-19 21:16:020.00m/s58.50%20.80C
2017-08-19 21:27:030.00m/s59.30%20.70C
2017-08-19 21:37:030.00m/s59.80%20.50C
2017-08-19 21:44:030.00m/s60.50%20.40C
2017-08-19 21:56:030.00m/s61.50%20.20C
2017-08-19 22:08:030.00m/s62.30%20.10C
2017-08-19 22:20:030.00m/s63.20%19.90C
2017-08-19 22:26:020.00m/s63.70%19.90C
2017-08-19 22:27:030.00m/s63.70%19.80C
2017-08-19 22:36:030.00m/s64.40%19.70C
2017-08-19 22:53:030.00m/s65.30%19.40C
2017-08-19 23:05:030.00m/s65.90%19.30C
2017-08-19 22:38:030.00m/s64.70%19.70C
2017-08-19 22:13:030.00m/s62.60%20.00C
2017-08-19 22:15:020.00m/s62.90%20.00C
2017-08-19 23:16:030.85m/s66.40%19.10C
2017-08-19 23:13:030.00m/s66.60%19.20C
2017-08-19 23:18:030.00m/s66.30%19.10C
2017-08-19 23:20:031.64m/s66.60%19.10C
2017-08-19 23:38:030.00m/s66.30%18.80C
2017-08-19 23:40:030.00m/s66.70%18.80C
2017-08-19 23:42:031.64m/s66.50%18.70C
2017-08-19 23:46:020.00m/s66.60%18.70C
2017-08-19 23:12:030.00m/s66.20%19.20C
2017-08-20 00:08:038.71m/s67.40%18.40C
2017-08-20 00:09:030.85m/s67.60%18.40C
2017-08-20 00:00:030.00m/s67.10%18.50C
2017-08-20 00:18:030.00m/s67.90%18.30C
2017-08-20 00:25:020.00m/s68.30%18.20C
2017-08-20 00:27:031.64m/s68.40%18.20C
2017-08-20 00:32:030.00m/s68.60%18.10C
2017-08-20 00:34:030.00m/s68.60%18.10C
2017-08-20 00:39:020.00m/s69.00%18.10C
2017-08-20 00:44:023.21m/s69.40%18.00C
2017-08-20 01:11:030.06m/s70.70%17.80C
2017-08-20 00:43:021.64m/s69.30%18.00C
2017-08-20 00:53:030.00m/s69.50%17.90C
2017-08-20 01:04:020.00m/s70.30%17.80C
2017-08-20 01:14:020.00m/s71.10%17.70C
2017-08-20 01:20:030.00m/s70.80%17.70C
2017-08-20 01:22:030.00m/s71.10%17.70C
2017-08-20 01:01:030.00m/s69.80%17.80C
2017-08-20 02:01:037.14m/s73.20%17.40C
2017-08-20 01:25:030.00m/s71.50%17.70C
2017-08-20 01:51:020.00m/s72.50%17.40C
2017-08-20 02:03:030.00m/s73.70%17.30C
2017-08-20 02:05:020.00m/s73.40%17.30C
2017-08-20 02:13:030.00m/s74.50%17.30C
2017-08-20 02:16:030.00m/s74.70%17.30C
2017-08-20 02:23:030.00m/s74.70%17.20C
2017-08-20 02:28:030.00m/s75.00%17.20C
2017-08-20 02:41:037.93m/s76.00%17.10C
2017-08-20 02:50:034.00m/s76.00%17.10C
2017-08-20 02:42:030.06m/s76.00%17.10C
2017-08-20 02:49:040.85m/s76.00%17.10C
2017-08-20 02:55:030.06m/s76.00%17.10C
2017-08-20 02:34:030.00m/s75.10%17.20C
2017-08-20 02:38:030.00m/s75.20%17.10C
2017-08-20 02:39:030.00m/s75.60%17.10C
2017-08-20 02:57:030.00m/s76.00%17.10C
2017-08-20 03:36:034.00m/s76.20%16.80C
2017-08-20 03:22:030.00m/s75.80%16.90C
2017-08-20 03:26:020.00m/s75.80%16.90C
2017-08-20 03:29:030.00m/s76.20%16.90C
2017-08-20 03:39:030.00m/s76.40%16.80C
2017-08-20 03:41:030.00m/s76.50%16.80C
2017-08-20 03:42:020.00m/s76.60%16.80C
2017-08-20 03:08:030.00m/s75.90%17.00C
2017-08-20 03:18:030.00m/s75.90%16.90C
2017-08-20 03:49:030.00m/s76.90%16.70C
2017-08-20 03:59:030.00m/s76.80%16.70C
2017-08-20 04:08:030.00m/s77.10%16.70C
2017-08-20 04:09:020.00m/s77.30%16.70C
2017-08-20 04:10:030.00m/s77.10%16.60C
2017-08-20 04:13:030.00m/s77.30%16.60C
2017-08-20 04:20:020.00m/s77.50%16.60C
2017-08-20 04:23:020.00m/s77.40%16.60C
2017-08-20 04:25:030.00m/s77.50%16.60C
2017-08-20 04:30:030.00m/s77.40%16.60C
2017-08-20 04:48:030.00m/s77.30%16.50C
2017-08-20 04:57:030.00m/s77.60%16.50C
2017-08-20 05:01:030.00m/s77.80%16.40C
2017-08-20 05:06:030.00m/s77.80%16.40C
2017-08-20 04:53:030.00m/s77.50%16.50C
2017-08-20 04:59:030.00m/s78.00%16.40C
2017-08-20 05:07:030.00m/s78.00%16.40C
2017-08-20 05:08:030.00m/s78.00%16.30C
2017-08-20 05:30:040.06m/s78.60%16.30C
2017-08-20 07:03:030.85m/s81.00%15.80C
2017-08-20 05:10:030.00m/s78.10%16.40C
2017-08-20 05:18:030.00m/s78.20%16.30C
2017-08-20 05:28:030.00m/s78.60%16.30C
2017-08-20 06:59:030.00m/s80.50%15.80C
2017-08-20 07:10:030.00m/s80.90%15.80C
2017-08-20 05:15:030.00m/s78.30%16.30C
2017-08-20 05:16:030.00m/s78.30%16.30C
2017-08-20 07:13:020.00m/s80.70%15.80C
2017-08-20 07:20:030.00m/s80.60%15.70C
2017-08-20 07:29:030.00m/s80.80%15.70C
2017-08-20 07:38:030.00m/s80.90%15.60C
2017-08-20 07:44:030.00m/s81.20%15.60C
2017-08-20 07:23:030.00m/s80.80%15.80C
2017-08-20 07:25:030.00m/s81.00%15.70C
2017-08-20 07:33:030.00m/s81.00%15.70C
2017-08-20 07:43:030.00m/s81.00%15.60C
2017-08-20 07:45:030.00m/s81.20%15.70C
2017-08-20 07:46:030.00m/s81.30%15.60C
2017-08-20 07:50:030.00m/s81.20%15.70C
2017-08-20 07:51:030.00m/s81.40%15.60C
2017-08-20 07:56:030.00m/s81.80%15.60C
2017-08-20 07:58:030.00m/s81.70%15.60C
2017-08-20 08:07:030.00m/s82.10%15.60C
2017-08-20 08:16:030.00m/s82.40%15.70C
2017-08-20 08:18:030.00m/s82.30%15.60C
2017-08-20 08:44:030.85m/s83.10%15.70C
2017-08-20 08:46:030.06m/s83.40%15.80C
2017-08-20 09:18:020.06m/s84.00%16.10C
2017-08-20 09:38:030.85m/s83.80%16.20C
2017-08-20 08:45:030.00m/s83.20%15.80C
2017-08-20 08:58:020.00m/s83.60%15.90C
2017-08-20 09:35:030.00m/s83.70%16.20C
2017-08-20 08:31:030.00m/s82.70%15.70C
2017-08-20 09:05:030.00m/s83.50%16.00C
2017-08-20 10:04:0311.86m/s84.60%16.60C
2017-08-20 10:11:032.42m/s84.00%16.80C
2017-08-20 10:16:025.57m/s83.50%16.90C
2017-08-20 09:41:030.00m/s83.90%16.30C
2017-08-20 09:42:030.00m/s83.80%16.30C
2017-08-20 09:50:020.00m/s84.60%16.40C
2017-08-20 09:52:030.00m/s84.90%16.40C
2017-08-20 09:56:030.00m/s85.30%16.40C
2017-08-20 10:07:030.00m/s84.30%16.70C
2017-08-20 10:21:036.35m/s83.00%17.10C
2017-08-20 10:27:036.35m/s82.50%17.30C
2017-08-20 10:40:036.35m/s81.30%17.70C
2017-08-20 10:51:034.00m/s79.00%18.20C
2017-08-20 10:23:031.64m/s83.00%17.20C
2017-08-20 10:26:030.00m/s82.50%17.20C
2017-08-20 10:30:020.00m/s82.30%17.40C
2017-08-20 10:42:030.00m/s80.90%17.80C
2017-08-20 10:17:030.00m/s83.40%17.00C
2017-08-20 11:13:034.78m/s76.00%18.70C
2017-08-20 11:32:034.78m/s72.80%19.00C
2017-08-20 10:55:030.85m/s78.10%18.30C
2017-08-20 11:50:030.06m/s71.60%19.20C
2017-08-20 11:54:030.85m/s70.90%19.20C
2017-08-20 11:05:031.64m/s77.70%18.50C
2017-08-20 11:38:050.00m/s72.20%19.10C
2017-08-20 11:47:030.00m/s71.60%19.20C
2017-08-20 11:34:030.00m/s72.50%19.00C
2017-08-20 11:55:032.42m/s71.00%19.20C
2017-08-20 11:57:030.06m/s71.00%19.20C
2017-08-20 12:01:030.06m/s70.80%19.30C
2017-08-20 12:32:030.06m/s68.40%19.70C
2017-08-20 12:12:031.64m/s70.00%19.40C
2017-08-20 12:29:031.64m/s68.20%19.60C
2017-08-20 12:30:030.00m/s68.20%19.60C
2017-08-20 12:05:030.00m/s71.00%19.30C
2017-08-20 12:31:030.00m/s68.60%19.60C
2017-08-20 13:04:033.21m/s66.00%20.20C
2017-08-20 12:51:030.06m/s66.60%19.90C
2017-08-20 13:07:030.06m/s66.10%20.20C
2017-08-20 12:35:031.64m/s67.90%19.70C
2017-08-20 12:40:031.64m/s67.50%19.80C
2017-08-20 12:42:031.64m/s67.70%19.80C
2017-08-20 13:15:040.00m/s66.30%20.40C
2017-08-20 13:18:020.00m/s65.60%20.50C
2017-08-20 13:20:030.00m/s65.90%20.60C
2017-08-20 13:26:035.57m/s66.20%20.70C
2017-08-20 13:30:033.21m/s64.70%20.80C
2017-08-20 13:37:035.57m/s64.50%20.90C
2017-08-20 14:01:033.21m/s61.00%21.90C
2017-08-20 13:24:032.42m/s66.20%20.70C
2017-08-20 13:38:031.64m/s65.20%21.00C
2017-08-20 13:44:031.64m/s64.70%21.30C
2017-08-20 13:49:031.64m/s63.90%21.40C
2017-08-20 13:50:030.00m/s63.50%21.40C
2017-08-20 14:16:0217.36m/s59.00%22.60C
2017-08-20 14:10:0321.30m/s60.50%22.30C
2017-08-20 14:39:037.93m/s57.70%23.50C
2017-08-20 14:32:034.00m/s58.10%23.20C
2017-08-20 14:20:035.57m/s58.80%22.80C
2017-08-20 14:04:031.64m/s60.80%22.00C
2017-08-20 14:48:031.64m/s56.40%23.90C
2017-08-20 14:23:030.00m/s58.50%22.90C
2017-08-20 14:27:030.00m/s58.10%23.00C
2017-08-20 14:57:0310.29m/s55.00%24.20C
2017-08-20 15:07:036.35m/s54.10%24.50C
2017-08-20 14:53:032.42m/s55.50%24.10C
2017-08-20 15:09:032.42m/s53.10%24.50C
2017-08-20 15:11:034.00m/s53.60%24.60C
2017-08-20 15:02:030.06m/s54.10%24.30C
2017-08-20 15:06:030.06m/s54.20%24.50C
2017-08-20 14:50:020.00m/s56.40%23.90C
2017-08-20 15:01:030.00m/s53.30%24.30C
2017-08-20 15:31:033.21m/s50.90%25.00C
2017-08-20 15:15:032.42m/s53.10%24.70C
2017-08-20 15:25:030.00m/s51.40%24.80C
2017-08-20 15:44:030.00m/s51.40%25.10C
2017-08-20 15:47:030.00m/s51.80%25.20C
2017-08-20 15:32:030.00m/s50.90%25.00C
2017-08-20 15:35:030.00m/s51.80%25.00C
2017-08-20 15:38:030.00m/s51.60%25.00C
2017-08-20 15:39:030.00m/s51.30%25.00C
2017-08-20 15:58:0311.07m/s51.10%25.30C
2017-08-20 15:48:033.21m/s51.50%25.20C
2017-08-20 16:06:032.42m/s50.40%25.40C
2017-08-20 15:57:031.64m/s51.10%25.30C
2017-08-20 15:50:030.00m/s51.10%25.30C
2017-08-20 15:52:030.00m/s51.10%25.30C
2017-08-20 15:54:030.00m/s51.10%25.30C
2017-08-20 16:05:020.00m/s49.80%25.40C
2017-08-20 16:22:030.00m/s48.70%25.60C
2017-08-20 16:43:0315.00m/s48.20%25.70C
2017-08-20 16:36:033.21m/s48.30%25.60C
2017-08-20 16:54:037.93m/s47.50%25.80C
2017-08-20 16:53:034.78m/s48.20%25.80C
2017-08-20 17:10:039.50m/s47.20%25.80C
2017-08-20 16:38:030.00m/s48.10%25.60C
2017-08-20 17:00:040.00m/s47.10%25.80C
2017-08-20 17:01:030.00m/s47.10%25.70C
2017-08-20 16:32:030.06m/s47.50%25.50C
2017-08-20 17:15:035.57m/s46.90%25.70C
2017-08-20 17:28:038.71m/s46.60%25.80C
2017-08-20 17:30:035.57m/s45.80%25.70C
2017-08-20 17:46:033.21m/s46.30%25.70C
2017-08-20 17:24:024.78m/s47.00%25.80C
2017-08-20 17:27:034.00m/s46.10%25.80C
2017-08-20 17:23:030.00m/s47.50%25.80C
2017-08-20 17:31:030.00m/s46.30%25.70C
2017-08-20 17:38:030.00m/s46.80%25.70C
2017-08-20 17:50:023.21m/s45.90%25.70C
2017-08-20 17:47:024.78m/s46.30%25.70C
2017-08-20 17:54:032.42m/s45.60%25.70C
2017-08-20 18:13:020.06m/s46.90%25.60C
2017-08-20 17:59:030.00m/s45.90%25.70C
2017-08-20 18:04:030.00m/s46.50%25.70C
2017-08-20 18:11:030.00m/s46.30%25.60C
2017-08-20 18:00:030.00m/s46.00%25.70C
2017-08-20 18:18:030.00m/s46.60%25.60C
2017-08-20 18:22:0310.29m/s46.90%25.50C
2017-08-20 18:57:030.06m/s47.10%25.00C
2017-08-20 18:30:030.00m/s46.60%25.40C
2017-08-20 18:32:030.00m/s46.70%25.40C
2017-08-20 18:33:030.00m/s46.80%25.40C
2017-08-20 18:50:030.00m/s46.90%25.10C
2017-08-20 18:52:030.00m/s46.30%25.10C
2017-08-20 18:19:030.00m/s46.00%25.50C
2017-08-20 18:45:040.00m/s47.00%25.30C
2017-08-20 19:11:030.06m/s47.40%24.80C
2017-08-20 19:03:030.00m/s47.10%24.90C
2017-08-20 19:04:030.00m/s47.40%24.90C
2017-08-20 19:09:020.00m/s47.60%24.80C
2017-08-20 19:13:030.00m/s47.90%24.80C
2017-08-20 19:15:030.00m/s48.20%24.80C
2017-08-20 19:23:030.00m/s48.90%24.60C
2017-08-20 19:29:030.00m/s48.50%24.40C
2017-08-20 19:16:020.00m/s48.00%24.70C
2017-08-20 19:31:033.21m/s48.50%24.30C
2017-08-20 19:34:030.06m/s48.50%24.30C
2017-08-20 19:49:030.06m/s49.50%23.90C
2017-08-20 19:51:030.00m/s49.70%23.90C
2017-08-20 19:58:030.00m/s50.20%23.80C
2017-08-20 19:59:030.00m/s50.40%23.80C
2017-08-20 20:01:030.00m/s50.80%23.70C
2017-08-20 19:32:020.00m/s48.30%24.30C
2017-08-20 19:40:030.00m/s49.00%24.20C
2017-08-20 20:08:030.00m/s51.20%23.50C
2017-08-20 20:18:030.00m/s51.70%23.30C
2017-08-20 20:52:020.00m/s54.60%22.50C
2017-08-20 21:12:020.00m/s54.60%20.70C
2017-08-20 21:21:030.00m/s56.50%20.20C
2017-08-20 21:25:030.00m/s56.60%20.20C
2017-08-20 21:30:030.00m/s57.30%20.20C
2017-08-20 20:25:030.00m/s52.10%23.10C
2017-08-20 21:16:030.00m/s55.40%20.40C
2017-08-20 21:37:020.00m/s58.30%20.10C
2017-08-20 21:52:030.00m/s58.20%20.40C
2017-08-20 21:55:030.00m/s58.20%20.40C
2017-08-20 22:04:030.00m/s58.50%20.40C
2017-08-20 22:13:030.00m/s59.10%20.30C
2017-08-20 22:18:030.00m/s59.40%20.30C
2017-08-20 21:50:030.00m/s58.40%20.40C
2017-08-20 22:01:030.00m/s58.40%20.40C
2017-08-20 22:47:030.00m/s60.50%20.00C
2017-08-20 22:50:030.00m/s60.60%19.90C
2017-08-20 22:51:020.00m/s60.60%19.90C
2017-08-20 23:05:030.00m/s61.20%19.80C
2017-08-20 23:09:030.00m/s61.50%19.70C
2017-08-20 23:10:020.00m/s61.50%19.70C
2017-08-20 23:16:020.00m/s61.80%19.70C
2017-08-20 23:12:020.00m/s61.70%19.70C
2017-08-20 23:14:030.00m/s61.70%19.70C
2017-08-20 23:27:030.00m/s62.00%19.50C
2017-08-20 23:30:040.00m/s62.40%19.50C
2017-08-20 23:34:030.00m/s62.80%19.50C
2017-08-20 23:38:030.00m/s62.60%19.40C
2017-08-20 23:40:030.00m/s62.90%19.40C
2017-08-20 23:56:020.00m/s63.70%19.20C
2017-08-21 00:06:020.00m/s64.30%19.10C
2017-08-21 00:07:030.00m/s64.30%19.10C
2017-08-21 00:08:030.00m/s64.20%19.10C
2017-08-20 23:39:020.00m/s63.00%19.40C
2017-08-21 00:09:030.00m/s64.20%19.10C
2017-08-21 00:10:020.00m/s64.40%19.10C
2017-08-21 00:12:030.00m/s64.40%19.10C
2017-08-21 01:55:020.00m/s66.30%18.20C
2017-08-21 01:59:030.00m/s66.80%18.10C
2017-08-21 00:38:030.00m/s64.80%18.80C
2017-08-21 00:41:030.00m/s64.80%18.80C
2017-08-21 02:10:030.00m/s66.90%18.00C
2017-08-21 00:19:030.00m/s65.00%19.00C
2017-08-21 02:25:020.00m/s67.30%17.90C
2017-08-21 02:36:030.00m/s67.70%17.90C
2017-08-21 02:47:030.00m/s67.40%17.80C
2017-08-21 02:50:020.00m/s67.80%17.70C
2017-08-21 02:52:030.00m/s67.50%17.70C
2017-08-21 02:53:030.00m/s67.90%17.70C
2017-08-21 02:21:030.00m/s67.00%17.90C
2017-08-21 02:22:030.00m/s66.80%18.00C
2017-08-21 02:12:030.00m/s67.00%18.00C
2017-08-21 02:57:030.00m/s68.10%17.70C
2017-08-21 02:58:020.00m/s68.10%17.70C
2017-08-21 03:07:020.00m/s68.20%17.60C
2017-08-21 03:10:030.00m/s68.10%17.60C
2017-08-21 03:29:030.00m/s68.30%17.40C
2017-08-21 03:09:030.00m/s68.00%17.60C
2017-08-21 03:13:030.00m/s68.00%17.60C
2017-08-21 03:17:030.00m/s68.00%17.50C
2017-08-21 03:25:030.00m/s68.50%17.50C
2017-08-21 03:30:030.00m/s68.30%17.40C
2017-08-21 03:31:030.00m/s68.20%17.40C
2017-08-21 03:40:030.00m/s68.70%17.40C
2017-08-21 03:49:030.00m/s68.70%17.30C
2017-08-21 03:51:030.00m/s68.90%17.30C
2017-08-21 03:55:020.00m/s68.60%17.30C
2017-08-21 04:00:020.00m/s68.70%17.20C
2017-08-21 04:05:020.00m/s68.80%17.10C
2017-08-21 03:36:020.00m/s68.40%17.40C
2017-08-21 04:06:030.00m/s68.80%17.20C
2017-08-21 04:08:020.00m/s68.80%17.10C
2017-08-21 04:21:020.00m/s69.30%17.10C
2017-08-21 04:31:030.00m/s69.20%16.90C
2017-08-21 04:38:030.00m/s69.40%16.90C
2017-08-21 04:39:030.00m/s69.40%16.90C
2017-08-21 04:25:020.00m/s69.10%17.00C
2017-08-21 04:26:030.00m/s69.10%17.00C
2017-08-21 04:52:030.00m/s70.00%16.80C
2017-08-21 05:05:030.00m/s70.10%16.70C
2017-08-21 05:10:030.00m/s70.10%16.60C
2017-08-21 05:11:030.00m/s70.20%16.60C
2017-08-21 05:17:030.00m/s70.70%16.50C
2017-08-21 05:20:030.00m/s70.40%16.50C
2017-08-21 05:23:030.00m/s70.80%16.50C
2017-08-21 05:25:030.00m/s70.80%16.40C
2017-08-21 04:57:020.00m/s69.70%16.70C
2017-08-21 05:02:030.00m/s70.00%16.70C
2017-08-21 05:26:030.00m/s70.70%16.40C
2017-08-21 05:27:030.00m/s70.70%16.40C
2017-08-21 05:37:030.00m/s70.90%16.30C
2017-08-21 05:42:020.00m/s71.20%16.30C
2017-08-21 05:48:030.00m/s71.10%16.20C
2017-08-21 05:57:030.00m/s71.70%16.10C
2017-08-21 05:58:030.00m/s71.70%16.20C
2017-08-21 05:59:030.00m/s71.80%16.20C
2017-08-21 05:31:020.00m/s71.00%16.40C
2017-08-21 06:13:020.00m/s72.20%16.10C
2017-08-21 06:37:030.00m/s72.60%15.90C
2017-08-21 06:59:030.00m/s72.90%15.80C
2017-08-21 06:09:030.00m/s72.00%16.10C
2017-08-21 06:11:030.00m/s72.10%16.10C
2017-08-21 06:22:030.00m/s72.40%16.00C
2017-08-21 06:26:020.00m/s72.40%16.00C
2017-08-21 06:28:030.00m/s72.60%16.00C
2017-08-21 06:43:020.00m/s72.90%15.90C
2017-08-21 07:02:030.00m/s73.10%15.80C
2017-08-21 07:03:030.00m/s73.10%15.80C
2017-08-21 07:04:030.00m/s73.10%15.80C
2017-08-21 07:11:030.00m/s73.10%15.80C
2017-08-21 07:23:030.00m/s73.30%15.70C
2017-08-21 07:26:030.00m/s73.50%15.80C
2017-08-21 07:28:030.00m/s73.40%15.70C
2017-08-21 07:33:030.00m/s73.60%15.70C
2017-08-21 07:05:030.00m/s73.00%15.80C
2017-08-21 07:37:030.00m/s73.60%15.70C
2017-08-21 07:38:030.00m/s73.60%15.70C
2017-08-21 07:49:020.00m/s73.90%15.70C
2017-08-21 07:50:020.00m/s73.90%15.70C
2017-08-21 07:53:030.00m/s74.10%15.70C
2017-08-21 08:03:020.00m/s74.30%15.70C
2017-08-21 07:45:030.00m/s74.00%15.70C
2017-08-21 07:55:030.00m/s74.00%15.70C
2017-08-21 07:58:030.00m/s74.00%15.70C
2017-08-21 08:32:030.00m/s75.30%15.70C
2017-08-21 08:33:020.00m/s75.50%15.70C
2017-08-21 08:11:030.00m/s74.70%15.70C
2017-08-21 08:14:020.00m/s74.70%15.70C
2017-08-21 08:18:020.00m/s74.70%15.70C
2017-08-21 08:22:030.00m/s74.70%15.70C
2017-08-21 08:23:020.00m/s74.70%15.70C
2017-08-21 08:24:020.00m/s74.70%15.70C
2017-08-21 08:29:030.00m/s74.70%15.70C
2017-08-21 08:42:032.42m/s75.90%15.80C
2017-08-21 08:36:030.85m/s75.30%15.70C
2017-08-21 08:46:030.00m/s76.10%15.80C
2017-08-21 08:47:030.00m/s76.20%15.80C
2017-08-21 08:48:020.00m/s76.20%15.80C
2017-08-21 08:52:020.00m/s76.30%15.80C
2017-08-21 08:53:030.00m/s76.40%15.90C
2017-08-21 08:54:030.00m/s76.50%15.90C
2017-08-21 08:56:020.00m/s76.70%15.90C
2017-08-21 09:18:030.06m/s77.20%16.30C
2017-08-21 09:38:030.06m/s77.80%16.70C
2017-08-21 08:58:030.00m/s76.50%15.90C
2017-08-21 09:08:030.00m/s76.90%16.10C
2017-08-21 09:14:030.00m/s77.10%16.20C
2017-08-21 09:26:030.00m/s77.60%16.40C
2017-08-21 09:31:021.64m/s77.60%16.50C
2017-08-21 09:32:030.00m/s77.70%16.60C
2017-08-21 09:35:030.06m/s77.60%16.60C
2017-08-21 10:12:036.35m/s76.60%17.70C
2017-08-21 10:21:032.42m/s76.50%18.00C
2017-08-21 09:49:030.06m/s77.80%17.00C
2017-08-21 09:55:030.00m/s77.80%17.10C
2017-08-21 10:01:020.00m/s77.90%17.30C
2017-08-21 10:04:030.00m/s77.70%17.40C
2017-08-21 10:15:020.00m/s76.80%17.90C
2017-08-21 10:26:030.00m/s75.70%18.20C
2017-08-21 09:41:030.00m/s78.00%16.80C
2017-08-21 10:37:035.57m/s73.70%18.60C
2017-08-21 10:30:030.85m/s74.90%18.40C
2017-08-21 10:53:030.06m/s70.80%19.20C
2017-08-21 10:55:030.85m/s70.50%19.30C
2017-08-21 10:52:020.00m/s70.80%19.20C
2017-08-21 11:02:030.00m/s69.70%19.60C
2017-08-21 10:41:030.85m/s72.80%18.80C
2017-08-21 10:45:020.00m/s71.90%18.90C
2017-08-21 10:47:030.00m/s72.00%19.00C
2017-08-21 11:19:020.06m/s67.90%20.30C
2017-08-21 11:25:020.06m/s67.30%20.50C
2017-08-21 11:16:030.00m/s68.30%20.20C
2017-08-21 11:38:030.00m/s64.70%21.10C
2017-08-21 11:32:030.00m/s66.00%20.80C
2017-08-21 11:37:030.00m/s65.10%21.00C
2017-08-21 11:40:030.00m/s65.00%21.20C
2017-08-21 11:43:030.00m/s64.00%21.30C
2017-08-21 11:12:030.00m/s69.10%20.00C
2017-08-21 12:00:032.42m/s61.20%22.10C
2017-08-21 12:02:031.64m/s61.00%22.10C
2017-08-21 12:14:030.00m/s59.50%22.80C
2017-08-21 12:22:030.00m/s58.20%23.10C
2017-08-21 12:23:020.00m/s57.80%23.10C
2017-08-21 12:26:030.00m/s57.60%23.20C
2017-08-21 12:31:030.00m/s56.70%23.40C
2017-08-21 11:47:031.64m/s62.50%21.50C
2017-08-21 12:19:030.00m/s58.20%23.00C
2017-08-21 13:16:033.21m/s50.50%24.60C
2017-08-21 12:34:031.64m/s57.00%23.50C
2017-08-21 13:11:020.06m/s53.90%24.50C
2017-08-21 12:43:030.00m/s56.30%23.70C
2017-08-21 12:45:020.00m/s56.40%23.80C
2017-08-21 13:02:020.00m/s54.50%24.30C
2017-08-21 13:07:030.00m/s54.60%24.40C
2017-08-21 13:13:030.00m/s53.40%24.60C
2017-08-21 12:56:030.00m/s56.00%24.10C
2017-08-21 13:22:039.50m/s49.20%24.60C
2017-08-21 14:12:032.42m/s45.50%26.90C
2017-08-21 13:21:030.85m/s50.00%24.60C
2017-08-21 13:37:030.06m/s48.20%25.50C
2017-08-21 14:11:030.85m/s45.50%26.90C
2017-08-21 13:17:020.00m/s50.40%24.70C
2017-08-21 13:58:030.00m/s47.40%26.30C
2017-08-21 14:05:020.00m/s46.50%26.70C
2017-08-21 13:42:020.00m/s48.00%25.70C
2017-08-21 14:45:034.00m/s44.70%28.10C
2017-08-21 14:28:020.00m/s45.80%27.60C
2017-08-21 14:30:030.00m/s45.20%27.70C
2017-08-21 14:54:030.00m/s43.90%28.30C
2017-08-21 14:58:030.00m/s43.50%28.40C
2017-08-21 15:04:030.00m/s43.20%28.60C
2017-08-21 15:07:030.00m/s42.90%28.60C
2017-08-21 14:38:030.00m/s45.00%27.90C
2017-08-21 15:00:020.00m/s43.50%28.50C
2017-08-21 15:38:032.42m/s42.40%28.70C
2017-08-21 15:46:030.06m/s42.60%28.70C
2017-08-21 15:26:030.00m/s43.10%28.90C
2017-08-21 15:28:030.00m/s43.10%28.80C
2017-08-21 15:41:020.00m/s42.60%28.70C
2017-08-21 15:44:030.00m/s42.20%28.70C
2017-08-21 15:45:030.00m/s42.30%28.70C
2017-08-21 15:55:030.00m/s42.30%28.70C
2017-08-21 15:59:030.00m/s42.30%28.70C
2017-08-21 16:44:022.42m/s42.90%28.50C
2017-08-21 16:34:020.06m/s42.90%28.50C
2017-08-21 16:01:030.00m/s42.30%28.70C
2017-08-21 16:08:030.00m/s42.30%28.70C
2017-08-21 16:13:020.00m/s42.70%28.80C
2017-08-21 16:25:030.00m/s42.90%28.60C
2017-08-21 16:41:030.00m/s42.60%28.50C
2017-08-21 16:42:020.00m/s42.70%28.50C
2017-08-21 16:43:030.00m/s42.70%28.50C
2017-08-21 17:17:031.64m/s42.50%28.30C
2017-08-21 16:52:030.00m/s42.70%28.40C
2017-08-21 16:55:030.00m/s42.90%28.40C
2017-08-21 17:02:030.00m/s41.70%28.40C
2017-08-21 17:14:030.00m/s41.90%28.30C
2017-08-21 17:30:030.00m/s41.70%28.20C
2017-08-21 16:59:030.00m/s42.00%28.40C
2017-08-21 17:03:020.00m/s41.40%28.40C
2017-08-21 17:21:020.00m/s42.00%28.30C
2017-08-21 17:31:030.00m/s41.80%28.20C
2017-08-21 17:33:030.00m/s42.40%28.20C
2017-08-21 17:34:030.00m/s42.40%28.20C
2017-08-21 17:38:030.00m/s42.30%28.20C
2017-08-21 17:39:030.00m/s42.40%28.20C
2017-08-21 17:45:030.00m/s42.60%28.20C
2017-08-21 18:00:030.00m/s42.60%28.20C
2017-08-21 18:02:030.00m/s42.70%28.20C
2017-08-21 17:35:030.00m/s42.20%28.20C
2017-08-21 18:12:020.00m/s43.30%28.10C
2017-08-21 18:15:020.00m/s39.40%27.90C
2017-08-21 18:27:030.00m/s42.10%27.80C
2017-08-21 18:34:030.00m/s42.60%27.80C
2017-08-21 18:50:030.00m/s43.10%27.60C
2017-08-21 18:57:020.00m/s43.70%27.40C
2017-08-21 18:18:020.00m/s41.00%27.70C
2017-08-21 18:39:030.00m/s43.00%27.70C
2017-08-21 18:45:020.00m/s43.00%27.60C
2017-08-21 19:07:030.00m/s44.10%27.20C
2017-08-21 19:08:030.00m/s44.40%27.20C
2017-08-21 19:32:030.00m/s46.40%26.70C
2017-08-21 21:15:020.00m/s54.60%24.20C
2017-08-21 21:28:030.00m/s55.20%23.90C
2017-08-21 21:05:020.00m/s54.00%24.40C
2017-08-21 21:25:020.00m/s55.00%23.90C
2017-08-21 21:09:030.00m/s54.30%24.30C
2017-08-21 21:22:020.00m/s55.00%24.00C
2017-08-21 21:52:030.00m/s55.90%23.30C
2017-08-21 21:54:030.00m/s56.10%23.30C
2017-08-21 22:00:030.00m/s56.50%23.10C
2017-08-21 22:01:020.00m/s56.50%23.10C
2017-08-21 22:10:020.00m/s57.10%22.90C
2017-08-21 22:17:030.00m/s57.40%22.70C
2017-08-21 22:20:020.00m/s57.50%22.70C
2017-08-21 22:04:030.00m/s56.60%23.00C
2017-08-21 22:09:030.00m/s57.00%22.90C
2017-08-21 22:25:020.00m/s57.50%22.60C
2017-08-21 22:26:030.00m/s57.80%22.60C
2017-08-21 22:32:020.00m/s58.10%22.50C
2017-08-21 22:43:020.00m/s58.50%22.30C
2017-08-21 22:48:030.00m/s58.80%22.20C
2017-08-21 22:51:030.00m/s58.90%22.20C
2017-08-21 22:52:030.00m/s59.00%22.10C
2017-08-21 22:59:030.00m/s59.40%22.00C
2017-08-21 23:03:020.00m/s59.50%22.00C
2017-08-21 23:05:030.00m/s59.60%21.90C
2017-08-21 23:09:030.00m/s59.80%21.90C
2017-08-21 23:27:030.00m/s60.70%21.60C
2017-08-21 23:49:030.00m/s61.50%21.30C
2017-08-21 23:42:030.00m/s61.30%21.30C
2017-08-21 23:22:020.00m/s60.60%21.60C
2017-08-21 23:12:030.00m/s60.00%21.80C
2017-08-21 23:16:030.00m/s60.00%21.80C
2017-08-21 23:43:020.00m/s61.40%21.40C
2017-08-21 23:59:030.00m/s61.80%21.10C
2017-08-22 00:00:040.00m/s61.70%21.10C
2017-08-22 00:03:030.00m/s61.80%21.10C
2017-08-22 00:14:030.00m/s62.20%20.90C
2017-08-22 00:29:030.00m/s62.90%20.70C
2017-08-21 23:58:030.00m/s62.00%21.20C
2017-08-22 00:05:030.00m/s62.00%21.10C
2017-08-22 00:10:030.00m/s62.20%21.00C
2017-08-22 00:12:030.00m/s62.30%21.00C
2017-08-22 00:31:030.00m/s62.90%20.70C
2017-08-22 00:33:030.00m/s63.10%20.70C
2017-08-22 00:37:020.00m/s63.30%20.60C
2017-08-22 00:58:030.00m/s63.60%20.30C
2017-08-22 01:03:030.00m/s64.10%20.30C
2017-08-22 01:06:030.00m/s64.30%20.20C
2017-08-22 01:16:030.00m/s64.50%20.10C
2017-08-22 01:17:030.00m/s64.70%20.10C
2017-08-22 00:47:030.00m/s63.50%20.50C
2017-08-22 01:27:030.00m/s65.30%19.90C
2017-08-22 01:43:020.00m/s65.60%19.70C
2017-08-22 01:54:040.00m/s66.40%19.60C
2017-08-22 01:56:020.00m/s65.80%19.50C
2017-08-22 02:14:030.00m/s66.90%19.30C
2017-08-22 02:18:030.00m/s67.20%19.30C
2017-08-22 02:24:030.00m/s67.30%19.20C
2017-08-22 01:22:030.00m/s65.20%20.00C
2017-08-22 01:20:030.00m/s65.00%20.00C
2017-08-22 02:31:030.00m/s67.20%19.10C
2017-08-22 02:58:030.00m/s68.30%18.90C
2017-08-22 03:02:030.00m/s68.40%18.90C
2017-08-22 03:26:030.00m/s68.60%18.80C
2017-08-22 02:41:030.00m/s67.70%19.00C
2017-08-22 02:43:030.00m/s67.80%19.00C
2017-08-22 02:45:020.00m/s68.10%19.00C
2017-08-22 02:49:030.00m/s67.80%19.00C
2017-08-22 03:30:030.00m/s69.00%18.70C
2017-08-22 03:36:030.00m/s69.20%18.70C
2017-08-22 03:44:030.00m/s69.10%18.60C
2017-08-22 03:46:020.00m/s69.10%18.60C
2017-08-22 03:54:030.00m/s69.20%18.60C
2017-08-22 04:00:020.00m/s69.30%18.50C
2017-08-22 04:01:030.00m/s69.10%18.50C
2017-08-22 03:39:030.00m/s69.00%18.70C
2017-08-22 04:06:030.00m/s69.50%18.50C
2017-08-22 03:35:030.00m/s68.70%18.70C
2017-08-22 04:09:020.00m/s69.20%18.50C
2017-08-22 04:13:030.00m/s69.90%18.40C
2017-08-22 04:25:020.00m/s69.90%18.30C
2017-08-22 04:26:020.00m/s70.10%18.30C
2017-08-22 04:32:030.00m/s69.70%18.20C
2017-08-22 04:38:030.00m/s69.90%18.20C
2017-08-22 04:56:030.00m/s70.60%18.10C
2017-08-22 04:35:030.00m/s70.00%18.20C
2017-08-22 04:55:030.00m/s70.00%18.10C
2017-08-22 05:00:030.00m/s70.60%18.10C
2017-08-22 05:12:030.00m/s70.30%18.00C
2017-08-22 05:14:020.00m/s70.50%18.00C
2017-08-22 05:15:030.00m/s70.50%18.00C
2017-08-22 05:16:030.00m/s70.50%18.00C
2017-08-22 05:18:030.00m/s70.50%18.00C
2017-08-22 05:19:030.00m/s70.50%18.00C
2017-08-22 05:25:030.00m/s70.80%18.00C
2017-08-22 05:09:030.00m/s70.00%18.00C
2017-08-22 05:27:030.00m/s70.40%17.90C
2017-08-22 05:34:020.00m/s71.10%17.90C
2017-08-22 05:36:030.00m/s71.10%17.90C
2017-08-22 05:41:030.00m/s71.10%17.80C
2017-08-22 05:46:030.00m/s70.90%17.80C
2017-08-22 05:57:030.00m/s71.70%17.80C
2017-08-22 05:58:030.00m/s71.40%17.80C
2017-08-22 05:32:030.00m/s70.90%17.90C
2017-08-22 05:38:030.00m/s71.00%17.90C
2017-08-22 06:14:030.00m/s71.50%17.70C
2017-08-22 06:21:020.00m/s71.70%17.60C
2017-08-22 06:34:030.00m/s72.10%17.50C
2017-08-22 06:43:030.00m/s72.00%17.50C
2017-08-22 06:47:020.00m/s72.10%17.40C
2017-08-22 06:53:030.00m/s72.40%17.40C
2017-08-22 07:03:030.00m/s72.40%17.30C
2017-08-22 07:05:030.00m/s72.40%17.30C
2017-08-02 00:28:480.00m/s62.60%21.50C
2017-08-02 01:18:030.00m/s64.40%20.90C
2017-08-02 01:27:030.00m/s64.50%20.80C
2017-08-02 01:30:030.00m/s64.70%20.80C
2017-08-02 01:37:030.00m/s65.10%20.70C
2017-08-02 01:42:030.00m/s65.20%20.70C
2017-08-02 00:28:520.00m/s63.00%21.40C
2017-08-02 01:12:330.00m/s64.50%21.00C
2017-08-02 01:34:030.00m/s65.00%20.80C
2017-08-02 01:08:030.00m/s64.00%21.00C
2017-08-02 01:43:030.00m/s65.20%20.70C
2017-08-02 02:01:020.00m/s65.90%20.50C
2017-08-02 02:04:030.00m/s66.30%20.50C
2017-08-02 02:06:030.00m/s66.30%20.50C
2017-08-02 02:09:030.00m/s66.20%20.40C
2017-08-02 02:20:030.00m/s66.20%20.30C
2017-08-02 02:23:030.00m/s66.20%20.30C
2017-08-02 02:03:020.00m/s66.00%20.50C
2017-08-02 02:08:030.00m/s66.00%20.40C
2017-08-02 02:30:030.00m/s66.10%20.20C
2017-08-02 03:30:030.00m/s66.50%19.80C
2017-08-02 03:31:030.00m/s66.60%19.80C
2017-08-02 03:48:030.00m/s66.70%19.80C
2017-08-02 03:59:020.00m/s67.20%19.70C
2017-08-02 03:46:030.00m/s66.80%19.80C
2017-08-02 02:56:030.00m/s66.60%20.00C
2017-08-02 03:04:030.00m/s66.80%20.00C
2017-08-02 03:10:030.00m/s66.60%20.00C
2017-08-02 05:05:030.06m/s68.00%19.40C
2017-08-02 04:40:030.00m/s68.70%19.60C
2017-08-02 04:46:030.00m/s67.90%19.50C
2017-08-02 04:43:030.00m/s68.00%19.60C
2017-08-02 04:12:020.00m/s67.50%19.70C
2017-08-02 04:13:030.00m/s67.50%19.70C
2017-08-02 04:15:030.00m/s67.40%19.70C
2017-08-02 04:26:020.00m/s68.10%19.60C
2017-08-02 04:37:030.00m/s67.90%19.60C
2017-08-02 05:35:020.06m/s68.10%19.30C
2017-08-02 05:07:030.00m/s67.90%19.40C
2017-08-02 05:09:030.00m/s68.20%19.40C
2017-08-02 05:18:030.00m/s68.10%19.40C
2017-08-02 05:24:030.00m/s68.10%19.40C
2017-08-02 05:27:030.00m/s68.10%19.40C
2017-08-02 05:32:030.00m/s68.10%19.40C
2017-08-02 05:14:020.00m/s68.00%19.40C
2017-08-02 05:21:030.00m/s68.00%19.40C
2017-08-02 05:44:030.00m/s68.50%19.30C
2017-08-02 06:05:020.00m/s68.70%19.30C
2017-08-02 06:10:030.00m/s68.30%19.20C
2017-08-02 06:38:030.00m/s68.70%19.10C
2017-08-02 06:39:030.00m/s68.70%19.10C
2017-08-02 06:49:030.00m/s68.90%19.10C
2017-08-02 06:52:020.00m/s68.70%19.10C
2017-08-02 05:54:030.00m/s68.30%19.30C
2017-08-02 06:09:020.00m/s68.20%19.20C
2017-08-02 07:17:030.00m/s69.20%19.10C
2017-08-02 07:26:030.00m/s69.40%19.10C
2017-08-02 07:34:030.00m/s69.70%19.10C
2017-08-02 06:53:030.00m/s69.00%19.10C
2017-08-02 07:08:030.00m/s69.10%19.00C
2017-08-02 07:11:030.00m/s68.90%19.00C
2017-08-02 07:30:030.00m/s69.70%19.00C
2017-08-02 06:57:020.00m/s69.10%19.10C
2017-08-02 07:13:030.00m/s69.10%19.10C
2017-08-02 07:48:030.00m/s69.90%19.10C
2017-08-02 08:05:030.00m/s70.70%19.10C
2017-08-02 07:38:030.00m/s70.10%19.10C
2017-08-02 07:50:030.00m/s70.10%19.00C
2017-08-02 08:01:030.00m/s70.10%19.10C
2017-08-02 07:54:030.00m/s70.00%19.10C
2017-08-02 07:46:030.00m/s70.00%19.00C
2017-08-02 07:47:030.00m/s70.00%19.00C
2017-08-02 07:56:020.00m/s70.00%19.00C
2017-08-02 08:11:030.00m/s70.60%19.10C
2017-08-02 08:14:030.00m/s70.20%19.10C
2017-08-02 08:23:030.00m/s72.10%19.30C
2017-08-02 08:38:030.00m/s72.40%19.20C
2017-08-02 08:39:030.00m/s72.50%19.20C
2017-08-02 08:43:030.00m/s72.50%19.20C
2017-08-02 08:45:020.00m/s72.40%19.20C
2017-08-02 08:47:030.00m/s72.90%19.20C
2017-08-02 08:53:030.00m/s72.80%19.20C
2017-08-02 08:57:030.00m/s72.60%19.20C
2017-08-02 09:03:030.00m/s72.30%19.20C
2017-08-02 09:04:030.00m/s72.30%19.20C
2017-08-02 09:07:030.00m/s72.30%19.20C
2017-08-02 09:15:030.00m/s72.80%19.30C
2017-08-02 09:27:030.00m/s72.20%19.30C
2017-08-02 09:30:040.00m/s71.70%19.30C
2017-08-02 09:02:030.00m/s72.20%19.20C
2017-08-02 09:25:030.00m/s72.00%19.30C
2017-08-02 09:57:047.14m/s71.10%19.60C
2017-08-02 09:53:030.06m/s71.20%19.60C
2017-08-02 10:08:030.06m/s70.50%19.90C
2017-08-02 10:16:030.06m/s69.50%20.00C
2017-08-02 09:34:020.00m/s71.70%19.30C
2017-08-02 09:42:030.00m/s71.80%19.40C
2017-08-02 09:55:040.00m/s71.30%19.60C
2017-08-02 10:04:030.00m/s70.90%19.80C
2017-08-02 10:05:030.00m/s70.90%19.80C
2017-08-02 10:50:033.21m/s65.60%20.70C
2017-08-02 10:40:030.85m/s66.40%20.50C
2017-08-02 10:42:020.85m/s66.40%20.50C
2017-08-02 10:52:020.06m/s65.30%20.80C
2017-08-02 10:23:030.00m/s68.70%20.20C
2017-08-02 10:31:030.00m/s67.70%20.30C
2017-08-02 10:32:030.00m/s67.50%20.30C
2017-08-02 10:34:030.00m/s67.30%20.40C
2017-08-02 10:47:030.00m/s65.40%20.60C
2017-08-02 11:06:023.21m/s64.70%21.10C
2017-08-02 11:38:035.57m/s61.00%21.90C
2017-08-02 10:53:030.00m/s65.30%20.80C
2017-08-02 10:54:030.00m/s65.30%20.80C
2017-08-02 11:02:030.00m/s64.60%21.10C
2017-08-02 11:14:030.00m/s63.30%21.40C
2017-08-02 11:24:030.00m/s63.10%21.60C
2017-08-02 11:25:030.00m/s62.20%21.70C
2017-08-02 10:59:030.00m/s65.10%21.00C
2017-08-02 11:54:032.42m/s59.80%22.20C
2017-08-02 11:41:030.85m/s61.20%22.00C
2017-08-02 11:50:030.00m/s60.60%22.10C
2017-08-02 11:55:030.00m/s59.80%22.20C
2017-08-02 12:00:030.00m/s58.70%22.30C
2017-08-02 12:01:030.00m/s58.20%22.30C
2017-08-02 12:02:030.00m/s57.30%22.40C
2017-08-02 12:17:030.00m/s57.30%22.70C
2017-08-02 12:23:030.00m/s58.00%22.90C
2017-08-02 13:06:036.35m/s53.50%23.90C
2017-08-02 13:17:022.42m/s50.70%24.20C
2017-08-02 12:30:020.06m/s56.90%23.00C
2017-08-02 13:03:030.06m/s53.10%23.80C
2017-08-02 13:10:030.06m/s52.80%24.10C
2017-08-02 12:39:030.00m/s55.10%23.20C
2017-08-02 12:42:030.00m/s54.90%23.20C
2017-08-02 13:04:020.85m/s52.90%23.90C
2017-08-02 12:32:040.00m/s57.20%23.00C
2017-08-02 13:37:033.21m/s49.10%24.70C
2017-08-02 13:42:034.00m/s49.20%24.80C
2017-08-02 13:32:041.64m/s50.10%24.60C
2017-08-02 13:41:020.85m/s49.70%24.80C
2017-08-02 13:21:030.00m/s50.90%24.30C
2017-08-02 13:44:020.00m/s48.30%24.80C
2017-08-02 13:27:030.00m/s50.40%24.40C
2017-08-02 13:39:030.00m/s48.70%24.70C
2017-08-02 13:52:030.00m/s47.70%25.00C
2017-08-02 14:21:033.21m/s44.50%25.40C
2017-08-02 14:27:037.14m/s46.30%25.50C
2017-08-02 14:16:034.78m/s46.10%25.30C
2017-08-02 14:32:049.50m/s45.00%25.60C
2017-08-02 14:33:034.78m/s44.70%25.60C
2017-08-02 14:15:030.00m/s46.20%25.30C
2017-08-02 14:51:020.00m/s42.50%25.60C
2017-08-02 14:53:050.00m/s43.40%25.60C
2017-08-02 13:54:030.00m/s48.10%25.00C
2017-08-02 14:56:182.42m/s43.30%25.70C
2017-08-02 15:10:034.00m/s43.80%25.40C
2017-08-02 15:09:030.85m/s44.60%25.50C
2017-08-02 15:16:020.85m/s44.30%25.20C
2017-08-02 15:03:030.00m/s43.40%25.60C
2017-08-02 15:12:030.00m/s42.70%25.30C
2017-08-02 15:13:030.00m/s43.80%25.30C
2017-08-02 15:23:020.00m/s43.70%25.10C
2017-08-02 15:26:030.00m/s45.40%25.10C
2017-08-02 16:08:053.21m/s47.50%24.70C
2017-08-02 15:28:034.78m/s46.20%25.10C
2017-08-02 15:54:034.78m/s47.70%25.10C
2017-08-02 15:32:020.00m/s46.40%25.10C
2017-08-02 15:41:030.00m/s47.60%25.20C
2017-08-02 15:42:030.00m/s47.10%25.20C
2017-08-02 15:45:030.00m/s47.40%25.20C
2017-08-02 15:52:030.00m/s47.20%25.10C
2017-08-02 15:53:030.00m/s47.30%25.10C
2017-08-02 16:30:036.35m/s49.00%24.60C
2017-08-02 16:10:032.42m/s47.30%24.70C
2017-08-02 16:36:032.42m/s49.30%24.60C
2017-08-02 16:42:039.50m/s48.80%24.60C
2017-08-02 16:11:034.00m/s47.30%24.70C
2017-08-02 16:46:034.00m/s48.30%24.60C
2017-08-02 16:29:020.00m/s48.90%24.60C
2017-08-02 16:40:030.00m/s48.90%24.50C
2017-08-02 16:32:030.00m/s49.00%24.60C
2017-08-02 17:10:026.35m/s46.80%24.20C
2017-08-02 17:12:037.14m/s46.60%24.20C
2017-08-02 17:27:033.21m/s48.40%24.00C
2017-08-02 17:44:022.42m/s51.30%23.70C
2017-08-02 16:51:020.85m/s47.70%24.50C
2017-08-02 17:38:030.85m/s50.30%23.70C
2017-08-02 17:48:030.06m/s51.70%23.60C
2017-08-02 17:49:030.00m/s52.30%23.60C
2017-08-02 17:33:030.06m/s49.80%23.80C
2017-08-02 18:22:031.64m/s56.60%23.00C
2017-08-02 17:57:020.00m/s53.30%23.40C
2017-08-02 18:09:030.00m/s55.70%23.20C
2017-08-02 18:10:030.00m/s55.60%23.20C
2017-08-02 18:33:030.00m/s57.30%22.90C
2017-08-02 18:39:030.00m/s57.60%22.90C
2017-08-02 18:46:030.00m/s58.30%22.70C
2017-08-02 18:24:030.00m/s56.80%23.00C
2017-08-02 18:26:030.00m/s57.00%23.00C
2017-08-02 20:52:024.78m/s66.30%21.10C
2017-08-02 20:47:031.64m/s66.00%21.30C
2017-08-02 20:19:030.00m/s63.80%21.60C
2017-08-02 20:25:030.00m/s64.10%21.50C
2017-08-02 20:32:030.00m/s64.80%21.40C
2017-08-02 20:38:020.00m/s65.70%21.40C
2017-08-02 20:45:030.00m/s66.10%21.30C
2017-08-02 20:46:020.00m/s65.80%21.20C
2017-08-02 20:43:030.00m/s66.00%21.30C
2017-08-02 21:03:023.21m/s66.80%21.00C
2017-08-02 21:01:034.00m/s66.90%21.10C
2017-08-02 20:59:030.85m/s66.90%21.10C
2017-08-02 20:53:030.00m/s66.30%21.20C
2017-08-02 20:57:030.00m/s66.50%21.10C
2017-08-02 20:58:020.00m/s66.90%21.10C
2017-08-02 20:55:030.00m/s67.00%21.20C
2017-08-02 21:06:030.00m/s66.80%21.00C
2017-08-02 21:07:020.00m/s66.80%21.00C
2017-08-02 21:55:032.42m/s68.70%20.50C
2017-08-02 21:13:030.85m/s66.70%20.90C
2017-08-02 21:16:030.00m/s66.70%20.90C
2017-08-02 21:29:030.00m/s67.50%20.80C
2017-08-02 21:32:030.00m/s67.40%20.80C
2017-08-02 21:36:030.00m/s67.50%20.70C
2017-08-02 21:51:020.00m/s68.40%20.50C
2017-08-02 21:53:030.00m/s68.20%20.50C
2017-08-02 21:28:020.00m/s66.80%20.80C
2017-08-02 23:11:034.78m/s73.60%20.00C
2017-08-02 22:26:030.06m/s70.90%20.20C
2017-08-02 23:01:031.64m/s72.40%20.00C
2017-08-02 21:58:030.00m/s68.90%20.50C
2017-08-02 22:00:030.00m/s69.60%20.50C
2017-08-02 22:25:030.00m/s70.70%20.30C
2017-08-02 23:02:031.64m/s73.00%20.00C
2017-08-02 22:53:030.00m/s72.10%20.10C
2017-08-02 22:58:030.00m/s72.40%20.00C
2017-08-03 00:23:030.06m/s75.70%19.60C
2017-08-02 23:44:020.00m/s74.30%19.80C
2017-08-02 23:49:080.00m/s74.10%19.80C
2017-08-03 00:01:030.00m/s74.40%19.70C
2017-08-03 00:03:031.64m/s74.50%19.70C
2017-08-03 00:17:020.00m/s75.10%19.70C
2017-08-03 00:31:030.00m/s76.20%19.60C
2017-08-03 00:34:030.00m/s75.80%19.60C
2017-08-02 23:21:030.00m/s74.00%19.90C
2017-08-03 00:44:030.00m/s75.60%19.50C
2017-08-03 00:53:030.00m/s75.40%19.50C
2017-08-03 00:57:030.00m/s75.20%19.50C
2017-08-03 00:59:030.00m/s75.40%19.50C
2017-08-03 01:07:030.00m/s75.60%19.50C
2017-08-03 01:10:030.00m/s75.80%19.50C
2017-08-03 01:14:030.00m/s75.50%19.40C
2017-08-03 01:22:020.00m/s75.10%19.40C
2017-08-03 00:47:030.00m/s75.50%19.50C
2017-08-03 01:35:020.85m/s75.60%19.40C
2017-08-03 01:27:030.00m/s75.10%19.40C
2017-08-03 01:38:021.64m/s76.20%19.40C
2017-08-03 01:44:030.00m/s76.60%19.40C
2017-08-03 01:50:040.00m/s76.60%19.30C
2017-08-03 01:51:030.00m/s77.10%19.30C
2017-08-03 01:24:030.00m/s75.40%19.40C
2017-08-03 01:26:030.00m/s75.40%19.40C
2017-08-03 01:57:020.00m/s76.30%19.30C
2017-08-03 02:22:033.21m/s78.00%19.20C
2017-08-03 02:23:034.78m/s78.00%19.20C
2017-08-03 02:31:036.35m/s78.00%19.20C
2017-08-03 02:26:030.06m/s78.40%19.20C
2017-08-03 02:03:030.00m/s76.90%19.30C
2017-08-03 02:06:020.00m/s76.90%19.30C
2017-08-03 02:10:041.64m/s77.00%19.30C
2017-08-03 02:38:030.00m/s77.90%19.10C
2017-08-03 02:34:030.00m/s78.00%19.20C
2017-08-03 03:14:0310.29m/s79.80%19.00C
2017-08-03 03:06:036.35m/s79.60%19.00C
2017-08-03 03:32:034.78m/s80.40%18.90C
2017-08-03 02:49:034.00m/s78.90%19.10C
2017-08-03 02:40:020.06m/s77.90%19.10C
2017-08-03 02:48:030.00m/s78.40%19.10C
2017-08-03 03:02:030.00m/s79.60%19.00C
2017-08-03 03:08:030.00m/s79.70%19.00C
2017-08-03 03:12:031.64m/s80.00%19.00C
2017-08-03 03:41:030.06m/s80.40%18.90C
2017-08-03 03:46:020.06m/s80.60%18.90C
2017-08-03 04:04:030.06m/s80.40%18.80C
2017-08-03 03:54:030.00m/s80.60%18.90C
2017-08-03 03:55:030.00m/s80.40%18.90C
2017-08-03 04:00:030.00m/s80.70%18.90C
2017-08-03 04:06:030.00m/s80.50%18.80C
2017-08-03 04:20:030.00m/s80.30%18.80C
2017-08-03 03:50:030.00m/s81.00%18.90C
2017-08-03 04:23:120.00m/s80.60%18.80C
2017-08-03 04:33:020.00m/s80.30%18.80C
2017-08-03 04:35:031.64m/s80.10%18.80C
2017-08-03 04:49:020.00m/s80.50%18.80C
2017-08-03 05:10:030.00m/s80.40%18.70C
2017-08-03 05:16:031.64m/s80.90%18.70C
2017-08-03 05:20:040.00m/s80.80%18.70C
2017-08-03 05:27:031.64m/s81.30%18.70C
2017-08-03 05:00:040.00m/s80.70%18.70C
2017-08-03 05:33:034.78m/s81.50%18.70C
2017-08-03 05:37:033.21m/s81.00%18.60C
2017-08-03 05:40:032.42m/s81.40%18.60C
2017-08-03 05:47:023.21m/s81.60%18.60C
2017-08-03 05:36:030.06m/s81.40%18.60C
2017-08-03 05:31:030.00m/s81.10%18.60C
2017-08-03 05:39:040.00m/s81.10%18.60C
2017-08-03 05:29:030.00m/s81.00%18.60C
2017-08-03 05:43:030.00m/s81.60%18.60C
2017-08-03 06:03:023.21m/s81.70%18.60C
2017-08-03 06:33:037.93m/s83.00%18.60C
2017-08-03 06:17:030.06m/s82.50%18.60C
2017-08-03 06:04:030.00m/s81.70%18.60C
2017-08-03 06:14:030.00m/s82.10%18.60C
2017-08-03 05:59:030.00m/s81.60%18.60C
2017-08-03 06:01:030.00m/s81.60%18.60C
2017-08-03 06:11:030.00m/s82.00%18.60C
2017-08-03 06:16:130.00m/s82.00%18.60C
2017-08-03 06:58:030.85m/s84.20%18.60C
2017-08-03 06:39:030.00m/s82.70%18.60C
2017-08-03 06:43:031.64m/s82.90%18.60C
2017-08-03 06:45:031.64m/s83.10%18.60C
2017-08-03 06:51:030.00m/s83.70%18.60C
2017-08-03 06:57:030.00m/s84.10%18.60C
2017-08-03 07:06:030.00m/s84.50%18.60C
2017-08-03 07:11:031.64m/s84.90%18.60C
2017-08-03 06:38:020.00m/s82.60%18.60C
2017-08-03 08:18:036.35m/s86.00%18.80C
2017-08-03 08:34:035.57m/s86.00%19.00C
2017-08-03 07:13:030.85m/s85.00%18.60C
2017-08-03 08:10:030.06m/s85.90%18.80C
2017-08-03 07:27:030.00m/s85.50%18.60C
2017-08-03 07:31:030.00m/s85.80%18.60C
2017-08-03 07:57:030.00m/s85.80%18.70C
2017-08-03 07:54:030.00m/s85.70%18.70C
2017-08-03 08:40:030.00m/s85.90%19.00C
2017-08-03 08:56:035.57m/s86.00%19.20C
2017-08-03 09:06:027.93m/s85.60%19.40C
2017-08-03 09:16:024.00m/s85.20%19.60C
2017-08-03 08:53:030.85m/s85.80%19.20C
2017-08-03 09:19:030.85m/s84.70%19.60C
2017-08-03 08:51:030.00m/s85.80%19.10C
2017-08-03 08:58:020.00m/s85.80%19.20C
2017-08-03 08:42:030.00m/s86.00%19.10C
2017-08-03 09:24:030.00m/s84.70%19.70C
2017-08-03 09:44:0316.58m/s84.70%19.80C
2017-08-03 09:37:032.42m/s84.70%19.80C
2017-08-03 09:38:037.93m/s84.50%19.80C
2017-08-03 09:33:038.71m/s84.50%19.80C
2017-08-03 09:45:034.78m/s84.80%19.80C
2017-08-03 09:25:030.85m/s84.30%19.70C
2017-08-03 09:52:030.00m/s84.90%19.80C
2017-08-03 09:49:030.00m/s84.80%19.80C
2017-08-03 10:06:030.00m/s84.80%19.80C
2017-08-03 10:16:0310.29m/s85.70%19.80C
2017-08-03 10:41:0311.07m/s87.00%19.80C
2017-08-03 10:15:037.93m/s85.40%19.80C
2017-08-03 10:37:034.78m/s86.50%19.80C
2017-08-03 10:35:039.50m/s86.70%19.80C
2017-08-03 10:14:030.06m/s85.10%19.80C
2017-08-03 10:17:031.64m/s85.70%19.80C
2017-08-03 10:18:030.00m/s85.60%19.80C
2017-08-03 10:22:031.64m/s85.80%19.80C
2017-08-03 10:55:0317.36m/s87.70%19.80C
2017-08-03 10:49:034.78m/s87.50%19.80C
2017-08-03 11:09:034.78m/s87.90%19.80C
2017-08-03 10:50:039.50m/s87.70%19.80C
2017-08-03 10:45:030.85m/s87.40%19.80C
2017-08-03 11:02:030.85m/s88.00%19.80C
2017-08-03 11:04:020.06m/s88.00%19.80C
2017-08-03 11:00:040.00m/s88.20%19.80C
2017-08-03 10:51:020.00m/s87.80%19.80C
2017-08-03 11:40:0315.79m/s88.20%20.00C
2017-08-03 11:12:0310.29m/s87.80%19.80C
2017-08-03 11:28:035.57m/s88.30%19.90C
2017-08-03 11:38:023.21m/s88.50%20.00C
2017-08-03 11:27:034.00m/s88.10%19.90C
2017-08-03 11:18:020.06m/s87.90%19.80C
2017-08-03 11:37:030.85m/s88.70%19.90C
2017-08-03 11:14:040.00m/s87.80%19.90C
2017-08-03 11:16:030.00m/s87.70%19.80C
2017-08-03 11:51:0310.29m/s86.20%20.30C
2017-08-03 12:21:0311.86m/s75.60%21.40C
2017-08-03 11:46:034.78m/s87.20%20.10C
2017-08-03 11:50:045.57m/s86.50%20.30C
2017-08-03 12:00:037.93m/s83.80%20.60C
2017-08-03 12:20:048.71m/s75.00%21.40C
2017-08-03 11:45:032.42m/s87.50%20.10C
2017-08-03 12:14:039.50m/s77.50%21.10C
2017-08-03 11:42:030.00m/s88.20%20.00C
2017-08-03 12:24:0321.30m/s75.90%21.50C
2017-08-03 12:35:0312.65m/s72.90%22.00C
2017-08-03 12:55:0315.79m/s65.10%22.70C
2017-08-03 12:29:0315.00m/s73.50%21.70C
2017-08-03 12:53:027.93m/s66.90%22.60C
2017-08-03 12:56:035.57m/s64.30%22.80C
2017-08-03 12:38:022.42m/s70.40%22.00C
2017-08-03 12:47:036.35m/s66.80%22.40C
2017-08-03 12:39:031.64m/s71.30%22.10C
2017-08-03 12:59:0316.58m/s64.30%22.80C
2017-08-03 14:41:0924.44m/s49.40%26.10C
2017-08-03 14:40:0311.07m/s49.80%26.10C
2017-08-03 12:57:037.93m/s65.10%22.80C
2017-08-03 13:11:037.14m/s61.90%23.20C
2017-08-03 14:59:037.14m/s47.80%26.50C
2017-08-03 15:10:036.35m/s46.70%26.60C
2017-08-03 15:14:034.78m/s46.90%26.70C
2017-08-03 15:04:035.57m/s46.60%26.60C
2017-08-03 15:22:0318.15m/s45.50%26.90C
2017-08-03 15:28:0310.29m/s45.40%27.00C
2017-08-03 15:36:0311.07m/s43.60%26.90C
2017-08-03 15:49:0311.86m/s45.60%27.00C
2017-08-03 15:46:033.21m/s45.40%26.90C
2017-08-03 15:50:039.50m/s45.60%27.10C
2017-08-03 15:18:032.42m/s45.80%26.80C
2017-08-03 15:39:040.06m/s43.50%26.80C
2017-08-03 15:41:030.85m/s45.10%26.80C
2017-08-03 16:14:0317.36m/s43.60%27.00C
2017-08-03 16:30:0313.43m/s43.30%27.20C
2017-08-03 16:00:035.57m/s43.70%27.10C
2017-08-03 16:21:033.21m/s43.50%27.00C
2017-08-03 15:52:034.78m/s45.20%27.10C
2017-08-03 15:55:039.50m/s44.00%27.10C
2017-08-03 16:12:024.78m/s42.50%27.00C
2017-08-03 16:07:039.50m/s42.00%27.00C
2017-08-03 16:32:030.00m/s43.30%27.20C
2017-08-03 17:22:0316.58m/s43.90%26.90C
2017-08-03 17:06:0313.43m/s43.50%27.10C
2017-08-03 16:36:035.57m/s43.00%27.10C
2017-08-03 17:11:038.71m/s43.30%27.00C
2017-08-03 17:05:042.42m/s44.00%27.10C
2017-08-03 17:20:049.50m/s43.40%26.90C
2017-08-03 16:41:033.21m/s43.00%27.00C
2017-08-03 17:36:030.00m/s44.10%26.60C
2017-08-03 17:23:030.00m/s43.80%26.80C
2017-08-03 17:39:035.57m/s44.20%26.60C
2017-08-03 17:41:035.57m/s44.10%26.50C
2017-08-03 17:42:034.78m/s44.20%26.60C
2017-08-03 17:47:034.78m/s43.70%26.50C
2017-08-03 17:40:031.64m/s44.20%26.60C
2017-08-03 17:49:030.85m/s43.60%26.40C
2017-08-03 17:58:030.85m/s43.60%26.30C
2017-08-03 18:14:030.06m/s43.40%26.00C
2017-08-03 17:38:030.00m/s44.70%26.60C
2017-08-03 18:19:0311.86m/s44.70%25.90C
2017-08-03 18:38:0311.07m/s43.80%25.60C
2017-08-03 18:16:036.35m/s43.70%26.00C
2017-08-03 18:26:033.21m/s44.40%25.80C
2017-08-03 18:42:027.93m/s44.00%25.50C
2017-08-03 19:19:033.21m/s45.20%24.90C
2017-08-03 18:24:034.78m/s44.30%25.90C
2017-08-03 18:30:024.00m/s43.90%25.80C
2017-08-03 18:25:020.85m/s44.80%25.90C
2017-08-03 19:29:0311.86m/s45.60%24.80C
2017-08-03 19:37:0311.86m/s44.80%24.50C
2017-08-03 19:25:0315.00m/s45.60%24.80C
2017-08-03 19:35:037.93m/s44.80%24.60C
2017-08-03 19:38:038.71m/s45.30%24.50C
2017-08-03 19:46:037.93m/s45.10%24.30C
2017-08-03 19:50:043.21m/s45.80%24.30C
2017-08-03 19:32:032.42m/s45.40%24.60C
2017-08-03 19:28:030.06m/s45.50%24.80C
2017-08-03 20:15:037.14m/s47.50%23.80C
2017-08-03 20:29:035.57m/s48.40%23.70C
2017-08-03 20:45:033.21m/s49.20%23.40C
2017-08-03 20:01:032.42m/s46.50%24.10C
2017-08-03 20:12:037.93m/s46.90%23.90C
2017-08-03 20:00:030.85m/s46.60%24.10C
2017-08-03 20:20:031.64m/s47.70%23.80C
2017-08-03 20:43:030.00m/s48.80%23.40C
2017-08-03 20:37:031.64m/s48.40%23.40C
2017-08-03 21:31:0315.00m/s51.00%22.70C
2017-08-03 21:16:034.78m/s50.30%22.90C
2017-08-03 21:20:033.21m/s50.60%22.90C
2017-08-03 21:17:032.42m/s50.40%22.90C
2017-08-03 21:21:032.42m/s50.70%22.90C
2017-08-03 21:40:034.00m/s51.60%22.50C
2017-08-03 21:05:033.21m/s50.10%23.10C
2017-08-03 20:52:034.00m/s49.30%23.30C
2017-08-03 20:59:031.64m/s49.30%23.20C
2017-08-03 21:52:0311.07m/s52.10%22.30C
2017-08-03 21:44:033.21m/s51.30%22.50C
2017-08-03 21:57:033.21m/s52.10%22.20C
2017-08-03 22:26:034.78m/s54.50%22.00C
2017-08-03 22:04:032.42m/s52.70%22.20C
2017-08-03 22:14:034.00m/s53.50%22.10C
2017-08-03 22:05:030.00m/s52.90%22.10C
2017-08-03 22:31:030.00m/s54.30%21.90C
2017-08-03 21:59:030.00m/s52.20%22.20C
2017-08-03 22:41:0310.29m/s54.50%21.80C
2017-08-03 22:38:036.35m/s54.50%21.80C
2017-08-03 22:48:024.78m/s54.90%21.70C
2017-08-03 22:58:033.21m/s55.40%21.60C
2017-08-03 23:13:565.57m/s56.80%21.40C
2017-08-03 22:37:031.64m/s54.50%21.80C
2017-08-03 22:54:030.06m/s55.30%21.60C
2017-08-03 22:49:030.00m/s55.00%21.70C
2017-08-03 23:04:030.00m/s56.40%21.40C
2017-08-03 23:25:033.21m/s57.80%21.30C
2017-08-03 23:40:044.78m/s58.70%21.10C
2017-08-04 00:00:043.21m/s59.90%20.80C
2017-08-03 23:23:034.00m/s57.40%21.30C
2017-08-03 23:39:035.57m/s58.40%21.10C
2017-08-04 00:02:034.00m/s59.70%20.80C
2017-08-03 23:15:044.00m/s57.00%21.40C
2017-08-03 23:14:020.85m/s57.10%21.40C
2017-08-03 23:48:031.64m/s59.10%21.00C
2017-08-04 00:06:035.57m/s60.00%20.80C
2017-08-04 00:15:033.21m/s59.90%20.60C
2017-08-04 00:33:032.42m/s61.10%20.40C
2017-08-04 00:04:030.06m/s59.70%20.80C
2017-08-04 00:08:040.06m/s59.70%20.80C
2017-08-04 00:18:030.06m/s59.90%20.60C
2017-08-04 00:27:031.64m/s60.60%20.50C
2017-08-04 00:11:020.00m/s59.90%20.70C
2017-08-04 00:34:020.00m/s61.00%20.40C
2017-08-04 00:36:034.78m/s60.70%20.40C
2017-08-04 00:46:023.21m/s61.50%20.30C
2017-08-04 00:45:037.93m/s61.30%20.30C
2017-08-04 00:55:039.50m/s61.70%20.10C
2017-08-04 01:01:031.64m/s61.60%20.10C
2017-08-04 00:38:030.00m/s61.10%20.40C
2017-08-04 00:59:030.00m/s61.70%20.10C
2017-08-04 01:19:030.00m/s62.60%19.80C
2017-08-04 01:11:020.00m/s62.30%20.00C
2017-08-04 01:21:023.21m/s62.60%19.90C
2017-08-04 01:41:033.21m/s63.00%19.70C
2017-08-04 01:59:033.21m/s63.40%19.50C
2017-08-04 02:03:035.57m/s63.70%19.50C
2017-08-04 01:51:034.00m/s63.40%19.60C
2017-08-04 01:50:030.00m/s63.30%19.60C
2017-08-04 01:54:030.00m/s63.40%19.60C
2017-08-04 02:08:030.00m/s63.90%19.40C
2017-08-04 01:33:030.00m/s62.70%19.70C
2017-08-04 02:13:033.21m/s63.90%19.40C
2017-08-04 02:26:038.71m/s64.10%19.30C
2017-08-04 02:31:033.21m/s64.60%19.20C
2017-08-04 02:33:042.42m/s64.60%19.20C
2017-08-04 02:37:022.42m/s64.70%19.20C
2017-08-04 02:21:030.06m/s64.10%19.30C
2017-08-04 02:45:030.85m/s64.90%19.10C
2017-08-04 02:43:030.00m/s64.70%19.10C
2017-08-04 02:22:030.00m/s64.00%19.30C
2017-08-04 03:02:033.21m/s64.90%19.00C
2017-08-04 03:20:034.78m/s65.30%18.80C
2017-08-04 03:21:023.21m/s65.50%18.80C
2017-08-04 02:59:030.06m/s64.90%19.00C
2017-08-04 02:56:030.06m/s65.00%19.00C
2017-08-04 02:48:030.00m/s65.00%19.10C
2017-08-04 02:54:030.00m/s64.90%19.00C
2017-08-04 02:58:031.64m/s65.00%19.00C
2017-08-04 03:04:030.00m/s64.90%18.90C
2017-08-04 03:24:035.57m/s65.50%18.80C
2017-08-04 03:35:032.42m/s66.00%18.70C
2017-08-04 03:59:035.57m/s66.70%18.40C
2017-08-04 03:22:030.00m/s65.70%18.80C
2017-08-04 03:27:020.00m/s65.60%18.70C
2017-08-04 03:33:030.00m/s65.50%18.70C
2017-08-04 03:36:030.00m/s65.90%18.60C
2017-08-04 03:44:030.00m/s66.10%18.60C
2017-08-04 04:02:030.00m/s66.70%18.40C
2017-08-04 05:17:032.42m/s70.50%18.00C
2017-08-04 04:19:024.00m/s67.80%18.30C
2017-08-04 04:50:030.06m/s69.50%18.10C
2017-08-04 04:18:030.00m/s67.50%18.30C
2017-08-04 04:22:020.00m/s67.90%18.30C
2017-08-04 04:11:020.00m/s67.40%18.40C
2017-08-04 04:40:020.00m/s69.10%18.10C
2017-08-04 05:09:030.00m/s70.30%18.00C
2017-08-04 04:27:031.64m/s68.20%18.20C
2017-08-04 05:18:035.57m/s70.40%17.90C
2017-08-04 05:45:034.78m/s71.10%17.90C
2017-08-04 05:22:034.00m/s70.70%17.90C
2017-08-04 05:36:030.06m/s71.10%17.90C
2017-08-04 05:37:030.00m/s71.10%17.90C
2017-08-04 05:42:030.00m/s71.20%17.90C
2017-08-04 05:28:030.85m/s70.90%17.90C
2017-08-04 05:30:040.00m/s70.90%17.90C
2017-08-04 05:31:030.00m/s71.00%17.90C
2017-08-04 05:59:023.21m/s71.30%17.80C
2017-08-04 06:15:035.57m/s71.60%17.80C
2017-08-04 06:21:032.42m/s71.90%17.80C
2017-08-04 06:25:036.35m/s71.60%17.80C
2017-08-04 06:11:037.93m/s71.60%17.80C
2017-08-04 05:56:030.85m/s71.30%17.80C
2017-08-04 06:10:030.85m/s71.40%17.80C
2017-08-04 06:23:030.06m/s72.00%17.80C
2017-08-04 05:53:030.00m/s71.20%17.90C
2017-08-04 06:30:035.57m/s71.90%17.70C
2017-08-04 06:31:036.35m/s72.10%17.70C
2017-08-04 06:32:028.71m/s72.00%17.70C
2017-08-04 06:40:033.21m/s72.00%17.70C
2017-08-04 06:57:034.78m/s72.50%17.70C
2017-08-04 06:58:032.42m/s72.50%17.70C
2017-08-04 06:44:031.64m/s72.20%17.70C
2017-08-04 06:47:020.00m/s72.30%17.70C
2017-08-04 06:36:030.00m/s72.00%17.70C
2017-08-04 07:35:0315.00m/s73.20%17.80C
2017-08-04 06:59:034.78m/s72.50%17.70C
2017-08-04 07:07:028.71m/s72.50%17.70C
2017-08-04 07:21:035.57m/s73.00%17.70C
2017-08-04 07:28:034.78m/s73.20%17.80C
2017-08-04 07:29:034.00m/s73.10%17.80C
2017-08-04 07:05:031.64m/s72.60%17.70C
2017-08-04 07:10:031.64m/s72.90%17.70C
2017-08-04 07:36:030.00m/s73.30%17.80C
2017-08-04 07:46:0310.29m/s73.70%17.80C
2017-08-04 08:06:0311.07m/s74.40%17.90C
2017-08-04 07:48:037.93m/s73.90%17.80C
2017-08-04 08:12:037.93m/s74.70%17.90C
2017-08-04 09:54:037.14m/s75.70%18.60C
2017-08-04 07:52:032.42m/s73.80%17.80C
2017-08-04 09:52:030.06m/s75.70%18.60C
2017-08-04 07:51:030.00m/s73.90%17.80C
2017-08-04 09:57:030.00m/s75.60%18.60C
2017-08-04 10:02:032.42m/s75.40%18.70C
2017-08-04 10:29:024.00m/s75.90%18.80C
2017-08-04 10:27:034.00m/s75.80%18.80C
2017-08-04 10:10:030.85m/s75.00%18.80C
2017-08-04 10:12:031.64m/s75.10%18.80C
2017-08-04 10:22:030.00m/s75.40%18.80C
2017-08-04 10:23:021.64m/s75.50%18.80C
2017-08-04 10:26:030.00m/s75.40%18.80C
2017-08-04 10:30:030.00m/s76.40%18.90C
2017-08-04 10:31:033.21m/s76.40%18.90C
2017-08-04 10:39:033.21m/s76.30%18.90C
2017-08-04 10:34:030.85m/s76.20%18.90C
2017-08-04 10:40:030.06m/s76.60%18.90C
2017-08-04 10:44:030.06m/s76.30%18.90C
2017-08-04 10:45:030.06m/s76.20%18.90C
2017-08-04 10:49:030.06m/s76.20%18.90C
2017-08-04 10:50:020.85m/s76.10%18.90C
2017-08-04 10:41:030.00m/s76.30%18.90C
2017-08-04 11:38:0312.65m/s71.20%20.10C
2017-08-04 11:31:033.21m/s73.20%19.80C
2017-08-04 11:47:037.93m/s68.00%20.50C
2017-08-04 11:30:024.00m/s73.40%19.70C
2017-08-04 10:58:034.00m/s76.00%19.00C
2017-08-04 11:40:020.85m/s70.30%20.10C
2017-08-04 11:11:031.64m/s75.20%19.10C
2017-08-04 11:35:030.00m/s71.60%19.90C
2017-08-04 11:48:031.64m/s67.50%20.50C
2017-08-04 11:59:0317.36m/s64.50%21.10C
2017-08-04 12:06:0314.22m/s60.60%21.50C
2017-08-04 11:56:037.14m/s65.10%20.90C
2017-08-04 11:49:026.35m/s66.40%20.50C
2017-08-04 12:23:032.42m/s59.60%22.50C
2017-08-04 12:36:031.64m/s58.30%22.80C
2017-08-04 12:44:020.06m/s59.10%23.00C
2017-08-04 12:28:030.00m/s59.90%22.60C
2017-08-04 12:42:030.00m/s57.90%22.90C
2017-08-04 12:48:0312.65m/s57.80%23.00C
2017-08-04 12:49:0211.07m/s57.00%23.10C
2017-08-04 12:55:0213.43m/s57.00%23.20C
2017-08-04 12:54:037.14m/s55.90%23.20C
2017-08-04 13:05:036.35m/s55.70%23.50C
2017-08-04 13:09:037.14m/s55.00%23.60C
2017-08-04 13:18:037.14m/s54.70%23.80C
2017-08-04 13:14:035.57m/s55.40%23.80C
2017-08-04 13:12:030.00m/s55.30%23.70C
2017-08-04 13:44:0316.58m/s51.50%24.90C
2017-08-04 13:43:0311.86m/s52.00%24.90C
2017-08-04 13:23:026.35m/s54.00%24.10C
2017-08-04 13:26:036.35m/s53.60%24.20C
2017-08-04 13:31:039.50m/s53.30%24.40C
2017-08-04 13:32:032.42m/s53.20%24.40C
2017-08-04 14:04:031.64m/s49.90%25.40C
2017-08-04 14:12:041.64m/s50.30%25.50C
2017-08-04 13:39:040.00m/s52.10%24.80C
2017-08-04 14:20:035.57m/s49.70%25.50C
2017-08-04 14:23:033.21m/s48.80%25.50C
2017-08-04 14:45:036.35m/s51.30%25.70C
2017-08-04 14:37:042.42m/s50.50%25.70C
2017-08-04 14:26:034.00m/s48.90%25.50C
2017-08-04 14:47:030.06m/s50.90%25.70C
2017-08-04 14:36:030.00m/s50.40%25.60C
2017-08-04 14:42:050.00m/s50.90%25.70C
2017-08-04 14:58:030.00m/s51.30%25.70C
2017-08-04 15:17:0318.94m/s50.30%25.50C
2017-08-04 15:59:0311.07m/s51.50%25.30C
2017-08-04 15:30:044.78m/s51.30%25.60C
2017-08-04 15:53:037.93m/s51.50%25.40C
2017-08-04 15:26:031.64m/s51.10%25.50C
2017-08-04 15:33:030.06m/s51.30%25.60C
2017-08-04 15:42:030.85m/s51.20%25.50C
2017-08-04 14:59:030.00m/s51.30%25.70C
2017-08-04 16:00:030.00m/s51.90%25.30C
2017-08-04 16:38:0311.86m/s52.60%25.30C
2017-08-04 16:07:023.21m/s52.00%25.30C
2017-08-04 16:21:034.78m/s52.50%25.30C
2017-08-04 16:36:037.14m/s52.70%25.40C
2017-08-04 16:18:035.57m/s52.80%25.30C
2017-08-04 16:34:032.42m/s53.00%25.30C
2017-08-04 16:42:034.00m/s52.70%25.30C
2017-08-04 16:35:034.00m/s53.00%25.40C
2017-08-04 16:02:030.00m/s51.60%25.30C
2017-08-04 16:51:0318.15m/s49.70%25.30C
2017-08-04 17:01:0311.86m/s48.50%25.40C
2017-08-04 17:05:0312.65m/s48.30%25.40C
2017-08-04 16:46:037.93m/s52.10%25.30C
2017-08-04 16:53:037.93m/s49.80%25.30C
2017-08-04 17:06:027.93m/s48.00%25.50C
2017-08-04 16:56:034.78m/s49.70%25.30C
2017-08-04 16:57:034.78m/s49.50%25.30C
2017-08-04 16:43:030.00m/s52.20%25.30C
2017-08-04 17:56:0311.86m/s45.70%26.30C
2017-08-04 17:20:038.71m/s45.60%25.80C
2017-08-04 17:13:032.42m/s47.30%25.70C
2017-08-04 17:19:034.78m/s46.90%25.70C
2017-08-04 17:23:032.42m/s45.00%25.70C
2017-08-04 17:32:032.42m/s46.00%25.90C
2017-08-04 17:26:020.06m/s45.60%25.80C
2017-08-04 17:39:030.06m/s46.50%26.10C
2017-08-04 17:52:030.06m/s45.10%26.30C
2017-08-04 18:11:047.14m/s45.70%26.30C
2017-08-04 18:19:036.35m/s46.40%26.30C
2017-08-04 18:22:033.21m/s45.80%26.30C
2017-08-04 18:27:036.35m/s45.40%26.30C
2017-08-04 18:33:038.71m/s45.10%26.20C
2017-08-04 17:57:039.50m/s45.80%26.30C
2017-08-04 18:07:031.64m/s45.20%26.40C
2017-08-04 18:26:020.00m/s46.10%26.30C
2017-08-04 18:32:030.00m/s45.10%26.30C
2017-08-04 18:44:0313.43m/s46.40%26.10C
2017-08-04 19:17:031.64m/s46.80%25.50C
2017-08-04 19:45:031.64m/s49.70%25.10C
2017-08-04 19:15:030.00m/s46.70%25.60C
2017-08-04 19:37:030.00m/s48.70%25.20C
2017-08-04 18:52:031.64m/s46.00%26.00C
2017-08-04 18:57:020.00m/s47.00%25.90C
2017-08-04 19:25:030.00m/s48.00%25.40C
2017-08-04 19:41:030.00m/s49.20%25.20C
2017-08-04 20:19:033.21m/s51.00%24.60C
2017-08-04 20:37:034.78m/s52.10%24.20C
2017-08-04 20:05:030.85m/s50.30%24.80C
2017-08-04 20:38:030.85m/s51.60%24.20C
2017-08-04 19:46:030.00m/s49.70%25.10C
2017-08-04 20:18:030.00m/s50.90%24.60C
2017-08-04 20:21:030.00m/s51.20%24.50C
2017-08-04 20:36:030.00m/s52.10%24.20C
2017-08-04 20:55:030.00m/s51.10%23.80C
2017-08-04 21:20:040.06m/s51.60%23.20C
2017-08-04 21:24:030.06m/s51.90%23.20C
2017-08-04 20:57:030.00m/s50.70%23.80C
2017-08-04 21:06:030.00m/s51.10%23.60C
2017-08-04 21:33:030.00m/s52.30%22.90C
2017-08-04 21:34:030.00m/s52.30%22.90C
2017-08-04 21:08:030.00m/s51.00%23.50C
2017-08-04 21:19:030.00m/s52.00%23.30C
2017-08-04 21:23:030.00m/s52.00%23.20C
2017-08-04 21:48:030.00m/s53.10%22.60C
2017-08-04 22:08:030.00m/s53.50%22.20C
2017-08-04 22:33:030.00m/s54.50%21.80C
2017-08-04 22:34:030.00m/s54.50%21.70C
2017-08-04 22:39:030.00m/s54.50%21.60C
2017-08-04 22:46:020.00m/s55.20%21.50C
2017-08-04 22:21:030.00m/s54.30%22.00C
2017-08-04 22:23:020.00m/s54.70%22.00C
2017-08-04 22:40:030.00m/s55.00%21.60C
2017-08-04 22:48:020.00m/s55.40%21.50C
2017-08-04 22:55:030.00m/s56.20%21.40C
2017-08-04 22:59:030.00m/s56.10%21.30C
2017-08-04 23:03:020.00m/s56.30%21.20C
2017-08-04 23:27:030.00m/s57.80%20.90C
2017-08-04 23:35:040.00m/s58.50%20.80C
2017-08-04 23:36:030.00m/s58.30%20.80C
2017-08-04 23:17:020.00m/s57.30%21.00C
2017-08-04 23:19:020.00m/s57.10%21.00C
2017-08-04 23:42:030.00m/s58.80%20.70C
2017-08-04 23:43:030.00m/s58.60%20.70C
2017-08-04 23:54:030.00m/s59.70%20.50C
2017-08-04 23:55:030.00m/s59.70%20.50C
2017-08-04 23:59:030.00m/s59.70%20.40C
2017-08-05 00:08:030.00m/s59.80%20.30C
2017-08-05 00:17:140.00m/s60.50%20.20C
2017-08-05 00:20:030.00m/s60.60%20.20C
2017-08-05 00:10:040.00m/s60.00%20.30C
2017-08-05 00:24:030.00m/s60.70%20.10C
2017-08-05 00:47:030.00m/s61.60%19.80C
2017-08-05 00:49:030.00m/s61.70%19.80C
2017-08-05 00:54:030.00m/s61.90%19.70C
2017-08-05 01:13:020.00m/s62.70%19.50C
2017-08-05 01:19:030.00m/s62.80%19.40C
2017-08-05 01:25:030.00m/s63.00%19.30C
2017-08-05 01:26:020.00m/s63.00%19.30C
2017-08-05 00:33:030.00m/s61.10%20.00C
2017-08-05 01:57:020.06m/s64.10%19.00C
2017-08-05 01:38:020.00m/s63.80%19.20C
2017-08-05 01:39:020.00m/s63.80%19.20C
2017-08-05 02:02:030.00m/s64.20%18.90C
2017-08-05 02:05:040.00m/s64.10%18.90C
2017-08-05 01:28:030.00m/s63.00%19.30C
2017-08-05 01:30:030.00m/s63.30%19.30C
2017-08-05 01:56:030.00m/s64.10%19.00C
2017-08-05 01:59:030.00m/s64.10%19.00C
2017-08-05 02:07:030.00m/s64.10%18.90C
2017-08-05 02:08:030.00m/s64.80%18.90C
2017-08-05 02:18:030.00m/s64.70%18.80C
2017-08-05 02:22:030.00m/s64.50%18.80C
2017-08-05 02:26:030.00m/s64.80%18.80C
2017-08-05 02:30:030.00m/s64.80%18.80C
2017-08-05 02:45:030.00m/s64.60%18.60C
2017-08-05 02:47:030.00m/s64.60%18.60C
2017-08-05 03:06:030.00m/s66.00%18.40C
2017-08-05 03:28:030.06m/s66.20%18.30C
2017-08-05 03:13:030.00m/s65.90%18.40C
2017-08-05 03:34:030.00m/s66.40%18.20C
2017-08-05 03:36:030.00m/s66.40%18.20C
2017-08-05 04:58:030.00m/s68.70%17.80C
2017-08-05 05:22:031.64m/s69.40%17.80C
2017-08-05 03:26:030.00m/s66.30%18.30C
2017-08-05 03:29:020.00m/s66.20%18.20C
2017-08-05 05:08:020.00m/s68.80%17.80C
2017-08-05 05:26:030.00m/s69.50%17.70C
2017-08-05 05:30:030.00m/s69.60%17.70C
2017-08-05 05:32:030.00m/s69.60%17.70C
2017-08-05 05:44:030.00m/s69.90%17.70C
2017-08-05 05:50:030.00m/s70.20%17.70C
2017-08-05 05:45:030.00m/s70.00%17.70C
2017-08-05 05:46:030.00m/s70.00%17.70C
2017-08-05 05:48:030.00m/s70.00%17.70C
2017-08-05 05:53:030.00m/s70.00%17.70C
2017-08-05 06:00:040.00m/s70.10%17.70C
2017-08-05 06:05:030.00m/s70.10%17.60C
2017-08-05 06:11:030.00m/s70.10%17.60C
2017-08-05 06:26:030.00m/s70.10%17.60C
2017-08-05 06:29:030.00m/s70.10%17.60C
2017-08-05 06:39:030.00m/s70.30%17.60C
2017-08-05 06:43:030.00m/s70.20%17.60C
2017-08-05 06:48:020.00m/s70.40%17.60C
2017-08-05 06:54:030.00m/s70.60%17.60C
2017-08-05 07:34:030.85m/s71.00%17.60C
2017-08-05 07:38:030.06m/s71.30%17.60C
2017-08-05 07:01:020.00m/s70.80%17.60C
2017-08-05 07:13:030.00m/s70.90%17.60C
2017-08-05 07:12:030.00m/s71.00%17.60C
2017-08-05 07:16:030.00m/s71.00%17.60C
2017-08-05 07:20:040.00m/s71.00%17.60C
2017-08-05 07:25:030.00m/s71.00%17.60C
2017-08-05 07:32:020.00m/s71.00%17.60C
2017-08-05 07:43:046.35m/s71.50%17.60C
2017-08-05 07:42:030.00m/s71.30%17.60C
2017-08-05 07:58:030.00m/s71.70%17.60C
2017-08-05 07:59:030.00m/s71.80%17.60C
2017-08-05 08:00:040.00m/s71.90%17.60C
2017-08-05 08:06:030.00m/s71.90%17.70C
2017-08-05 07:56:030.00m/s71.60%17.60C
2017-08-05 08:16:030.00m/s72.00%17.70C
2017-08-05 08:25:030.00m/s72.00%17.80C
2017-08-05 09:07:036.35m/s73.00%18.00C
2017-08-05 08:31:030.00m/s72.10%17.80C
2017-08-05 08:33:020.00m/s72.10%17.80C
2017-08-05 08:42:030.00m/s72.20%17.80C
2017-08-05 08:44:030.00m/s72.30%17.90C
2017-08-05 09:02:021.64m/s72.70%18.00C
2017-08-05 09:03:030.00m/s72.80%18.00C
2017-08-05 09:05:030.00m/s72.90%18.00C
2017-08-05 09:06:030.00m/s73.10%18.00C
2017-08-05 09:14:030.06m/s73.50%18.10C
2017-08-05 09:52:030.06m/s74.20%18.70C
2017-08-05 09:58:020.85m/s74.00%18.90C
2017-08-05 09:11:030.00m/s73.40%18.10C
2017-08-05 09:17:030.00m/s73.90%18.10C
2017-08-05 09:45:030.00m/s74.60%18.50C
2017-08-05 09:22:030.00m/s74.10%18.10C
2017-08-05 09:57:030.00m/s74.00%18.80C
2017-08-05 09:08:030.00m/s73.00%18.00C
2017-08-05 10:19:020.00m/s73.20%19.40C
2017-08-05 10:20:030.00m/s73.20%19.40C
2017-08-05 10:29:030.00m/s73.10%19.50C
2017-08-05 10:33:030.00m/s72.90%19.60C
2017-08-05 10:38:030.00m/s72.80%19.70C
2017-08-05 10:40:020.00m/s72.70%19.80C
2017-08-05 09:59:030.00m/s74.00%18.90C
2017-08-05 10:35:030.00m/s72.60%19.60C
2017-08-05 10:41:020.00m/s72.80%19.80C
2017-08-05 11:08:033.21m/s72.20%20.10C
2017-08-05 10:45:030.00m/s72.60%19.80C
2017-08-05 10:52:030.00m/s72.30%19.90C
2017-08-05 10:59:030.00m/s72.50%20.10C
2017-08-05 11:10:030.00m/s72.30%20.20C
2017-08-05 11:21:020.00m/s72.50%20.20C
2017-08-05 11:23:030.00m/s72.50%20.20C
2017-08-05 11:26:030.00m/s73.50%20.20C
2017-08-05 10:54:030.00m/s72.40%20.00C
2017-08-05 11:33:030.00m/s73.50%20.10C
2017-08-05 11:44:020.00m/s74.60%20.10C
2017-08-05 12:08:030.00m/s75.20%19.90C
2017-08-05 12:16:030.00m/s75.40%19.90C
2017-08-05 12:19:030.00m/s76.40%19.90C
2017-08-05 11:59:030.00m/s74.90%19.90C
2017-08-05 12:14:030.00m/s74.90%19.90C
2017-08-05 11:49:030.00m/s75.10%20.00C
2017-08-05 12:29:030.00m/s78.00%20.00C
2017-08-05 13:05:032.42m/s79.70%20.00C
2017-08-05 12:35:034.00m/s78.40%20.00C
2017-08-05 12:56:030.06m/s79.50%19.90C
2017-08-05 12:34:030.00m/s78.70%20.00C
2017-08-05 12:37:030.00m/s78.70%20.00C
2017-08-05 12:46:020.00m/s79.40%20.00C
2017-08-05 12:58:030.00m/s79.50%20.00C
2017-08-05 13:03:030.00m/s79.50%20.00C
2017-08-05 13:04:020.00m/s79.90%20.00C
2017-08-05 13:07:020.00m/s79.70%19.90C
2017-08-05 13:08:030.00m/s79.80%19.90C
2017-08-05 13:10:330.00m/s79.80%20.00C
2017-08-05 13:14:030.00m/s79.20%20.00C
2017-08-05 13:22:030.00m/s79.10%20.00C
2017-08-05 13:25:030.00m/s78.70%20.00C
2017-08-05 13:26:030.00m/s78.70%20.00C
2017-08-05 13:31:030.00m/s79.10%20.00C
2017-08-05 13:21:030.00m/s79.00%20.00C
2017-08-05 13:37:030.00m/s78.80%20.10C
2017-08-05 13:38:030.00m/s78.80%20.10C
2017-08-05 13:39:030.00m/s78.80%20.10C
2017-08-05 13:40:030.00m/s78.80%20.10C
2017-08-05 13:44:020.00m/s78.80%20.10C
2017-08-05 13:45:030.00m/s78.80%20.10C
2017-08-05 13:50:030.00m/s78.80%20.10C
2017-08-05 13:54:020.00m/s78.80%20.10C
2017-08-05 13:59:030.00m/s78.80%20.10C
2017-08-05 14:00:030.00m/s78.80%20.10C
2017-08-05 14:07:030.00m/s78.60%20.10C
2017-08-05 14:14:030.00m/s78.80%20.10C
2017-08-05 14:22:030.00m/s78.80%20.10C
2017-08-05 14:24:030.00m/s78.50%20.10C
2017-08-05 14:29:030.00m/s77.70%20.10C
2017-08-05 14:39:030.00m/s78.20%20.30C
2017-08-05 14:40:030.00m/s78.40%20.30C
2017-08-05 14:45:030.00m/s77.90%20.30C
2017-08-05 15:31:037.93m/s70.50%21.80C
2017-08-05 15:18:031.64m/s72.80%21.30C
2017-08-05 15:30:040.85m/s71.20%21.80C
2017-08-05 15:05:030.00m/s75.50%20.70C
2017-08-05 15:09:130.00m/s74.20%20.90C
2017-08-05 15:25:030.00m/s72.50%21.60C
2017-08-05 15:38:020.00m/s69.50%22.10C
2017-08-05 15:27:030.00m/s72.00%21.70C
2017-08-05 15:28:020.00m/s71.00%21.70C
2017-08-05 15:52:033.21m/s66.70%22.80C
2017-08-05 15:53:037.14m/s67.40%22.80C
2017-08-05 16:04:035.57m/s64.80%23.30C
2017-08-05 16:09:034.00m/s63.80%23.50C
2017-08-05 16:18:032.42m/s62.90%23.90C
2017-08-05 16:20:030.06m/s62.50%24.00C
2017-08-05 15:47:030.00m/s68.40%22.60C
2017-08-05 16:22:030.06m/s62.00%24.00C
2017-08-05 16:00:030.00m/s66.00%23.20C
2017-08-05 16:38:026.35m/s58.80%24.70C
2017-08-05 16:23:020.00m/s61.80%24.10C
2017-08-05 16:24:030.00m/s61.30%24.20C
2017-08-05 16:34:020.00m/s60.20%24.50C
2017-08-05 16:45:030.00m/s57.40%24.90C
2017-08-05 16:46:020.00m/s57.80%24.90C
2017-08-05 16:59:030.00m/s57.50%25.10C
2017-08-05 17:08:030.00m/s56.50%25.10C
2017-08-05 16:26:030.00m/s61.00%24.20C
2017-08-05 17:13:030.06m/s56.20%25.10C
2017-08-05 17:11:030.00m/s56.40%25.10C
2017-08-05 17:18:030.00m/s55.80%25.10C
2017-08-05 17:23:030.00m/s55.40%25.10C
2017-08-05 17:26:030.00m/s55.40%25.10C
2017-08-05 17:37:030.00m/s55.30%25.10C
2017-08-05 17:39:020.00m/s55.20%25.10C
2017-08-05 17:29:030.00m/s55.00%25.10C
2017-08-05 17:42:030.00m/s55.00%25.10C
2017-08-05 18:32:034.00m/s55.00%24.80C
2017-08-05 17:50:020.00m/s54.80%25.10C
2017-08-05 17:56:020.00m/s54.90%25.10C
2017-08-05 18:13:030.00m/s53.60%24.90C
2017-08-05 18:18:030.00m/s54.10%24.90C
2017-08-05 18:20:030.00m/s53.80%24.90C
2017-08-05 18:31:020.00m/s54.70%24.80C
2017-08-05 18:05:020.00m/s54.20%25.00C
2017-08-05 18:21:030.00m/s54.00%24.90C
2017-08-05 18:34:033.21m/s54.40%24.80C
2017-08-05 19:00:036.35m/s53.80%24.40C
2017-08-05 18:38:035.57m/s54.20%24.70C
2017-08-05 18:57:032.42m/s53.70%24.40C
2017-08-05 18:42:030.00m/s54.10%24.60C
2017-08-05 19:02:030.00m/s53.40%24.30C
2017-08-05 19:06:020.00m/s53.80%24.30C
2017-08-05 19:18:030.00m/s54.20%24.10C
2017-08-05 19:10:030.00m/s54.00%24.20C
2017-08-05 19:48:034.78m/s54.80%23.60C
2017-08-05 19:28:035.57m/s54.10%23.90C
2017-08-05 19:19:020.00m/s54.20%24.10C
2017-08-05 19:30:030.00m/s54.40%23.90C
2017-08-05 19:33:030.00m/s54.40%23.90C
2017-08-05 19:36:030.00m/s54.90%23.80C
2017-08-05 19:40:030.00m/s55.20%23.80C
2017-08-05 19:46:030.00m/s54.60%23.70C
2017-08-05 19:47:020.00m/s55.00%23.60C
2017-08-05 20:17:034.78m/s55.30%23.00C
2017-08-05 20:38:038.71m/s55.20%22.50C
2017-08-05 20:41:023.21m/s55.10%22.40C
2017-08-05 20:14:020.85m/s55.20%23.10C
2017-08-05 20:36:030.85m/s55.20%22.50C
2017-08-05 19:50:030.00m/s54.90%23.60C
2017-08-05 20:33:030.00m/s55.40%22.70C
2017-08-05 19:49:020.00m/s54.60%23.60C
2017-08-05 19:51:030.00m/s55.00%23.60C
2017-08-05 21:08:032.42m/s57.80%21.80C
2017-08-05 20:51:030.85m/s56.70%22.10C
2017-08-05 20:49:030.00m/s56.20%22.10C
2017-08-05 20:50:020.00m/s56.60%22.10C
2017-08-05 20:52:030.00m/s56.70%22.10C
2017-08-05 21:07:030.00m/s57.80%21.90C
2017-08-05 21:09:030.00m/s58.10%21.80C
2017-08-05 20:44:030.00m/s56.00%22.30C
2017-08-05 20:59:020.00m/s57.50%22.00C
2017-08-05 21:21:030.06m/s58.80%21.60C
2017-08-05 21:20:030.00m/s58.90%21.60C
2017-08-05 21:30:030.00m/s59.50%21.40C
2017-08-05 21:32:020.00m/s59.60%21.40C
2017-08-05 21:37:030.00m/s60.10%21.30C
2017-08-05 21:45:030.00m/s60.30%21.10C
2017-08-05 21:49:030.00m/s60.70%21.10C
2017-08-05 21:15:030.06m/s58.70%21.70C
2017-08-05 21:48:020.00m/s60.40%21.00C
2017-08-05 22:03:020.00m/s61.70%20.80C
2017-08-05 22:04:030.00m/s61.50%20.80C
2017-08-05 22:09:020.00m/s61.90%20.80C
2017-08-05 22:12:020.00m/s62.30%20.70C
2017-08-05 22:17:030.00m/s62.30%20.60C
2017-08-05 22:18:030.00m/s62.50%20.60C
2017-08-05 21:55:030.00m/s61.00%20.90C
2017-08-05 22:05:030.00m/s62.00%20.80C
2017-08-05 22:15:030.00m/s62.70%20.70C
2017-08-05 22:46:030.06m/s63.50%20.20C
2017-08-05 22:20:030.00m/s62.50%20.60C
2017-08-05 22:43:030.00m/s63.80%20.30C
2017-08-05 23:59:020.00m/s66.60%19.10C
2017-08-05 22:23:030.00m/s62.60%20.60C
2017-08-05 23:55:020.00m/s66.10%19.10C
2017-08-06 00:00:030.00m/s66.30%19.00C
2017-08-06 00:03:020.00m/s66.70%19.00C
2017-08-06 00:08:030.00m/s66.90%18.90C
2017-08-06 00:10:030.00m/s66.80%18.90C
2017-08-06 00:19:030.00m/s67.10%18.70C
2017-08-06 00:29:030.00m/s67.50%18.60C
2017-08-06 00:32:030.00m/s67.70%18.60C
2017-08-06 00:38:030.00m/s67.80%18.50C
2017-08-06 00:43:030.00m/s67.90%18.40C
2017-08-06 01:29:030.00m/s69.40%17.90C
2017-08-06 00:51:030.00m/s68.00%18.30C
2017-08-06 01:22:030.00m/s69.40%18.00C
2017-08-06 01:31:030.00m/s69.20%17.80C
2017-08-06 01:32:030.00m/s69.50%17.80C
2017-08-06 01:35:030.00m/s69.60%17.80C
2017-08-06 01:36:020.00m/s69.40%17.80C
2017-08-06 02:00:030.00m/s70.20%17.50C
2017-08-06 02:08:030.00m/s70.20%17.40C
2017-08-06 02:13:020.00m/s70.50%17.40C
2017-08-06 02:17:020.00m/s70.40%17.30C
2017-08-06 02:06:020.00m/s70.00%17.40C
2017-08-06 02:19:030.00m/s70.60%17.30C
2017-08-06 03:04:030.00m/s71.40%16.90C
2017-08-06 03:07:030.00m/s71.60%16.90C
2017-08-06 03:23:020.00m/s72.10%16.80C
2017-08-06 02:44:030.00m/s71.10%17.10C
2017-08-06 02:49:030.00m/s71.10%17.00C
2017-08-06 02:53:020.00m/s71.20%17.00C
2017-08-06 03:14:030.00m/s71.80%16.80C
2017-08-06 03:24:020.00m/s72.00%16.80C
2017-08-06 03:42:030.00m/s72.20%16.60C
2017-08-06 03:43:030.00m/s72.20%16.60C
2017-08-06 03:48:030.00m/s72.40%16.60C
2017-08-06 03:51:030.00m/s72.40%16.50C
2017-08-06 03:53:030.00m/s72.40%16.60C
2017-08-06 04:01:020.00m/s72.60%16.50C
2017-08-06 04:03:030.00m/s72.60%16.50C
2017-08-06 03:25:030.00m/s72.00%16.80C
2017-08-06 03:29:030.00m/s72.00%16.70C
2017-08-06 04:06:020.00m/s72.60%16.50C
2017-08-06 04:13:030.00m/s72.70%16.40C
2017-08-06 04:21:030.00m/s72.70%16.30C
2017-08-06 04:28:030.00m/s72.80%16.30C
2017-08-06 04:30:030.00m/s72.90%16.30C
2017-08-06 04:05:030.00m/s72.50%16.50C
2017-08-06 04:32:030.00m/s73.00%16.30C
2017-08-06 04:33:030.00m/s73.00%16.30C
2017-08-06 04:38:020.00m/s73.00%16.20C
2017-08-06 04:50:030.00m/s73.20%16.10C
2017-08-06 04:39:030.00m/s73.00%16.20C
2017-08-06 04:40:030.00m/s73.00%16.20C
2017-08-06 04:41:030.00m/s73.20%16.20C
2017-08-06 04:45:030.00m/s73.10%16.10C
2017-08-06 05:01:030.00m/s73.60%16.00C
2017-08-06 05:04:030.00m/s73.60%16.00C
2017-08-06 05:18:030.00m/s73.90%15.90C
2017-08-06 05:21:020.00m/s74.00%15.90C
2017-08-06 05:32:030.00m/s74.20%15.80C
2017-08-06 05:34:030.00m/s74.40%15.80C
2017-08-06 05:40:030.00m/s74.40%15.80C
2017-08-06 05:44:030.00m/s74.40%15.70C
2017-08-06 05:45:030.00m/s74.70%15.70C
2017-08-06 05:47:030.00m/s74.70%15.70C
2017-08-06 05:50:020.00m/s74.70%15.70C
2017-08-06 06:01:030.00m/s74.60%15.60C
2017-08-06 06:29:030.00m/s74.50%15.50C
2017-08-06 07:05:030.06m/s75.10%15.30C
2017-08-06 06:33:030.00m/s74.70%15.40C
2017-08-06 06:37:030.00m/s74.70%15.50C
2017-08-06 06:39:030.00m/s74.90%15.40C
2017-08-06 06:55:030.00m/s75.20%15.40C
2017-08-06 06:59:030.00m/s75.00%15.40C
2017-08-06 07:03:020.00m/s75.00%15.40C
2017-08-06 07:11:020.00m/s75.30%15.30C
2017-08-06 07:12:030.00m/s75.30%15.30C
2017-08-06 07:49:033.21m/s77.30%15.20C
2017-08-06 07:22:030.00m/s75.80%15.30C
2017-08-06 07:25:030.00m/s75.90%15.30C
2017-08-06 07:30:020.00m/s75.90%15.20C
2017-08-06 07:33:020.00m/s76.10%15.30C
2017-08-06 07:39:030.00m/s76.30%15.20C
2017-08-06 07:44:030.00m/s76.70%15.20C
2017-08-06 07:54:030.00m/s77.40%15.20C
2017-08-06 07:34:030.00m/s76.00%15.20C
2017-08-06 08:40:030.85m/s79.90%15.40C
2017-08-06 08:06:030.00m/s77.90%15.20C
2017-08-06 08:32:030.00m/s79.60%15.30C
2017-08-06 08:33:020.00m/s79.50%15.30C
2017-08-06 08:36:020.00m/s79.70%15.40C
2017-08-06 08:46:030.00m/s80.30%15.50C
2017-08-06 08:52:030.00m/s80.50%15.60C
2017-08-06 08:58:020.85m/s80.60%15.60C
2017-08-06 08:55:030.00m/s80.60%15.60C
2017-08-06 09:07:022.42m/s80.50%15.80C
2017-08-06 09:02:020.00m/s80.60%15.70C
2017-08-06 09:05:030.00m/s80.50%15.80C
2017-08-06 09:09:021.64m/s80.60%15.80C
2017-08-06 09:23:030.00m/s80.80%16.10C
2017-08-06 09:32:030.00m/s80.50%16.40C
2017-08-06 09:33:020.00m/s80.50%16.40C
2017-08-06 09:36:020.00m/s80.30%16.50C
2017-08-06 09:18:030.00m/s80.80%16.00C
2017-08-06 10:46:036.35m/s70.90%19.20C
2017-08-06 09:44:024.00m/s79.80%16.70C
2017-08-06 10:07:030.06m/s77.40%17.60C
2017-08-06 09:37:030.00m/s80.30%16.50C
2017-08-06 09:47:020.00m/s79.70%16.80C
2017-08-06 09:48:020.00m/s79.70%16.90C
2017-08-06 09:57:030.00m/s78.80%17.20C
2017-08-06 10:13:030.00m/s76.70%17.80C
2017-08-06 10:15:030.00m/s76.80%17.90C
2017-08-06 11:49:024.00m/s61.70%22.00C
2017-08-06 10:53:030.85m/s69.20%19.50C
2017-08-06 11:02:030.06m/s66.70%19.80C
2017-08-06 11:06:030.85m/s66.20%20.00C
2017-08-06 12:01:021.64m/s59.70%22.40C
2017-08-06 10:47:030.00m/s70.50%19.20C
2017-08-06 11:08:030.00m/s66.80%20.10C
2017-08-06 11:58:030.00m/s60.40%22.30C
2017-08-06 11:07:030.00m/s66.50%20.00C
2017-08-06 12:08:023.21m/s59.50%22.80C
2017-08-06 12:12:027.93m/s58.20%23.00C
2017-08-06 12:02:030.06m/s59.30%22.50C
2017-08-06 12:11:030.06m/s57.20%22.90C
2017-08-06 12:33:031.64m/s50.20%23.30C
2017-08-06 12:49:030.06m/s50.10%24.60C
2017-08-06 12:10:030.00m/s58.50%22.90C
2017-08-06 12:17:020.00m/s50.10%22.50C
2017-08-06 12:07:030.00m/s58.00%22.70C
2017-08-06 13:17:0311.07m/s47.30%25.80C
2017-08-06 13:41:033.21m/s43.40%26.50C
2017-08-06 12:52:027.93m/s49.70%24.80C
2017-08-06 13:40:030.06m/s43.10%26.50C
2017-08-06 13:34:030.00m/s45.10%26.30C
2017-08-06 13:38:020.00m/s45.20%26.40C
2017-08-06 13:24:030.00m/s46.50%25.90C
2017-08-06 12:50:020.00m/s49.60%24.60C
2017-08-06 13:33:030.00m/s45.00%26.20C
2017-08-06 14:08:024.78m/s41.50%27.20C
2017-08-06 14:11:034.00m/s41.00%27.20C
2017-08-06 14:21:031.64m/s41.10%27.40C
2017-08-06 13:46:030.00m/s42.30%26.60C
2017-08-06 13:55:020.00m/s42.60%26.90C
2017-08-06 14:07:030.00m/s41.40%27.20C
2017-08-06 14:19:030.00m/s40.70%27.40C
2017-08-06 14:23:020.00m/s40.60%27.40C
2017-08-06 13:54:030.00m/s42.90%26.90C
2017-08-06 14:45:033.21m/s41.60%27.60C
2017-08-06 14:24:030.00m/s40.80%27.40C
2017-08-06 14:34:030.00m/s41.40%27.60C
2017-08-06 14:37:020.00m/s40.90%27.60C
2017-08-06 14:38:020.00m/s40.90%27.60C
2017-08-06 14:52:030.00m/s41.50%27.90C
2017-08-06 14:56:030.00m/s41.90%28.10C
2017-08-06 14:53:030.00m/s41.10%28.00C
2017-08-06 14:54:030.00m/s41.10%28.00C
2017-08-06 15:56:038.71m/s39.00%29.30C
2017-08-06 14:59:034.00m/s41.60%28.20C
2017-08-06 14:58:030.00m/s41.40%28.10C
2017-08-06 15:00:040.00m/s41.60%28.20C
2017-08-06 15:34:030.00m/s39.70%29.30C
2017-08-06 15:35:030.00m/s39.60%29.40C
2017-08-06 15:36:030.00m/s39.50%29.40C
2017-08-06 15:42:030.00m/s39.30%29.40C
2017-08-06 16:02:030.00m/s39.40%29.20C
2017-08-06 16:21:032.42m/s39.80%28.90C
2017-08-06 16:22:034.00m/s39.30%28.80C
2017-08-06 16:08:030.00m/s40.20%29.10C
2017-08-06 16:47:020.00m/s40.40%28.50C
2017-08-06 16:10:030.00m/s40.20%29.00C
2017-08-06 16:28:030.00m/s39.70%28.70C
2017-08-06 16:06:030.00m/s40.00%29.10C
2017-08-06 16:07:030.00m/s40.00%29.10C
2017-08-06 16:17:030.00m/s40.00%28.90C
2017-08-06 18:59:233.21m/s43.80%27.30C
2017-08-06 19:03:030.06m/s44.00%27.30C
2017-08-06 19:04:030.06m/s44.10%27.30C
2017-08-06 16:49:030.00m/s39.80%28.40C
2017-08-06 17:01:030.00m/s40.50%28.30C
2017-08-06 17:07:030.00m/s40.70%28.20C
2017-08-06 19:02:030.00m/s43.90%27.30C
2017-08-06 17:24:030.00m/s40.70%28.00C
2017-08-06 18:51:030.00m/s44.00%27.40C
2017-08-06 19:18:023.21m/s43.20%26.90C
2017-08-06 19:07:030.00m/s44.30%27.20C
2017-08-06 19:08:030.00m/s44.40%27.20C
2017-08-06 19:11:030.00m/s42.70%27.10C
2017-08-06 19:19:030.00m/s43.40%26.90C
2017-08-06 19:20:030.00m/s43.50%26.90C
2017-08-06 19:06:021.64m/s44.30%27.30C
2017-08-06 19:09:030.00m/s43.20%27.20C
2017-08-06 19:14:030.00m/s42.90%27.00C
2017-08-06 19:46:034.78m/s45.30%26.60C
2017-08-06 19:43:020.06m/s45.40%26.70C
2017-08-06 19:29:030.00m/s44.20%26.80C
2017-08-06 19:32:020.00m/s45.20%26.80C
2017-08-06 19:33:030.00m/s45.20%26.80C
2017-08-06 19:38:030.00m/s45.40%26.80C
2017-08-06 19:40:030.00m/s45.40%26.70C
2017-08-06 19:42:030.00m/s45.40%26.70C
2017-08-06 19:25:030.00m/s43.90%26.90C
2017-08-06 20:07:030.06m/s46.30%26.20C
2017-08-06 20:35:030.06m/s47.00%25.60C
2017-08-06 20:09:030.00m/s46.40%26.10C
2017-08-06 20:10:030.00m/s46.60%26.10C
2017-08-06 20:39:020.00m/s47.30%25.40C
2017-08-06 20:50:030.00m/s47.70%25.10C
2017-08-06 20:42:030.06m/s47.30%25.30C
2017-08-06 20:28:030.00m/s47.00%25.80C
2017-08-06 20:43:030.00m/s47.30%25.30C
2017-08-06 21:09:030.06m/s48.50%24.60C
2017-08-06 21:04:030.00m/s48.10%24.80C
2017-08-06 21:08:020.00m/s48.40%24.70C
2017-08-06 21:12:030.00m/s48.70%24.60C
2017-08-06 21:15:030.00m/s48.80%24.50C
2017-08-06 21:22:030.00m/s49.60%24.40C
2017-08-06 20:55:030.00m/s47.90%25.00C
2017-08-06 20:56:030.00m/s47.80%25.00C
2017-08-06 21:00:030.00m/s47.90%24.90C
2017-08-06 21:43:030.00m/s51.10%23.80C
2017-08-06 21:46:020.00m/s51.40%23.70C
2017-08-06 21:52:020.00m/s51.90%23.60C
2017-08-06 21:56:020.00m/s52.10%23.40C
2017-08-06 21:58:030.00m/s52.30%23.40C
2017-08-06 22:26:020.00m/s53.90%22.70C
2017-08-06 21:30:030.00m/s50.20%24.20C
2017-08-06 21:41:030.00m/s51.00%23.90C
2017-08-06 22:10:020.00m/s53.10%23.10C
2017-08-06 22:45:030.06m/s55.00%22.30C
2017-08-06 22:33:030.00m/s54.40%22.60C
2017-08-06 22:40:030.00m/s54.90%22.50C
2017-08-06 22:53:030.00m/s54.90%22.20C
2017-08-06 22:55:030.00m/s55.40%22.10C
2017-08-06 22:59:020.00m/s55.30%22.10C
2017-08-06 22:34:030.00m/s54.60%22.60C
2017-08-06 22:35:030.00m/s54.60%22.60C
2017-08-06 22:37:030.00m/s54.50%22.50C
2017-08-06 23:11:030.00m/s56.10%21.80C
2017-08-06 23:17:030.00m/s55.90%21.70C
2017-08-06 23:25:030.00m/s56.70%21.60C
2017-08-06 23:29:030.00m/s56.80%21.50C
2017-08-06 23:31:020.00m/s56.90%21.40C
2017-08-06 23:37:030.00m/s57.10%21.40C
2017-08-06 23:40:030.00m/s57.20%21.30C
2017-08-06 23:35:030.00m/s57.00%21.40C
2017-08-06 23:41:030.00m/s57.00%21.30C
2017-08-06 23:43:020.00m/s57.20%21.30C
2017-08-06 23:51:030.00m/s57.30%21.10C
2017-08-06 23:53:030.00m/s57.70%21.10C
2017-08-06 23:54:030.00m/s57.60%21.10C
2017-08-07 00:08:030.00m/s58.60%20.80C
2017-08-07 00:10:030.00m/s58.50%20.80C
2017-08-07 00:11:030.00m/s58.70%20.80C
2017-08-06 23:56:030.00m/s57.70%21.00C
2017-08-07 00:01:030.00m/s58.00%21.00C
2017-08-07 00:21:020.00m/s58.90%20.60C
2017-08-07 00:35:030.00m/s59.70%20.40C
2017-08-07 00:36:030.00m/s59.70%20.40C
2017-08-07 00:43:020.00m/s59.60%20.30C
2017-08-07 00:48:030.00m/s59.60%20.20C
2017-08-07 00:50:020.00m/s59.90%20.20C
2017-08-07 00:59:030.00m/s60.20%20.00C
2017-08-07 01:02:030.00m/s60.20%20.00C
2017-08-07 01:04:020.00m/s60.00%19.90C
2017-08-07 01:05:030.06m/s60.30%20.00C
2017-08-07 01:14:030.00m/s60.30%19.80C
2017-08-07 01:18:020.00m/s60.60%19.80C
2017-08-07 01:19:030.00m/s60.30%19.70C
2017-08-07 01:22:020.00m/s60.50%19.70C
2017-08-07 01:30:030.00m/s60.50%19.60C
2017-08-07 01:35:030.00m/s61.10%19.50C
2017-08-07 01:23:030.00m/s60.70%19.70C
2017-08-07 01:25:030.00m/s60.70%19.70C
2017-08-07 01:36:030.00m/s60.90%19.50C
2017-08-07 01:41:030.00m/s61.30%19.40C
2017-08-07 01:47:020.00m/s61.30%19.40C
2017-08-07 01:50:030.00m/s60.90%19.30C
2017-08-07 01:54:030.00m/s61.40%19.20C
2017-08-07 01:58:030.00m/s61.40%19.20C
2017-08-07 02:02:030.00m/s61.30%19.10C
2017-08-07 02:05:030.00m/s61.50%19.10C
2017-08-07 02:09:030.00m/s61.80%19.10C
2017-08-07 02:18:030.00m/s62.10%18.90C
2017-08-07 02:20:030.00m/s62.10%18.90C
2017-08-07 02:21:030.00m/s62.20%18.90C
2017-08-07 02:29:020.00m/s62.20%18.80C
2017-08-07 02:30:030.00m/s62.30%18.80C
2017-08-07 02:33:030.00m/s62.40%18.80C
2017-08-07 02:38:030.00m/s62.90%18.70C
2017-08-07 02:40:030.00m/s62.80%18.70C
2017-08-07 02:12:020.00m/s62.30%19.00C
2017-08-07 02:48:030.00m/s62.90%18.60C
2017-08-07 02:53:030.00m/s63.10%18.50C
2017-08-07 02:55:030.00m/s63.10%18.50C
2017-08-07 02:56:030.00m/s63.30%18.50C
2017-08-07 02:57:030.00m/s63.10%18.50C
2017-08-07 03:01:030.00m/s63.50%18.40C
2017-08-07 03:09:020.00m/s63.70%18.30C
2017-08-07 02:49:030.00m/s63.00%18.60C
2017-08-07 02:52:030.00m/s63.00%18.50C
2017-08-07 03:19:030.00m/s64.20%18.30C
2017-08-07 03:27:030.00m/s64.10%18.20C
2017-08-07 03:13:030.00m/s64.00%18.30C
2017-08-07 03:17:030.00m/s64.30%18.30C
2017-08-07 03:21:030.00m/s64.20%18.20C
2017-08-07 03:24:020.00m/s64.20%18.20C
2017-08-07 03:29:030.00m/s64.10%18.10C
2017-08-07 03:40:030.00m/s64.70%18.00C
2017-08-07 03:43:030.00m/s64.80%18.00C
2017-08-07 03:48:030.06m/s64.90%18.00C
2017-08-07 03:51:030.06m/s64.50%17.90C
2017-08-07 04:11:030.06m/s65.20%17.70C
2017-08-07 03:54:030.00m/s64.70%17.90C
2017-08-07 04:01:030.00m/s65.30%17.80C
2017-08-07 04:02:020.00m/s65.10%17.80C
2017-08-07 04:05:030.00m/s65.10%17.80C
2017-08-07 04:10:020.00m/s65.20%17.70C
2017-08-07 04:00:030.00m/s65.00%17.80C
2017-08-07 04:16:030.00m/s65.60%17.70C
2017-08-07 04:17:030.00m/s65.50%17.70C
2017-08-07 04:25:020.00m/s65.70%17.60C
2017-08-07 04:26:030.00m/s65.80%17.60C
2017-08-07 04:38:030.00m/s66.20%17.50C
2017-08-07 04:43:030.00m/s66.10%17.40C
2017-08-07 04:44:030.00m/s66.30%17.40C
2017-08-07 04:47:030.00m/s66.30%17.40C
2017-08-07 04:34:030.00m/s66.00%17.50C
2017-08-07 04:58:030.00m/s66.60%17.30C
2017-08-07 05:00:030.00m/s66.60%17.30C
2017-08-07 05:04:030.00m/s66.70%17.20C
2017-08-07 05:05:030.00m/s66.70%17.20C
2017-08-07 04:52:030.00m/s66.30%17.30C
2017-08-07 05:31:030.00m/s67.10%17.00C
2017-08-07 05:36:030.00m/s67.20%17.00C
2017-08-07 05:35:030.00m/s67.00%17.00C
2017-08-07 05:37:030.00m/s67.00%17.00C
2017-08-07 06:00:030.00m/s67.30%16.80C
2017-08-07 06:07:030.00m/s67.50%16.80C
2017-08-07 06:14:030.00m/s67.40%16.70C
2017-08-07 06:32:030.00m/s67.70%16.60C
2017-08-07 06:35:020.00m/s67.90%16.60C
2017-08-07 06:37:020.00m/s67.90%16.60C
2017-08-07 06:20:020.00m/s67.70%16.70C
2017-08-07 06:22:030.00m/s67.70%16.70C
2017-08-07 06:25:030.00m/s67.70%16.70C
2017-08-07 06:46:030.00m/s68.10%16.50C
2017-08-07 07:07:020.00m/s68.50%16.40C
2017-08-07 07:12:030.00m/s68.50%16.40C
2017-08-07 07:18:030.00m/s68.70%16.30C
2017-08-07 07:25:030.00m/s68.80%16.30C
2017-08-07 06:45:030.00m/s68.00%16.50C
2017-08-07 06:51:030.00m/s68.00%16.50C
2017-08-07 07:05:030.00m/s68.40%16.40C
2017-08-07 07:39:030.00m/s69.00%16.30C
2017-08-07 07:45:030.06m/s69.00%16.20C
2017-08-07 07:51:020.06m/s69.50%16.20C
2017-08-07 07:42:030.00m/s68.90%16.30C
2017-08-07 07:43:020.00m/s69.10%16.20C
2017-08-07 07:44:030.00m/s69.10%16.30C
2017-08-07 07:50:030.00m/s69.30%16.20C
2017-08-07 07:59:030.00m/s69.70%16.20C
2017-08-07 08:05:020.00m/s69.80%16.30C
2017-08-07 08:12:030.00m/s70.40%16.20C
2017-08-07 08:45:030.06m/s71.90%16.50C
2017-08-07 09:02:030.06m/s74.90%16.70C
2017-08-07 08:19:030.00m/s70.70%16.30C
2017-08-07 08:25:030.00m/s70.70%16.30C
2017-08-07 08:32:020.00m/s71.80%16.30C
2017-08-07 08:46:020.00m/s71.80%16.50C
2017-08-07 08:52:030.00m/s72.10%16.60C
2017-08-07 08:59:020.00m/s74.50%16.70C
2017-08-07 08:47:030.00m/s72.00%16.50C
2017-08-07 09:04:030.00m/s75.60%16.70C
2017-08-07 09:11:020.00m/s74.50%16.90C
2017-08-07 09:12:030.00m/s74.40%16.90C
2017-08-07 09:18:130.00m/s73.30%17.10C
2017-08-07 09:20:030.00m/s73.20%17.10C
2017-08-07 09:32:020.00m/s72.10%17.40C
2017-08-07 09:16:030.00m/s73.60%17.00C
2017-08-07 09:33:020.00m/s72.00%17.40C
2017-08-07 09:13:030.00m/s74.00%17.00C
2017-08-07 09:56:032.42m/s69.40%18.10C
2017-08-07 10:16:033.21m/s66.70%18.80C
2017-08-07 10:24:033.21m/s65.00%19.10C
2017-08-07 10:53:035.57m/s61.20%20.30C
2017-08-07 09:40:030.06m/s71.40%17.60C
2017-08-07 10:18:030.06m/s66.60%18.90C
2017-08-07 10:23:020.85m/s65.00%19.10C
2017-08-07 09:48:020.00m/s70.30%17.80C
2017-08-07 09:54:030.00m/s69.70%18.00C
2017-08-07 11:59:024.78m/s53.70%23.10C
2017-08-07 11:37:025.57m/s55.80%22.10C
2017-08-07 11:47:022.42m/s55.30%22.60C
2017-08-07 10:58:031.64m/s59.90%20.40C
2017-08-07 11:00:030.06m/s60.00%20.50C
2017-08-07 11:06:031.64m/s59.50%20.80C
2017-08-07 11:13:030.00m/s58.80%21.10C
2017-08-07 11:36:030.00m/s56.30%22.10C
2017-08-07 11:39:030.00m/s55.30%22.20C
2017-08-07 12:19:0311.07m/s51.80%24.00C
2017-08-07 14:28:035.57m/s39.10%29.50C
2017-08-07 14:43:022.42m/s38.40%30.00C
2017-08-07 13:57:020.06m/s41.20%28.10C
2017-08-07 14:24:021.64m/s40.10%29.40C
2017-08-07 14:27:030.06m/s39.70%29.50C
2017-08-07 14:38:030.00m/s38.20%29.80C
2017-08-07 12:22:030.00m/s51.20%24.20C
2017-08-07 14:10:030.00m/s40.00%28.80C
2017-08-07 15:16:032.42m/s36.10%31.00C
2017-08-07 14:58:020.06m/s37.60%30.50C
2017-08-07 15:09:030.06m/s36.80%31.00C
2017-08-07 14:46:030.00m/s38.30%30.10C
2017-08-07 14:53:030.00m/s37.80%30.40C
2017-08-07 14:59:030.00m/s37.20%30.60C
2017-08-07 15:00:030.00m/s37.40%30.60C
2017-08-07 15:20:020.00m/s35.40%31.10C
2017-08-07 15:31:030.00m/s35.50%31.30C
2017-08-07 16:13:033.21m/s33.70%32.00C
2017-08-07 15:46:020.06m/s35.10%31.60C
2017-08-07 15:35:020.00m/s34.90%31.30C
2017-08-07 15:44:030.00m/s34.40%31.50C
2017-08-07 15:49:030.00m/s34.50%31.60C
2017-08-07 16:00:030.00m/s34.50%31.90C
2017-08-07 16:26:030.00m/s32.60%31.90C
2017-08-07 16:35:030.00m/s32.60%32.10C
2017-08-07 15:51:030.06m/s34.60%31.60C
2017-08-07 16:46:030.06m/s31.90%32.00C
2017-08-07 16:36:030.00m/s32.70%32.10C
2017-08-07 16:53:020.00m/s31.80%31.90C
2017-08-07 16:50:030.00m/s31.80%32.00C
2017-08-07 16:52:030.00m/s32.10%32.00C
2017-08-07 16:58:030.00m/s32.50%32.00C
2017-08-07 17:03:020.00m/s32.10%32.10C
2017-08-07 17:09:030.00m/s32.00%32.00C
2017-08-07 17:10:020.00m/s32.00%32.00C
2017-08-07 17:17:030.06m/s32.30%32.10C
2017-08-07 17:19:020.06m/s33.20%32.10C
2017-08-07 17:22:020.00m/s32.90%32.10C
2017-08-07 17:37:030.00m/s33.40%32.10C
2017-08-07 17:43:030.00m/s33.30%32.10C
2017-08-07 17:24:030.00m/s33.00%32.10C
2017-08-07 17:25:030.00m/s33.00%32.10C
2017-08-07 17:45:030.00m/s33.10%32.00C
2017-08-07 17:49:030.00m/s33.70%32.00C
2017-08-07 18:28:020.00m/s34.90%31.50C
2017-08-07 19:06:030.00m/s36.40%30.60C
2017-08-07 17:59:030.06m/s33.90%31.90C
2017-08-07 17:53:030.00m/s33.30%32.00C
2017-08-07 18:24:030.00m/s34.50%31.50C
2017-08-07 18:40:030.00m/s35.20%31.20C
2017-08-07 18:45:030.00m/s35.10%31.10C
2017-08-07 18:51:030.00m/s35.50%31.00C
2017-08-07 18:54:030.00m/s35.90%30.90C
2017-08-07 19:13:030.00m/s36.90%30.50C
2017-08-07 19:14:030.00m/s37.10%30.50C
2017-08-07 19:18:030.00m/s37.10%30.40C
2017-08-07 19:26:030.00m/s37.50%30.10C
2017-08-07 19:31:030.00m/s38.30%29.90C
2017-08-07 19:33:030.00m/s38.50%29.90C
2017-08-07 20:10:030.00m/s40.20%28.90C
2017-08-07 20:06:020.00m/s40.20%29.00C
2017-08-07 20:12:030.00m/s40.00%28.80C
2017-08-07 20:19:030.06m/s40.80%28.60C
2017-08-07 20:34:030.06m/s41.40%28.10C
2017-08-07 21:11:030.06m/s44.00%26.80C
2017-08-07 20:24:030.00m/s41.10%28.40C
2017-08-07 20:28:030.00m/s41.20%28.30C
2017-08-07 20:29:030.00m/s41.40%28.30C
2017-08-07 20:35:030.00m/s41.40%28.10C
2017-08-07 20:57:030.00m/s43.10%27.30C
2017-08-07 20:18:030.00m/s40.50%28.50C
2017-08-07 21:14:030.00m/s44.60%26.80C
2017-08-07 21:19:030.00m/s45.20%26.50C
2017-08-07 21:24:030.00m/s45.10%26.30C
2017-08-07 21:26:030.00m/s45.40%26.30C
2017-08-07 21:33:030.00m/s46.30%26.10C
2017-08-07 22:00:030.00m/s49.20%25.30C
2017-08-07 21:16:020.00m/s44.60%26.60C
2017-08-07 21:29:030.00m/s46.00%26.20C
2017-08-07 21:39:030.00m/s47.00%25.90C
2017-08-07 22:03:020.00m/s49.30%25.20C
2017-08-07 22:05:030.00m/s49.90%25.20C
2017-08-07 22:06:020.00m/s50.20%25.10C
2017-08-07 22:18:030.00m/s53.30%24.10C
2017-08-07 22:34:030.00m/s54.20%23.90C
2017-08-07 22:46:030.00m/s54.50%23.80C
2017-08-07 22:08:030.00m/s50.40%25.00C
2017-08-07 22:30:130.00m/s53.90%24.00C
2017-08-07 22:36:030.00m/s54.10%24.00C
2017-08-07 22:50:020.00m/s54.30%23.70C
2017-08-07 22:54:030.00m/s54.40%23.60C
2017-08-07 22:58:030.00m/s54.20%23.60C
2017-08-07 23:30:030.00m/s55.50%22.90C
2017-08-07 23:36:020.00m/s55.70%22.80C
2017-08-07 23:37:030.00m/s55.40%22.70C
2017-08-07 23:44:030.00m/s55.80%22.60C
2017-08-07 23:23:030.00m/s55.60%23.00C
2017-08-07 23:24:030.00m/s55.60%23.00C
2017-08-07 23:45:025.57m/s56.20%22.60C
2017-08-07 23:57:030.06m/s57.00%22.40C
2017-08-08 00:31:031.64m/s58.10%21.80C
2017-08-07 23:49:030.00m/s56.50%22.60C
2017-08-07 23:50:030.00m/s56.70%22.50C
2017-08-08 00:09:030.00m/s57.50%22.20C
2017-08-08 00:13:030.00m/s57.60%22.10C
2017-08-08 00:16:030.00m/s57.40%22.10C
2017-08-08 00:24:030.00m/s58.10%22.00C
2017-08-08 00:41:022.42m/s58.60%21.70C
2017-08-08 00:40:030.06m/s58.60%21.70C
2017-08-08 01:04:030.00m/s59.70%21.40C
2017-08-08 01:12:030.00m/s60.10%21.20C
2017-08-08 01:15:030.00m/s59.70%21.20C
2017-08-08 00:36:020.00m/s58.80%21.80C
2017-08-08 00:42:030.00m/s58.60%21.60C
2017-08-08 01:08:020.00m/s59.30%21.30C
2017-08-08 01:10:030.00m/s60.00%21.30C
2017-08-08 01:48:037.93m/s60.50%20.70C
2017-08-08 01:20:032.42m/s60.00%21.10C
2017-08-08 01:27:032.42m/s60.20%21.00C
2017-08-08 01:40:032.42m/s60.10%20.90C
2017-08-08 01:47:021.64m/s61.00%20.80C
2017-08-08 01:24:030.00m/s59.80%21.10C
2017-08-08 01:25:030.00m/s60.40%21.10C
2017-08-08 01:35:030.00m/s60.10%20.90C
2017-08-08 01:42:030.00m/s60.30%20.80C
2017-08-08 02:22:024.78m/s62.20%20.40C
2017-08-08 01:51:022.42m/s61.00%20.70C
2017-08-08 02:03:036.35m/s61.50%20.60C
2017-08-08 02:20:034.00m/s61.90%20.40C
2017-08-08 01:52:031.64m/s61.20%20.70C
2017-08-08 02:05:030.85m/s61.70%20.50C
2017-08-08 02:07:030.85m/s62.10%20.50C
2017-08-08 01:55:030.00m/s61.50%20.70C
2017-08-08 02:11:030.00m/s62.00%20.50C
2017-08-08 02:34:034.00m/s62.60%20.30C
2017-08-08 02:25:020.06m/s62.30%20.40C
2017-08-08 02:40:030.85m/s63.30%20.20C
2017-08-08 03:08:031.64m/s63.70%19.90C
2017-08-08 03:09:030.00m/s64.20%19.90C
2017-08-08 02:55:030.00m/s63.40%20.00C
2017-08-08 02:57:030.00m/s63.70%20.00C
2017-08-08 03:02:030.00m/s63.80%20.00C
2017-08-08 03:07:020.00m/s64.30%20.00C
2017-08-08 03:12:034.00m/s64.10%19.90C
2017-08-08 03:27:031.64m/s64.60%19.80C
2017-08-08 03:29:020.00m/s64.60%19.80C
2017-08-08 03:33:030.00m/s64.50%19.70C
2017-08-08 03:41:030.00m/s64.60%19.70C
2017-08-08 03:44:030.00m/s64.90%19.70C
2017-08-08 03:45:030.00m/s64.70%19.60C
2017-08-08 03:46:030.00m/s64.80%19.60C
2017-08-08 03:49:030.00m/s64.90%19.70C
2017-08-08 04:04:023.21m/s65.40%19.50C
2017-08-08 04:11:030.85m/s65.40%19.50C
2017-08-08 03:50:030.00m/s64.90%19.60C
2017-08-08 03:53:030.00m/s64.90%19.60C
2017-08-08 04:01:030.00m/s65.50%19.60C
2017-08-08 04:03:030.00m/s65.40%19.50C
2017-08-08 04:05:020.00m/s65.40%19.50C
2017-08-08 04:41:030.00m/s65.20%19.30C
2017-08-08 04:44:030.06m/s65.30%19.30C
2017-08-08 04:45:031.64m/s65.20%19.30C
2017-08-08 04:58:030.00m/s65.80%19.20C
2017-08-08 05:11:030.00m/s66.40%19.10C
2017-08-08 05:25:030.00m/s66.20%18.90C
2017-08-08 05:28:030.00m/s66.50%18.90C
2017-08-08 05:30:030.00m/s66.30%18.90C
2017-08-08 04:48:030.00m/s65.20%19.20C
2017-08-08 05:05:030.00m/s66.00%19.10C
2017-08-08 05:06:030.00m/s66.10%19.10C
2017-08-08 05:37:020.00m/s66.40%18.80C
2017-08-08 05:38:030.00m/s66.60%18.80C
2017-08-08 05:40:020.00m/s66.60%18.80C
2017-08-08 05:43:020.00m/s66.60%18.80C
2017-08-08 05:49:020.00m/s66.90%18.80C
2017-08-08 05:53:030.00m/s66.80%18.70C
2017-08-08 05:45:030.00m/s66.80%18.80C
2017-08-08 05:47:020.00m/s66.80%18.80C
2017-08-08 06:05:030.00m/s67.00%18.70C
2017-08-08 06:26:030.06m/s67.30%18.50C
2017-08-08 06:47:020.06m/s67.80%18.50C
2017-08-08 06:27:030.00m/s67.70%18.50C
2017-08-08 06:28:020.00m/s67.70%18.50C
2017-08-08 06:29:030.00m/s67.60%18.50C
2017-08-08 06:34:030.00m/s67.60%18.50C
2017-08-08 06:41:030.00m/s67.80%18.50C
2017-08-08 06:08:020.00m/s67.00%18.60C
2017-08-08 06:11:030.00m/s67.00%18.60C
2017-08-08 07:05:030.06m/s68.50%18.40C
2017-08-08 07:00:020.00m/s68.20%18.40C
2017-08-08 07:07:030.00m/s68.30%18.40C
2017-08-08 07:19:020.00m/s68.50%18.40C
2017-08-08 07:22:030.00m/s68.50%18.40C
2017-08-08 06:52:020.00m/s68.00%18.50C
2017-08-08 06:54:020.00m/s68.00%18.50C
2017-08-08 07:11:030.00m/s68.40%18.40C
2017-08-08 07:15:041.64m/s68.40%18.40C
2017-08-08 08:53:020.85m/s70.00%18.60C
2017-08-08 09:03:030.00m/s70.10%18.70C
2017-08-08 09:28:030.00m/s69.60%18.80C
2017-08-08 09:29:030.00m/s69.40%18.80C
2017-08-08 09:30:020.00m/s69.60%18.80C
2017-08-08 09:16:020.00m/s69.70%18.70C
2017-08-08 08:57:030.00m/s70.00%18.60C
2017-08-08 09:00:030.00m/s70.00%18.60C
2017-08-08 09:08:030.00m/s70.00%18.70C
2017-08-08 09:43:030.06m/s69.70%18.90C
2017-08-08 09:52:030.06m/s69.50%19.00C
2017-08-08 09:35:030.00m/s69.70%18.90C
2017-08-08 09:47:030.00m/s69.50%18.90C
2017-08-08 09:48:030.00m/s69.50%18.90C
2017-08-08 10:07:020.00m/s69.30%19.10C
2017-08-08 10:30:020.00m/s68.80%19.20C
2017-08-08 10:14:030.00m/s69.00%19.10C
2017-08-08 10:19:030.00m/s69.00%19.20C
2017-08-08 10:31:020.00m/s68.90%19.20C
2017-08-08 10:45:030.00m/s69.10%19.30C
2017-08-08 10:47:030.00m/s69.10%19.30C
2017-08-08 10:48:030.00m/s69.10%19.30C
2017-08-08 10:33:020.00m/s69.00%19.20C
2017-08-08 10:36:030.00m/s69.00%19.30C
2017-08-08 10:58:030.00m/s69.00%19.30C
2017-08-08 11:01:030.00m/s69.00%19.30C
2017-08-08 10:40:020.00m/s69.30%19.30C
2017-08-08 11:08:030.00m/s69.10%19.40C
2017-08-08 11:21:030.00m/s69.50%19.40C
2017-08-08 11:23:030.00m/s69.60%19.30C
2017-08-08 11:26:030.00m/s70.10%19.40C
2017-08-08 11:41:030.00m/s71.10%19.40C
2017-08-08 11:43:030.00m/s70.70%19.40C
2017-08-08 11:12:030.00m/s69.00%19.40C
2017-08-08 11:13:030.00m/s69.00%19.40C
2017-08-08 11:19:030.00m/s69.00%19.40C
2017-08-08 11:44:020.00m/s70.20%19.40C
2017-08-08 11:47:020.00m/s70.50%19.40C
2017-08-08 11:49:030.00m/s70.70%19.40C
2017-08-08 11:50:030.00m/s70.30%19.40C
2017-08-08 11:52:030.00m/s70.90%19.40C
2017-08-08 11:59:030.00m/s71.10%19.40C
2017-08-08 12:05:020.00m/s71.80%19.40C
2017-08-08 12:09:030.00m/s72.30%19.40C
2017-08-08 12:12:030.00m/s73.00%19.50C
2017-08-08 12:36:030.00m/s73.80%19.60C
2017-08-08 12:38:020.00m/s73.60%19.70C
2017-08-08 12:39:030.00m/s73.60%19.70C
2017-08-08 12:45:030.00m/s73.50%19.70C
2017-08-08 12:48:030.00m/s73.50%19.70C
2017-08-08 13:05:020.00m/s72.90%19.80C
2017-08-08 13:06:020.00m/s73.20%19.80C
2017-08-08 13:21:030.00m/s72.80%19.90C
2017-08-08 13:36:030.00m/s72.80%19.90C
2017-08-08 13:37:030.00m/s72.60%19.90C
2017-08-08 13:49:030.00m/s72.30%19.90C
2017-08-08 14:02:030.00m/s72.80%19.90C
2017-08-08 14:03:030.00m/s72.60%19.90C
2017-08-08 14:14:030.00m/s72.80%19.90C
2017-08-08 14:17:030.00m/s72.90%19.90C
2017-08-08 13:48:030.00m/s72.70%20.00C
2017-08-08 14:18:020.00m/s72.80%20.00C
2017-08-08 14:01:020.00m/s73.00%20.00C
2017-08-08 14:23:020.00m/s72.80%19.90C
2017-08-08 14:27:030.00m/s72.80%19.90C
2017-08-08 14:28:030.00m/s73.20%19.90C
2017-08-08 14:36:020.00m/s74.20%19.90C
2017-08-08 15:19:020.00m/s75.70%19.80C
2017-08-08 15:06:030.00m/s74.80%19.80C
2017-08-08 15:07:030.00m/s75.00%19.80C
2017-08-08 15:15:030.00m/s75.00%19.70C
2017-08-08 15:20:030.00m/s75.70%19.70C
2017-08-08 15:45:030.06m/s76.50%19.60C
2017-08-08 16:02:030.06m/s76.40%19.50C
2017-08-08 15:41:030.00m/s76.30%19.60C
2017-08-08 15:48:020.00m/s75.80%19.60C
2017-08-08 16:09:020.00m/s76.80%19.50C
2017-08-08 16:13:030.00m/s77.10%19.40C
2017-08-08 16:18:030.00m/s76.70%19.40C
2017-08-08 15:50:030.00m/s76.00%19.60C
2017-08-08 16:12:030.00m/s77.00%19.40C
2017-08-08 16:19:030.00m/s76.70%19.40C
2017-08-08 16:28:030.00m/s76.70%19.40C
2017-08-08 16:39:030.00m/s77.10%19.40C
2017-08-08 16:41:030.00m/s77.60%19.30C
2017-08-08 16:56:030.00m/s77.70%19.30C
2017-08-08 17:22:030.00m/s79.30%19.10C
2017-08-08 17:35:030.00m/s82.70%19.10C
2017-08-08 17:02:030.00m/s78.00%19.20C
2017-08-08 17:06:030.00m/s78.00%19.20C
2017-08-08 18:00:033.21m/s84.00%18.90C
2017-08-08 17:40:030.00m/s82.50%19.10C
2017-08-08 17:58:031.64m/s83.90%19.00C
2017-08-08 18:14:030.00m/s82.20%18.80C
2017-08-08 17:39:030.00m/s83.20%19.00C
2017-08-08 17:41:030.00m/s83.30%19.00C
2017-08-08 17:50:030.00m/s84.10%19.00C
2017-08-08 17:53:030.00m/s83.70%19.00C
2017-08-08 17:57:020.00m/s84.10%19.00C
2017-08-08 18:37:030.85m/s81.20%18.60C
2017-08-08 18:27:021.64m/s81.20%18.70C
2017-08-08 18:52:020.00m/s80.90%18.50C
2017-08-08 19:03:030.00m/s81.10%18.50C
2017-08-08 19:06:030.00m/s81.10%18.50C
2017-08-08 18:16:030.00m/s82.00%18.80C
2017-08-08 18:21:030.00m/s81.70%18.70C
2017-08-08 18:25:030.00m/s80.70%18.70C
2017-08-08 18:26:030.00m/s81.00%18.70C
2017-08-08 19:12:030.00m/s81.40%18.50C
2017-08-08 19:16:030.00m/s81.20%18.40C
2017-08-08 19:22:020.00m/s81.70%18.50C
2017-08-08 19:24:030.00m/s81.70%18.40C
2017-08-08 19:29:030.00m/s81.50%18.40C
2017-08-08 19:40:030.00m/s81.20%18.50C
2017-08-08 19:25:020.06m/s81.50%18.50C
2017-08-08 19:34:030.00m/s81.00%18.40C
2017-08-08 19:46:020.00m/s81.00%18.40C
2017-08-08 19:49:030.06m/s81.30%18.40C
2017-08-08 19:58:020.00m/s81.30%18.40C
2017-08-08 20:03:030.00m/s80.90%18.40C
2017-08-08 20:10:030.00m/s81.20%18.40C
2017-08-08 19:57:030.00m/s81.00%18.50C
2017-08-08 20:01:020.00m/s81.00%18.40C
2017-08-08 20:08:030.00m/s81.40%18.40C
2017-08-08 20:09:030.00m/s81.40%18.40C
2017-08-08 20:11:030.00m/s81.40%18.40C
2017-08-08 20:16:020.00m/s81.60%18.40C
2017-08-08 20:23:031.64m/s81.90%18.30C
2017-08-08 20:31:030.00m/s81.70%18.30C
2017-08-08 20:42:030.00m/s82.10%18.30C
2017-08-08 20:15:030.85m/s81.40%18.40C
2017-08-08 20:39:030.00m/s82.00%18.30C
2017-08-08 20:40:030.00m/s82.00%18.30C
2017-08-08 20:41:030.00m/s82.00%18.30C
2017-08-08 20:43:030.00m/s82.30%18.30C
2017-08-08 21:15:030.00m/s81.90%18.10C
2017-08-08 21:23:030.00m/s82.30%18.10C
2017-08-08 21:33:030.00m/s82.40%18.10C
2017-08-08 20:46:030.00m/s82.00%18.30C
2017-08-08 21:01:030.00m/s82.00%18.20C
2017-08-08 21:05:030.00m/s82.00%18.20C
2017-08-08 21:11:020.00m/s82.20%18.20C
2017-08-08 21:12:020.00m/s82.20%18.20C
2017-08-08 21:36:030.00m/s82.20%18.00C
2017-08-08 21:48:030.00m/s82.30%17.90C
2017-08-08 21:55:030.00m/s82.30%17.90C
2017-08-08 22:07:030.00m/s82.10%17.80C
2017-08-08 22:09:030.00m/s82.10%17.80C
2017-08-08 22:10:030.00m/s82.30%17.70C
2017-08-08 22:20:030.00m/s82.50%17.70C
2017-08-08 21:57:030.00m/s82.20%17.80C
2017-08-08 21:41:030.00m/s82.30%18.00C
2017-08-08 22:19:030.00m/s82.00%17.70C
2017-08-08 22:22:030.00m/s82.40%17.60C
2017-08-08 22:25:030.00m/s82.20%17.60C
2017-08-08 22:27:030.00m/s82.50%17.70C
2017-08-08 22:28:030.00m/s82.20%17.60C
2017-08-08 22:45:030.00m/s82.30%17.50C
2017-08-08 22:47:030.00m/s82.30%17.50C
2017-08-08 22:49:030.00m/s82.40%17.50C
2017-08-08 22:55:030.00m/s82.60%17.40C
2017-08-08 22:57:030.00m/s82.40%17.40C
2017-08-08 23:55:033.21m/s83.50%17.20C
2017-08-08 23:03:030.00m/s82.60%17.40C
2017-08-08 23:11:020.00m/s82.70%17.40C
2017-08-08 23:20:030.00m/s83.10%17.30C
2017-08-08 23:24:030.00m/s83.20%17.30C
2017-08-08 23:50:030.00m/s83.50%17.20C
2017-08-08 23:51:030.00m/s83.70%17.20C
2017-08-08 23:52:030.00m/s83.70%17.20C
2017-08-08 23:31:030.00m/s83.00%17.30C
2017-08-09 00:13:030.00m/s83.30%17.20C
2017-08-09 00:14:030.00m/s83.30%17.20C
2017-08-09 00:37:030.00m/s83.20%17.10C
2017-08-09 00:48:030.00m/s82.90%17.10C
2017-08-09 00:50:030.00m/s82.80%17.10C
2017-08-09 00:54:030.00m/s82.70%17.10C
2017-08-09 00:55:030.00m/s82.70%17.10C
2017-08-09 00:21:030.00m/s83.10%17.10C
2017-08-09 00:59:030.00m/s82.60%17.00C
2017-08-09 01:21:020.85m/s82.80%17.00C
2017-08-09 01:43:030.00m/s82.50%16.90C
2017-08-09 01:04:020.00m/s82.60%17.00C
2017-08-09 01:06:030.00m/s82.70%17.00C
2017-08-09 01:20:030.00m/s82.90%17.00C
2017-08-09 01:28:030.00m/s82.70%17.00C
2017-08-09 01:36:030.00m/s82.40%17.00C
2017-08-09 01:38:030.00m/s82.80%17.00C
2017-08-09 01:42:030.00m/s82.50%17.00C
2017-08-09 01:49:030.00m/s82.40%16.90C
2017-08-09 01:54:030.00m/s82.50%16.90C
2017-08-09 02:06:030.00m/s82.60%16.90C
2017-08-09 02:15:030.00m/s82.20%16.90C
2017-08-09 02:27:030.00m/s82.40%16.80C
2017-08-09 02:29:030.00m/s82.50%16.80C
2017-08-09 02:39:030.00m/s82.50%16.80C
2017-08-09 02:40:031.64m/s82.70%16.80C
2017-08-09 02:44:030.00m/s82.30%16.80C
2017-08-09 03:09:034.78m/s82.80%16.70C
2017-08-09 03:59:036.35m/s84.00%16.50C
2017-08-09 03:18:030.85m/s83.00%16.60C
2017-08-09 03:40:030.06m/s83.70%16.60C
2017-08-09 03:48:020.00m/s83.90%16.60C
2017-08-09 04:00:030.00m/s84.10%16.50C
2017-08-09 04:02:030.00m/s84.10%16.50C
2017-08-09 03:03:030.00m/s82.70%16.70C
2017-08-09 03:04:030.00m/s82.70%16.70C
2017-08-09 04:15:020.00m/s84.30%16.50C
2017-08-09 04:18:030.00m/s84.30%16.50C
2017-08-09 04:20:020.00m/s84.20%16.50C
2017-08-09 04:21:020.00m/s84.40%16.50C
2017-08-09 04:32:030.00m/s84.40%16.50C
2017-08-09 04:39:030.00m/s84.60%16.50C
2017-08-09 04:43:030.00m/s84.80%16.50C
2017-08-09 04:49:030.00m/s84.80%16.40C
2017-08-09 04:52:030.00m/s85.00%16.50C
2017-08-09 04:55:0311.86m/s85.00%16.50C
2017-08-09 05:15:030.00m/s85.50%16.40C
2017-08-09 05:17:030.00m/s85.80%16.40C
2017-08-09 05:22:030.00m/s85.80%16.40C
2017-08-09 05:30:030.00m/s85.90%16.40C
2017-08-09 05:35:030.00m/s86.20%16.40C
2017-08-09 05:40:030.00m/s86.50%16.40C
2017-08-09 04:59:030.00m/s85.00%16.50C
2017-08-09 05:07:030.00m/s85.50%16.50C
2017-08-09 07:57:034.78m/s87.60%16.20C
2017-08-09 05:56:030.85m/s86.50%16.40C
2017-08-09 06:01:030.06m/s86.50%16.40C
2017-08-09 06:25:030.06m/s86.40%16.30C
2017-08-09 07:53:030.85m/s87.30%16.20C
2017-08-09 07:58:020.85m/s87.60%16.20C
2017-08-09 06:08:021.64m/s86.60%16.30C
2017-08-09 05:48:020.85m/s86.40%16.40C
2017-08-09 08:05:030.00m/s87.00%16.20C
2017-08-09 08:22:033.21m/s86.60%16.20C
2017-08-09 08:36:033.21m/s86.10%16.30C
2017-08-09 08:46:032.42m/s86.00%16.30C
2017-08-09 08:48:037.93m/s86.10%16.30C
2017-08-09 08:52:032.42m/s86.10%16.40C
2017-08-09 08:51:030.06m/s86.00%16.30C
2017-08-09 08:11:030.00m/s86.90%16.20C
2017-08-09 08:37:030.00m/s86.10%16.30C
2017-08-09 08:39:030.00m/s86.00%16.20C
2017-08-09 08:57:034.78m/s85.80%16.40C
2017-08-09 09:23:034.78m/s84.80%16.60C
2017-08-09 09:24:033.21m/s84.80%16.60C
2017-08-09 08:54:038.71m/s86.00%16.40C
2017-08-09 09:30:034.00m/s84.40%16.70C
2017-08-09 09:00:030.85m/s85.60%16.40C
2017-08-09 09:07:020.85m/s85.20%16.40C
2017-08-09 09:21:030.85m/s85.00%16.60C
2017-08-09 09:03:030.85m/s85.40%16.40C
2017-08-09 10:05:0311.07m/s82.60%17.10C
2017-08-09 09:51:032.42m/s83.80%16.70C
2017-08-09 10:06:034.78m/s82.50%17.10C
2017-08-09 10:08:036.35m/s82.30%17.10C
2017-08-09 10:22:030.85m/s81.20%17.30C
2017-08-09 09:39:030.00m/s83.60%16.80C
2017-08-09 09:53:030.00m/s83.70%16.80C
2017-08-09 09:58:030.00m/s83.10%16.90C
2017-08-09 10:25:030.00m/s81.10%17.40C
2017-08-09 10:58:0312.65m/s78.20%18.00C
2017-08-09 10:33:032.42m/s80.80%17.50C
2017-08-09 10:34:023.21m/s80.90%17.60C
2017-08-09 11:07:037.14m/s77.10%18.30C
2017-08-09 10:59:033.21m/s78.10%18.10C
2017-08-09 10:56:030.85m/s78.90%18.00C
2017-08-09 11:02:090.85m/s77.80%18.10C
2017-08-09 10:30:031.64m/s81.10%17.50C
2017-08-09 10:52:030.00m/s78.90%17.90C
2017-08-09 11:35:0317.36m/s71.40%19.50C
2017-08-09 11:26:0310.29m/s74.10%19.10C
2017-08-09 11:18:038.71m/s75.40%18.80C
2017-08-09 11:37:023.21m/s72.00%19.60C
2017-08-09 11:17:020.06m/s75.30%18.70C
2017-08-09 11:16:030.00m/s75.30%18.70C
2017-08-09 11:31:030.00m/s72.50%19.40C
2017-08-09 11:34:030.00m/s71.30%19.40C
2017-08-09 11:39:030.00m/s71.90%19.70C
2017-08-09 12:21:0316.58m/s65.40%21.30C
2017-08-09 12:24:0314.22m/s64.50%21.40C
2017-08-09 11:51:032.42m/s70.50%20.10C
2017-08-09 12:31:036.35m/s63.80%21.60C
2017-08-09 12:33:032.42m/s63.60%21.70C
2017-08-09 12:07:030.85m/s67.50%20.70C
2017-08-09 12:13:030.06m/s66.80%21.00C
2017-08-09 11:42:030.00m/s72.10%19.80C
2017-08-09 12:44:020.85m/s62.10%22.10C
2017-08-09 13:04:036.35m/s59.80%22.70C
2017-08-09 12:46:036.35m/s62.30%22.20C
2017-08-09 12:57:039.50m/s61.70%22.60C
2017-08-09 12:52:039.50m/s61.50%22.40C
2017-08-09 13:05:034.00m/s60.00%22.70C
2017-08-09 13:06:032.42m/s59.70%22.70C
2017-08-09 12:51:020.00m/s61.50%22.40C
2017-08-09 13:02:020.00m/s59.90%22.70C
2017-08-09 12:45:030.06m/s62.10%22.10C
2017-08-09 13:16:0211.07m/s59.20%23.00C
2017-08-09 13:17:033.21m/s59.20%23.00C
2017-08-09 13:28:037.93m/s57.10%23.50C
2017-08-09 13:30:030.85m/s56.60%23.50C
2017-08-09 13:37:020.06m/s56.70%23.80C
2017-08-09 13:22:020.00m/s59.40%23.20C
2017-08-09 13:23:030.00m/s58.40%23.20C
2017-08-09 13:29:031.64m/s57.50%23.50C
2017-08-09 13:15:030.00m/s58.90%22.90C
2017-08-09 13:52:024.78m/s54.50%24.40C
2017-08-09 14:22:023.21m/s51.10%25.30C
2017-08-09 14:02:035.57m/s53.50%24.70C
2017-08-09 13:57:034.00m/s54.00%24.50C
2017-08-09 14:11:030.85m/s52.70%25.00C
2017-08-09 14:18:020.85m/s51.10%25.30C
2017-08-09 14:24:031.64m/s50.90%25.40C
2017-08-09 14:25:020.00m/s50.10%25.40C
2017-08-09 14:26:020.00m/s50.70%25.40C
2017-08-09 14:40:0313.43m/s49.30%25.90C
2017-08-09 14:29:036.35m/s50.20%25.60C
2017-08-09 14:42:033.21m/s48.10%25.90C
2017-08-09 15:00:033.21m/s48.40%26.30C
2017-08-09 14:28:030.06m/s50.30%25.50C
2017-08-09 14:48:020.06m/s48.40%26.00C
2017-08-09 14:52:030.85m/s48.80%26.10C
2017-08-09 14:51:030.00m/s48.20%26.10C
2017-08-09 15:02:030.00m/s48.70%26.30C
2017-08-09 15:04:037.93m/s47.90%26.30C
2017-08-09 15:41:035.57m/s46.60%26.10C
2017-08-09 15:22:034.78m/s46.30%26.20C
2017-08-09 15:05:021.64m/s47.70%26.30C
2017-08-09 15:29:031.64m/s47.70%26.10C
2017-08-09 15:24:030.00m/s47.90%26.10C
2017-08-09 15:39:030.00m/s45.80%26.20C
2017-08-09 16:08:020.00m/s46.60%26.30C
2017-08-09 15:16:030.00m/s48.30%26.30C
2017-08-09 16:52:033.21m/s46.40%26.40C
2017-08-09 17:06:030.06m/s45.00%26.10C
2017-08-09 16:09:030.00m/s46.40%26.30C
2017-08-09 16:29:030.00m/s46.10%26.40C
2017-08-09 16:37:020.00m/s45.60%26.40C
2017-08-09 16:39:030.00m/s45.90%26.40C
2017-08-09 16:59:020.00m/s45.80%26.20C
2017-08-09 17:04:030.00m/s45.10%26.20C
2017-08-09 16:24:030.00m/s46.40%26.40C
2017-08-09 17:11:033.21m/s45.70%26.20C
2017-08-09 17:12:033.21m/s45.70%26.20C
2017-08-09 17:26:035.57m/s45.70%26.10C
2017-08-09 17:43:036.35m/s45.40%26.10C
2017-08-09 17:32:034.78m/s45.50%26.10C
2017-08-09 17:42:039.50m/s45.60%26.10C
2017-08-09 17:28:030.85m/s46.20%26.10C
2017-08-09 17:17:020.00m/s45.50%26.20C
2017-08-09 17:33:030.00m/s45.00%26.10C
2017-08-09 17:44:035.57m/s45.00%26.10C
2017-08-09 17:47:030.06m/s43.70%26.00C
2017-08-09 17:48:030.06m/s44.50%25.90C
2017-08-09 17:52:031.64m/s43.80%25.90C
2017-08-09 17:56:020.00m/s44.50%25.90C
2017-08-09 18:06:030.00m/s44.80%25.90C
2017-08-09 17:58:030.00m/s44.00%25.90C
2017-08-09 17:59:020.00m/s44.00%25.90C
2017-08-09 18:07:030.00m/s44.00%25.90C
2017-08-09 18:30:032.42m/s44.70%25.70C
2017-08-09 18:19:034.00m/s44.80%25.80C
2017-08-09 18:22:020.06m/s44.70%25.80C
2017-08-09 18:33:031.64m/s44.40%25.60C
2017-08-09 18:32:030.00m/s44.10%25.70C
2017-08-09 18:34:020.00m/s44.40%25.60C
2017-08-09 18:21:030.85m/s44.80%25.80C
2017-08-09 18:11:030.00m/s44.90%25.90C
2017-08-09 18:29:030.00m/s44.00%25.70C
2017-08-09 18:53:024.78m/s44.20%25.40C
2017-08-09 19:13:030.06m/s44.40%25.20C
2017-08-09 18:38:020.00m/s44.70%25.60C
2017-08-09 19:14:030.00m/s44.40%25.20C
2017-08-09 19:19:020.00m/s44.40%25.20C
2017-08-09 19:28:030.00m/s44.60%25.10C
2017-08-09 19:33:030.00m/s45.40%25.10C
2017-08-09 19:38:030.00m/s45.40%25.10C
2017-08-09 18:35:030.00m/s44.60%25.60C
2017-08-09 19:53:020.00m/s46.20%24.90C
2017-08-09 19:54:030.00m/s46.10%24.90C
2017-08-09 19:56:030.00m/s46.40%24.90C
2017-08-09 20:00:030.00m/s46.80%24.90C
2017-08-09 19:40:020.00m/s45.20%25.00C
2017-08-09 19:41:030.00m/s45.40%25.00C
2017-08-09 19:43:030.00m/s45.50%25.00C
2017-08-09 19:45:030.00m/s45.80%25.00C
2017-08-09 20:04:030.00m/s47.00%24.80C
2017-08-09 20:08:020.06m/s44.40%24.50C
2017-08-09 20:05:030.00m/s47.40%24.80C
2017-08-09 20:20:030.00m/s47.30%24.40C
2017-08-09 20:35:030.00m/s48.30%24.20C
2017-08-09 20:38:030.00m/s48.80%24.20C
2017-08-09 20:47:030.00m/s49.50%24.10C
2017-08-09 21:04:030.00m/s50.90%23.70C
2017-08-09 20:23:020.06m/s47.50%24.50C
2017-08-09 20:17:030.00m/s47.00%24.50C
2017-08-09 21:37:030.06m/s54.50%23.00C
2017-08-09 21:15:030.00m/s52.20%23.50C
2017-08-09 21:16:020.00m/s52.20%23.50C
2017-08-09 21:24:030.00m/s53.60%23.30C
2017-08-09 21:40:030.00m/s54.70%22.90C
2017-08-09 21:27:030.00m/s54.00%23.20C
2017-08-09 21:28:030.00m/s54.00%23.20C
2017-08-09 21:29:030.00m/s54.00%23.10C
2017-08-09 21:35:030.00m/s54.30%23.00C
2017-08-09 21:44:020.00m/s55.30%22.90C
2017-08-09 21:56:030.00m/s55.30%22.60C
2017-08-09 21:58:030.00m/s55.70%22.60C
2017-08-09 21:59:030.00m/s56.10%22.60C
2017-08-09 22:00:020.00m/s56.10%22.50C
2017-08-09 22:02:030.00m/s56.40%22.50C
2017-08-09 22:07:030.00m/s56.60%22.40C
2017-08-09 22:24:030.00m/s57.60%22.10C
2017-08-09 21:57:030.00m/s55.60%22.60C
2017-08-09 22:25:020.00m/s57.60%22.10C
2017-08-09 22:44:020.00m/s58.60%21.90C
2017-08-09 22:45:030.00m/s58.60%21.80C
2017-08-09 22:47:030.00m/s58.90%21.80C
2017-08-09 22:49:030.00m/s58.90%21.80C
2017-08-09 22:51:020.00m/s59.10%21.70C
2017-08-09 22:53:030.00m/s59.20%21.70C
2017-08-09 22:59:030.00m/s59.50%21.60C
2017-08-09 23:00:030.00m/s59.40%21.60C
2017-08-09 23:06:030.00m/s59.90%21.50C
2017-08-09 23:09:030.00m/s59.80%21.40C
2017-08-09 23:17:030.00m/s60.40%21.30C
2017-08-09 23:33:030.00m/s60.90%21.10C
2017-08-10 00:04:030.00m/s62.40%20.70C
2017-08-09 23:03:030.00m/s59.60%21.60C
2017-08-09 23:37:030.00m/s61.00%21.10C
2017-08-10 00:00:030.00m/s62.00%20.80C
2017-08-09 23:39:030.00m/s61.10%21.10C
2017-08-10 00:06:020.00m/s62.60%20.70C
2017-08-10 00:15:030.00m/s63.30%20.60C
2017-08-10 00:23:030.00m/s63.70%20.50C
2017-08-10 00:39:030.00m/s64.50%20.30C
2017-08-10 00:43:030.00m/s64.50%20.30C
2017-08-10 00:45:030.00m/s64.40%20.30C
2017-08-10 00:10:030.00m/s63.00%20.60C
2017-08-10 00:29:030.00m/s64.00%20.50C
2017-08-10 00:34:030.00m/s64.00%20.40C
2017-08-10 00:47:030.00m/s64.80%20.30C
2017-08-10 01:00:030.00m/s65.20%20.10C
2017-08-10 01:04:030.00m/s65.50%20.10C
2017-08-10 01:05:030.00m/s65.70%20.10C
2017-08-10 01:06:030.00m/s65.90%20.10C
2017-08-10 01:07:030.00m/s65.90%20.10C
2017-08-10 01:29:030.00m/s65.80%19.90C
2017-08-10 00:57:020.00m/s65.20%20.20C
2017-08-10 01:16:030.00m/s65.80%20.00C
2017-08-10 01:30:030.00m/s65.80%19.90C
2017-08-10 02:36:020.00m/s67.30%19.10C
2017-08-10 02:53:030.00m/s67.80%18.90C
2017-08-10 03:12:030.00m/s67.90%18.70C
2017-08-10 03:21:020.00m/s67.90%18.70C
2017-08-10 03:24:030.00m/s67.80%18.60C
2017-08-10 03:04:020.00m/s67.80%18.80C
2017-08-10 03:18:030.00m/s68.00%18.70C
2017-08-10 03:23:020.00m/s67.60%18.60C
2017-08-10 03:31:020.00m/s67.90%18.50C
2017-08-10 03:36:030.00m/s68.10%18.40C
2017-08-10 03:47:030.00m/s68.70%18.30C
2017-08-10 03:50:030.00m/s68.60%18.30C
2017-08-10 04:00:020.00m/s68.80%18.20C
2017-08-10 04:05:030.00m/s68.80%18.20C
2017-08-10 04:11:030.00m/s69.00%18.10C
2017-08-10 04:21:030.00m/s69.30%18.00C
2017-08-10 04:22:020.00m/s69.40%18.00C
2017-08-10 04:33:020.00m/s69.60%17.90C
2017-08-10 04:36:020.00m/s69.70%17.90C
2017-08-10 04:44:030.00m/s70.10%17.80C
2017-08-10 04:53:030.00m/s70.30%17.80C
2017-08-10 04:56:030.00m/s70.30%17.80C
2017-08-10 05:02:030.00m/s70.30%17.80C
2017-08-10 05:08:030.00m/s70.40%17.70C
2017-08-10 04:41:030.00m/s70.00%17.90C
2017-08-10 04:43:040.00m/s70.00%17.80C
2017-08-10 05:13:030.85m/s70.70%17.60C
2017-08-10 05:09:030.00m/s70.30%17.70C
2017-08-10 05:12:030.00m/s70.80%17.70C
2017-08-10 05:19:030.00m/s70.90%17.60C
2017-08-10 05:33:030.00m/s71.10%17.60C
2017-08-10 05:35:020.00m/s71.10%17.60C
2017-08-10 05:15:030.00m/s71.00%17.70C
2017-08-10 05:22:030.00m/s71.00%17.60C
2017-08-10 05:30:030.00m/s71.00%17.60C
2017-08-10 05:59:030.06m/s71.70%17.40C
2017-08-10 05:36:020.00m/s71.10%17.60C
2017-08-10 05:42:030.00m/s71.30%17.60C
2017-08-10 05:45:030.00m/s71.40%17.60C
2017-08-10 06:03:030.00m/s71.70%17.50C
2017-08-10 06:04:020.00m/s71.60%17.40C
2017-08-10 06:06:020.00m/s71.90%17.40C
2017-08-10 06:10:030.00m/s71.80%17.40C
2017-08-10 05:51:020.00m/s71.50%17.50C
2017-08-10 06:11:035.57m/s72.00%17.40C
2017-08-10 06:53:030.06m/s72.70%17.20C
2017-08-10 06:21:030.00m/s71.90%17.30C
2017-08-10 06:30:030.00m/s72.10%17.30C
2017-08-10 06:43:020.00m/s72.70%17.30C
2017-08-10 06:54:020.00m/s72.50%17.20C
2017-08-10 06:56:030.00m/s72.70%17.30C
2017-08-10 06:35:030.00m/s72.30%17.30C
2017-08-10 06:37:030.00m/s72.30%17.30C
2017-08-10 07:01:030.00m/s72.70%17.20C
2017-08-10 07:04:030.00m/s72.50%17.20C
2017-08-10 07:14:030.00m/s72.80%17.20C
2017-08-10 07:17:020.00m/s72.90%17.20C
2017-08-10 07:35:030.00m/s73.20%17.10C
2017-08-10 07:42:030.00m/s73.20%17.10C
2017-08-10 07:29:030.00m/s73.00%17.10C
2017-08-10 07:31:030.00m/s73.10%17.10C
2017-08-10 07:38:030.00m/s73.10%17.10C
2017-08-10 07:48:030.00m/s73.40%17.10C
2017-08-10 07:53:030.00m/s73.40%17.10C
2017-08-10 07:55:030.00m/s73.30%17.10C
2017-08-10 08:00:020.00m/s73.50%17.10C
2017-08-10 08:01:030.00m/s73.50%17.10C
2017-08-10 08:02:030.00m/s73.40%17.10C
2017-08-10 08:05:030.00m/s73.50%17.10C
2017-08-10 08:09:030.00m/s73.50%17.10C
2017-08-10 08:17:030.00m/s73.80%17.10C
2017-08-10 08:23:030.00m/s73.80%17.10C
2017-08-10 08:28:030.00m/s73.80%17.10C
2017-08-10 08:47:020.00m/s73.90%17.10C
2017-08-10 08:51:030.00m/s74.20%17.10C
2017-08-10 08:53:030.00m/s74.20%17.10C
2017-08-10 08:59:020.00m/s74.40%17.20C
2017-08-10 08:33:030.00m/s74.00%17.10C
2017-08-10 08:42:030.00m/s74.10%17.10C
2017-08-10 08:49:030.00m/s74.10%17.10C
2017-08-10 09:00:030.00m/s74.40%17.20C
2017-08-10 09:06:020.00m/s74.10%17.20C
2017-08-10 09:14:030.00m/s74.20%17.30C
2017-08-10 09:33:030.00m/s74.20%17.40C
2017-08-10 09:09:030.00m/s74.20%17.20C
2017-08-10 09:22:030.00m/s74.30%17.30C
2017-08-10 09:42:030.00m/s74.50%17.50C
2017-08-10 09:45:030.00m/s74.50%17.50C
2017-08-10 09:48:030.00m/s74.50%17.50C
2017-08-10 09:54:030.00m/s74.40%17.60C
2017-08-10 10:01:030.00m/s76.50%17.70C
2017-08-10 10:02:030.00m/s75.10%17.70C
2017-08-10 10:11:030.00m/s77.50%17.70C
2017-08-10 10:15:030.00m/s76.90%17.80C
2017-08-10 10:17:030.00m/s76.80%17.90C
2017-08-10 09:49:030.00m/s74.60%17.60C
2017-08-10 10:00:040.00m/s74.70%17.70C
2017-08-10 10:06:030.00m/s77.00%17.70C
2017-08-10 10:19:030.00m/s76.80%17.90C
2017-08-10 10:21:030.00m/s76.80%17.90C
2017-08-10 10:22:030.00m/s76.70%17.90C
2017-08-10 10:36:030.00m/s75.70%18.20C
2017-08-10 10:41:030.00m/s75.60%18.30C
2017-08-10 10:46:030.00m/s75.50%18.30C
2017-08-10 10:55:030.00m/s74.80%18.50C
2017-08-10 11:01:030.00m/s74.60%18.60C
2017-08-10 11:04:030.00m/s74.60%18.60C
2017-08-10 11:14:020.06m/s74.20%18.70C
2017-08-10 11:07:030.00m/s74.50%18.60C
2017-08-10 11:24:030.00m/s74.10%18.80C
2017-08-10 11:38:030.00m/s73.80%18.90C
2017-08-10 11:40:030.00m/s73.70%18.90C
2017-08-10 11:26:020.00m/s74.00%18.80C
2017-08-10 11:47:030.00m/s73.80%19.00C
2017-08-10 11:48:030.00m/s73.80%19.00C
2017-08-10 11:59:030.00m/s73.60%19.00C
2017-08-10 12:19:020.06m/s73.40%19.10C
2017-08-10 12:30:030.06m/s73.40%19.10C
2017-08-10 12:17:030.00m/s73.40%19.10C
2017-08-10 12:29:030.00m/s73.40%19.10C
2017-08-10 12:00:030.00m/s73.70%19.00C
2017-08-10 12:03:020.00m/s73.80%19.00C
2017-08-10 12:07:020.00m/s73.60%19.00C
2017-08-10 12:13:030.00m/s73.40%19.00C
2017-08-10 12:16:020.00m/s73.30%19.00C
2017-08-10 12:37:030.00m/s73.20%19.10C
2017-08-10 12:38:030.00m/s73.20%19.10C
2017-08-10 12:41:030.00m/s73.40%19.10C
2017-08-10 12:42:020.00m/s73.40%19.10C
2017-08-10 12:59:031.64m/s73.00%19.10C
2017-08-10 13:08:030.00m/s73.20%19.10C
2017-08-10 12:53:030.00m/s73.10%19.10C
2017-08-10 12:55:030.00m/s73.10%19.10C
2017-08-10 13:01:020.00m/s73.00%19.10C
2017-08-10 13:24:035.57m/s73.40%19.20C
2017-08-10 14:10:030.06m/s73.70%19.20C
2017-08-10 13:11:030.00m/s73.20%19.10C
2017-08-10 13:22:020.00m/s73.40%19.20C
2017-08-10 13:26:030.00m/s73.50%19.20C
2017-08-10 13:40:030.00m/s73.50%19.20C
2017-08-10 13:53:030.00m/s73.50%19.20C
2017-08-10 14:05:030.00m/s73.60%19.20C
2017-08-10 14:07:030.00m/s73.60%19.20C
2017-08-10 14:13:030.00m/s73.70%19.20C
2017-08-10 14:19:030.00m/s73.60%19.20C
2017-08-10 14:20:020.00m/s73.50%19.20C
2017-08-10 14:26:030.00m/s73.40%19.20C
2017-08-10 14:27:030.00m/s73.60%19.20C
2017-08-10 14:32:030.00m/s73.80%19.30C
2017-08-10 14:35:030.00m/s73.70%19.30C
2017-08-10 14:38:020.00m/s73.70%19.30C
2017-08-10 14:41:030.00m/s73.60%19.30C
2017-08-10 14:49:020.00m/s73.70%19.30C
2017-08-10 14:59:030.00m/s73.70%19.30C
2017-08-10 15:02:030.00m/s73.80%19.30C
2017-08-10 15:07:030.00m/s74.30%19.40C
2017-08-10 15:10:020.00m/s74.30%19.40C
2017-08-10 15:16:020.00m/s74.10%19.40C
2017-08-10 15:23:020.00m/s74.20%19.40C
2017-08-10 15:27:030.00m/s74.20%19.40C
2017-08-10 15:15:030.00m/s74.00%19.30C
2017-08-10 16:16:030.06m/s75.00%19.50C
2017-08-10 15:32:030.00m/s74.30%19.40C
2017-08-10 15:35:030.00m/s74.30%19.40C
2017-08-10 15:44:020.00m/s74.70%19.40C
2017-08-10 16:11:020.00m/s75.30%19.50C
2017-08-10 16:14:020.00m/s75.10%19.50C
2017-08-10 15:30:030.00m/s74.40%19.40C
2017-08-10 16:02:030.00m/s75.50%19.50C
2017-08-10 16:21:030.00m/s75.00%19.60C
2017-08-10 16:23:020.00m/s75.20%19.60C
2017-08-10 16:24:030.00m/s75.10%19.60C
2017-08-10 16:27:030.00m/s74.90%19.50C
2017-08-10 16:37:030.00m/s75.10%19.60C
2017-08-10 16:39:030.00m/s74.90%19.60C
2017-08-10 16:42:020.00m/s75.20%19.60C
2017-08-10 16:43:020.00m/s75.20%19.60C
2017-08-10 16:22:020.00m/s75.00%19.50C
2017-08-10 16:30:030.00m/s75.00%19.60C
2017-08-10 16:58:030.00m/s75.10%19.70C
2017-08-10 17:07:030.00m/s74.90%19.70C
2017-08-10 17:08:030.00m/s75.10%19.70C
2017-08-10 17:21:030.00m/s74.50%19.70C
2017-08-10 17:23:030.00m/s74.50%19.70C
2017-08-10 17:24:030.00m/s74.50%19.70C
2017-08-10 17:32:020.00m/s74.90%19.80C
2017-08-10 17:36:030.00m/s75.20%19.80C
2017-08-10 17:30:030.00m/s74.80%19.80C
2017-08-10 17:40:030.06m/s75.00%19.80C
2017-08-10 17:37:030.00m/s75.10%19.80C
2017-08-10 17:44:020.00m/s74.90%19.80C
2017-08-10 17:48:030.00m/s75.10%19.80C
2017-08-10 17:52:030.00m/s75.30%19.80C
2017-08-10 17:53:020.00m/s75.50%19.80C
2017-08-10 17:55:030.00m/s75.40%19.80C
2017-08-10 17:56:030.00m/s75.30%19.80C
2017-08-10 17:59:030.00m/s75.30%19.80C
2017-08-10 18:50:030.85m/s75.40%19.70C
2017-08-10 18:00:030.00m/s75.40%19.80C
2017-08-10 18:06:020.00m/s75.40%19.80C
2017-08-10 18:19:030.00m/s75.40%19.70C
2017-08-10 18:33:030.00m/s75.50%19.80C
2017-08-10 18:34:030.00m/s75.70%19.80C
2017-08-10 18:44:030.00m/s75.30%19.80C
2017-08-10 18:45:020.00m/s75.20%19.70C
2017-08-10 18:59:030.00m/s75.50%19.70C
2017-08-10 19:26:030.06m/s75.50%19.60C
2017-08-10 19:13:030.00m/s75.50%19.70C
2017-08-10 19:25:030.00m/s75.40%19.60C
2017-08-10 19:30:030.00m/s75.70%19.60C
2017-08-10 19:31:030.00m/s75.40%19.60C
2017-08-10 19:39:030.00m/s75.20%19.60C
2017-08-10 19:40:030.00m/s75.50%19.60C
2017-08-10 19:52:030.00m/s75.70%19.50C
2017-08-10 19:48:030.00m/s75.50%19.50C
2017-08-10 20:04:030.00m/s76.20%19.50C
2017-08-10 20:16:020.00m/s76.50%19.40C
2017-08-10 20:18:030.00m/s76.50%19.40C
2017-08-10 20:22:030.00m/s76.50%19.30C
2017-08-10 20:25:030.00m/s76.80%19.30C
2017-08-10 21:58:030.00m/s77.60%18.80C
2017-08-10 22:10:030.00m/s77.60%18.80C
2017-08-10 22:12:020.00m/s77.60%18.80C
2017-08-10 19:54:030.00m/s76.00%19.50C
2017-08-10 22:22:030.06m/s77.50%18.70C
2017-08-10 22:18:030.00m/s77.50%18.70C
2017-08-10 22:23:030.00m/s77.60%18.70C
2017-08-10 22:33:030.00m/s77.50%18.70C
2017-08-10 22:42:030.00m/s78.10%18.60C
2017-08-10 22:44:030.00m/s78.20%18.60C
2017-08-10 22:37:030.00m/s78.00%18.70C
2017-08-10 22:55:020.00m/s78.00%18.60C
2017-08-10 22:59:030.00m/s78.00%18.60C
2017-08-10 23:02:020.00m/s78.40%18.60C
2017-08-10 23:19:030.00m/s78.90%18.50C
2017-08-10 23:44:030.00m/s78.80%18.40C
2017-08-10 23:49:030.00m/s78.70%18.40C
2017-08-10 23:50:030.00m/s79.10%18.40C
2017-08-10 23:57:030.00m/s79.10%18.40C
2017-08-10 23:51:030.00m/s79.00%18.40C
2017-08-10 23:52:030.00m/s79.00%18.40C
2017-08-10 23:11:030.00m/s78.50%18.50C
2017-08-10 23:58:030.00m/s78.90%18.40C
2017-08-11 00:00:030.00m/s78.90%18.40C
2017-08-11 00:04:030.00m/s78.90%18.30C
2017-08-11 00:16:030.00m/s78.90%18.30C
2017-08-11 00:20:020.00m/s79.10%18.30C
2017-08-11 00:30:030.00m/s79.30%18.20C
2017-08-11 00:41:030.00m/s79.50%18.20C
2017-08-11 00:02:030.00m/s79.00%18.30C
2017-08-11 00:03:030.00m/s79.00%18.40C
2017-08-11 01:16:030.06m/s79.60%18.10C
2017-08-11 00:49:030.00m/s79.40%18.20C
2017-08-11 00:52:020.00m/s79.80%18.20C
2017-08-11 00:53:030.00m/s79.70%18.20C
2017-08-11 00:56:020.00m/s79.80%18.20C
2017-08-11 01:05:030.00m/s79.50%18.10C
2017-08-11 01:10:030.00m/s79.60%18.10C
2017-08-11 01:11:020.00m/s79.70%18.10C
2017-08-11 01:17:030.00m/s79.90%18.10C
2017-08-11 01:18:030.00m/s79.80%18.10C
2017-08-11 01:19:030.00m/s79.70%18.10C
2017-08-11 01:21:030.00m/s79.70%18.10C
2017-08-11 01:26:020.00m/s79.90%18.10C
2017-08-11 01:30:030.00m/s80.10%18.10C
2017-08-11 01:33:020.00m/s79.90%18.00C
2017-08-11 01:36:030.00m/s80.10%18.00C
2017-08-11 01:28:030.00m/s80.00%18.00C
2017-08-11 01:37:030.00m/s80.00%18.00C
2017-08-11 01:46:030.06m/s80.40%18.00C
2017-08-11 02:00:030.00m/s81.20%17.90C
2017-08-11 02:13:030.00m/s81.30%17.90C
2017-08-11 02:14:030.00m/s81.10%17.80C
2017-08-11 02:18:020.00m/s81.50%17.90C
2017-08-11 01:40:030.00m/s80.30%18.00C
2017-08-11 01:52:030.00m/s80.90%17.90C
2017-08-11 02:09:020.00m/s81.00%17.90C
2017-08-11 02:20:030.00m/s81.00%17.80C
2017-08-11 02:29:030.00m/s81.20%17.80C
2017-08-11 02:32:030.00m/s81.20%17.80C
2017-08-11 02:37:030.00m/s81.20%17.80C
2017-08-11 02:41:030.00m/s81.30%17.80C
2017-08-11 02:50:030.00m/s81.30%17.70C
2017-08-11 02:53:030.00m/s81.20%17.70C
2017-08-11 02:55:030.00m/s81.30%17.70C
2017-08-11 02:56:030.00m/s81.50%17.70C
2017-08-11 02:57:030.00m/s81.50%17.70C
2017-08-11 02:59:030.00m/s81.40%17.70C
2017-08-11 03:01:030.00m/s81.40%17.70C
2017-08-11 03:10:020.00m/s81.40%17.70C
2017-08-11 03:17:020.00m/s81.50%17.60C
2017-08-11 03:28:030.00m/s81.80%17.60C
2017-08-11 03:38:030.00m/s81.80%17.60C
2017-08-11 03:18:030.00m/s81.60%17.60C
2017-08-11 03:29:030.00m/s81.60%17.60C
2017-08-11 03:36:030.00m/s82.00%17.60C
2017-08-11 04:27:030.06m/s81.80%17.40C
2017-08-11 03:42:030.00m/s81.90%17.60C
2017-08-11 03:44:030.00m/s81.80%17.50C
2017-08-11 04:04:030.00m/s81.80%17.50C
2017-08-11 04:20:030.00m/s81.80%17.40C
2017-08-11 04:31:030.00m/s81.90%17.40C
2017-08-11 03:46:030.00m/s82.00%17.50C
2017-08-11 04:30:020.00m/s82.00%17.40C
2017-08-11 04:35:030.00m/s82.00%17.40C
2017-08-11 04:55:030.00m/s81.90%17.30C
2017-08-11 04:58:030.00m/s81.80%17.30C
2017-08-11 05:06:030.00m/s81.90%17.30C
2017-08-11 05:11:030.00m/s81.70%17.20C
2017-08-11 05:18:020.00m/s81.80%17.20C
2017-08-11 05:30:030.00m/s81.90%17.10C
2017-08-11 05:08:030.00m/s82.00%17.30C
2017-08-11 05:23:020.00m/s82.00%17.20C
2017-08-11 05:31:030.00m/s82.20%17.20C
2017-08-11 05:38:030.00m/s81.80%17.10C
2017-08-11 05:51:030.06m/s82.10%17.10C
2017-08-11 05:36:030.00m/s82.00%17.10C
2017-08-11 05:41:030.00m/s82.00%17.10C
2017-08-11 05:47:030.00m/s82.00%17.10C
2017-08-11 06:03:030.00m/s82.20%17.00C
2017-08-11 06:05:030.00m/s82.20%17.00C
2017-08-11 06:11:030.00m/s82.20%17.00C
2017-08-11 06:12:030.00m/s82.20%17.00C
2017-08-11 06:42:030.06m/s82.00%16.80C
2017-08-11 06:21:030.00m/s82.10%16.90C
2017-08-11 06:32:030.00m/s82.10%16.90C
2017-08-11 06:38:030.00m/s82.10%16.90C
2017-08-11 06:39:030.00m/s82.10%16.90C
2017-08-11 06:46:020.00m/s82.40%16.80C
2017-08-11 06:14:030.00m/s82.20%17.00C
2017-08-11 06:17:020.00m/s82.10%17.00C
2017-08-11 06:18:030.00m/s82.20%17.00C
2017-08-11 07:23:030.06m/s82.40%16.60C
2017-08-11 06:57:030.00m/s82.30%16.80C
2017-08-11 07:14:030.00m/s82.40%16.70C
2017-08-11 07:18:020.00m/s82.20%16.60C
2017-08-11 07:22:030.00m/s82.40%16.60C
2017-08-11 07:24:020.00m/s82.40%16.60C
2017-08-11 07:28:020.00m/s82.40%16.60C
2017-08-11 07:29:030.00m/s82.50%16.60C
2017-08-11 06:48:030.00m/s82.00%16.80C
2017-08-11 07:36:030.06m/s82.70%16.60C
2017-08-11 07:39:020.06m/s82.80%16.60C
2017-08-11 07:31:030.00m/s82.70%16.60C
2017-08-11 07:37:020.00m/s82.50%16.60C
2017-08-11 07:40:030.00m/s82.70%16.60C
2017-08-11 07:50:030.00m/s82.90%16.50C
2017-08-11 07:49:020.00m/s83.00%16.50C
2017-08-11 07:53:030.00m/s83.00%16.50C
2017-08-11 07:56:030.00m/s83.00%16.50C
2017-08-11 08:28:030.06m/s83.50%16.60C
2017-08-11 08:09:030.00m/s83.30%16.50C
2017-08-11 08:12:030.00m/s83.40%16.50C
2017-08-11 08:19:020.00m/s83.30%16.60C
2017-08-11 08:20:030.00m/s83.40%16.60C
2017-08-11 08:29:030.00m/s83.40%16.60C
2017-08-11 08:37:030.00m/s83.40%16.60C
2017-08-11 08:38:030.00m/s83.40%16.60C
2017-08-11 08:49:030.00m/s83.40%16.60C
2017-08-11 08:57:080.00m/s83.50%16.60C
2017-08-11 08:59:030.00m/s83.50%16.60C
2017-08-11 09:05:020.00m/s83.50%16.70C
2017-08-11 09:07:030.00m/s83.60%16.70C
2017-08-11 09:12:030.00m/s83.30%16.70C
2017-08-11 09:16:030.00m/s83.50%16.70C
2017-08-11 09:17:030.00m/s83.40%16.70C
2017-08-11 09:22:030.00m/s83.90%16.70C
2017-08-11 09:26:020.00m/s84.90%16.80C
2017-08-11 09:28:030.00m/s84.60%16.80C
2017-08-11 09:30:030.00m/s84.40%16.80C
2017-08-11 09:32:020.00m/s84.30%16.80C
2017-08-11 09:34:020.00m/s84.20%16.80C
2017-08-11 10:03:030.00m/s83.30%17.20C
2017-08-11 10:11:030.00m/s83.20%17.30C
2017-08-11 10:16:030.00m/s82.70%17.50C
2017-08-11 10:32:030.00m/s81.70%17.90C
2017-08-11 10:15:030.00m/s83.00%17.50C
2017-08-11 10:43:030.00m/s80.90%18.20C
2017-08-11 10:52:030.00m/s79.90%18.50C
2017-08-11 10:55:030.00m/s79.40%18.60C
2017-08-11 11:23:030.00m/s77.60%19.40C
2017-08-11 10:34:030.00m/s81.70%18.00C
2017-08-11 10:41:030.00m/s81.00%18.20C
2017-08-11 11:00:030.00m/s79.00%18.80C
2017-08-11 11:16:030.00m/s78.00%19.20C
2017-08-11 11:03:030.00m/s78.80%18.80C
2017-08-11 12:07:030.85m/s72.90%20.60C
2017-08-11 11:57:030.00m/s73.70%20.40C
2017-08-11 11:58:030.00m/s73.90%20.40C
2017-08-11 12:04:030.00m/s73.40%20.60C
2017-08-11 12:18:030.00m/s72.70%20.90C
2017-08-11 12:32:020.00m/s71.30%21.30C
2017-08-11 11:33:030.00m/s77.00%19.50C
2017-08-11 12:02:020.00m/s73.50%20.50C
2017-08-11 11:48:020.00m/s74.70%20.00C
2017-08-11 12:41:031.64m/s70.10%21.70C
2017-08-11 12:38:030.00m/s70.10%21.60C
2017-08-11 12:39:020.00m/s69.70%21.60C
2017-08-11 12:42:030.00m/s69.60%21.70C
2017-08-11 12:53:020.00m/s68.10%22.30C
2017-08-11 12:56:030.00m/s68.10%22.40C
2017-08-11 13:01:030.00m/s67.40%22.70C
2017-08-11 12:47:020.00m/s69.40%22.00C
2017-08-11 13:08:020.00m/s66.20%23.00C
2017-08-11 13:17:034.00m/s64.60%23.60C
2017-08-11 13:25:030.06m/s63.00%23.90C
2017-08-11 13:12:020.00m/s65.40%23.30C
2017-08-11 13:13:030.00m/s64.90%23.30C
2017-08-11 13:16:030.00m/s64.40%23.50C
2017-08-11 13:22:020.00m/s63.70%23.80C
2017-08-11 13:26:030.00m/s63.10%24.00C
2017-08-11 13:27:020.00m/s62.40%24.00C
2017-08-11 13:29:030.00m/s62.10%24.10C
2017-08-11 14:05:033.21m/s55.10%25.90C
2017-08-11 13:34:020.06m/s61.50%24.40C
2017-08-11 13:53:030.85m/s57.70%25.40C
2017-08-11 14:01:020.06m/s56.00%25.70C
2017-08-11 13:39:030.00m/s60.50%24.60C
2017-08-11 13:44:020.00m/s59.80%24.90C
2017-08-11 13:47:030.00m/s59.30%25.10C
2017-08-11 13:51:030.00m/s58.20%25.30C
2017-08-11 13:57:020.00m/s56.80%25.50C
2017-08-11 14:23:032.42m/s53.20%26.50C
2017-08-11 14:41:020.06m/s51.80%27.20C
2017-08-11 14:58:021.64m/s50.10%27.60C
2017-08-11 14:37:020.00m/s52.30%27.10C
2017-08-11 15:05:030.00m/s49.80%27.60C
2017-08-11 15:30:080.00m/s48.50%27.90C
2017-08-11 16:36:020.00m/s43.20%28.70C
2017-08-11 14:15:030.00m/s54.00%26.30C
2017-08-11 14:47:030.00m/s51.00%27.30C
2017-08-11 17:08:033.21m/s42.10%28.90C
2017-08-11 17:20:022.42m/s41.50%28.70C
2017-08-11 17:02:030.06m/s41.30%28.90C
2017-08-11 17:04:020.06m/s40.70%28.90C
2017-08-11 16:41:030.00m/s43.20%28.80C
2017-08-11 17:11:030.00m/s41.70%28.90C
2017-08-11 17:13:020.00m/s41.50%28.90C
2017-08-11 16:39:020.00m/s42.80%28.80C
2017-08-11 17:14:020.00m/s41.80%28.80C
2017-08-11 17:50:023.21m/s43.30%28.20C
2017-08-11 17:51:036.35m/s42.90%28.20C
2017-08-11 17:56:036.35m/s43.20%28.00C
2017-08-11 17:59:023.21m/s42.80%27.90C
2017-08-11 17:28:020.06m/s41.90%28.60C
2017-08-11 18:00:030.06m/s42.00%27.90C
2017-08-11 17:22:020.00m/s41.60%28.70C
2017-08-11 17:25:020.00m/s41.90%28.70C
2017-08-11 17:46:030.00m/s43.30%28.20C
2017-08-11 18:06:036.35m/s43.00%27.70C
2017-08-11 18:33:032.42m/s44.30%27.00C
2017-08-11 18:45:022.42m/s45.30%26.60C
2017-08-11 18:31:034.00m/s44.80%27.10C
2017-08-11 18:20:030.85m/s44.00%27.40C
2017-08-11 18:32:020.06m/s44.40%27.00C
2017-08-11 18:13:030.00m/s43.50%27.60C
2017-08-11 18:36:030.00m/s44.80%26.90C
2017-08-11 18:48:030.00m/s45.30%26.60C
2017-08-11 19:10:032.42m/s46.50%26.10C
2017-08-11 19:01:020.85m/s46.40%26.30C
2017-08-11 18:50:030.00m/s45.60%26.50C
2017-08-11 19:30:030.00m/s47.80%25.60C
2017-08-11 19:32:020.00m/s47.90%25.50C
2017-08-11 19:36:030.00m/s48.20%25.40C
2017-08-11 19:20:031.64m/s46.80%25.80C
2017-08-11 19:22:030.00m/s47.00%25.70C
2017-08-11 19:28:030.00m/s47.60%25.60C
2017-08-11 20:27:030.06m/s50.60%24.20C
2017-08-11 19:52:030.00m/s48.60%24.90C
2017-08-11 19:56:030.00m/s49.20%24.80C
2017-08-11 19:59:020.00m/s49.50%24.70C
2017-08-11 20:08:030.00m/s50.20%24.50C
2017-08-11 20:28:030.00m/s50.70%24.10C
2017-08-11 20:14:030.06m/s50.40%24.40C
2017-08-11 19:50:030.00m/s47.90%25.00C
2017-08-11 20:25:030.00m/s50.20%24.20C
2017-08-11 20:40:030.00m/s51.30%23.90C
2017-08-11 20:43:030.00m/s51.40%23.80C
2017-08-11 20:55:030.00m/s51.90%23.60C
2017-08-11 21:16:030.00m/s53.50%23.20C
2017-08-11 21:22:030.00m/s53.90%23.10C
2017-08-11 21:33:030.00m/s54.30%22.90C
2017-08-11 21:35:030.00m/s54.20%22.80C
2017-08-11 21:43:020.00m/s54.60%22.70C
2017-08-11 21:45:030.00m/s54.70%22.70C
2017-08-11 21:59:030.06m/s55.10%22.40C
2017-08-11 22:17:020.06m/s55.60%22.10C
2017-08-11 22:01:030.00m/s55.10%22.40C
2017-08-11 22:10:030.00m/s54.90%22.20C
2017-08-11 22:25:030.00m/s55.80%21.90C
2017-08-11 22:30:030.00m/s56.30%21.80C
2017-08-11 22:06:030.00m/s55.00%22.30C
2017-08-11 22:27:030.00m/s55.90%21.90C
2017-08-11 22:46:030.00m/s57.00%21.60C
2017-08-11 23:24:020.06m/s58.70%20.90C
2017-08-11 23:43:030.06m/s59.70%20.60C
2017-08-11 22:53:030.00m/s57.20%21.40C
2017-08-11 22:54:030.00m/s57.30%21.40C
2017-08-11 23:12:030.00m/s57.80%21.10C
2017-08-11 23:14:030.00m/s58.20%21.10C
2017-08-11 23:34:030.00m/s59.30%20.70C
2017-08-11 23:16:030.00m/s58.10%21.00C
2017-08-12 00:10:030.00m/s59.00%20.10C
2017-08-12 00:41:034.78m/s60.20%19.70C
2017-08-12 00:54:024.00m/s60.60%19.50C
2017-08-12 00:58:020.06m/s60.80%19.40C
2017-08-12 00:11:030.00m/s58.80%20.10C
2017-08-12 00:25:030.00m/s59.30%19.90C
2017-08-12 00:45:030.00m/s60.20%19.60C
2017-08-12 00:46:030.00m/s60.50%19.60C
2017-08-12 00:48:030.00m/s60.30%19.60C
2017-08-12 00:50:030.00m/s60.40%19.60C
2017-08-12 01:31:022.42m/s63.00%19.10C
2017-08-12 01:36:032.42m/s63.30%19.10C
2017-08-12 01:40:032.42m/s63.20%19.00C
2017-08-12 01:04:030.06m/s61.70%19.40C
2017-08-12 01:09:020.06m/s61.60%19.30C
2017-08-12 01:16:030.00m/s61.90%19.20C
2017-08-12 01:29:030.00m/s62.90%19.20C
2017-08-12 01:03:030.06m/s61.40%19.40C
2017-08-12 01:42:030.00m/s63.40%19.00C
2017-08-12 02:01:030.00m/s63.90%18.80C
2017-08-12 02:03:030.00m/s64.70%18.80C
2017-08-12 02:13:030.00m/s64.60%18.70C
2017-08-12 02:17:030.85m/s64.70%18.70C
2017-08-12 01:43:030.00m/s63.40%19.00C
2017-08-12 01:45:020.00m/s63.50%19.00C
2017-08-12 02:11:031.64m/s64.70%18.70C
2017-08-12 02:16:020.00m/s64.70%18.70C
2017-08-12 02:18:020.00m/s64.70%18.70C
2017-08-12 02:47:033.21m/s66.20%18.50C
2017-08-12 02:50:032.42m/s66.60%18.40C
2017-08-12 03:08:035.57m/s67.20%18.30C
2017-08-12 02:24:030.00m/s65.20%18.60C
2017-08-12 02:40:020.00m/s66.10%18.50C
2017-08-12 02:43:020.00m/s66.30%18.50C
2017-08-12 02:53:030.00m/s66.90%18.40C
2017-08-12 02:21:030.00m/s64.60%18.60C
2017-08-12 02:41:020.00m/s66.00%18.50C
2017-08-12 03:13:030.06m/s67.80%18.30C
2017-08-12 03:12:030.00m/s67.80%18.30C
2017-08-12 03:15:030.00m/s67.90%18.30C
2017-08-12 03:20:030.00m/s68.50%18.20C
2017-08-12 03:24:030.00m/s69.10%18.20C
2017-08-12 03:26:030.00m/s68.60%18.20C
2017-08-12 03:34:030.00m/s69.70%18.10C
2017-08-12 03:16:030.00m/s68.00%18.20C
2017-08-12 03:21:030.00m/s69.00%18.20C
2017-08-12 04:21:032.42m/s72.30%17.90C
2017-08-12 04:08:034.00m/s72.20%17.90C
2017-08-12 04:12:034.00m/s71.90%17.90C
2017-08-12 03:35:030.06m/s69.80%18.10C
2017-08-12 03:37:030.85m/s69.90%18.10C
2017-08-12 03:44:030.06m/s70.40%18.10C
2017-08-12 03:52:030.00m/s70.70%18.00C
2017-08-12 03:39:030.00m/s70.00%18.10C
2017-08-12 03:45:030.00m/s70.00%18.10C
2017-08-12 04:44:022.42m/s73.60%17.80C
2017-08-12 04:35:024.00m/s73.40%17.80C
2017-08-12 04:28:030.06m/s73.10%17.80C
2017-08-12 04:55:030.85m/s74.30%17.70C
2017-08-12 04:36:030.00m/s73.30%17.80C
2017-08-12 05:05:030.00m/s75.10%17.70C
2017-08-12 05:10:030.00m/s75.50%17.70C
2017-08-12 04:26:020.00m/s73.00%17.80C
2017-08-12 04:31:030.00m/s72.80%17.80C
2017-08-12 06:15:033.21m/s78.10%17.40C
2017-08-12 06:46:030.85m/s79.60%17.40C
2017-08-12 05:17:020.00m/s76.20%17.60C
2017-08-12 05:37:030.00m/s76.50%17.60C
2017-08-12 05:39:030.00m/s76.50%17.60C
2017-08-12 05:42:030.00m/s76.50%17.60C
2017-08-12 05:45:030.00m/s76.50%17.60C
2017-08-12 05:52:030.00m/s76.80%17.60C
2017-08-12 06:52:030.00m/s79.50%17.40C
2017-08-12 07:04:030.06m/s80.30%17.40C
2017-08-12 07:14:030.85m/s80.90%17.40C
2017-08-12 07:30:030.06m/s81.20%17.30C
2017-08-12 07:36:030.85m/s81.50%17.40C
2017-08-12 07:52:030.85m/s82.00%17.40C
2017-08-12 07:53:030.06m/s82.30%17.40C
2017-08-12 07:44:030.00m/s82.20%17.40C
2017-08-12 07:45:030.00m/s82.60%17.40C
2017-08-12 07:48:030.00m/s81.80%17.40C
2017-08-12 08:16:034.00m/s83.40%17.40C
2017-08-12 08:17:034.00m/s83.00%17.40C
2017-08-12 08:18:030.06m/s83.50%17.40C
2017-08-12 07:56:030.00m/s82.30%17.40C
2017-08-12 08:06:030.00m/s82.90%17.40C
2017-08-12 08:15:030.00m/s82.80%17.40C
2017-08-12 08:24:030.00m/s84.50%17.40C
2017-08-12 08:28:020.00m/s83.70%17.40C
2017-08-12 08:56:031.64m/s85.20%17.40C
2017-08-12 09:23:034.78m/s86.00%17.50C
2017-08-12 09:36:033.21m/s87.20%17.50C
2017-08-12 09:05:020.85m/s85.10%17.40C
2017-08-12 09:27:030.85m/s85.80%17.50C
2017-08-12 08:58:030.00m/s85.10%17.40C
2017-08-12 09:02:030.00m/s85.70%17.40C
2017-08-12 09:03:020.00m/s85.20%17.40C
2017-08-12 09:29:030.00m/s86.10%17.50C
2017-08-12 09:00:030.00m/s85.40%17.40C
2017-08-12 10:26:035.57m/s87.80%17.70C
2017-08-12 09:46:030.00m/s87.10%17.50C
2017-08-12 09:55:020.00m/s87.10%17.60C
2017-08-12 10:03:020.00m/s87.20%17.60C
2017-08-12 10:15:030.00m/s87.30%17.70C
2017-08-12 10:19:030.00m/s87.40%17.70C
2017-08-12 09:38:030.00m/s86.50%17.50C
2017-08-12 09:44:030.00m/s87.00%17.50C
2017-08-12 10:25:030.85m/s87.70%17.70C
2017-08-12 11:23:027.93m/s89.90%18.10C
2017-08-12 11:05:030.85m/s89.30%18.00C
2017-08-12 10:34:030.00m/s88.10%17.80C
2017-08-12 10:54:020.00m/s88.40%17.90C
2017-08-12 11:14:030.00m/s89.40%18.10C
2017-08-12 10:27:020.00m/s88.00%17.80C
2017-08-12 10:38:030.00m/s89.00%17.80C
2017-08-12 11:10:030.00m/s89.30%18.00C
2017-08-12 11:24:030.00m/s90.00%18.10C
2017-08-12 11:44:024.00m/s89.70%18.40C
2017-08-12 11:37:029.50m/s90.50%18.30C
2017-08-12 11:26:030.06m/s89.50%18.20C
2017-08-12 11:49:030.85m/s90.90%18.50C
2017-08-12 11:25:030.00m/s90.30%18.10C
2017-08-12 11:28:030.00m/s89.60%18.20C
2017-08-12 11:36:031.64m/s90.00%18.30C
2017-08-12 11:46:030.00m/s91.20%18.40C
2017-08-12 11:42:020.00m/s90.00%18.40C
2017-08-12 12:01:032.42m/s90.40%18.70C
2017-08-12 12:07:034.78m/s90.00%18.80C
2017-08-12 12:29:037.14m/s88.60%19.10C
2017-08-12 11:57:020.85m/s91.10%18.70C
2017-08-12 11:54:030.00m/s90.10%18.60C
2017-08-12 12:02:030.00m/s90.60%18.70C
2017-08-12 12:10:020.00m/s90.40%18.90C
2017-08-12 12:11:030.00m/s90.50%18.90C
2017-08-12 12:34:020.00m/s90.20%19.20C
2017-08-12 13:13:037.14m/s84.50%20.40C
2017-08-12 12:52:034.00m/s90.40%19.80C
2017-08-12 13:03:024.00m/s86.60%20.10C
2017-08-12 13:16:032.42m/s84.50%20.40C
2017-08-12 12:35:030.00m/s89.70%19.20C
2017-08-12 12:48:030.00m/s89.10%19.60C
2017-08-12 12:51:021.64m/s89.50%19.70C
2017-08-12 12:40:030.00m/s88.30%19.30C
2017-08-12 12:56:030.00m/s88.70%20.00C
2017-08-12 13:17:0311.86m/s84.70%20.40C
2017-08-12 13:43:022.42m/s82.90%20.80C
2017-08-12 13:42:037.93m/s82.80%20.80C
2017-08-12 13:19:020.00m/s85.20%20.50C
2017-08-12 13:25:030.00m/s84.10%20.60C
2017-08-12 13:29:030.00m/s83.70%20.60C
2017-08-12 13:32:030.00m/s83.60%20.70C
2017-08-12 13:33:020.00m/s83.50%20.70C
2017-08-12 13:37:020.00m/s83.20%20.70C
2017-08-12 13:55:034.78m/s82.30%20.90C
2017-08-12 13:58:032.42m/s82.00%20.90C
2017-08-12 13:53:031.64m/s82.20%20.80C
2017-08-12 14:04:030.85m/s81.90%21.00C
2017-08-12 14:07:031.64m/s81.80%21.10C
2017-08-12 14:08:030.06m/s81.80%21.10C
2017-08-12 14:11:031.64m/s81.20%21.10C
2017-08-12 13:57:030.00m/s82.20%20.90C
2017-08-12 14:15:020.00m/s81.20%21.20C
2017-08-12 14:26:033.21m/s80.00%21.30C
2017-08-12 14:44:034.78m/s78.80%21.50C
2017-08-12 14:33:024.00m/s80.10%21.40C
2017-08-12 15:00:032.42m/s77.60%21.50C
2017-08-12 14:27:030.85m/s80.10%21.40C
2017-08-12 14:46:030.85m/s78.60%21.50C
2017-08-12 14:20:030.00m/s80.80%21.30C
2017-08-12 14:53:030.00m/s78.30%21.60C
2017-08-12 15:04:030.00m/s77.60%21.40C
2017-08-12 15:16:033.21m/s76.70%21.90C
2017-08-12 15:51:025.57m/s73.70%22.50C
2017-08-12 15:32:037.14m/s75.20%22.10C
2017-08-12 15:26:021.64m/s75.90%22.00C
2017-08-12 15:12:030.00m/s77.40%21.70C
2017-08-12 15:29:030.00m/s75.20%22.10C
2017-08-12 15:38:020.00m/s74.50%22.20C
2017-08-12 15:42:030.00m/s74.50%22.30C
2017-08-12 15:27:030.00m/s75.10%22.00C
2017-08-12 15:57:034.78m/s72.50%22.60C
2017-08-12 16:11:035.57m/s71.90%22.70C
2017-08-12 15:54:032.42m/s73.30%22.60C
2017-08-12 16:05:022.42m/s72.50%22.60C
2017-08-12 16:13:020.85m/s71.70%22.80C
2017-08-12 16:15:031.64m/s71.90%22.80C
2017-08-12 16:06:030.00m/s72.60%22.70C
2017-08-12 16:18:030.00m/s71.40%22.90C
2017-08-12 16:04:030.00m/s72.70%22.70C
2017-08-12 16:23:0311.07m/s70.70%22.90C
2017-08-12 17:01:037.14m/s67.50%24.10C
2017-08-12 16:32:037.14m/s70.40%23.20C
2017-08-12 17:27:034.00m/s65.30%24.70C
2017-08-12 17:21:030.06m/s66.00%24.60C
2017-08-12 17:50:020.85m/s63.20%24.90C
2017-08-12 18:00:020.85m/s62.90%25.00C
2017-08-12 16:56:020.00m/s68.90%23.90C
2017-08-12 17:29:020.00m/s65.00%24.70C
2017-08-12 18:08:036.35m/s63.10%25.00C
2017-08-12 18:14:030.85m/s63.20%24.90C
2017-08-12 18:28:020.06m/s63.10%24.80C
2017-08-12 18:30:031.64m/s63.60%24.80C
2017-08-12 18:39:031.64m/s63.00%24.70C
2017-08-12 18:15:030.00m/s62.80%24.90C
2017-08-12 18:37:030.00m/s63.20%24.70C
2017-08-12 18:38:030.00m/s63.50%24.70C
2017-08-12 18:16:030.00m/s62.90%24.90C
2017-08-12 19:12:039.50m/s63.30%24.20C
2017-08-12 18:58:035.57m/s63.40%24.40C
2017-08-12 19:02:030.00m/s62.90%24.30C
2017-08-12 19:05:030.00m/s62.60%24.30C
2017-08-12 19:20:030.00m/s63.30%24.20C
2017-08-12 19:25:030.00m/s63.20%24.10C
2017-08-12 20:51:030.00m/s67.40%22.70C
2017-08-12 20:53:030.00m/s67.20%22.60C
2017-08-12 20:52:030.00m/s67.00%22.70C
2017-08-12 21:21:034.00m/s67.90%22.10C
2017-08-12 21:03:030.00m/s67.20%22.40C
2017-08-12 21:05:030.00m/s67.60%22.40C
2017-08-12 21:07:030.00m/s68.10%22.30C
2017-08-12 21:20:020.00m/s67.90%22.10C
2017-08-12 21:06:030.00m/s67.40%22.40C
2017-08-12 21:15:030.00m/s68.00%22.20C
2017-08-12 21:17:020.00m/s68.00%22.20C
2017-08-12 21:18:030.00m/s68.00%22.20C
2017-08-12 21:38:030.00m/s68.40%21.80C
2017-08-12 21:41:020.00m/s68.50%21.70C
2017-08-12 21:42:030.00m/s68.60%21.70C
2017-08-12 21:45:030.00m/s68.50%21.70C
2017-08-12 21:46:030.00m/s69.30%21.70C
2017-08-12 21:51:030.00m/s68.70%21.60C
2017-08-12 22:02:030.00m/s69.50%21.40C
2017-08-12 22:07:030.00m/s69.60%21.30C
2017-08-12 22:08:030.00m/s69.80%21.30C
2017-08-12 22:09:030.00m/s69.50%21.20C
2017-08-12 22:25:030.00m/s70.70%21.10C
2017-08-12 22:34:030.00m/s70.60%20.90C
2017-08-12 22:39:030.00m/s70.70%20.90C
2017-08-12 22:48:020.00m/s71.10%20.80C
2017-08-12 22:49:030.00m/s71.10%20.80C
2017-08-12 22:55:020.00m/s71.60%20.70C
2017-08-12 22:36:030.00m/s70.70%21.00C
2017-08-12 22:40:020.00m/s70.90%20.90C
2017-08-12 23:07:030.00m/s72.10%20.50C
2017-08-12 23:15:030.00m/s72.50%20.40C
2017-08-12 23:19:030.00m/s72.50%20.30C
2017-08-12 23:20:020.00m/s72.60%20.30C
2017-08-12 23:29:030.00m/s72.50%20.10C
2017-08-12 23:32:030.00m/s72.80%20.10C
2017-08-12 23:46:030.00m/s73.30%19.90C
2017-08-12 23:37:030.00m/s72.60%20.00C
2017-08-12 23:43:020.00m/s73.00%20.00C
2017-08-12 23:54:030.00m/s73.30%19.80C
2017-08-13 00:04:020.00m/s73.80%19.70C
2017-08-13 00:15:030.00m/s73.90%19.50C
2017-08-13 00:18:030.00m/s74.10%19.50C
2017-08-13 00:19:020.00m/s74.30%19.50C
2017-08-13 00:20:030.00m/s74.20%19.50C
2017-08-12 23:47:020.00m/s73.00%19.90C
2017-08-13 00:08:030.00m/s74.00%19.60C
2017-08-13 00:09:030.00m/s74.00%19.60C
2017-08-13 00:24:030.00m/s74.20%19.40C
2017-08-13 00:32:030.00m/s74.60%19.30C
2017-08-13 00:40:030.00m/s74.70%19.20C
2017-08-13 00:43:030.00m/s74.80%19.20C
2017-08-13 00:49:030.00m/s74.80%19.10C
2017-08-13 00:51:030.00m/s75.10%19.10C
2017-08-13 00:56:020.00m/s75.40%19.00C
2017-08-13 00:58:030.00m/s75.30%19.00C
2017-08-13 01:03:030.00m/s75.20%19.00C
2017-08-13 01:09:030.00m/s75.20%18.90C
2017-08-13 01:18:030.00m/s75.70%18.80C
2017-08-13 01:26:030.00m/s75.70%18.80C
2017-08-13 01:28:030.00m/s76.10%18.80C
2017-08-13 01:30:030.00m/s76.10%18.80C
2017-08-13 01:32:030.00m/s76.30%18.80C
2017-08-13 01:36:030.00m/s75.80%18.70C
2017-08-13 01:45:030.00m/s76.30%18.70C
2017-08-13 01:50:030.00m/s76.20%18.60C
2017-08-13 01:53:030.00m/s76.40%18.60C
2017-08-13 01:57:030.00m/s76.70%18.60C
2017-08-13 01:59:030.00m/s76.20%18.50C
2017-08-13 02:01:030.00m/s76.10%18.50C
2017-08-13 02:03:030.00m/s76.30%18.50C
2017-08-13 02:10:030.00m/s76.70%18.40C
2017-08-13 02:13:030.00m/s77.20%18.40C
2017-08-13 02:16:030.00m/s76.50%18.30C
2017-08-13 02:17:030.00m/s76.70%18.30C
2017-08-13 02:18:030.00m/s76.80%18.40C
2017-08-13 02:24:030.00m/s77.10%18.30C
2017-08-13 02:57:030.00m/s76.80%17.90C
2017-08-13 03:02:030.00m/s77.30%17.90C
2017-08-13 03:12:030.00m/s76.90%17.80C
2017-08-13 03:13:020.00m/s77.20%17.80C
2017-08-13 02:29:020.00m/s77.00%18.20C
2017-08-13 02:42:030.00m/s77.00%18.10C
2017-08-13 03:07:030.00m/s76.80%17.80C
2017-08-13 03:18:040.00m/s77.30%17.70C
2017-08-13 03:19:020.00m/s77.10%17.70C
2017-08-13 03:37:030.00m/s77.50%17.60C
2017-08-13 03:46:020.00m/s77.70%17.50C
2017-08-13 03:59:030.00m/s77.70%17.30C
2017-08-13 04:01:030.00m/s77.90%17.30C
2017-08-13 04:03:030.00m/s77.80%17.30C
2017-08-13 04:07:030.00m/s77.90%17.30C
2017-08-13 04:12:030.00m/s78.00%17.20C
2017-08-13 04:17:030.06m/s77.80%17.20C
2017-08-13 04:52:030.00m/s79.30%16.80C
2017-08-13 05:00:030.00m/s79.90%16.80C
2017-08-13 05:01:030.00m/s79.90%16.80C
2017-08-13 05:15:030.00m/s80.20%16.80C
2017-08-13 04:27:030.00m/s78.10%17.10C
2017-08-13 04:28:030.00m/s78.00%17.10C
2017-08-13 04:33:030.00m/s78.20%17.00C
2017-08-13 04:35:030.00m/s78.20%17.00C
2017-08-13 05:22:030.00m/s80.30%16.70C
2017-08-13 05:34:030.00m/s80.60%16.70C
2017-08-13 05:39:030.00m/s80.60%16.70C
2017-08-13 05:41:030.00m/s80.50%16.70C
2017-08-13 05:49:020.00m/s80.60%16.70C
2017-08-13 05:54:020.00m/s80.70%16.70C
2017-08-13 06:16:020.00m/s80.60%16.60C
2017-08-13 06:20:030.00m/s81.00%16.60C
2017-08-13 06:31:030.00m/s81.00%16.60C
2017-08-13 06:57:030.06m/s81.30%16.40C
2017-08-13 06:33:020.00m/s81.10%16.50C
2017-08-13 06:44:030.00m/s81.40%16.50C
2017-08-13 06:47:030.00m/s81.60%16.40C
2017-08-13 06:50:030.00m/s81.50%16.40C
2017-08-13 07:05:030.00m/s81.60%16.40C
2017-08-13 07:06:020.00m/s81.60%16.40C
2017-08-13 07:07:030.00m/s81.60%16.40C
2017-08-13 06:32:030.00m/s81.00%16.50C
2017-08-13 07:11:030.00m/s81.60%16.40C
2017-08-13 07:18:030.00m/s81.60%16.30C
2017-08-13 07:28:030.00m/s81.80%16.30C
2017-08-13 07:38:030.00m/s82.20%16.30C
2017-08-13 07:46:020.00m/s82.40%16.20C
2017-08-13 07:54:020.00m/s82.80%16.30C
2017-08-13 08:02:030.00m/s82.90%16.30C
2017-08-13 07:31:030.00m/s82.00%16.30C
2017-08-13 08:03:020.00m/s83.00%16.30C
2017-08-13 08:26:030.06m/s84.10%16.30C
2017-08-13 08:18:030.00m/s83.20%16.30C
2017-08-13 08:21:030.00m/s83.40%16.30C
2017-08-13 08:22:030.00m/s83.80%16.30C
2017-08-13 08:25:030.00m/s83.90%16.30C
2017-08-13 08:28:030.00m/s83.90%16.30C
2017-08-13 08:34:030.00m/s84.20%16.40C
2017-08-13 08:04:030.00m/s83.00%16.30C
2017-08-13 08:14:030.00m/s83.30%16.30C
2017-08-13 08:46:020.06m/s84.70%16.50C
2017-08-13 09:09:030.00m/s85.30%16.80C
2017-08-13 09:14:030.00m/s86.10%16.80C
2017-08-13 09:18:030.00m/s86.40%16.90C
2017-08-13 09:25:030.00m/s86.50%17.10C
2017-08-13 09:33:030.00m/s86.30%17.20C
2017-08-13 08:50:030.00m/s85.00%16.50C
2017-08-13 09:22:030.00m/s86.90%17.00C
2017-08-13 09:41:030.00m/s86.00%17.40C
2017-08-13 09:56:020.00m/s85.60%17.90C
2017-08-13 10:14:030.00m/s83.90%18.40C
2017-08-13 10:19:020.00m/s83.10%18.60C
2017-08-13 10:39:030.00m/s80.20%19.30C
2017-08-13 10:46:020.00m/s79.40%19.60C
2017-08-13 09:42:020.00m/s86.00%17.50C
2017-08-13 10:00:020.00m/s85.20%18.00C
2017-08-13 10:04:030.00m/s85.00%18.10C
2017-08-13 10:35:030.00m/s81.20%19.20C
2017-08-13 10:58:020.00m/s77.50%20.10C
2017-08-13 10:59:030.00m/s77.50%20.10C
2017-08-13 11:02:020.00m/s76.90%20.30C
2017-08-13 11:07:030.00m/s76.10%20.50C
2017-08-13 11:11:020.00m/s75.30%20.70C
2017-08-13 11:12:030.00m/s75.10%20.70C
2017-08-13 11:13:030.00m/s75.10%20.80C
2017-08-13 10:56:030.06m/s78.00%20.00C
2017-08-13 10:57:030.00m/s78.00%20.10C
2017-08-13 11:24:035.57m/s73.60%21.10C
2017-08-13 11:30:030.85m/s72.90%21.40C
2017-08-13 12:00:020.06m/s68.90%22.60C
2017-08-13 11:14:030.00m/s74.90%20.80C
2017-08-13 11:22:020.00m/s73.40%21.10C
2017-08-13 11:25:030.00m/s74.10%21.20C
2017-08-13 11:37:030.00m/s71.80%21.70C
2017-08-13 11:18:030.00m/s74.80%21.00C
2017-08-13 11:54:030.00m/s70.00%22.30C
2017-08-13 12:08:030.06m/s68.20%22.90C
2017-08-13 12:12:030.06m/s67.20%23.00C
2017-08-13 12:42:030.85m/s63.10%24.20C
2017-08-13 13:00:031.64m/s61.50%24.70C
2017-08-13 12:05:030.00m/s68.50%22.80C
2017-08-13 12:27:030.00m/s65.40%23.80C
2017-08-13 12:39:030.00m/s63.30%24.20C
2017-08-13 13:01:020.00m/s61.40%24.80C
2017-08-13 12:11:030.00m/s67.30%23.00C
2017-08-13 13:05:030.00m/s61.20%24.80C
2017-08-13 13:10:030.00m/s60.50%24.90C
2017-08-13 13:19:030.00m/s59.70%25.10C
2017-08-13 13:30:020.00m/s57.70%25.40C
2017-08-13 13:50:030.00m/s54.80%25.50C
2017-08-13 13:08:030.00m/s60.90%24.90C
2017-08-13 13:14:030.00m/s60.10%25.00C
2017-08-13 13:53:030.00m/s54.70%25.70C
2017-08-13 13:13:030.00m/s60.00%24.90C
2017-08-13 14:37:035.57m/s51.20%27.50C
2017-08-13 14:34:030.06m/s51.60%27.40C
2017-08-13 13:55:030.00m/s54.30%25.70C
2017-08-13 14:02:030.00m/s53.80%25.90C
2017-08-13 14:19:030.00m/s53.20%26.60C
2017-08-13 14:23:030.00m/s52.90%26.80C
2017-08-13 14:26:030.00m/s52.20%26.90C
2017-08-13 14:40:030.00m/s50.80%27.70C
2017-08-13 14:13:030.00m/s53.00%26.30C
2017-08-13 15:33:030.06m/s46.30%28.60C
2017-08-13 15:43:021.64m/s45.30%28.80C
2017-08-13 14:41:020.00m/s50.60%27.70C
2017-08-13 14:52:030.00m/s48.60%28.10C
2017-08-13 15:08:030.00m/s47.10%28.30C
2017-08-13 15:23:030.00m/s46.60%28.50C
2017-08-13 15:25:030.00m/s46.60%28.50C
2017-08-13 15:32:020.00m/s46.70%28.60C
2017-08-13 14:43:020.00m/s49.80%27.80C
2017-08-13 15:51:032.42m/s44.50%28.80C
2017-08-13 15:55:030.06m/s44.00%28.80C
2017-08-13 16:07:030.06m/s43.40%28.90C
2017-08-13 15:45:030.00m/s45.40%28.90C
2017-08-13 15:48:030.00m/s44.90%28.80C
2017-08-13 15:58:030.00m/s43.70%28.80C
2017-08-13 16:27:030.00m/s42.50%29.10C
2017-08-13 16:04:030.00m/s43.90%28.90C
2017-08-13 16:33:030.00m/s42.00%29.20C
2017-08-13 16:37:032.42m/s42.10%29.20C
2017-08-13 16:36:023.21m/s42.20%29.20C
2017-08-13 16:38:030.00m/s42.10%29.20C
2017-08-13 16:40:030.00m/s42.10%29.20C
2017-08-13 16:44:030.00m/s41.70%29.20C
2017-08-13 16:49:030.00m/s41.90%29.30C
2017-08-13 16:58:030.00m/s41.70%29.40C
2017-08-13 16:59:030.00m/s41.60%29.30C
2017-08-13 16:34:020.00m/s42.20%29.20C
2017-08-13 17:13:030.06m/s41.50%29.20C
2017-08-13 17:06:030.00m/s41.10%29.20C
2017-08-13 17:10:030.00m/s41.80%29.20C
2017-08-13 17:12:020.00m/s41.60%29.20C
2017-08-13 17:37:030.00m/s42.50%28.90C
2017-08-13 17:43:030.00m/s43.10%28.80C
2017-08-13 17:48:030.00m/s43.40%28.70C
2017-08-13 17:31:030.00m/s42.70%29.00C
2017-08-13 17:46:030.00m/s43.00%28.70C
2017-08-13 18:19:030.06m/s44.30%28.10C
2017-08-13 17:49:030.00m/s42.90%28.70C
2017-08-13 18:14:030.00m/s43.80%28.20C
2017-08-13 18:20:030.00m/s44.60%28.10C
2017-08-13 18:27:030.00m/s44.40%27.90C
2017-08-13 18:29:030.00m/s44.80%27.90C
2017-08-13 18:40:020.00m/s45.40%27.70C
2017-08-13 18:44:020.00m/s45.50%27.70C
2017-08-13 18:07:030.00m/s43.30%28.30C
2017-08-13 18:55:033.21m/s45.00%27.40C
2017-08-13 19:38:026.35m/s45.70%26.80C
2017-08-13 18:45:030.85m/s45.40%27.60C
2017-08-13 19:26:031.64m/s45.50%26.90C
2017-08-13 18:57:030.00m/s44.50%27.30C
2017-08-13 19:02:020.00m/s45.80%27.30C
2017-08-13 19:12:030.00m/s45.70%27.20C
2017-08-13 19:37:030.00m/s46.50%26.80C
2017-08-13 19:08:031.64m/s45.30%27.30C
2017-08-13 19:41:030.00m/s46.20%26.70C
2017-08-13 19:52:030.00m/s47.10%26.40C
2017-08-13 19:56:030.00m/s47.10%26.40C
2017-08-13 20:06:020.00m/s47.90%26.10C
2017-08-13 20:24:030.00m/s49.30%25.70C
2017-08-13 20:28:030.00m/s49.60%25.70C
2017-08-13 20:04:030.00m/s48.00%26.20C
2017-08-13 20:05:030.00m/s48.00%26.20C
2017-08-13 20:38:030.00m/s50.40%25.40C
2017-08-13 20:43:030.06m/s50.00%25.20C
2017-08-13 20:44:030.00m/s50.60%25.10C
2017-08-13 20:51:030.00m/s51.30%24.90C
2017-08-13 20:52:020.00m/s51.30%24.90C
2017-08-13 20:55:030.00m/s51.60%24.90C
2017-08-13 20:46:030.00m/s51.00%25.10C
2017-08-13 20:47:030.00m/s50.90%25.00C
2017-08-13 20:48:030.00m/s50.90%25.00C
2017-08-13 20:49:030.00m/s51.00%25.00C
2017-08-13 20:56:030.00m/s51.60%24.80C
2017-08-13 21:08:030.00m/s52.30%24.50C
2017-08-13 21:12:030.00m/s52.80%24.50C
2017-08-13 21:22:030.00m/s53.30%24.20C
2017-08-13 22:39:020.00m/s57.10%22.80C
2017-08-13 22:43:030.00m/s57.10%22.70C
2017-08-13 22:51:020.00m/s57.60%22.50C
2017-08-13 22:55:020.00m/s57.90%22.50C
2017-08-13 21:15:030.00m/s53.00%24.40C
2017-08-13 22:56:030.00m/s57.90%22.40C
2017-08-13 23:02:020.00m/s58.20%22.30C
2017-08-13 23:03:030.00m/s58.30%22.40C
2017-08-13 23:12:030.00m/s59.10%22.20C
2017-08-13 23:21:020.00m/s59.20%22.10C
2017-08-13 23:40:030.00m/s60.10%21.90C
2017-08-13 23:25:030.00m/s59.50%22.00C
2017-08-13 23:28:030.00m/s59.70%22.00C
2017-08-13 23:29:030.00m/s59.70%22.00C
2017-08-13 23:59:030.06m/s60.80%21.60C
2017-08-13 23:42:030.00m/s60.10%21.80C
2017-08-13 23:54:030.00m/s60.80%21.70C
2017-08-14 00:10:030.00m/s60.70%21.50C
2017-08-14 00:13:030.00m/s60.60%21.40C
2017-08-14 00:15:020.00m/s60.90%21.40C
2017-08-14 00:18:030.00m/s61.10%21.40C
2017-08-14 00:21:030.00m/s61.30%21.40C
2017-08-14 00:24:030.00m/s61.30%21.30C
2017-08-14 00:29:030.00m/s61.40%21.20C
2017-08-14 00:32:030.00m/s61.40%21.20C
2017-08-14 00:34:030.00m/s61.50%21.10C
2017-08-14 00:35:030.00m/s61.50%21.10C
2017-08-14 00:51:030.00m/s62.20%20.90C
2017-08-14 00:54:030.00m/s62.10%20.80C
2017-08-14 00:58:030.00m/s62.30%20.80C
2017-08-14 01:08:030.00m/s62.50%20.70C
2017-08-14 00:46:030.00m/s61.70%21.00C
2017-08-14 01:26:030.00m/s63.30%20.40C
2017-08-14 01:32:020.00m/s63.60%20.30C
2017-08-14 01:34:030.00m/s63.90%20.30C
2017-08-14 01:35:030.00m/s63.90%20.30C
2017-08-14 01:36:030.00m/s63.90%20.30C
2017-08-14 01:53:030.00m/s64.50%20.00C
2017-08-14 01:55:030.00m/s64.70%20.00C
2017-08-14 01:57:030.00m/s64.90%20.00C
2017-08-14 01:58:030.00m/s65.00%20.00C
2017-08-14 02:43:030.06m/s65.30%19.40C
2017-08-14 02:06:030.00m/s65.20%19.90C
2017-08-14 02:07:020.00m/s65.20%19.90C
2017-08-14 02:09:030.00m/s65.50%19.80C
2017-08-14 02:16:030.00m/s65.50%19.70C
2017-08-14 02:19:030.00m/s65.60%19.70C
2017-08-14 02:32:030.00m/s65.40%19.50C
2017-08-14 02:38:030.00m/s65.40%19.50C
2017-08-14 02:40:030.00m/s65.70%19.40C
2017-08-14 02:53:020.00m/s66.10%19.30C
2017-08-14 02:56:030.00m/s66.30%19.20C
2017-08-14 03:04:030.00m/s66.60%19.10C
2017-08-14 03:05:030.00m/s66.90%19.20C
2017-08-14 03:35:030.00m/s67.60%18.80C
2017-08-14 03:40:030.00m/s67.50%18.80C
2017-08-14 03:42:030.00m/s67.30%18.70C
2017-08-14 02:58:020.00m/s66.00%19.20C
2017-08-14 03:24:030.00m/s67.00%19.00C
2017-08-14 04:12:030.06m/s68.10%18.40C
2017-08-14 03:46:030.00m/s67.50%18.70C
2017-08-14 03:48:030.00m/s67.80%18.70C
2017-08-14 03:53:030.00m/s67.50%18.60C
2017-08-14 03:56:030.00m/s68.10%18.60C
2017-08-14 04:07:030.00m/s68.10%18.50C
2017-08-14 04:10:030.00m/s68.10%18.40C
2017-08-14 04:00:040.00m/s68.00%18.50C
2017-08-14 04:04:030.00m/s68.00%18.50C
2017-08-14 04:18:030.00m/s68.50%18.40C
2017-08-14 04:24:030.00m/s68.50%18.30C
2017-08-14 04:31:030.00m/s68.90%18.20C
2017-08-14 04:36:030.00m/s68.80%18.10C
2017-08-14 04:39:040.00m/s68.90%18.10C
2017-08-14 04:43:030.00m/s69.30%18.10C
2017-08-14 04:44:030.00m/s69.30%18.10C
2017-08-14 04:47:020.00m/s69.20%18.10C
2017-08-14 04:37:020.00m/s69.00%18.20C
2017-08-14 05:14:030.00m/s69.90%17.80C
2017-08-14 05:18:030.00m/s70.30%17.80C
2017-08-14 05:23:020.00m/s70.20%17.70C
2017-08-14 05:25:030.00m/s70.20%17.70C
2017-08-14 05:26:030.00m/s70.20%17.70C
2017-08-14 05:29:030.00m/s70.50%17.70C
2017-08-14 05:41:030.00m/s70.70%17.60C
2017-08-14 04:51:030.00m/s69.10%18.00C
2017-08-14 04:52:030.00m/s69.20%18.00C
2017-08-14 05:45:030.00m/s70.70%17.60C
2017-08-14 05:47:030.00m/s70.80%17.50C
2017-08-14 06:00:030.00m/s71.10%17.40C
2017-08-14 06:01:020.00m/s71.20%17.40C
2017-08-14 06:05:030.00m/s71.30%17.40C
2017-08-14 06:07:020.00m/s71.10%17.30C
2017-08-14 06:13:030.00m/s71.60%17.40C
2017-08-14 06:15:030.00m/s71.30%17.30C
2017-08-14 06:04:020.00m/s71.40%17.40C
2017-08-14 06:16:020.00m/s71.40%17.30C
2017-08-14 06:19:030.00m/s71.50%17.30C
2017-08-14 06:22:020.00m/s71.50%17.30C
2017-08-14 08:06:020.00m/s74.30%17.10C
2017-08-14 08:10:030.00m/s74.50%17.20C
2017-08-14 08:12:030.00m/s74.70%17.20C
2017-08-14 08:16:030.00m/s74.90%17.20C
2017-08-14 08:18:030.00m/s74.90%17.20C
2017-08-14 08:01:020.00m/s74.00%17.10C
2017-08-14 08:46:020.06m/s75.70%17.30C
2017-08-14 08:20:030.00m/s74.90%17.20C
2017-08-14 08:26:030.00m/s75.10%17.20C
2017-08-14 08:32:030.00m/s75.60%17.20C
2017-08-14 08:41:030.00m/s75.40%17.30C
2017-08-14 08:55:030.00m/s75.50%17.40C
2017-08-14 08:22:030.00m/s75.00%17.20C
2017-08-14 08:23:030.00m/s75.20%17.20C
2017-08-14 08:36:030.00m/s75.30%17.30C
2017-08-14 08:56:020.00m/s75.80%17.40C
2017-08-14 08:57:030.00m/s75.80%17.40C
2017-08-14 09:01:030.00m/s76.20%17.50C
2017-08-14 09:02:020.00m/s76.30%17.50C
2017-08-14 09:05:030.00m/s77.10%17.60C
2017-08-14 09:06:020.00m/s77.50%17.60C
2017-08-14 09:19:030.00m/s76.70%17.80C
2017-08-14 09:14:030.00m/s77.00%17.80C
2017-08-14 09:11:030.00m/s77.70%17.70C
2017-08-14 09:38:034.00m/s76.70%18.40C
2017-08-14 09:51:030.06m/s75.00%18.90C
2017-08-14 09:20:030.00m/s76.70%17.80C
2017-08-14 09:24:030.00m/s76.80%17.90C
2017-08-14 09:37:030.00m/s76.50%18.40C
2017-08-14 10:07:030.00m/s73.90%19.50C
2017-08-14 09:41:030.00m/s76.00%18.50C
2017-08-14 09:52:020.00m/s75.10%19.00C
2017-08-14 10:03:030.00m/s74.00%19.30C
2017-08-14 10:25:039.50m/s72.10%20.20C
2017-08-14 10:33:032.42m/s71.20%20.50C
2017-08-14 10:18:030.00m/s72.70%19.90C
2017-08-14 10:38:030.00m/s70.80%20.70C
2017-08-14 10:09:030.06m/s73.50%19.50C
2017-08-14 10:15:030.00m/s72.70%19.70C
2017-08-14 10:24:030.00m/s72.10%20.10C
2017-08-14 10:32:030.00m/s71.00%20.40C
2017-08-14 10:35:030.00m/s71.00%20.60C
2017-08-14 11:17:034.78m/s66.20%22.50C
2017-08-14 10:47:020.85m/s69.60%21.00C
2017-08-14 11:00:030.06m/s68.10%21.70C
2017-08-14 11:25:031.64m/s64.40%22.80C
2017-08-14 10:55:030.00m/s68.80%21.40C
2017-08-14 11:01:030.00m/s67.60%21.70C
2017-08-14 11:05:030.00m/s67.70%21.90C
2017-08-14 11:26:030.00m/s64.60%22.80C
2017-08-14 11:13:030.00m/s66.30%22.30C
2017-08-14 11:36:034.78m/s63.70%23.30C
2017-08-14 11:43:033.21m/s63.00%23.50C
2017-08-14 11:46:033.21m/s62.70%23.60C
2017-08-14 11:55:037.93m/s61.50%24.00C
2017-08-14 11:39:020.06m/s63.30%23.40C
2017-08-14 11:44:020.06m/s62.70%23.50C
2017-08-14 11:33:030.00m/s63.90%23.10C
2017-08-14 11:40:030.00m/s63.20%23.40C
2017-08-14 11:47:020.00m/s62.60%23.60C
2017-08-14 12:16:023.21m/s59.30%24.90C
2017-08-14 12:23:036.35m/s57.60%25.20C
2017-08-14 13:06:028.71m/s48.90%27.10C
2017-08-14 12:33:025.57m/s56.00%25.70C
2017-08-14 12:48:034.00m/s52.00%26.20C
2017-08-14 12:00:020.85m/s60.70%24.20C
2017-08-14 12:01:020.85m/s60.70%24.20C
2017-08-14 12:22:030.00m/s57.60%25.20C
2017-08-14 12:03:030.00m/s60.30%24.30C
2017-08-14 14:16:0311.07m/s41.30%29.50C
2017-08-14 14:17:0310.29m/s41.30%29.60C
2017-08-14 14:02:035.57m/s41.40%29.30C
2017-08-14 13:17:034.78m/s48.20%27.60C
2017-08-14 13:28:039.50m/s46.40%28.20C
2017-08-14 13:34:034.00m/s44.80%28.40C
2017-08-14 13:23:023.21m/s47.90%27.90C
2017-08-14 13:08:030.00m/s48.90%27.20C
2017-08-14 13:20:030.00m/s46.20%27.80C
2017-08-14 14:21:036.35m/s40.20%29.60C
2017-08-14 14:45:024.78m/s37.00%30.30C
2017-08-14 14:53:032.42m/s37.00%30.40C
2017-08-14 15:10:035.57m/s36.30%30.60C
2017-08-14 14:46:031.64m/s37.20%30.30C
2017-08-14 15:07:020.85m/s37.10%30.60C
2017-08-14 15:21:030.06m/s37.10%30.60C
2017-08-14 14:47:020.00m/s37.50%30.30C
2017-08-14 14:31:030.00m/s40.90%30.00C
2017-08-14 15:34:034.78m/s36.60%30.90C
2017-08-14 15:56:032.42m/s34.70%31.00C
2017-08-14 15:32:031.64m/s36.70%30.80C
2017-08-14 15:44:031.64m/s34.70%30.80C
2017-08-14 15:47:030.85m/s35.40%30.80C
2017-08-14 15:24:030.00m/s37.20%30.70C
2017-08-14 15:43:030.00m/s35.30%30.80C
2017-08-14 15:46:030.00m/s35.30%30.80C
2017-08-14 15:49:020.00m/s34.70%30.80C
2017-08-14 16:15:022.42m/s34.70%31.10C
2017-08-14 16:21:032.42m/s35.00%31.10C
2017-08-14 16:12:036.35m/s35.10%31.10C
2017-08-14 16:33:032.42m/s34.20%31.20C
2017-08-14 16:22:030.06m/s35.30%31.20C
2017-08-14 16:04:030.00m/s34.70%31.10C
2017-08-14 16:20:030.00m/s34.70%31.10C
2017-08-14 16:25:020.00m/s34.80%31.20C
2017-08-14 16:35:031.64m/s34.10%31.10C
2017-08-14 16:59:024.78m/s34.80%31.20C
2017-08-14 16:36:034.00m/s33.40%31.10C
2017-08-14 16:51:021.64m/s34.80%31.20C
2017-08-14 17:28:031.64m/s35.50%31.30C
2017-08-14 16:45:030.00m/s33.70%31.10C
2017-08-14 16:47:020.00m/s34.70%31.10C
2017-08-14 16:57:020.00m/s34.70%31.10C
2017-08-14 17:11:030.00m/s34.90%31.30C
2017-08-14 17:21:030.00m/s34.90%31.30C
2017-08-14 17:42:035.57m/s34.80%31.20C
2017-08-14 17:45:030.85m/s35.70%31.20C
2017-08-14 18:03:020.06m/s35.60%31.20C
2017-08-14 17:32:030.00m/s34.80%31.20C
2017-08-14 17:46:020.00m/s34.80%31.20C
2017-08-14 17:47:030.00m/s35.40%31.20C
2017-08-14 17:58:030.00m/s35.70%31.20C
2017-08-14 18:07:030.00m/s35.80%31.10C
2017-08-14 17:40:031.64m/s35.20%31.20C
2017-08-14 18:09:032.42m/s35.50%31.10C
2017-08-14 18:10:032.42m/s36.00%31.10C
2017-08-14 18:12:032.42m/s35.50%31.10C
2017-08-14 18:20:032.42m/s34.70%31.00C
2017-08-14 18:16:033.21m/s35.80%31.00C
2017-08-14 18:28:027.14m/s35.90%30.90C
2017-08-14 18:37:030.06m/s36.40%30.90C
2017-08-14 18:30:030.00m/s35.60%30.90C
2017-08-14 18:33:030.00m/s36.10%30.80C
2017-08-14 18:41:033.21m/s36.40%30.80C
2017-08-14 18:49:030.85m/s36.50%30.70C
2017-08-14 18:57:020.06m/s37.20%30.60C
2017-08-14 19:03:030.06m/s37.00%30.40C
2017-08-14 19:24:020.06m/s39.90%29.80C
2017-08-14 18:56:030.00m/s37.10%30.60C
2017-08-14 19:04:030.00m/s36.90%30.40C
2017-08-14 19:10:030.00m/s38.10%30.20C
2017-08-14 19:17:030.00m/s38.60%30.00C
2017-08-14 19:28:030.06m/s39.60%29.70C
2017-08-14 19:50:030.06m/s42.30%29.20C
2017-08-14 19:25:030.00m/s39.40%29.80C
2017-08-14 19:38:020.00m/s40.60%29.50C
2017-08-14 19:39:020.00m/s40.90%29.40C
2017-08-14 19:41:020.00m/s41.10%29.40C
2017-08-14 19:45:020.00m/s41.60%29.20C
2017-08-14 19:46:020.00m/s42.00%29.20C
2017-08-14 19:48:030.00m/s42.20%29.20C
2017-08-14 20:24:030.06m/s45.30%28.20C
2017-08-14 19:53:030.00m/s42.60%29.10C
2017-08-14 19:58:030.00m/s43.20%28.90C
2017-08-14 20:02:030.00m/s43.50%28.80C
2017-08-14 20:13:030.00m/s44.20%28.50C
2017-08-14 20:18:030.00m/s44.70%28.30C
2017-08-14 20:26:030.00m/s45.40%28.10C
2017-08-14 20:30:020.00m/s46.20%28.10C
2017-08-14 20:29:020.00m/s46.00%28.10C
2017-08-14 20:52:030.06m/s48.30%27.40C
2017-08-14 20:48:030.00m/s47.70%27.50C
2017-08-14 21:12:020.00m/s50.10%26.90C
2017-08-14 21:22:030.00m/s50.70%26.50C
2017-08-14 21:24:020.00m/s51.20%26.40C
2017-08-14 21:28:030.00m/s51.70%26.30C
2017-08-14 20:31:020.00m/s46.30%28.00C
2017-08-14 20:40:030.00m/s47.00%27.80C
2017-08-14 20:59:020.00m/s49.00%27.20C
2017-08-14 21:31:020.00m/s51.80%26.30C
2017-08-14 21:35:030.00m/s51.70%26.20C
2017-08-14 21:58:020.00m/s53.90%25.70C
2017-08-14 22:10:020.00m/s54.50%25.40C
2017-08-14 22:11:030.00m/s54.70%25.40C
2017-08-14 22:07:030.06m/s54.50%25.50C
2017-08-14 21:57:020.00m/s53.70%25.70C
2017-08-14 21:59:030.00m/s54.00%25.70C
2017-08-14 22:09:020.00m/s54.40%25.40C
2017-08-14 22:15:030.00m/s54.80%25.30C
2017-08-14 22:24:030.00m/s55.10%25.20C
2017-08-14 22:28:030.00m/s55.40%25.10C
2017-08-14 22:38:020.00m/s55.80%24.90C
2017-08-14 22:44:030.00m/s55.90%24.80C
2017-08-14 22:31:030.00m/s55.50%25.00C
2017-08-14 22:32:020.00m/s55.20%25.00C
2017-08-14 22:42:020.00m/s56.00%24.80C
2017-08-14 22:26:030.00m/s55.10%25.10C
2017-08-14 22:45:030.00m/s56.40%24.80C
2017-08-14 22:49:030.00m/s56.40%24.70C
2017-08-14 22:53:020.00m/s57.10%24.60C
2017-08-14 23:00:030.00m/s56.90%24.40C
2017-08-14 23:03:030.00m/s56.90%24.40C
2017-08-14 23:06:020.00m/s56.80%24.30C
2017-08-14 23:11:020.00m/s57.10%24.20C
2017-08-14 23:22:030.00m/s57.70%24.00C
2017-08-14 23:24:030.00m/s58.20%24.00C
2017-08-14 23:34:030.00m/s58.30%23.80C
2017-08-14 23:35:030.00m/s58.20%23.80C
2017-08-14 23:47:030.00m/s58.90%23.60C
2017-08-14 23:50:030.00m/s59.20%23.50C
2017-08-14 23:51:030.00m/s59.30%23.50C
2017-08-14 23:57:020.00m/s59.20%23.40C
2017-08-15 00:01:030.00m/s59.80%23.30C
2017-08-14 23:29:020.00m/s58.00%23.90C
2017-08-14 23:46:030.00m/s59.00%23.60C
2017-08-15 00:37:030.00m/s61.10%22.80C
2017-08-15 00:42:030.00m/s60.90%22.70C
2017-08-15 00:46:030.00m/s61.80%22.70C
2017-08-15 00:48:030.00m/s61.80%22.70C
2017-08-15 00:52:030.00m/s61.70%22.60C
2017-08-15 00:55:030.00m/s61.60%22.50C
2017-08-15 00:18:030.00m/s60.10%23.10C
2017-08-15 00:25:020.00m/s60.10%23.00C
2017-08-15 00:08:030.00m/s60.00%23.20C
2017-08-15 01:18:030.06m/s62.50%22.20C
2017-08-15 01:05:030.00m/s61.60%22.40C
2017-08-15 01:15:030.00m/s62.50%22.30C
2017-08-15 01:16:030.00m/s62.50%22.30C
2017-08-15 01:23:030.00m/s62.30%22.20C
2017-08-15 01:25:030.00m/s62.80%22.20C
2017-08-15 02:48:030.00m/s65.10%21.20C
2017-08-15 02:55:030.00m/s65.30%21.10C
2017-08-15 02:56:020.00m/s64.90%21.10C
2017-08-15 03:16:020.00m/s65.80%20.90C
2017-08-15 03:21:030.00m/s65.80%20.90C
2017-08-15 03:23:030.00m/s65.70%20.80C
2017-08-15 03:25:030.00m/s66.30%20.80C
2017-08-15 03:42:030.00m/s66.50%20.70C
2017-08-15 03:45:020.00m/s66.50%20.70C
2017-08-15 03:05:030.00m/s65.50%21.00C
2017-08-15 03:06:030.00m/s65.30%21.00C
2017-08-15 03:11:030.00m/s65.50%21.00C
2017-08-15 03:52:030.00m/s66.50%20.60C
2017-08-15 03:56:030.00m/s66.40%20.50C
2017-08-15 03:57:020.00m/s66.40%20.50C
2017-08-15 03:59:030.00m/s66.50%20.60C
2017-08-15 04:00:030.00m/s66.40%20.50C
2017-08-15 04:05:020.00m/s66.40%20.50C
2017-08-15 04:06:030.00m/s66.40%20.50C
2017-08-15 04:13:020.00m/s66.40%20.50C
2017-08-15 04:14:030.00m/s66.30%20.40C
2017-08-15 04:24:020.00m/s66.70%20.40C
2017-08-15 04:32:030.00m/s66.70%20.30C
2017-08-15 04:33:030.00m/s66.70%20.30C
2017-08-15 04:35:030.00m/s66.40%20.30C
2017-08-15 04:49:020.00m/s66.80%20.20C
2017-08-15 04:51:030.00m/s66.90%20.10C
2017-08-15 04:56:030.00m/s66.80%20.10C
2017-08-15 04:58:030.00m/s67.30%20.10C
2017-08-15 05:02:020.00m/s67.00%20.10C
2017-08-15 05:03:030.00m/s67.20%20.10C
2017-08-15 05:22:030.00m/s67.50%19.90C
2017-08-15 05:34:030.00m/s68.10%19.80C
2017-08-15 06:07:030.00m/s67.80%19.40C
2017-08-15 06:11:030.00m/s68.20%19.40C
2017-08-15 05:50:030.00m/s68.00%19.60C
2017-08-15 05:10:030.00m/s67.10%20.00C
2017-08-15 05:12:030.00m/s67.90%20.00C
2017-08-15 05:17:020.00m/s67.60%20.00C
2017-08-15 06:12:020.00m/s68.20%19.50C
2017-08-15 06:27:030.00m/s68.40%19.30C
2017-08-15 06:31:030.00m/s68.50%19.30C
2017-08-15 06:38:020.00m/s68.60%19.20C
2017-08-15 06:47:030.00m/s68.80%19.20C
2017-08-15 06:50:030.00m/s68.60%19.10C
2017-08-15 06:22:030.00m/s68.30%19.30C
2017-08-15 07:18:030.00m/s69.40%19.00C
2017-08-15 07:08:030.00m/s69.00%19.00C
2017-08-15 07:29:030.00m/s69.80%18.90C
2017-08-15 07:31:030.00m/s69.80%18.90C
2017-08-15 07:35:030.00m/s69.80%18.90C
2017-08-15 07:55:020.00m/s70.20%18.90C
2017-08-15 08:03:021.64m/s70.30%18.90C
2017-08-15 07:26:030.00m/s69.50%19.00C
2017-08-15 07:32:030.00m/s69.90%19.00C
2017-08-15 07:41:030.00m/s69.90%18.90C
2017-08-15 07:50:030.00m/s70.00%18.90C
2017-08-15 08:44:030.00m/s70.50%19.10C
2017-08-15 08:49:030.00m/s70.60%19.10C
2017-08-15 08:52:030.00m/s70.60%19.10C
2017-08-15 08:11:030.00m/s70.40%19.00C
2017-08-15 08:14:030.00m/s70.40%19.00C
2017-08-15 08:19:020.00m/s70.40%19.00C
2017-08-15 08:20:030.00m/s70.40%19.00C
2017-08-15 08:21:030.00m/s70.50%19.00C
2017-08-15 08:24:030.00m/s70.50%19.00C
2017-08-15 08:53:030.00m/s70.60%19.10C
2017-08-15 08:55:030.00m/s70.60%19.10C
2017-08-15 08:58:020.00m/s70.80%19.10C
2017-08-15 09:07:030.00m/s71.00%19.10C
2017-08-15 09:11:030.00m/s71.10%19.10C
2017-08-15 09:14:030.00m/s71.00%19.10C
2017-08-15 09:15:030.00m/s71.00%19.10C
2017-08-15 09:21:030.00m/s71.10%19.10C
2017-08-15 09:27:020.00m/s71.20%19.20C
2017-08-15 10:39:030.06m/s74.50%19.20C
2017-08-15 09:33:020.00m/s71.30%19.20C
2017-08-15 09:47:020.00m/s71.40%19.20C
2017-08-15 10:18:030.00m/s73.90%19.30C
2017-08-15 10:26:030.00m/s74.10%19.30C
2017-08-15 10:35:030.00m/s74.50%19.30C
2017-08-15 10:13:030.00m/s73.00%19.30C
2017-08-15 10:33:030.00m/s74.00%19.30C
2017-08-15 10:55:030.00m/s75.00%19.30C
2017-08-15 10:56:030.00m/s74.90%19.30C
2017-08-15 11:05:030.00m/s75.20%19.30C
2017-08-15 11:09:030.00m/s75.10%19.30C
2017-08-15 11:14:020.00m/s75.10%19.30C
2017-08-15 11:17:020.00m/s75.20%19.30C
2017-08-15 11:22:030.00m/s75.20%19.40C
2017-08-15 11:24:030.00m/s75.30%19.40C
2017-08-15 10:59:030.00m/s75.30%19.30C
2017-08-15 11:13:030.00m/s75.00%19.30C
2017-08-15 11:27:030.00m/s75.20%19.40C
2017-08-15 11:32:030.00m/s75.40%19.50C
2017-08-15 11:37:030.00m/s75.60%19.50C
2017-08-15 11:39:030.00m/s75.60%19.50C
2017-08-15 11:43:030.00m/s75.70%19.60C
2017-08-15 11:56:030.00m/s75.70%19.70C
2017-08-15 11:57:030.00m/s76.00%19.70C
2017-08-15 11:59:020.00m/s75.70%19.70C
2017-08-15 12:00:030.00m/s75.70%19.70C
2017-08-15 12:26:030.06m/s76.70%19.90C
2017-08-15 12:15:020.00m/s76.20%19.80C
2017-08-15 12:16:030.00m/s76.20%19.90C
2017-08-15 12:27:020.00m/s77.20%19.90C
2017-08-15 12:28:020.00m/s77.20%19.90C
2017-08-15 12:47:030.00m/s76.90%20.30C
2017-08-15 12:11:020.00m/s76.00%19.80C
2017-08-15 12:36:020.00m/s77.00%20.10C
2017-08-15 12:49:030.00m/s77.00%20.40C
2017-08-15 13:00:034.78m/s76.80%20.70C
2017-08-15 13:20:031.64m/s77.10%21.30C
2017-08-15 13:02:030.00m/s77.20%20.80C
2017-08-15 13:09:030.00m/s78.20%21.10C
2017-08-15 13:26:030.00m/s76.50%21.40C
2017-08-15 13:28:030.00m/s76.30%21.40C
2017-08-15 13:34:030.00m/s77.10%21.50C
2017-08-15 13:40:030.00m/s76.40%21.50C
2017-08-15 13:37:030.00m/s77.00%21.50C
2017-08-15 13:41:030.00m/s76.20%21.50C
2017-08-15 13:44:030.00m/s75.90%21.60C
2017-08-15 13:49:030.00m/s75.80%21.70C
2017-08-15 13:50:020.00m/s75.80%21.70C
2017-08-15 14:05:030.00m/s74.80%22.10C
2017-08-15 14:07:030.00m/s74.70%22.20C
2017-08-15 14:09:020.00m/s74.50%22.30C
2017-08-15 14:16:030.00m/s73.90%22.50C
2017-08-15 13:45:030.00m/s76.00%21.60C
2017-08-15 14:24:021.64m/s72.50%22.80C
2017-08-15 14:18:030.00m/s73.50%22.60C
2017-08-15 14:26:020.00m/s72.30%22.80C
2017-08-15 14:29:030.00m/s72.10%22.90C
2017-08-15 14:45:030.00m/s70.50%23.20C
2017-08-15 15:02:030.00m/s69.80%23.50C
2017-08-15 15:11:100.00m/s69.20%23.50C
2017-08-15 14:32:020.00m/s71.50%23.00C
2017-08-15 14:57:030.00m/s70.00%23.40C
2017-08-15 15:29:034.78m/s69.30%23.70C
2017-08-15 15:51:033.21m/s68.70%23.70C
2017-08-15 15:34:031.64m/s69.00%23.70C
2017-08-15 15:45:030.85m/s68.80%23.70C
2017-08-15 15:12:020.00m/s69.20%23.50C
2017-08-15 15:19:030.00m/s69.30%23.60C
2017-08-15 15:37:030.00m/s68.90%23.70C
2017-08-15 16:00:030.00m/s68.60%23.70C
2017-08-15 16:04:020.00m/s68.70%23.70C
2017-08-15 16:40:031.64m/s69.40%23.70C
2017-08-15 16:27:030.00m/s68.80%23.70C
2017-08-15 16:32:030.00m/s69.20%23.70C
2017-08-15 16:36:030.00m/s69.40%23.70C
2017-08-15 16:43:030.00m/s69.40%23.70C
2017-08-15 16:44:020.00m/s69.40%23.70C
2017-08-15 16:07:020.00m/s68.70%23.70C
2017-08-15 16:23:030.00m/s68.70%23.70C
2017-08-15 16:33:030.00m/s69.00%23.70C
2017-08-15 17:17:020.06m/s69.40%23.70C
2017-08-15 16:45:030.00m/s69.40%23.70C
2017-08-15 16:53:030.00m/s69.40%23.70C
2017-08-15 17:06:030.00m/s69.40%23.70C
2017-08-15 17:11:030.00m/s69.40%23.70C
2017-08-15 17:14:030.00m/s69.40%23.70C
2017-08-15 17:19:020.00m/s69.50%23.80C
2017-08-15 17:27:040.00m/s69.30%23.70C
2017-08-15 17:35:030.00m/s69.40%23.70C
2017-08-15 17:37:030.00m/s69.30%23.70C
2017-08-15 17:41:030.00m/s69.40%23.70C
2017-08-15 17:49:030.00m/s69.40%23.70C
2017-08-15 17:56:030.00m/s69.30%23.60C
2017-08-15 18:03:020.00m/s69.30%23.60C
2017-08-15 18:04:020.00m/s69.20%23.50C
2017-08-15 18:07:030.00m/s69.20%23.50C
2017-08-15 18:09:030.00m/s69.20%23.50C
2017-08-15 18:10:030.00m/s69.30%23.50C
2017-08-15 18:15:021.64m/s69.10%23.40C
2017-08-15 18:58:021.64m/s71.60%23.10C
2017-08-15 19:04:020.06m/s71.40%23.10C
2017-08-15 18:17:030.00m/s69.60%23.40C
2017-08-15 19:05:030.00m/s71.60%23.10C
2017-08-15 19:29:030.00m/s72.40%22.90C
2017-08-15 19:31:030.00m/s72.10%22.90C
2017-08-15 19:13:030.00m/s71.50%23.00C
2017-08-15 19:27:020.00m/s71.90%22.90C
2017-08-15 19:33:030.85m/s72.50%22.90C
2017-08-15 19:43:030.00m/s72.90%22.70C
2017-08-15 19:45:020.00m/s72.80%22.70C
2017-08-15 19:48:020.00m/s72.50%22.70C
2017-08-15 19:52:030.00m/s72.20%22.80C
2017-08-15 19:53:020.00m/s72.10%22.80C
2017-08-15 19:38:030.00m/s73.00%22.60C
2017-08-15 19:41:030.00m/s73.00%22.60C
2017-08-15 19:46:030.00m/s72.70%22.70C
2017-08-15 21:47:030.85m/s73.60%21.80C
2017-08-15 19:58:020.00m/s72.10%22.80C
2017-08-15 20:05:030.00m/s72.20%22.70C
2017-08-15 20:07:030.00m/s72.10%22.70C
2017-08-15 20:11:030.00m/s71.80%22.70C
2017-08-15 20:16:030.00m/s72.30%22.70C
2017-08-15 21:41:020.00m/s73.50%21.80C
2017-08-15 21:55:030.00m/s73.90%21.70C
2017-08-15 21:46:030.00m/s74.00%21.70C
2017-08-15 22:16:037.14m/s74.00%21.40C
2017-08-15 22:04:030.00m/s73.80%21.50C
2017-08-15 22:06:020.00m/s73.80%21.50C
2017-08-15 22:12:020.00m/s74.30%21.40C
2017-08-15 23:07:030.00m/s75.40%20.80C
2017-08-15 23:09:030.00m/s75.40%20.80C
2017-08-15 22:36:030.00m/s75.00%21.10C
2017-08-15 22:43:030.00m/s74.60%21.00C
2017-08-15 22:45:030.00m/s74.70%21.00C
2017-08-15 23:33:033.21m/s76.10%20.50C
2017-08-15 23:13:030.00m/s75.90%20.70C
2017-08-15 23:27:030.00m/s76.30%20.60C
2017-08-15 23:29:030.00m/s75.90%20.60C
2017-08-15 23:51:020.00m/s76.60%20.40C
2017-08-15 23:14:030.06m/s75.80%20.80C
2017-08-15 23:19:030.00m/s76.00%20.70C
2017-08-15 23:30:030.00m/s76.00%20.60C
2017-08-15 23:40:020.00m/s76.50%20.50C
2017-08-15 23:56:030.00m/s76.60%20.30C
2017-08-15 23:57:030.00m/s76.60%20.30C
2017-08-16 00:05:030.00m/s77.10%20.30C
2017-08-16 00:20:030.00m/s77.30%20.10C
2017-08-16 00:41:020.00m/s77.30%19.90C
2017-08-16 00:06:060.00m/s77.00%20.30C
2017-08-16 00:12:030.00m/s77.20%20.20C
2017-08-16 00:19:030.00m/s77.10%20.10C
2017-08-16 00:21:100.00m/s77.10%20.10C
2017-08-16 01:22:030.06m/s77.60%19.50C
2017-08-16 00:55:030.00m/s77.30%19.70C
2017-08-16 01:03:030.00m/s77.50%19.70C
2017-08-16 01:10:030.00m/s77.40%19.60C
2017-08-16 01:20:030.00m/s77.90%19.50C
2017-08-16 01:32:030.00m/s78.20%19.40C
2017-08-16 00:43:020.00m/s76.90%19.90C
2017-08-16 01:14:020.00m/s77.50%19.50C
2017-08-16 01:36:030.00m/s78.00%19.30C
2017-08-16 01:43:020.00m/s78.10%19.30C
2017-08-16 01:56:020.00m/s77.90%19.10C
2017-08-16 02:06:030.00m/s77.90%19.10C
2017-08-16 01:47:030.00m/s78.00%19.20C
2017-08-16 01:49:030.00m/s78.00%19.20C
2017-08-16 01:50:030.00m/s78.00%19.20C
2017-08-16 01:51:030.00m/s78.00%19.20C
2017-08-16 01:52:030.00m/s78.00%19.20C
2017-08-16 02:08:030.00m/s77.80%19.00C
2017-08-16 02:24:030.00m/s77.70%18.90C
2017-08-16 02:47:030.00m/s78.40%18.70C
2017-08-16 02:48:030.00m/s78.20%18.70C
2017-08-16 02:53:060.00m/s78.60%18.70C
2017-08-16 02:09:030.00m/s77.80%19.00C
2017-08-16 02:15:030.00m/s77.80%19.00C
2017-08-16 02:16:030.00m/s77.80%19.00C
2017-08-16 02:18:030.00m/s78.10%19.00C
2017-08-16 02:20:040.00m/s78.00%18.90C
2017-08-16 03:04:030.00m/s78.40%18.60C
2017-08-16 03:12:030.00m/s78.40%18.50C
2017-08-16 03:18:030.00m/s78.40%18.50C
2017-08-16 03:21:030.00m/s78.70%18.50C
2017-08-16 03:29:030.00m/s78.60%18.40C
2017-08-16 03:38:020.00m/s78.80%18.40C
2017-08-16 03:41:030.00m/s78.80%18.40C
2017-08-16 03:11:020.00m/s78.60%18.60C
2017-08-16 03:17:030.00m/s78.50%18.50C
2017-08-16 03:45:020.00m/s78.90%18.30C
2017-08-16 04:12:030.00m/s79.30%18.10C
2017-08-16 04:17:020.00m/s79.30%18.10C
2017-08-16 04:18:030.00m/s79.30%18.10C
2017-08-16 04:21:020.00m/s79.30%18.10C
2017-08-16 04:22:030.00m/s79.30%18.10C
2017-08-16 03:44:020.00m/s79.00%18.30C
2017-08-16 03:46:020.00m/s79.00%18.30C
2017-08-16 03:49:030.00m/s79.00%18.30C
2017-08-16 04:40:030.00m/s79.50%17.90C
2017-08-16 04:46:030.00m/s79.50%17.90C
2017-08-16 04:53:030.00m/s79.60%17.80C
2017-08-16 04:58:030.00m/s79.70%17.80C
2017-08-16 04:36:030.00m/s79.40%18.00C
2017-08-16 04:37:030.00m/s79.30%18.00C
2017-08-16 04:39:030.00m/s79.40%18.00C
2017-08-16 05:02:030.00m/s79.80%17.80C
2017-08-16 05:15:030.00m/s79.70%17.70C
2017-08-16 05:18:030.00m/s79.90%17.70C
2017-08-16 05:27:030.00m/s79.90%17.60C
2017-08-16 05:58:020.00m/s80.10%17.40C
2017-08-16 05:59:030.00m/s80.20%17.40C
2017-08-16 05:24:030.00m/s80.00%17.70C
2017-08-16 05:37:030.00m/s80.00%17.60C
2017-08-16 05:39:030.00m/s80.00%17.60C
2017-08-16 05:40:030.00m/s80.00%17.60C
2017-08-16 05:50:020.00m/s80.00%17.50C
2017-08-16 06:04:030.00m/s80.20%17.40C
2017-08-16 06:09:030.00m/s80.10%17.40C
2017-08-16 06:11:030.00m/s80.30%17.40C
2017-08-16 06:17:030.00m/s80.10%17.30C
2017-08-16 06:18:030.00m/s80.20%17.30C
2017-08-16 06:23:020.00m/s80.20%17.30C
2017-08-16 06:24:030.00m/s80.20%17.30C
2017-08-16 06:43:030.00m/s80.60%17.20C
2017-08-16 06:48:030.00m/s80.50%17.20C
2017-08-16 07:19:020.06m/s80.80%17.10C
2017-08-16 06:52:020.00m/s80.30%17.10C
2017-08-16 06:59:030.00m/s80.50%17.10C
2017-08-16 07:00:030.00m/s80.50%17.10C
2017-08-16 07:05:030.00m/s80.50%17.10C
2017-08-16 07:09:020.00m/s80.60%17.10C
2017-08-16 07:12:030.00m/s80.70%17.10C
2017-08-16 07:21:020.00m/s80.80%17.10C
2017-08-16 07:25:030.00m/s80.70%17.00C
2017-08-16 07:30:030.06m/s80.90%17.00C
2017-08-16 07:33:030.00m/s80.90%17.00C
2017-08-16 07:37:030.00m/s80.80%17.00C
2017-08-16 07:43:030.00m/s81.10%17.00C
2017-08-16 07:46:020.00m/s81.10%17.00C
2017-08-16 07:47:030.00m/s81.10%17.00C
2017-08-16 07:54:030.00m/s81.20%17.00C
2017-08-16 07:55:020.00m/s81.20%17.00C
2017-08-16 07:56:030.00m/s81.20%17.00C
2017-08-16 08:11:020.00m/s81.70%17.10C
2017-08-16 08:13:030.00m/s81.60%17.10C
2017-08-16 08:18:030.00m/s81.80%17.10C
2017-08-16 08:23:030.00m/s81.90%17.10C
2017-08-16 07:58:030.00m/s81.40%17.00C
2017-08-16 08:06:020.00m/s81.50%17.00C
2017-08-16 08:07:030.00m/s81.50%17.00C
2017-08-16 08:10:030.00m/s81.50%17.00C
2017-08-16 08:12:030.00m/s81.60%17.00C
2017-08-16 08:39:020.00m/s82.40%17.20C
2017-08-16 08:59:030.00m/s83.70%17.50C
2017-08-16 09:01:030.00m/s83.80%17.50C
2017-08-16 09:03:021.64m/s83.70%17.50C
2017-08-16 09:06:030.00m/s83.70%17.50C
2017-08-16 09:08:030.00m/s83.70%17.60C
2017-08-16 08:46:030.00m/s83.00%17.30C
2017-08-16 08:47:030.00m/s83.00%17.30C
2017-08-16 08:48:030.00m/s83.00%17.30C
2017-08-16 09:17:032.42m/s83.90%17.70C
2017-08-16 09:27:033.21m/s83.70%17.90C
2017-08-16 09:37:030.00m/s83.20%18.10C
2017-08-16 09:39:030.00m/s83.30%18.20C
2017-08-16 09:43:020.00m/s82.80%18.30C
2017-08-16 09:09:030.00m/s83.60%17.60C
2017-08-16 09:16:030.00m/s84.00%17.70C
2017-08-16 09:20:030.00m/s83.70%17.70C
2017-08-16 09:41:030.00m/s83.00%18.20C
2017-08-16 09:52:030.06m/s81.80%18.50C
2017-08-16 09:53:030.06m/s81.70%18.60C
2017-08-16 10:24:030.06m/s77.50%19.70C
2017-08-16 09:56:020.00m/s81.30%18.70C
2017-08-16 10:00:020.00m/s80.90%18.80C
2017-08-16 10:08:020.00m/s79.40%19.10C
2017-08-16 10:20:030.00m/s78.10%19.50C
2017-08-16 09:58:030.00m/s81.00%18.80C
2017-08-16 10:05:020.00m/s80.00%19.00C
2017-08-16 11:02:0212.65m/s73.50%21.10C
2017-08-16 10:28:032.42m/s76.80%19.90C
2017-08-16 11:01:033.21m/s73.90%21.00C
2017-08-16 11:03:032.42m/s73.40%21.10C
2017-08-16 11:11:032.42m/s73.10%21.40C
2017-08-16 11:12:034.00m/s72.70%21.40C
2017-08-16 10:25:030.00m/s77.10%19.70C
2017-08-16 10:42:030.00m/s75.60%20.40C
2017-08-16 11:08:030.00m/s73.60%21.30C
2017-08-16 11:35:023.21m/s69.40%22.30C
2017-08-16 11:34:036.35m/s69.10%22.30C
2017-08-16 11:31:021.64m/s70.00%22.20C
2017-08-16 11:33:030.85m/s70.50%22.30C
2017-08-16 11:20:030.00m/s71.60%21.70C
2017-08-16 11:23:030.00m/s71.20%21.90C
2017-08-16 11:30:020.00m/s69.70%22.20C
2017-08-16 11:38:030.00m/s69.50%22.40C
2017-08-16 11:41:030.00m/s68.90%22.50C
2017-08-16 11:49:027.93m/s68.50%22.80C
2017-08-16 12:05:033.21m/s66.10%23.30C
2017-08-16 12:32:022.42m/s63.20%24.10C
2017-08-16 12:20:031.64m/s64.80%23.70C
2017-08-16 12:35:030.85m/s63.30%24.20C
2017-08-16 12:26:020.00m/s64.10%23.90C
2017-08-16 12:36:030.00m/s63.30%24.20C
2017-08-16 12:41:020.00m/s63.10%24.40C
2017-08-16 11:57:020.00m/s66.50%23.00C
2017-08-16 12:49:020.85m/s61.80%24.60C
2017-08-16 12:51:021.64m/s61.20%24.70C
2017-08-16 12:58:041.64m/s60.60%25.00C
2017-08-16 13:16:030.85m/s57.70%25.40C
2017-08-16 13:36:040.06m/s56.40%25.70C
2017-08-16 12:43:020.00m/s62.80%24.50C
2017-08-16 13:23:030.00m/s57.30%25.50C
2017-08-16 13:26:020.00m/s57.80%25.60C
2017-08-16 12:52:030.00m/s60.80%24.80C
2017-08-16 14:00:020.85m/s56.10%25.90C
2017-08-16 14:07:031.64m/s55.50%25.90C
2017-08-16 13:40:030.00m/s55.60%25.70C
2017-08-16 13:57:030.00m/s56.30%25.90C
2017-08-16 14:01:030.00m/s56.40%25.90C
2017-08-16 14:04:060.00m/s56.20%25.90C
2017-08-16 14:32:060.06m/s55.20%26.20C
2017-08-16 14:19:030.00m/s55.70%26.00C
2017-08-16 14:02:030.00m/s55.90%25.90C
2017-08-16 15:07:033.21m/s52.90%26.70C
2017-08-16 14:47:034.00m/s54.20%26.30C
2017-08-16 14:51:031.64m/s53.70%26.30C
2017-08-16 14:40:030.00m/s53.60%26.10C
2017-08-16 14:42:020.00m/s54.60%26.20C
2017-08-16 14:59:030.00m/s53.20%26.40C
2017-08-16 15:16:030.00m/s52.50%26.80C
2017-08-16 14:43:030.00m/s54.20%26.20C
2017-08-16 14:56:030.00m/s53.00%26.30C
2017-08-16 15:30:034.78m/s50.50%26.90C
2017-08-16 16:17:032.42m/s47.50%28.00C
2017-08-16 15:46:022.42m/s49.20%27.20C
2017-08-16 16:33:020.06m/s48.20%28.10C
2017-08-16 15:21:030.00m/s50.30%26.90C
2017-08-16 15:51:020.00m/s49.80%27.40C
2017-08-16 16:01:030.00m/s48.70%27.80C
2017-08-16 16:25:030.00m/s47.90%28.10C
2017-08-16 16:26:030.00m/s47.50%28.00C
2017-08-16 17:20:032.42m/s49.20%27.60C
2017-08-16 16:34:030.06m/s47.90%28.10C
2017-08-16 17:21:030.06m/s48.90%27.50C
2017-08-16 16:45:030.00m/s47.30%27.90C
2017-08-16 16:48:030.00m/s47.40%27.90C
2017-08-16 16:56:040.00m/s48.60%27.90C
2017-08-16 17:04:030.00m/s49.20%27.80C
2017-08-16 16:58:030.00m/s48.80%27.80C
2017-08-16 17:03:030.00m/s48.80%27.80C
2017-08-16 17:48:030.06m/s50.70%27.30C
2017-08-16 17:49:030.06m/s50.00%27.30C
2017-08-16 17:33:030.00m/s50.10%27.40C
2017-08-16 17:42:020.00m/s50.50%27.40C
2017-08-16 17:54:030.00m/s50.40%27.20C
2017-08-16 18:02:030.00m/s50.30%27.20C
2017-08-16 18:05:030.00m/s50.60%27.20C
2017-08-16 17:26:030.00m/s49.50%27.50C
2017-08-16 17:38:020.00m/s50.40%27.40C
2017-08-16 18:27:020.06m/s50.70%27.10C
2017-08-16 18:10:030.00m/s50.80%27.20C
2017-08-16 18:18:020.00m/s50.80%27.20C
2017-08-16 18:34:030.00m/s51.20%27.10C
2017-08-16 18:36:030.00m/s51.40%27.10C
2017-08-16 18:42:020.00m/s51.60%27.10C
2017-08-16 18:43:030.00m/s51.40%27.10C
2017-08-16 18:20:030.00m/s51.00%27.10C
2017-08-16 18:28:030.00m/s51.00%27.10C
2017-08-16 19:04:020.06m/s52.20%26.90C
2017-08-16 18:44:030.00m/s51.60%27.10C
2017-08-16 18:47:030.00m/s51.60%27.10C
2017-08-16 19:06:030.00m/s52.30%26.80C
2017-08-16 19:07:030.00m/s52.10%26.80C
2017-08-16 19:14:030.00m/s52.80%26.70C
2017-08-16 18:49:030.00m/s51.60%27.00C
2017-08-16 18:50:030.00m/s51.70%27.00C
2017-08-16 18:54:030.00m/s52.20%27.00C
2017-08-16 19:29:030.00m/s53.60%26.50C
2017-08-16 19:33:030.00m/s53.80%26.40C
2017-08-16 19:35:030.00m/s53.90%26.40C
2017-08-16 19:57:020.00m/s55.40%26.10C
2017-08-16 20:11:030.00m/s56.20%25.80C
2017-08-16 19:41:030.00m/s54.30%26.30C
2017-08-16 19:50:060.00m/s55.00%26.10C
2017-08-16 19:59:030.00m/s55.50%26.00C
2017-08-16 20:06:030.00m/s55.90%25.90C
2017-08-16 20:12:020.00m/s56.10%25.80C
2017-08-16 20:16:030.00m/s56.30%25.70C
2017-08-16 20:34:030.00m/s57.30%25.40C
2017-08-16 20:44:030.00m/s57.50%25.10C
2017-08-16 20:45:020.00m/s57.50%25.10C
2017-08-16 20:47:020.00m/s57.50%25.10C
2017-08-16 20:59:030.00m/s58.50%24.80C
2017-08-16 21:02:030.00m/s58.50%24.70C
2017-08-16 21:03:030.00m/s58.60%24.70C
2017-08-16 21:32:030.06m/s60.00%24.10C
2017-08-16 21:05:030.00m/s58.70%24.60C
2017-08-16 21:07:030.00m/s59.10%24.60C
2017-08-16 21:35:030.00m/s60.20%23.90C
2017-08-16 21:37:030.00m/s60.50%23.90C
2017-08-16 21:44:030.00m/s60.50%23.80C
2017-08-16 21:06:030.00m/s59.00%24.60C
2017-08-16 21:08:030.00m/s59.00%24.60C
2017-08-16 21:09:020.00m/s59.00%24.60C
2017-08-16 21:53:020.00m/s60.70%23.60C
2017-08-16 22:04:030.00m/s61.20%23.30C
2017-08-16 22:38:030.00m/s62.90%22.70C
2017-08-16 22:39:030.00m/s62.80%22.60C
2017-08-16 22:42:030.00m/s62.90%22.60C
2017-08-16 22:02:030.00m/s61.30%23.30C
2017-08-16 21:50:030.00m/s60.60%23.60C
2017-08-16 21:51:020.00m/s60.60%23.60C
2017-08-16 22:23:020.00m/s62.00%22.90C
2017-08-16 22:54:020.06m/s64.10%22.20C
2017-08-16 22:47:030.00m/s63.10%22.50C
2017-08-16 22:52:030.00m/s63.80%22.20C
2017-08-16 22:53:030.00m/s64.10%22.20C
2017-08-16 22:58:030.00m/s64.10%22.20C
2017-08-16 23:03:030.00m/s63.80%22.10C
2017-08-16 23:07:030.00m/s64.40%22.10C
2017-08-16 22:56:030.00m/s64.00%22.20C
2017-08-16 23:04:030.00m/s64.00%22.10C
2017-08-16 23:31:020.00m/s65.40%21.70C
2017-08-16 23:33:030.00m/s65.30%21.70C
2017-08-16 23:34:030.00m/s65.40%21.60C
2017-08-16 23:36:030.00m/s65.30%21.60C
2017-08-16 23:42:030.00m/s65.70%21.50C
2017-08-16 23:43:030.00m/s65.60%21.50C
2017-08-16 23:13:030.00m/s64.30%22.00C
2017-08-16 23:15:030.00m/s64.80%22.00C
2017-08-16 23:47:030.00m/s66.00%21.40C
2017-08-16 23:50:030.00m/s66.60%21.40C
2017-08-16 23:59:030.00m/s66.50%21.30C
2017-08-17 00:01:020.00m/s66.80%21.30C
2017-08-17 00:07:030.00m/s66.90%21.10C
2017-08-17 00:22:030.00m/s66.70%20.90C
2017-08-17 02:05:020.00m/s70.20%19.70C
2017-08-17 02:20:030.00m/s70.10%19.50C
2017-08-16 23:55:030.00m/s66.30%21.30C
2017-08-16 23:58:030.00m/s66.30%21.30C
2017-08-17 02:25:030.00m/s70.40%19.50C
2017-08-17 02:34:020.00m/s70.10%19.40C
2017-08-17 02:36:030.00m/s70.70%19.40C
2017-08-17 02:40:020.00m/s70.60%19.30C
2017-08-17 02:47:030.00m/s70.70%19.30C
2017-08-17 02:48:030.00m/s70.50%19.30C
2017-08-17 02:51:030.00m/s70.90%19.20C
2017-08-17 02:53:030.00m/s70.70%19.20C
2017-08-17 02:54:020.00m/s70.30%19.20C
2017-08-17 03:08:040.06m/s70.90%19.10C
2017-08-17 02:58:030.00m/s70.60%19.20C
2017-08-17 03:00:030.00m/s70.70%19.20C
2017-08-17 03:01:030.00m/s70.60%19.10C
2017-08-17 03:07:020.00m/s70.60%19.10C
2017-08-17 03:28:030.00m/s71.30%18.90C
2017-08-17 02:56:030.00m/s71.20%19.20C
2017-08-17 03:17:060.00m/s71.00%19.00C
2017-08-17 03:27:030.00m/s71.00%19.00C
2017-08-17 03:29:030.00m/s71.20%18.90C
2017-08-17 03:33:030.00m/s71.30%18.90C
2017-08-17 03:36:030.00m/s71.30%18.90C
2017-08-17 03:38:030.00m/s71.30%18.90C
2017-08-17 03:42:020.00m/s71.30%18.90C
2017-08-17 03:43:030.00m/s71.30%18.90C
2017-08-17 03:46:030.00m/s71.20%18.80C
2017-08-17 03:49:040.00m/s71.50%18.80C
2017-08-17 03:59:030.00m/s71.50%18.70C
2017-08-17 04:10:030.06m/s71.60%18.70C
2017-08-17 04:03:030.00m/s71.30%18.70C
2017-08-17 04:17:030.00m/s71.90%18.60C
2017-08-17 04:29:030.00m/s71.90%18.50C
2017-08-17 04:02:030.00m/s71.70%18.70C
2017-08-17 04:06:030.00m/s71.70%18.70C
2017-08-17 04:14:030.00m/s71.60%18.60C
2017-08-17 04:24:030.00m/s72.00%18.60C
2017-08-17 04:30:030.00m/s72.00%18.50C
2017-08-17 04:58:033.21m/s72.40%18.40C
2017-08-17 05:01:030.85m/s72.50%18.40C
2017-08-17 04:40:030.00m/s72.10%18.50C
2017-08-17 04:42:030.00m/s72.10%18.50C
2017-08-17 04:43:030.00m/s72.20%18.50C
2017-08-17 04:49:021.64m/s72.30%18.50C
2017-08-17 04:51:030.00m/s72.30%18.40C
2017-08-17 04:55:020.00m/s72.30%18.40C
2017-08-17 05:16:030.00m/s72.80%18.30C
2017-08-17 05:21:032.42m/s72.90%18.30C
2017-08-17 06:05:033.21m/s74.20%18.20C
2017-08-17 05:28:020.06m/s73.20%18.30C
2017-08-17 06:36:030.06m/s75.50%18.20C
2017-08-17 06:38:030.85m/s75.60%18.20C
2017-08-17 06:41:030.85m/s75.70%18.20C
2017-08-17 05:48:020.00m/s73.80%18.30C
2017-08-17 06:04:030.00m/s74.30%18.20C
2017-08-17 05:31:030.00m/s73.30%18.30C
2017-08-17 06:52:033.21m/s76.30%18.20C
2017-08-17 07:05:034.78m/s76.60%18.10C
2017-08-17 07:19:023.21m/s77.00%18.20C
2017-08-17 07:25:033.21m/s77.00%18.20C
2017-08-17 07:23:037.93m/s77.10%18.20C
2017-08-17 07:14:034.00m/s77.00%18.20C
2017-08-17 06:44:030.85m/s75.90%18.20C
2017-08-17 07:00:030.00m/s76.40%18.10C
2017-08-17 06:51:030.00m/s76.20%18.20C
2017-08-17 07:42:028.71m/s77.10%18.20C
2017-08-17 07:55:033.21m/s77.00%18.20C
2017-08-17 08:18:034.78m/s77.80%18.20C
2017-08-17 08:19:032.42m/s77.90%18.30C
2017-08-17 07:56:027.14m/s77.00%18.20C
2017-08-17 08:14:034.00m/s77.90%18.20C
2017-08-17 07:35:031.64m/s77.00%18.20C
2017-08-17 08:06:020.00m/s77.50%18.30C
2017-08-17 08:09:030.00m/s78.00%18.30C
2017-08-17 08:34:034.00m/s78.20%18.30C
2017-08-17 08:49:037.93m/s78.60%18.30C
2017-08-17 08:47:034.00m/s78.40%18.40C
2017-08-17 08:48:020.85m/s78.50%18.40C
2017-08-17 08:26:030.00m/s78.10%18.30C
2017-08-17 08:38:030.00m/s78.10%18.30C
2017-08-17 08:52:030.00m/s78.70%18.30C
2017-08-17 08:58:030.00m/s78.70%18.30C
2017-08-17 08:39:031.64m/s78.30%18.30C
2017-08-17 09:00:036.35m/s78.70%18.40C
2017-08-17 09:10:026.35m/s79.30%18.40C
2017-08-17 09:45:034.78m/s80.00%18.60C
2017-08-17 09:52:032.42m/s80.10%18.70C
2017-08-17 09:28:100.85m/s79.40%18.50C
2017-08-17 09:46:030.85m/s80.10%18.70C
2017-08-17 09:05:030.00m/s79.10%18.40C
2017-08-17 09:06:021.64m/s79.00%18.40C
2017-08-17 09:26:020.00m/s79.30%18.40C
2017-08-17 09:59:032.42m/s80.00%18.80C
2017-08-17 10:10:040.85m/s80.00%18.90C
2017-08-17 10:15:030.85m/s80.00%18.90C
2017-08-17 10:16:060.06m/s80.30%18.90C
2017-08-17 09:53:031.64m/s80.20%18.70C
2017-08-17 10:12:030.00m/s79.90%18.90C
2017-08-17 10:27:030.00m/s80.40%19.00C
2017-08-17 10:31:030.00m/s80.30%19.00C
2017-08-17 10:13:030.00m/s80.00%18.90C
2017-08-17 10:49:037.93m/s81.20%19.10C
2017-08-17 10:32:034.00m/s80.40%19.00C
2017-08-17 11:02:030.85m/s81.00%19.10C
2017-08-17 10:35:031.64m/s80.60%19.00C
2017-08-17 10:47:031.64m/s81.30%19.10C
2017-08-17 11:08:030.00m/s81.40%19.10C
2017-08-17 11:09:030.00m/s81.40%19.10C
2017-08-17 10:36:030.00m/s80.60%19.00C
2017-08-17 11:13:030.00m/s81.00%19.10C
2017-08-17 11:27:0314.22m/s81.00%19.20C
2017-08-17 11:31:033.21m/s81.60%19.20C
2017-08-17 11:43:034.00m/s81.10%19.20C
2017-08-17 11:24:020.85m/s81.10%19.20C
2017-08-17 11:28:030.06m/s81.40%19.20C
2017-08-17 11:33:020.85m/s81.50%19.20C
2017-08-17 11:19:020.00m/s81.30%19.20C
2017-08-17 11:49:030.00m/s81.40%19.20C
2017-08-17 11:50:030.00m/s81.40%19.20C
2017-08-17 12:40:033.21m/s84.50%19.10C
2017-08-17 12:36:030.06m/s84.30%19.20C
2017-08-17 12:43:030.06m/s84.70%19.10C
2017-08-17 11:53:170.00m/s81.60%19.20C
2017-08-17 12:00:030.00m/s81.60%19.20C
2017-08-17 12:04:030.00m/s81.50%19.20C
2017-08-17 12:05:030.00m/s81.80%19.20C
2017-08-17 12:06:030.00m/s81.90%19.20C
2017-08-17 12:38:030.00m/s84.30%19.20C
2017-08-17 13:04:027.14m/s85.80%19.20C
2017-08-17 13:08:035.57m/s85.80%19.20C
2017-08-17 13:09:036.35m/s85.50%19.20C
2017-08-17 13:00:038.71m/s85.00%19.20C
2017-08-17 12:56:020.85m/s85.70%19.20C
2017-08-17 13:06:030.85m/s86.00%19.20C
2017-08-17 12:47:021.64m/s84.30%19.20C
2017-08-17 13:19:030.00m/s86.70%19.30C
2017-08-17 13:11:020.00m/s86.20%19.20C
2017-08-17 13:40:0311.86m/s87.40%19.40C
2017-08-17 13:45:032.42m/s87.10%19.40C
2017-08-17 13:46:034.78m/s87.80%19.40C
2017-08-17 13:22:034.00m/s86.50%19.30C
2017-08-17 14:06:039.50m/s87.50%19.50C
2017-08-17 14:07:030.85m/s87.20%19.50C
2017-08-17 13:25:101.64m/s86.20%19.30C
2017-08-17 13:59:020.00m/s87.50%19.50C
2017-08-17 14:08:020.00m/s87.00%19.50C
2017-08-17 14:11:032.42m/s86.70%19.60C
2017-08-17 14:37:097.93m/s86.40%19.70C
2017-08-17 14:14:020.85m/s87.50%19.60C
2017-08-17 14:33:030.85m/s86.90%19.70C
2017-08-17 14:27:030.00m/s86.80%19.70C
2017-08-17 14:36:030.00m/s86.80%19.70C
2017-08-17 14:44:030.00m/s86.80%19.70C
2017-08-17 14:22:030.00m/s86.70%19.70C
2017-08-17 14:25:020.00m/s86.70%19.70C
2017-08-17 14:56:022.42m/s86.70%19.80C
2017-08-17 15:00:033.21m/s87.10%19.80C
2017-08-17 15:21:027.14m/s87.40%19.80C
2017-08-17 15:03:028.71m/s87.20%19.80C
2017-08-17 15:18:023.21m/s86.80%19.80C
2017-08-17 15:05:030.85m/s87.10%19.80C
2017-08-17 15:24:030.85m/s87.70%19.80C
2017-08-17 14:45:030.00m/s86.60%19.70C
2017-08-17 15:11:020.00m/s86.80%19.80C
2017-08-17 15:31:022.42m/s88.10%19.80C
2017-08-17 15:34:035.57m/s88.40%19.80C
2017-08-17 15:47:035.57m/s89.20%19.70C
2017-08-17 15:48:032.42m/s88.80%19.70C
2017-08-17 15:28:030.85m/s87.90%19.80C
2017-08-17 15:49:020.85m/s88.80%19.70C
2017-08-17 15:52:030.06m/s89.00%19.70C
2017-08-17 15:55:030.00m/s89.40%19.70C
2017-08-17 15:51:030.00m/s88.70%19.70C
2017-08-17 16:07:036.35m/s89.90%19.70C
2017-08-17 16:16:037.93m/s90.30%19.60C
2017-08-17 16:17:036.35m/s90.30%19.60C
2017-08-17 16:19:033.21m/s90.40%19.70C
2017-08-17 16:26:036.35m/s90.40%19.70C
2017-08-17 16:28:036.35m/s90.40%19.70C
2017-08-17 16:40:023.21m/s90.50%19.70C
2017-08-17 16:04:030.00m/s89.60%19.70C
2017-08-17 16:22:020.00m/s90.40%19.70C
2017-08-17 16:43:032.42m/s90.80%19.70C
2017-08-17 16:54:035.57m/s90.80%19.70C
2017-08-17 17:03:035.57m/s90.90%19.80C
2017-08-17 16:48:030.00m/s90.40%19.70C
2017-08-17 16:53:030.00m/s90.60%19.70C
2017-08-17 16:57:030.00m/s90.90%19.70C
2017-08-17 17:05:031.64m/s91.00%19.80C
2017-08-17 17:07:020.00m/s91.20%19.80C
2017-08-17 17:02:030.00m/s91.00%19.80C
2017-08-17 17:08:027.14m/s91.00%19.80C
2017-08-17 17:22:036.35m/s90.80%19.90C
2017-08-17 17:27:038.71m/s91.10%19.90C
2017-08-17 17:32:034.78m/s90.60%19.90C
2017-08-17 17:23:030.85m/s91.10%19.90C
2017-08-17 17:36:021.64m/s91.00%20.00C
2017-08-17 17:37:030.06m/s91.00%20.00C
2017-08-17 17:09:020.00m/s91.00%19.80C
2017-08-17 17:17:020.00m/s91.00%19.90C
2017-08-17 17:42:034.78m/s90.80%20.00C
2017-08-17 17:48:027.93m/s90.70%20.10C
2017-08-17 17:50:034.78m/s90.90%20.10C
2017-08-17 17:51:023.21m/s91.00%20.10C
2017-08-17 17:46:030.85m/s90.70%20.10C
2017-08-17 17:43:020.00m/s90.80%20.10C
2017-08-17 17:58:030.00m/s90.50%20.10C
2017-08-17 17:38:030.00m/s90.90%20.00C
2017-08-17 17:39:030.00m/s90.80%20.00C
2017-08-17 18:04:034.78m/s90.60%20.20C
2017-08-17 18:22:024.78m/s90.70%20.30C
2017-08-17 18:26:033.21m/s90.70%20.40C
2017-08-17 18:40:032.42m/s90.30%20.50C
2017-08-17 17:59:031.64m/s90.50%20.10C
2017-08-17 18:16:031.64m/s90.60%20.30C
2017-08-17 18:00:030.00m/s90.50%20.10C
2017-08-17 18:08:030.00m/s90.50%20.20C
2017-08-17 18:17:030.00m/s90.60%20.30C
2017-08-17 19:02:047.93m/s89.70%20.60C
2017-08-17 19:24:034.78m/s89.20%20.80C
2017-08-17 19:08:030.06m/s89.50%20.70C
2017-08-17 19:13:030.85m/s89.90%20.70C
2017-08-17 21:16:031.64m/s88.10%20.40C
2017-08-17 21:25:030.85m/s88.10%20.30C
2017-08-17 21:11:030.00m/s87.90%20.40C
2017-08-17 21:20:030.00m/s88.10%20.30C
2017-08-17 18:48:020.00m/s90.50%20.50C
2017-08-17 22:06:033.21m/s88.20%20.10C
2017-08-17 22:07:030.06m/s88.40%20.00C
2017-08-17 21:31:030.00m/s87.90%20.30C
2017-08-17 21:32:030.00m/s87.80%20.30C
2017-08-17 21:58:030.00m/s88.60%20.10C
2017-08-17 22:00:020.00m/s88.50%20.10C
2017-08-17 21:44:030.00m/s88.00%20.20C
2017-08-17 21:46:030.00m/s88.20%20.20C
2017-08-17 22:10:030.00m/s88.20%20.00C
2017-08-17 22:25:030.00m/s88.80%19.90C
2017-08-17 22:31:030.00m/s88.50%19.90C
2017-08-17 22:32:030.00m/s88.80%19.90C
2017-08-17 22:43:030.00m/s89.10%19.80C
2017-08-17 22:49:030.00m/s89.50%19.80C
2017-08-17 22:53:030.00m/s89.60%19.70C
2017-08-17 23:00:030.00m/s88.80%19.70C
2017-08-17 23:04:020.00m/s88.80%19.70C
2017-08-17 23:07:030.00m/s88.40%19.70C
2017-08-17 23:30:033.21m/s86.20%19.40C
2017-08-17 23:12:020.85m/s88.20%19.60C
2017-08-17 23:09:030.00m/s88.30%19.60C
2017-08-17 23:11:020.00m/s88.10%19.60C
2017-08-17 23:13:020.00m/s88.30%19.60C
2017-08-17 23:15:030.00m/s88.10%19.60C
2017-08-17 23:17:030.00m/s87.70%19.50C
2017-08-17 23:32:040.00m/s85.90%19.40C
2017-08-17 23:31:030.00m/s86.00%19.40C
2017-08-17 23:37:030.00m/s85.50%19.40C
2017-08-17 23:51:030.00m/s85.10%19.30C
2017-08-17 23:52:030.00m/s84.60%19.20C
2017-08-17 23:58:030.00m/s84.80%19.20C
2017-08-18 00:10:040.00m/s84.40%19.10C
2017-08-18 00:13:030.00m/s84.40%19.00C
2017-08-18 00:20:030.00m/s84.00%18.90C
2017-08-18 00:26:030.00m/s84.00%18.90C
2017-08-18 00:29:030.00m/s84.00%18.90C
2017-08-18 00:30:030.00m/s83.90%18.80C
2017-08-18 00:33:020.00m/s83.90%18.80C
2017-08-18 00:37:031.64m/s83.90%18.80C
2017-08-18 00:53:020.00m/s83.30%18.60C
2017-08-18 00:59:020.00m/s83.30%18.60C
2017-08-18 01:03:030.00m/s83.30%18.50C
2017-08-18 01:09:030.00m/s83.30%18.50C
2017-08-18 01:10:040.00m/s83.30%18.50C
2017-08-18 01:14:030.00m/s83.40%18.40C
2017-08-18 01:29:030.06m/s83.00%18.30C
2017-08-18 01:35:030.00m/s83.10%18.20C
2017-08-18 01:37:020.00m/s83.20%18.30C
2017-08-18 01:45:020.00m/s83.30%18.20C
2017-08-18 01:58:030.00m/s83.20%18.10C
2017-08-18 02:02:030.00m/s83.20%18.10C
2017-08-18 02:06:030.00m/s83.50%18.10C
2017-08-18 01:47:160.00m/s83.20%18.20C
2017-08-18 02:05:030.00m/s83.20%18.00C
2017-08-18 02:13:030.06m/s83.40%18.00C
2017-08-18 02:20:030.00m/s83.60%17.90C
2017-08-18 02:23:020.00m/s83.70%17.90C
2017-08-18 02:25:030.00m/s83.80%17.90C
2017-08-18 02:27:040.00m/s83.70%17.90C
2017-08-18 02:35:030.00m/s83.90%17.80C
2017-08-18 02:08:030.00m/s83.10%18.00C
2017-08-18 02:15:030.00m/s83.40%18.00C
2017-08-18 02:37:020.00m/s84.00%17.80C
2017-08-18 02:43:030.00m/s84.10%17.80C
2017-08-18 02:52:030.00m/s84.20%17.70C
2017-08-18 03:01:030.00m/s84.40%17.70C
2017-08-18 03:12:030.00m/s84.70%17.60C
2017-08-18 03:15:030.00m/s84.80%17.60C
2017-08-18 03:17:020.00m/s84.70%17.60C
2017-08-18 03:30:030.00m/s85.10%17.50C
2017-08-18 03:10:030.00m/s84.70%17.70C
2017-08-18 03:29:020.00m/s85.00%17.50C
2017-08-18 03:37:040.00m/s85.20%17.50C
2017-08-18 03:42:030.00m/s85.20%17.50C
2017-08-18 04:04:030.00m/s85.70%17.40C
2017-08-18 04:05:020.00m/s85.80%17.40C
2017-08-18 04:08:030.00m/s85.70%17.40C
2017-08-18 04:16:030.00m/s86.10%17.40C
2017-08-18 04:19:031.64m/s86.20%17.40C
2017-08-18 04:25:170.00m/s86.10%17.30C
2017-08-18 04:13:030.00m/s86.00%17.40C
2017-08-18 04:26:031.64m/s86.10%17.30C
2017-08-18 04:27:030.00m/s86.20%17.30C
2017-08-18 04:40:030.00m/s86.50%17.30C
2017-08-18 04:46:030.00m/s86.90%17.30C
2017-08-18 04:54:021.64m/s87.00%17.30C
2017-08-18 04:59:030.00m/s87.10%17.20C
2017-08-18 05:06:030.00m/s87.70%17.20C
2017-08-18 05:08:030.00m/s87.50%17.20C
2017-08-18 05:01:030.00m/s87.20%17.20C
2017-08-18 05:11:027.93m/s87.80%17.20C
2017-08-18 05:33:033.21m/s88.30%17.20C
2017-08-18 05:17:034.00m/s87.90%17.20C
2017-08-18 05:10:030.00m/s87.80%17.20C
2017-08-18 05:14:031.64m/s88.10%17.20C
2017-08-18 05:15:030.00m/s88.10%17.20C
2017-08-18 05:31:021.64m/s88.10%17.20C
2017-08-18 05:36:030.00m/s88.30%17.20C
2017-08-18 05:37:030.00m/s88.50%17.20C
2017-08-18 06:02:030.06m/s88.40%17.10C
2017-08-18 05:44:030.00m/s88.50%17.20C
2017-08-18 05:47:020.00m/s88.40%17.10C
2017-08-18 06:04:030.00m/s88.40%17.10C
2017-08-18 06:07:030.00m/s88.40%17.10C
2017-08-18 06:11:030.00m/s88.40%17.10C
2017-08-18 06:24:030.00m/s88.50%17.20C
2017-08-18 06:35:030.00m/s88.90%17.10C
2017-08-18 06:48:020.00m/s89.20%17.10C
2017-08-18 07:17:030.85m/s89.90%17.20C
2017-08-18 06:50:030.00m/s89.30%17.20C
2017-08-18 06:55:030.00m/s89.20%17.10C
2017-08-18 07:05:020.00m/s89.40%17.20C
2017-08-18 07:07:030.00m/s89.50%17.20C
2017-08-18 07:08:030.00m/s89.60%17.20C
2017-08-18 07:12:030.00m/s89.70%17.20C
2017-08-18 07:13:030.00m/s89.80%17.20C
2017-08-18 07:27:020.00m/s90.00%17.20C
2017-08-18 07:30:033.21m/s90.10%17.20C
2017-08-18 08:08:033.21m/s90.40%17.30C
2017-08-18 07:28:030.00m/s90.10%17.20C
2017-08-18 07:33:030.00m/s90.10%17.20C
2017-08-18 07:34:031.64m/s90.10%17.20C
2017-08-18 07:36:020.00m/s90.10%17.20C
2017-08-18 08:01:030.06m/s90.30%17.30C
2017-08-18 08:03:030.00m/s90.30%17.30C
2017-08-18 07:29:030.00m/s90.00%17.20C
2017-08-18 08:31:032.42m/s90.40%17.40C
2017-08-18 08:33:020.06m/s90.60%17.50C
2017-08-18 09:02:020.06m/s91.40%17.60C
2017-08-18 08:23:030.00m/s90.30%17.40C
2017-08-18 08:42:030.00m/s90.70%17.50C
2017-08-18 08:44:030.00m/s90.80%17.50C
2017-08-18 09:03:030.00m/s91.60%17.70C
2017-08-18 09:06:030.00m/s91.60%17.70C
2017-08-18 08:22:020.06m/s90.40%17.40C
2017-08-18 09:40:0311.07m/s92.10%17.90C
2017-08-18 09:08:035.57m/s91.50%17.70C
2017-08-18 09:42:037.14m/s92.40%17.90C
2017-08-18 09:46:033.21m/s92.30%18.00C
2017-08-18 09:30:030.85m/s91.90%17.80C
2017-08-18 09:41:030.06m/s92.40%17.90C
2017-08-18 09:48:030.06m/s92.10%17.90C
2017-08-18 09:13:021.64m/s91.90%17.70C
2017-08-18 09:38:030.00m/s92.20%17.90C
2017-08-18 09:54:036.35m/s92.20%18.00C
2017-08-18 10:02:034.78m/s92.60%18.10C
2017-08-18 10:04:023.21m/s92.40%18.10C
2017-08-18 10:10:034.78m/s92.80%18.20C
2017-08-18 10:23:023.21m/s92.60%18.40C
2017-08-18 10:17:020.85m/s93.00%18.30C
2017-08-18 10:07:030.00m/s92.40%18.10C
2017-08-18 10:19:021.64m/s93.10%18.30C
2017-08-18 09:50:030.00m/s92.40%18.00C
2017-08-18 10:32:032.42m/s92.60%18.50C
2017-08-18 10:29:034.00m/s92.60%18.40C
2017-08-18 10:48:034.78m/s92.70%18.70C
2017-08-18 10:27:030.85m/s92.60%18.40C
2017-08-18 10:31:030.06m/s92.90%18.50C
2017-08-18 10:28:020.00m/s92.60%18.40C
2017-08-18 10:55:030.00m/s92.30%18.80C
2017-08-18 10:56:030.00m/s92.20%18.80C
2017-08-18 10:59:030.00m/s92.00%18.90C
2017-08-18 11:20:035.57m/s91.70%19.20C
2017-08-18 11:37:030.06m/s90.90%19.40C
2017-08-18 11:38:030.85m/s90.90%19.50C
2017-08-18 11:09:031.64m/s92.00%19.10C
2017-08-18 11:13:020.00m/s91.50%19.10C
2017-08-18 11:14:030.00m/s91.60%19.10C
2017-08-18 11:25:020.00m/s91.60%19.30C
2017-08-18 11:51:040.00m/s90.30%19.60C
2017-08-18 11:01:030.00m/s92.00%18.90C
2017-08-18 12:03:072.42m/s90.20%19.70C
2017-08-18 12:23:033.21m/s89.40%20.00C
2017-08-18 12:28:033.21m/s87.80%20.00C
2017-08-18 12:27:022.42m/s87.80%20.00C
2017-08-18 12:13:040.06m/s90.10%19.80C
2017-08-18 11:53:030.00m/s90.30%19.60C
2017-08-18 11:56:030.00m/s90.30%19.60C
2017-08-18 12:09:030.00m/s90.00%19.70C
2017-08-18 12:10:030.00m/s90.00%19.80C
2017-08-18 12:36:036.35m/s86.80%20.00C
2017-08-18 12:55:022.42m/s86.60%20.00C
2017-08-18 12:49:031.64m/s86.40%20.00C
2017-08-18 12:53:030.85m/s86.40%20.00C
2017-08-18 12:42:021.64m/s86.10%20.10C
2017-08-18 12:29:030.00m/s87.50%20.00C
2017-08-18 12:45:030.00m/s86.40%20.00C
2017-08-18 12:47:030.00m/s86.40%20.00C
2017-08-18 12:48:030.00m/s86.30%20.00C
2017-08-18 13:11:034.78m/s86.40%19.90C
2017-08-18 13:20:022.42m/s86.40%19.90C
2017-08-18 13:02:020.00m/s86.30%19.90C
2017-08-18 13:12:020.00m/s86.20%19.90C
2017-08-18 13:16:030.00m/s86.30%19.90C
2017-08-18 13:19:030.00m/s86.50%19.90C
2017-08-18 13:25:030.00m/s86.70%19.80C
2017-08-18 13:00:020.00m/s86.40%20.00C
2017-08-18 13:04:030.00m/s86.50%20.00C
2017-08-18 14:23:023.21m/s86.50%20.10C
2017-08-18 14:35:032.42m/s86.00%20.20C
2017-08-18 14:01:030.85m/s88.10%19.90C
2017-08-18 14:10:030.85m/s87.70%20.00C
2017-08-18 13:35:020.00m/s87.20%19.90C
2017-08-18 13:40:031.64m/s87.80%19.90C
2017-08-18 13:53:030.00m/s88.60%19.90C
2017-08-18 14:16:030.00m/s87.50%20.10C
2017-08-18 14:36:030.00m/s85.90%20.20C
2017-08-18 16:12:024.78m/s76.80%20.90C
2017-08-18 16:18:033.21m/s76.50%21.00C
2017-08-18 16:37:033.21m/s75.50%21.30C
2017-08-18 16:39:030.85m/s74.00%21.40C
2017-08-18 16:41:030.85m/s74.30%21.40C
2017-08-18 16:44:020.06m/s73.30%21.50C
2017-08-18 16:34:020.00m/s74.50%21.30C
2017-08-18 16:49:020.00m/s73.20%21.60C
2017-08-18 14:39:030.00m/s85.30%20.30C
2017-08-18 17:07:030.85m/s73.70%21.80C
2017-08-18 17:22:030.00m/s73.80%21.90C
2017-08-18 17:26:030.00m/s73.80%21.90C
2017-08-18 17:28:030.00m/s73.70%21.90C
2017-08-18 17:33:030.00m/s73.70%21.90C
2017-08-18 17:35:030.00m/s73.80%21.90C
2017-08-18 17:42:030.00m/s73.50%21.90C
2017-08-18 17:44:030.00m/s73.80%21.90C
2017-08-18 17:18:030.00m/s73.90%21.90C
2017-08-18 17:52:030.06m/s74.20%22.00C
2017-08-18 18:08:030.06m/s74.30%21.90C
2017-08-18 18:22:030.00m/s74.60%21.90C
2017-08-18 18:53:030.00m/s74.20%21.90C
2017-08-18 18:55:030.00m/s74.50%21.90C
2017-08-18 17:46:030.00m/s74.30%22.00C
2017-08-18 17:53:030.00m/s74.30%22.00C
2017-08-18 18:21:030.00m/s75.00%21.90C
2017-08-18 18:23:030.00m/s75.00%21.90C
2017-08-18 19:24:063.21m/s73.00%21.80C
2017-08-18 19:45:033.21m/s70.90%21.50C
2017-08-18 19:50:034.78m/s69.50%21.30C
2017-08-18 19:44:037.93m/s71.50%21.40C
2017-08-18 19:33:030.06m/s73.50%21.70C
2017-08-18 19:02:030.00m/s74.20%21.90C
2017-08-18 19:13:030.00m/s73.50%21.90C
2017-08-18 19:14:020.00m/s73.30%21.80C
2017-08-18 19:11:070.00m/s73.90%21.90C
2017-08-18 20:05:025.57m/s69.70%21.10C
2017-08-18 19:56:034.00m/s69.70%21.30C
2017-08-18 20:31:030.06m/s69.40%20.70C
2017-08-18 19:54:020.00m/s69.90%21.30C
2017-08-18 20:17:030.00m/s69.30%20.90C
2017-08-18 20:29:030.00m/s69.30%20.70C
2017-08-18 20:35:030.00m/s69.90%20.70C
2017-08-18 20:36:030.00m/s70.30%20.70C
2017-08-18 20:10:030.00m/s69.10%21.00C
2017-08-18 21:10:033.21m/s70.60%20.20C
2017-08-18 21:26:035.57m/s69.20%19.90C
2017-08-18 21:11:022.42m/s70.50%20.20C
2017-08-18 20:41:020.00m/s70.20%20.60C
2017-08-18 20:46:030.00m/s70.50%20.60C
2017-08-18 20:50:030.00m/s70.10%20.40C
2017-08-18 21:32:030.00m/s69.10%19.70C
2017-08-18 21:33:030.00m/s69.30%19.70C
2017-08-18 21:20:030.00m/s69.60%20.00C
2017-08-18 21:59:034.78m/s71.70%19.30C
2017-08-18 22:06:033.21m/s72.00%19.30C
2017-08-18 22:03:024.00m/s71.70%19.30C
2017-08-18 21:40:030.06m/s70.30%19.60C
2017-08-18 21:57:030.85m/s71.80%19.40C
2017-08-18 22:15:030.06m/s72.30%19.10C
2017-08-18 21:45:021.64m/s70.70%19.50C
2017-08-18 22:04:030.00m/s71.70%19.30C
2017-08-18 22:25:030.00m/s73.10%19.00C
2017-08-18 22:35:020.00m/s73.50%18.90C
2017-08-18 22:37:030.00m/s73.40%18.80C
2017-08-18 22:42:030.00m/s73.20%18.80C
2017-08-18 22:50:030.00m/s73.50%18.60C
2017-08-18 22:58:030.00m/s73.40%18.50C
2017-08-18 23:04:030.00m/s73.70%18.40C
2017-08-18 23:06:030.00m/s73.90%18.40C
2017-08-18 23:10:031.64m/s73.90%18.40C
2017-08-18 22:29:030.00m/s73.50%19.00C
2017-08-18 23:59:033.21m/s75.10%17.70C
2017-08-18 23:34:030.00m/s74.70%18.10C
2017-08-18 23:35:030.00m/s74.70%18.10C
2017-08-18 23:51:030.00m/s74.80%17.90C
2017-08-18 23:58:030.00m/s74.70%17.80C
2017-08-19 00:09:030.00m/s74.90%17.60C
2017-08-18 23:15:030.00m/s74.00%18.30C
2017-08-18 23:17:100.00m/s74.00%18.30C
2017-08-19 00:02:030.00m/s74.70%17.70C
2017-08-19 00:11:030.00m/s74.90%17.50C
2017-08-19 00:14:030.00m/s74.90%17.50C
2017-08-19 00:17:030.00m/s74.90%17.50C
2017-08-19 00:21:030.00m/s75.10%17.50C
2017-08-19 00:22:030.00m/s74.80%17.40C
2017-08-19 00:28:030.00m/s75.40%17.30C
2017-08-19 00:12:030.00m/s75.00%17.50C
2017-08-19 00:16:030.00m/s75.00%17.50C
2017-08-19 00:19:030.00m/s75.00%17.50C
2017-08-19 01:05:032.42m/s75.80%16.90C
2017-08-19 01:14:048.71m/s75.70%16.80C
2017-08-19 00:32:030.85m/s75.30%17.20C
2017-08-19 00:33:030.06m/s75.30%17.20C
2017-08-19 00:36:030.00m/s75.60%17.20C
2017-08-19 00:40:030.00m/s75.70%17.20C
2017-08-19 00:42:031.64m/s75.50%17.10C
2017-08-19 00:46:030.00m/s75.60%17.10C
2017-08-19 01:35:030.00m/s75.60%16.50C
2017-08-19 02:02:024.78m/s76.30%16.30C
2017-08-19 01:57:030.06m/s76.30%16.40C
2017-08-19 01:38:030.00m/s75.90%16.50C
2017-08-19 01:45:031.64m/s76.10%16.50C
2017-08-19 01:46:030.00m/s76.30%16.50C
2017-08-19 01:59:020.00m/s76.50%16.40C
2017-08-19 01:52:030.00m/s76.40%16.40C
2017-08-19 01:53:031.64m/s76.40%16.40C
2017-08-19 01:54:020.00m/s76.40%16.40C
2017-08-19 02:11:022.42m/s76.60%16.30C
2017-08-19 02:14:027.93m/s76.60%16.20C
2017-08-19 02:35:030.06m/s77.00%16.10C
2017-08-19 02:21:030.00m/s76.90%16.20C
2017-08-19 02:23:030.00m/s76.80%16.20C
2017-08-19 02:30:020.00m/s76.60%16.10C
2017-08-19 02:33:030.00m/s76.90%16.10C
2017-08-19 02:38:020.00m/s77.00%16.10C
2017-08-19 02:05:050.00m/s76.30%16.30C
2017-08-19 02:51:035.57m/s77.30%16.00C
2017-08-19 02:48:034.00m/s77.20%16.00C
2017-08-19 03:00:030.00m/s77.50%15.90C
2017-08-19 03:03:030.00m/s77.60%15.90C
2017-08-19 03:10:030.00m/s77.80%15.90C
2017-08-19 04:01:030.00m/s79.10%15.50C
2017-08-19 02:50:030.00m/s77.20%16.00C
2017-08-19 02:53:030.00m/s77.40%16.00C
2017-08-19 03:22:030.00m/s78.00%15.80C
2017-08-19 04:13:0310.29m/s79.40%15.50C
2017-08-19 05:10:0318.94m/s80.60%15.30C
2017-08-19 04:12:030.85m/s79.40%15.50C
2017-08-19 05:09:034.00m/s80.60%15.30C
2017-08-19 04:11:031.64m/s79.40%15.50C
2017-08-19 04:25:030.00m/s79.80%15.40C
2017-08-19 04:52:031.64m/s80.20%15.40C
2017-08-19 05:02:023.21m/s80.30%15.30C
2017-08-19 04:15:040.85m/s79.50%15.50C
2017-08-19 05:17:0315.00m/s80.50%15.20C
2017-08-19 05:11:032.42m/s80.50%15.30C
2017-08-19 05:16:032.42m/s80.60%15.20C
2017-08-19 05:41:033.21m/s81.00%15.10C
2017-08-19 05:56:034.78m/s81.30%15.10C
2017-08-19 05:50:020.06m/s81.20%15.10C
2017-08-19 05:54:030.06m/s81.20%15.10C
2017-08-19 05:18:061.64m/s80.50%15.20C
2017-08-19 05:40:030.00m/s81.00%15.10C
2017-08-19 06:01:036.35m/s81.20%15.10C
2017-08-19 06:05:035.57m/s81.20%15.10C
2017-08-19 06:08:033.21m/s81.10%15.00C
2017-08-19 06:25:035.57m/s81.20%15.00C
2017-08-19 06:13:020.00m/s81.30%15.10C
2017-08-19 06:12:034.00m/s81.10%15.00C
2017-08-19 06:00:030.00m/s81.10%15.10C
2017-08-19 06:14:020.00m/s81.10%15.00C
2017-08-19 06:24:020.00m/s81.20%15.00C
2017-08-19 06:29:023.21m/s81.40%15.00C
2017-08-19 06:32:035.57m/s81.40%15.00C
2017-08-19 06:40:037.14m/s81.40%15.00C
2017-08-19 07:04:036.35m/s81.90%15.00C
2017-08-19 06:34:029.50m/s81.40%15.00C
2017-08-19 06:44:030.85m/s81.70%15.00C
2017-08-19 07:05:020.85m/s81.90%15.00C
2017-08-19 07:07:033.21m/s82.00%15.00C
2017-08-19 06:30:030.00m/s81.30%15.00C
2017-08-19 07:26:0310.29m/s82.10%15.00C
2017-08-19 07:18:023.21m/s82.10%15.00C
2017-08-19 07:19:032.42m/s82.10%15.00C
2017-08-19 07:31:036.35m/s82.20%15.00C
2017-08-19 07:11:034.00m/s82.10%15.00C
2017-08-19 07:10:030.00m/s82.10%15.00C
2017-08-19 07:29:030.00m/s82.20%15.00C
2017-08-19 07:09:030.00m/s82.00%15.00C
2017-08-19 07:23:030.00m/s82.00%15.00C
2017-08-19 07:35:035.57m/s82.20%15.00C
2017-08-19 07:49:034.78m/s82.60%15.00C
2017-08-19 07:54:032.42m/s82.80%15.00C
2017-08-19 08:02:022.42m/s83.10%15.00C
2017-08-19 07:37:030.85m/s82.20%15.00C
2017-08-19 07:38:030.06m/s82.20%15.00C
2017-08-19 08:03:030.85m/s83.10%15.00C
2017-08-19 07:46:031.64m/s82.40%15.00C
2017-08-19 07:34:030.00m/s82.20%15.00C
2017-08-19 08:09:037.14m/s83.50%15.00C
2017-08-19 08:14:027.14m/s83.90%15.10C
2017-08-19 08:24:173.21m/s84.00%15.20C
2017-08-19 08:44:034.78m/s84.20%15.30C
2017-08-19 08:13:030.00m/s83.80%15.10C
2017-08-19 08:33:030.00m/s83.90%15.20C
2017-08-19 08:37:031.64m/s84.00%15.30C
2017-08-19 08:39:030.00m/s84.10%15.30C
2017-08-19 08:34:030.00m/s84.00%15.20C
2017-08-19 08:56:037.93m/s84.30%15.50C
2017-08-19 09:02:036.35m/s84.20%15.50C
2017-08-19 09:03:022.42m/s84.30%15.50C
2017-08-19 09:18:033.21m/s84.60%15.70C
2017-08-19 08:53:030.85m/s84.30%15.40C
2017-08-19 08:50:030.00m/s84.20%15.40C
2017-08-19 09:12:030.00m/s84.50%15.60C
2017-08-19 09:08:038.71m/s84.60%15.60C
2017-08-19 09:11:031.64m/s84.60%15.60C
2017-08-19 10:06:043.21m/s85.10%16.30C
2017-08-19 11:42:034.78m/s70.80%18.90C
2017-08-19 10:07:039.50m/s85.10%16.30C
2017-08-19 09:34:032.42m/s84.70%15.80C
2017-08-19 09:40:035.57m/s85.00%15.90C
2017-08-19 09:46:030.85m/s84.80%15.90C
2017-08-19 09:35:030.00m/s84.70%15.80C
2017-08-19 09:39:024.00m/s84.80%15.80C
2017-08-19 10:04:030.06m/s85.30%16.30C
2017-08-19 12:18:0311.07m/s70.10%19.80C
2017-08-19 12:14:033.21m/s69.70%19.80C
2017-08-19 12:21:052.42m/s69.30%19.80C
2017-08-19 11:50:034.00m/s71.20%19.20C
2017-08-19 11:48:030.85m/s70.30%19.10C
2017-08-19 12:20:030.85m/s69.20%19.80C
2017-08-19 11:52:030.00m/s71.60%19.20C
2017-08-19 12:12:021.64m/s69.90%19.70C
2017-08-19 11:51:030.00m/s71.20%19.20C
2017-08-19 13:00:034.78m/s69.80%20.20C
2017-08-19 13:03:034.78m/s69.90%20.20C
2017-08-19 12:22:034.00m/s68.60%19.80C
2017-08-19 13:09:027.93m/s70.00%20.30C
2017-08-19 12:52:039.50m/s69.20%20.20C
2017-08-19 12:28:030.85m/s68.50%19.90C
2017-08-19 12:25:030.00m/s68.30%19.80C
2017-08-19 12:50:020.00m/s69.10%20.20C
2017-08-19 12:56:020.00m/s69.70%20.20C
2017-08-19 13:55:023.21m/s73.90%19.70C
2017-08-19 14:20:033.21m/s67.90%20.20C
2017-08-19 14:28:032.42m/s67.10%20.50C
2017-08-19 13:28:020.06m/s70.80%20.20C
2017-08-19 13:34:030.85m/s70.80%20.30C
2017-08-19 14:11:020.85m/s73.00%20.10C
2017-08-19 14:18:021.64m/s67.50%20.20C
2017-08-19 13:29:030.00m/s71.10%20.30C
2017-08-19 13:51:030.00m/s72.10%20.00C
2017-08-19 15:11:0314.22m/s59.20%21.60C
2017-08-19 14:55:0312.65m/s61.00%21.00C
2017-08-19 14:36:033.21m/s64.80%21.20C
2017-08-19 14:38:024.78m/s64.10%21.30C
2017-08-19 15:08:037.93m/s59.30%21.40C
2017-08-19 14:37:030.06m/s63.70%21.20C
2017-08-19 15:01:030.85m/s60.00%21.30C
2017-08-19 14:47:030.00m/s59.20%20.80C
2017-08-19 14:45:030.00m/s60.20%21.00C
2017-08-19 15:13:0211.07m/s59.30%21.80C
2017-08-19 15:31:0313.43m/s58.30%22.60C
2017-08-19 15:18:033.21m/s59.30%22.00C
2017-08-19 15:25:037.93m/s58.60%22.50C
2017-08-19 15:44:037.14m/s58.60%23.20C
2017-08-19 16:02:039.50m/s55.60%23.80C
2017-08-19 15:23:034.00m/s59.40%22.40C
2017-08-19 15:14:020.00m/s59.40%21.80C
2017-08-19 16:01:030.00m/s55.30%23.80C
2017-08-19 16:20:032.42m/s54.60%24.20C
2017-08-19 16:25:039.50m/s54.20%24.30C
2017-08-19 16:27:034.00m/s53.50%24.30C
2017-08-19 16:04:034.78m/s55.80%23.80C
2017-08-19 16:18:030.85m/s54.20%24.10C
2017-08-19 16:26:031.64m/s53.20%24.30C
2017-08-19 16:13:030.00m/s54.40%23.90C
2017-08-19 16:19:020.00m/s54.50%24.10C
2017-08-19 16:11:030.00m/s54.00%23.90C
2017-08-19 16:57:034.00m/s50.80%24.90C
2017-08-19 17:09:034.78m/s48.60%24.90C
2017-08-19 17:14:034.00m/s49.20%25.00C
2017-08-19 17:05:030.85m/s49.80%24.90C
2017-08-19 17:41:030.06m/s46.30%25.00C
2017-08-19 16:34:030.00m/s53.60%24.50C
2017-08-19 16:39:030.00m/s53.10%24.60C
2017-08-19 17:22:030.00m/s47.80%25.10C
2017-08-19 17:34:020.00m/s46.90%25.10C
2017-08-19 18:07:023.21m/s47.60%24.90C
2017-08-19 17:44:039.50m/s47.20%25.00C
2017-08-19 17:50:030.85m/s47.30%25.00C
2017-08-19 17:55:030.85m/s47.20%25.00C
2017-08-19 18:08:030.06m/s47.70%24.90C
2017-08-19 17:48:030.00m/s46.80%25.00C
2017-08-19 17:49:030.00m/s47.10%25.00C
2017-08-19 17:56:030.00m/s47.10%25.00C
2017-08-19 17:57:030.00m/s47.10%25.00C
2017-08-19 18:48:0211.07m/s49.30%24.10C
2017-08-19 18:54:036.35m/s48.80%23.90C
2017-08-19 18:40:026.35m/s48.30%24.30C
2017-08-19 18:43:034.00m/s49.10%24.20C
2017-08-19 18:23:020.00m/s48.30%24.60C
2017-08-19 18:39:030.00m/s48.80%24.30C
2017-08-19 19:18:030.00m/s51.20%23.60C
2017-08-19 19:21:030.00m/s51.20%23.50C
2017-08-19 19:03:030.00m/s49.70%23.70C
2017-08-19 19:37:0310.29m/s52.80%23.20C
2017-08-19 19:58:036.35m/s55.00%22.80C
2017-08-19 19:55:021.64m/s54.50%22.80C
2017-08-19 19:26:020.00m/s51.70%23.40C
2017-08-19 19:35:020.00m/s52.80%23.30C
2017-08-19 19:53:030.00m/s54.30%22.90C
2017-08-19 19:46:030.00m/s53.70%23.00C
2017-08-19 19:47:030.00m/s53.90%23.00C
2017-08-19 19:48:030.00m/s53.90%23.00C
2017-08-19 20:03:022.42m/s55.40%22.70C
2017-08-19 20:26:035.57m/s56.60%22.20C
2017-08-19 20:47:031.64m/s56.30%21.50C
2017-08-19 20:21:030.00m/s56.10%22.30C
2017-08-19 20:28:030.00m/s56.40%22.10C
2017-08-19 20:44:030.00m/s56.40%21.60C
2017-08-19 20:31:030.00m/s56.30%22.00C
2017-08-19 20:35:030.00m/s56.00%21.90C
2017-08-19 20:33:020.00m/s56.00%22.00C
2017-08-19 21:05:033.21m/s57.40%21.10C
2017-08-19 20:49:032.42m/s56.80%21.50C
2017-08-19 21:08:034.00m/s57.70%21.00C
2017-08-19 20:52:031.64m/s56.90%21.40C
2017-08-19 21:07:031.64m/s57.80%21.10C
2017-08-19 21:13:020.85m/s57.80%20.90C
2017-08-19 20:58:030.00m/s57.40%21.30C
2017-08-19 21:01:030.00m/s57.30%21.20C
2017-08-19 21:06:030.00m/s57.50%21.10C
2017-08-19 22:00:032.42m/s61.50%20.20C
2017-08-19 21:22:031.64m/s58.50%20.70C
2017-08-19 21:25:031.64m/s59.30%20.70C
2017-08-19 21:26:031.64m/s59.30%20.70C
2017-08-19 21:46:030.06m/s60.50%20.40C
2017-08-19 21:39:020.00m/s59.80%20.50C
2017-08-19 21:40:030.00m/s60.40%20.50C
2017-08-19 21:19:030.00m/s58.80%20.80C
2017-08-19 21:38:020.00m/s60.00%20.50C
2017-08-19 22:47:034.00m/s65.40%19.50C
2017-08-19 22:09:031.64m/s62.40%20.10C
2017-08-19 22:11:030.00m/s62.40%20.10C
2017-08-19 22:22:020.00m/s63.40%19.90C
2017-08-19 22:23:020.00m/s63.40%19.90C
2017-08-19 22:33:030.00m/s64.10%19.70C
2017-08-19 22:40:030.00m/s64.80%19.70C
2017-08-19 22:44:030.00m/s64.80%19.60C
2017-08-19 22:50:020.00m/s65.40%19.50C
2017-08-19 23:04:034.00m/s65.80%19.30C
2017-08-19 22:52:020.00m/s65.40%19.50C
2017-08-19 22:55:020.00m/s65.30%19.40C
2017-08-19 22:59:030.00m/s65.20%19.30C
2017-08-19 23:00:030.00m/s65.30%19.40C
2017-08-19 23:02:020.00m/s65.80%19.30C
2017-08-19 23:07:030.00m/s65.80%19.20C
2017-08-19 23:06:030.00m/s66.00%19.30C
2017-08-19 23:09:020.00m/s66.20%19.20C
2017-08-19 23:34:033.21m/s66.50%18.90C
2017-08-19 23:43:034.78m/s66.70%18.70C
2017-08-19 23:29:030.00m/s66.40%18.90C
2017-08-19 23:30:030.00m/s66.70%18.90C
2017-08-19 23:36:030.00m/s66.40%18.80C
2017-08-19 23:44:030.00m/s66.60%18.70C
2017-08-19 23:52:030.00m/s66.90%18.60C
2017-08-19 23:22:020.00m/s66.40%19.00C
2017-08-19 23:45:030.00m/s66.70%18.70C
2017-08-20 00:17:033.21m/s68.00%18.30C
2017-08-20 00:42:037.14m/s69.10%18.00C
2017-08-19 23:54:030.00m/s66.80%18.60C
2017-08-19 23:55:031.64m/s66.90%18.50C
2017-08-19 23:57:021.64m/s67.10%18.50C
2017-08-20 00:02:030.00m/s67.40%18.50C
2017-08-20 00:04:030.00m/s67.30%18.50C
2017-08-20 00:12:030.00m/s67.70%18.30C
2017-08-19 23:56:030.00m/s67.00%18.60C
2017-08-20 00:59:030.85m/s69.70%17.80C
2017-08-20 00:54:020.00m/s69.30%17.90C
2017-08-20 00:58:020.00m/s69.30%17.80C
2017-08-20 01:09:030.00m/s70.30%17.80C
2017-08-20 01:13:030.00m/s70.90%17.70C
2017-08-20 01:42:030.00m/s72.10%17.50C
2017-08-20 01:43:040.00m/s72.30%17.50C
2017-08-20 01:19:030.00m/s71.00%17.70C
2017-08-20 01:23:030.00m/s71.00%17.70C
2017-08-20 02:43:032.42m/s76.00%17.10C
2017-08-20 02:00:030.00m/s73.30%17.40C
2017-08-20 02:17:020.00m/s74.50%17.20C
2017-08-20 02:35:040.00m/s75.40%17.20C
2017-08-20 01:59:030.00m/s73.00%17.40C
2017-08-20 02:08:030.00m/s74.00%17.30C
2017-08-20 02:12:030.00m/s74.30%17.30C
2017-08-20 02:30:030.00m/s75.00%17.20C
2017-08-20 02:33:030.00m/s75.00%17.20C
2017-08-20 03:02:030.85m/s75.90%17.00C
2017-08-20 03:15:030.00m/s75.80%16.90C
2017-08-20 03:19:030.00m/s75.80%16.90C
2017-08-20 03:20:030.00m/s75.80%16.90C
2017-08-20 02:53:030.00m/s76.00%17.10C
2017-08-20 02:59:030.00m/s75.90%17.00C
2017-08-20 03:05:030.00m/s75.90%17.00C
2017-08-20 03:06:030.00m/s75.90%17.00C
2017-08-20 03:30:040.00m/s76.00%16.90C
2017-08-20 03:32:034.00m/s75.80%16.90C
2017-08-20 03:33:030.00m/s76.50%16.90C
2017-08-20 03:57:030.00m/s76.90%16.70C
2017-08-20 04:03:030.00m/s77.20%16.70C
2017-08-20 04:04:030.00m/s77.10%16.70C
2017-08-20 04:12:030.00m/s77.20%16.60C
2017-08-20 04:14:030.00m/s77.20%16.60C
2017-08-20 04:19:030.00m/s77.50%16.60C
2017-08-20 03:55:030.00m/s77.00%16.70C
2017-08-20 04:26:030.00m/s77.30%16.60C
2017-08-20 04:27:030.00m/s77.30%16.60C
2017-08-20 04:32:030.00m/s77.40%16.60C
2017-08-20 04:38:030.00m/s77.50%16.60C
2017-08-20 04:44:030.00m/s77.40%16.50C
2017-08-20 05:26:030.00m/s78.70%16.30C
2017-08-20 07:02:030.00m/s80.90%15.80C
2017-08-20 05:21:030.00m/s78.30%16.30C
2017-08-20 05:36:030.00m/s79.00%16.20C
2017-08-20 07:41:034.78m/s81.20%15.70C
2017-08-20 07:30:040.06m/s81.00%15.70C
2017-08-20 07:06:020.00m/s80.90%15.80C
2017-08-20 07:09:030.00m/s80.90%15.80C
2017-08-20 07:17:032.42m/s80.80%15.80C
2017-08-20 07:19:030.06m/s80.80%15.80C
2017-08-20 07:14:020.00m/s80.80%15.80C
2017-08-20 07:21:030.00m/s80.70%15.70C
2017-08-20 07:40:030.00m/s81.00%15.60C
2017-08-20 08:21:033.21m/s82.50%15.60C
2017-08-20 08:39:030.06m/s83.00%15.70C
2017-08-20 07:48:030.00m/s81.40%15.60C
2017-08-20 08:03:050.00m/s81.80%15.60C
2017-08-20 08:23:030.00m/s82.50%15.60C
2017-08-20 08:33:031.64m/s82.80%15.70C
2017-08-20 08:34:030.00m/s82.50%15.70C
2017-08-20 08:41:030.00m/s83.00%15.70C
2017-08-20 08:43:030.00m/s83.00%15.70C
2017-08-20 09:13:032.42m/s83.40%16.10C
2017-08-20 09:03:036.35m/s83.40%15.90C
2017-08-20 08:50:030.00m/s83.40%15.80C
2017-08-20 08:52:030.00m/s83.30%15.90C
2017-08-20 09:00:031.64m/s83.50%15.90C
2017-08-20 09:01:020.00m/s83.50%15.90C
2017-08-20 09:15:020.00m/s83.30%16.10C
2017-08-20 09:09:030.00m/s83.40%16.00C
2017-08-20 09:14:030.00m/s83.30%16.00C
2017-08-20 09:16:022.42m/s83.60%16.10C
2017-08-20 09:28:027.14m/s84.10%16.10C
2017-08-20 09:26:030.06m/s84.20%16.10C
2017-08-20 09:27:030.00m/s84.20%16.10C
2017-08-20 09:32:030.00m/s83.90%16.10C
2017-08-20 09:45:020.00m/s83.60%16.30C
2017-08-20 09:54:031.64m/s85.00%16.40C
2017-08-20 09:57:020.00m/s85.10%16.40C
2017-08-20 09:19:030.00m/s84.10%16.10C
2017-08-20 10:15:022.42m/s83.60%16.90C
2017-08-20 10:50:037.93m/s79.50%18.20C
2017-08-20 10:20:032.42m/s83.00%17.00C
2017-08-20 10:37:030.06m/s81.40%17.60C
2017-08-20 10:01:030.00m/s84.90%16.50C
2017-08-20 10:41:020.00m/s81.20%17.80C
2017-08-20 10:44:030.00m/s80.60%17.90C
2017-08-20 10:19:020.00m/s83.10%17.00C
2017-08-20 10:47:020.00m/s80.30%18.00C
2017-08-20 11:09:034.78m/s77.50%18.70C
2017-08-20 11:14:032.42m/s75.10%18.70C
2017-08-20 11:08:020.85m/s77.40%18.60C
2017-08-20 11:01:030.00m/s77.80%18.50C
2017-08-20 11:04:020.00m/s77.50%18.60C
2017-08-20 11:06:030.00m/s77.40%18.60C
2017-08-20 11:07:031.64m/s77.40%18.60C
2017-08-20 11:17:020.00m/s75.00%18.80C
2017-08-20 10:57:030.00m/s78.40%18.40C
2017-08-20 11:24:034.78m/s73.30%18.90C
2017-08-20 11:18:030.85m/s74.40%18.80C
2017-08-20 11:43:030.00m/s71.80%19.10C
2017-08-20 11:49:031.64m/s71.40%19.20C
2017-08-20 11:51:030.00m/s71.10%19.20C
2017-08-20 11:53:030.00m/s70.90%19.20C
2017-08-20 11:59:030.00m/s70.70%19.20C
2017-08-20 11:41:030.00m/s72.00%19.10C
2017-08-20 11:44:020.00m/s72.00%19.20C
2017-08-20 12:21:032.42m/s68.30%19.50C
2017-08-20 12:36:034.78m/s68.40%19.70C
2017-08-20 12:33:037.14m/s68.70%19.70C
2017-08-20 12:28:030.85m/s68.50%19.60C
2017-08-20 12:00:030.00m/s70.70%19.20C
2017-08-20 12:02:030.00m/s71.10%19.30C
2017-08-20 12:04:030.00m/s70.90%19.30C
2017-08-20 12:25:020.00m/s67.90%19.60C
2017-08-20 12:03:030.00m/s71.00%19.30C
2017-08-20 12:37:033.21m/s68.20%19.70C
2017-08-20 13:13:038.71m/s66.30%20.40C
2017-08-20 12:38:046.35m/s67.00%19.70C
2017-08-20 12:59:032.42m/s65.80%20.00C
2017-08-20 12:47:030.85m/s67.50%19.90C
2017-08-20 12:58:031.64m/s65.80%20.00C
2017-08-20 13:01:031.64m/s65.90%20.10C
2017-08-20 12:49:031.64m/s66.40%19.90C
2017-08-20 13:17:030.00m/s65.60%20.50C
2017-08-20 13:34:0311.07m/s65.40%20.80C
2017-08-20 13:58:0314.22m/s61.50%21.80C
2017-08-20 13:59:0311.07m/s61.60%21.90C
2017-08-20 13:47:033.21m/s63.90%21.30C
2017-08-20 13:40:031.64m/s64.60%21.00C
2017-08-20 13:27:020.00m/s66.10%20.70C
2017-08-20 13:28:030.00m/s66.50%20.80C
2017-08-20 13:31:030.00m/s65.30%20.80C
2017-08-20 13:32:030.00m/s65.20%20.90C
2017-08-20 14:09:047.93m/s60.10%22.30C
2017-08-20 14:14:038.71m/s59.70%22.50C
2017-08-20 14:24:034.78m/s58.60%22.90C
2017-08-20 14:21:035.57m/s58.80%22.80C
2017-08-20 14:00:030.00m/s61.50%21.90C
2017-08-20 14:05:030.00m/s61.20%22.10C
2017-08-20 14:15:030.00m/s59.80%22.60C
2017-08-20 14:19:030.00m/s58.70%22.70C
2017-08-20 14:42:030.00m/s57.00%23.60C
2017-08-20 14:43:0312.65m/s56.90%23.70C
2017-08-20 14:52:033.21m/s55.90%24.00C
2017-08-20 15:05:045.57m/s54.50%24.40C
2017-08-20 14:45:031.64m/s56.40%23.80C
2017-08-20 15:04:030.85m/s54.10%24.40C
2017-08-20 15:08:030.06m/s53.00%24.50C
2017-08-20 15:10:030.06m/s52.80%24.60C
2017-08-20 14:58:030.00m/s54.70%24.20C
2017-08-20 14:56:030.00m/s55.00%24.10C
2017-08-20 15:28:0310.29m/s51.40%24.90C
2017-08-20 15:19:034.78m/s52.60%24.80C
2017-08-20 15:22:020.85m/s52.10%24.80C
2017-08-20 15:55:030.06m/s50.70%25.30C
2017-08-20 16:01:031.64m/s51.10%25.40C
2017-08-20 15:45:030.00m/s51.60%25.10C
2017-08-20 15:56:030.00m/s51.10%25.30C
2017-08-20 15:34:030.00m/s51.10%25.00C
2017-08-20 16:12:030.00m/s50.00%25.50C
2017-08-20 16:19:035.57m/s49.00%25.60C
2017-08-20 16:30:037.93m/s48.20%25.50C
2017-08-20 16:37:036.35m/s48.00%25.60C
2017-08-20 16:26:032.42m/s48.80%25.50C
2017-08-20 16:29:034.00m/s47.80%25.50C
2017-08-20 16:35:034.00m/s48.30%25.50C
2017-08-20 16:39:034.00m/s47.80%25.60C
2017-08-20 16:27:034.78m/s48.50%25.50C
2017-08-20 16:42:030.00m/s47.80%25.60C
2017-08-20 16:59:021.64m/s47.50%25.70C
2017-08-20 17:05:041.64m/s47.60%25.80C
2017-08-20 17:11:020.85m/s47.20%25.80C
2017-08-20 17:13:030.00m/s46.60%25.70C
2017-08-20 17:25:030.00m/s46.70%25.80C
2017-08-20 17:35:030.00m/s46.40%25.70C
2017-08-20 17:36:030.00m/s45.90%25.70C
2017-08-20 17:37:030.00m/s46.50%25.70C
2017-08-20 17:14:031.64m/s46.70%25.70C
2017-08-20 18:25:035.57m/s46.70%25.50C
2017-08-20 17:48:032.42m/s46.10%25.70C
2017-08-20 18:31:023.21m/s46.40%25.40C
2017-08-20 17:42:020.00m/s47.10%25.70C
2017-08-20 17:49:030.00m/s46.40%25.70C
2017-08-20 17:58:030.00m/s45.50%25.60C
2017-08-20 18:03:030.00m/s46.10%25.70C
2017-08-20 18:09:030.00m/s45.80%25.60C
2017-08-20 18:29:020.00m/s46.80%25.40C
2017-08-20 18:38:030.06m/s46.60%25.30C
2017-08-20 18:55:040.06m/s46.70%25.00C
2017-08-20 18:56:030.06m/s47.10%25.00C
2017-08-20 18:34:030.00m/s47.10%25.40C
2017-08-20 18:35:030.00m/s46.60%25.40C
2017-08-20 18:53:030.00m/s46.40%25.10C
2017-08-20 18:51:030.00m/s47.10%25.10C
2017-08-20 18:59:020.00m/s46.80%25.00C
2017-08-20 19:00:030.00m/s46.90%24.90C
2017-08-20 19:12:033.21m/s48.10%24.80C
2017-08-20 19:22:032.42m/s48.30%24.60C
2017-08-20 19:20:031.64m/s48.50%24.60C
2017-08-20 19:07:030.00m/s47.30%24.90C
2017-08-20 19:08:030.00m/s47.30%24.80C
2017-08-20 19:30:030.00m/s48.30%24.40C
2017-08-20 19:37:020.00m/s48.30%24.20C
2017-08-20 19:50:030.00m/s49.40%23.90C
2017-08-20 19:47:030.00m/s49.00%24.00C
2017-08-20 20:02:030.00m/s50.80%23.70C
2017-08-20 20:06:030.00m/s51.30%23.60C
2017-08-20 20:16:030.00m/s51.70%23.30C
2017-08-20 20:22:030.00m/s52.10%23.20C
2017-08-20 20:38:030.00m/s53.50%22.80C
2017-08-20 20:41:030.00m/s53.50%22.70C
2017-08-20 19:52:030.00m/s49.90%23.90C
2017-08-20 20:04:030.00m/s51.00%23.60C
2017-08-20 20:37:030.00m/s53.00%22.80C
2017-08-20 20:42:030.00m/s53.60%22.70C
2017-08-20 20:45:040.00m/s53.90%22.70C
2017-08-20 21:09:020.00m/s54.40%20.90C
2017-08-20 21:17:030.00m/s55.20%20.40C
2017-08-20 21:18:030.00m/s55.90%20.30C
2017-08-20 21:29:030.00m/s57.10%20.20C
2017-08-20 21:31:030.00m/s57.60%20.20C
2017-08-20 20:57:030.00m/s55.00%22.30C
2017-08-20 21:07:030.00m/s53.80%21.00C
2017-08-20 21:32:030.00m/s57.70%20.10C
2017-08-20 21:41:030.00m/s58.40%20.20C
2017-08-20 21:43:030.00m/s58.50%20.30C
2017-08-20 21:45:030.00m/s58.50%20.40C
2017-08-20 21:51:030.00m/s58.30%20.40C
2017-08-20 22:00:040.00m/s58.30%20.40C
2017-08-20 22:05:030.00m/s58.80%20.40C
2017-08-20 22:12:030.00m/s58.90%20.30C
2017-08-20 21:34:030.00m/s58.10%20.10C
2017-08-20 22:20:030.00m/s59.50%20.30C
2017-08-20 22:22:030.00m/s59.50%20.20C
2017-08-20 22:23:030.00m/s59.60%20.30C
2017-08-20 22:24:030.00m/s59.50%20.20C
2017-08-20 22:29:020.00m/s59.70%20.10C
2017-08-20 22:39:030.00m/s60.20%20.10C
2017-08-20 22:34:030.00m/s60.00%20.10C
2017-08-20 22:35:030.00m/s60.00%20.10C
2017-08-20 22:36:030.00m/s60.00%20.10C
2017-08-20 22:52:030.00m/s60.70%19.90C
2017-08-20 22:57:030.00m/s61.10%19.90C
2017-08-20 23:04:030.00m/s61.30%19.80C
2017-08-20 23:06:030.00m/s61.30%19.80C
2017-08-20 23:11:030.00m/s61.50%19.70C
2017-08-20 23:13:030.00m/s61.80%19.70C
2017-08-20 23:19:030.00m/s61.80%19.60C
2017-08-20 22:41:030.00m/s60.30%20.00C
2017-08-20 22:46:030.00m/s60.50%20.00C
2017-08-20 23:22:020.00m/s62.10%19.60C
2017-08-20 23:29:030.00m/s62.20%19.50C
2017-08-20 23:31:020.00m/s62.60%19.50C
2017-08-20 23:35:030.00m/s62.90%19.50C
2017-08-20 23:53:030.00m/s63.50%19.20C
2017-08-21 00:02:030.00m/s63.90%19.20C
2017-08-20 23:44:030.00m/s63.00%19.30C
2017-08-20 23:45:030.00m/s63.00%19.30C
2017-08-20 23:51:030.00m/s63.30%19.30C
2017-08-21 00:11:030.00m/s64.20%19.10C
2017-08-21 02:03:030.00m/s66.80%18.10C
2017-08-21 02:23:030.00m/s67.10%17.90C
2017-08-21 02:28:030.00m/s67.40%17.90C
2017-08-21 02:45:030.00m/s67.60%17.80C
2017-08-21 00:15:030.00m/s64.70%19.00C
2017-08-21 00:37:030.00m/s64.80%18.80C
2017-08-21 02:02:030.00m/s67.00%18.10C
2017-08-21 00:17:030.00m/s65.00%19.00C
2017-08-21 03:19:030.00m/s67.90%17.50C
2017-08-21 03:24:030.00m/s68.60%17.50C
2017-08-21 03:26:030.00m/s68.10%17.50C
2017-08-21 03:32:030.00m/s68.10%17.40C
2017-08-21 02:49:030.00m/s68.00%17.80C
2017-08-21 03:01:030.00m/s68.00%17.70C
2017-08-21 03:06:030.00m/s68.00%17.60C
2017-08-21 03:20:030.00m/s68.00%17.50C
2017-08-21 03:33:020.00m/s68.40%17.40C
2017-08-21 03:37:030.00m/s68.50%17.40C
2017-08-21 03:54:020.00m/s68.80%17.30C
2017-08-21 04:07:030.00m/s68.70%17.10C
2017-08-21 04:20:030.00m/s69.20%17.10C
2017-08-21 03:34:020.00m/s68.40%17.40C
2017-08-21 03:35:030.00m/s68.40%17.40C
2017-08-21 04:17:030.00m/s69.00%17.10C
2017-08-21 04:18:030.00m/s69.10%17.10C
2017-08-21 04:22:020.00m/s69.10%17.00C
2017-08-21 04:35:020.00m/s69.40%16.90C
2017-08-21 04:41:030.00m/s69.40%16.90C
2017-08-21 04:43:020.00m/s69.30%16.80C
2017-08-21 04:46:030.00m/s69.30%16.80C
2017-08-21 04:59:030.00m/s69.90%16.70C
2017-08-21 04:27:030.00m/s69.20%17.00C
2017-08-21 04:28:030.00m/s69.50%17.00C
2017-08-21 04:30:030.00m/s69.00%16.90C
2017-08-21 04:54:030.00m/s69.70%16.70C
2017-08-21 05:08:020.00m/s69.90%16.60C
2017-08-21 05:12:030.00m/s70.30%16.60C
2017-08-21 05:30:030.00m/s70.80%16.40C
2017-08-21 05:36:020.00m/s70.90%16.30C
2017-08-21 05:43:030.00m/s71.20%16.30C
2017-08-21 05:45:030.00m/s71.40%16.30C
2017-08-21 05:46:030.00m/s71.40%16.30C
2017-08-21 05:39:020.00m/s71.00%16.30C
2017-08-21 05:04:030.00m/s70.00%16.60C
2017-08-21 06:03:030.06m/s71.80%16.10C
2017-08-21 06:14:030.06m/s72.10%16.00C
2017-08-21 06:00:030.00m/s71.70%16.10C
2017-08-21 06:12:030.00m/s72.20%16.10C
2017-08-21 05:47:030.00m/s71.30%16.30C
2017-08-21 06:15:030.00m/s72.10%16.00C
2017-08-21 06:17:020.00m/s72.30%16.00C
2017-08-21 06:20:030.00m/s72.40%16.00C
2017-08-21 06:21:030.00m/s72.30%16.00C
2017-08-21 06:42:030.00m/s72.60%15.90C
2017-08-21 06:48:030.00m/s72.80%15.90C
2017-08-21 06:51:030.00m/s72.70%15.90C
2017-08-21 07:09:020.00m/s73.10%15.80C
2017-08-21 07:10:020.00m/s73.10%15.80C
2017-08-21 06:25:020.00m/s72.40%16.00C
2017-08-21 06:29:030.00m/s72.60%16.00C
2017-08-21 06:52:030.00m/s73.00%15.90C
2017-08-21 06:58:030.00m/s73.00%15.90C
2017-08-21 07:21:030.00m/s73.30%15.80C
2017-08-21 07:22:030.00m/s73.40%15.80C
2017-08-21 07:29:030.00m/s73.40%15.70C
2017-08-21 07:31:030.00m/s73.50%15.70C
2017-08-21 07:32:030.00m/s73.60%15.70C
2017-08-21 07:34:030.00m/s73.60%15.70C
2017-08-21 07:42:020.00m/s73.80%15.70C
2017-08-21 07:46:030.00m/s73.90%15.70C
2017-08-21 07:51:020.00m/s73.90%15.70C
2017-08-21 07:54:030.00m/s74.10%15.70C
2017-08-21 07:57:020.00m/s74.30%15.70C
2017-08-21 08:01:020.00m/s74.30%15.70C
2017-08-21 08:21:030.06m/s74.70%15.70C
2017-08-21 08:31:034.00m/s74.70%15.70C
2017-08-21 08:08:030.00m/s74.70%15.70C
2017-08-21 08:13:030.00m/s74.70%15.70C
2017-08-21 08:26:030.00m/s74.70%15.70C
2017-08-21 08:40:030.00m/s75.70%15.70C
2017-08-21 08:57:030.06m/s76.60%15.90C
2017-08-21 08:43:030.00m/s75.90%15.80C
2017-08-21 08:49:020.00m/s76.20%15.80C
2017-08-21 08:50:030.00m/s76.30%15.80C
2017-08-21 09:07:030.00m/s76.90%16.10C
2017-08-21 08:45:030.00m/s76.00%15.80C
2017-08-21 09:00:030.00m/s76.60%16.00C
2017-08-21 09:02:020.00m/s76.70%16.00C
2017-08-21 09:04:030.00m/s76.50%16.00C
2017-08-21 10:18:030.06m/s76.80%17.90C
2017-08-21 09:22:030.00m/s77.20%16.30C
2017-08-21 09:34:020.00m/s77.80%16.60C
2017-08-21 09:48:020.00m/s77.70%16.90C
2017-08-21 10:08:030.00m/s77.10%17.60C
2017-08-21 10:16:030.00m/s76.80%17.90C
2017-08-21 09:10:030.00m/s77.10%16.10C
2017-08-21 09:17:020.00m/s77.30%16.30C
2017-08-21 10:03:020.00m/s77.40%17.40C
2017-08-21 10:48:034.78m/s71.40%19.00C
2017-08-21 10:49:023.21m/s71.50%19.10C
2017-08-21 11:05:032.42m/s69.40%19.70C
2017-08-21 10:46:024.78m/s72.00%19.00C
2017-08-21 10:36:030.00m/s74.10%18.60C
2017-08-21 10:44:030.00m/s71.70%18.90C
2017-08-21 10:59:021.64m/s70.00%19.50C
2017-08-21 11:09:030.00m/s69.50%19.90C
2017-08-21 11:23:030.00m/s67.50%20.40C
2017-08-21 12:05:031.64m/s61.10%22.30C
2017-08-21 12:07:081.64m/s61.20%22.40C
2017-08-21 11:33:030.00m/s66.10%20.90C
2017-08-21 11:44:020.00m/s64.70%21.40C
2017-08-21 11:52:030.00m/s62.30%21.70C
2017-08-21 11:54:030.00m/s62.30%21.80C
2017-08-21 12:03:030.00m/s60.70%22.20C
2017-08-21 11:39:020.00m/s65.00%21.10C
2017-08-21 11:41:030.00m/s64.20%21.20C
2017-08-21 12:16:028.71m/s59.00%22.90C
2017-08-21 12:17:030.06m/s58.30%22.90C
2017-08-21 12:35:020.85m/s56.90%23.50C
2017-08-21 12:39:030.06m/s56.20%23.60C
2017-08-21 12:24:030.00m/s57.90%23.20C
2017-08-21 12:28:030.00m/s57.60%23.30C
2017-08-21 12:46:030.00m/s56.40%23.80C
2017-08-21 13:01:030.00m/s55.10%24.20C
2017-08-21 12:21:020.00m/s58.20%23.00C
2017-08-21 13:38:024.00m/s48.40%25.50C
2017-08-21 13:27:031.64m/s50.00%24.80C
2017-08-21 13:34:031.64m/s49.20%25.40C
2017-08-21 13:20:030.00m/s49.40%24.60C
2017-08-21 13:32:030.00m/s49.70%25.20C
2017-08-21 13:40:030.00m/s48.10%25.60C
2017-08-21 13:44:030.00m/s47.20%25.70C
2017-08-21 13:47:030.00m/s47.60%25.70C
2017-08-21 13:04:020.00m/s55.00%24.30C
2017-08-21 13:56:038.71m/s47.60%26.20C
2017-08-21 13:51:024.78m/s48.00%25.90C
2017-08-21 14:20:032.42m/s45.70%27.20C
2017-08-21 14:21:034.78m/s45.70%27.20C
2017-08-21 13:50:030.06m/s47.50%25.90C
2017-08-21 14:09:030.00m/s45.60%26.80C
2017-08-21 14:14:020.00m/s45.40%26.90C
2017-08-21 14:19:020.00m/s45.70%27.10C
2017-08-21 14:29:030.00m/s45.60%27.60C
2017-08-21 14:37:030.06m/s45.00%27.80C
2017-08-21 14:36:020.00m/s45.30%27.80C
2017-08-21 14:50:030.00m/s44.30%28.20C
2017-08-21 14:51:030.00m/s44.40%28.20C
2017-08-21 14:55:030.00m/s43.70%28.30C
2017-08-21 15:02:020.00m/s43.10%28.50C
2017-08-21 14:35:030.00m/s45.00%27.70C
2017-08-21 14:40:030.00m/s44.90%27.90C
2017-08-21 15:05:030.00m/s43.00%28.60C
2017-08-21 15:16:030.06m/s42.90%28.70C
2017-08-21 15:47:020.85m/s42.50%28.70C
2017-08-21 15:31:030.00m/s42.90%28.80C
2017-08-21 15:42:030.00m/s42.50%28.70C
2017-08-21 15:48:030.00m/s42.50%28.70C
2017-08-21 15:57:030.00m/s42.30%28.70C
2017-08-21 15:30:030.06m/s42.80%28.80C
2017-08-21 15:25:030.00m/s43.00%28.80C
2017-08-21 15:32:020.00m/s42.80%28.80C
2017-08-21 16:46:033.21m/s42.90%28.50C
2017-08-21 16:47:030.85m/s42.60%28.50C
2017-08-21 16:15:030.00m/s42.50%28.70C
2017-08-21 16:30:030.00m/s43.30%28.60C
2017-08-21 16:36:030.00m/s42.80%28.50C
2017-08-21 16:45:030.00m/s42.80%28.50C
2017-08-21 16:06:020.00m/s42.60%28.60C
2017-08-21 16:07:030.00m/s42.70%28.70C
2017-08-21 16:18:030.00m/s42.00%28.60C
2017-08-21 17:10:030.85m/s42.00%28.30C
2017-08-21 16:56:030.00m/s42.80%28.50C
2017-08-21 17:05:030.00m/s41.70%28.40C
2017-08-21 17:06:030.00m/s41.60%28.30C
2017-08-21 17:13:020.00m/s41.70%28.30C
2017-08-21 17:19:020.00m/s42.10%28.30C
2017-08-21 17:20:030.00m/s42.20%28.30C
2017-08-21 17:24:020.00m/s40.40%28.20C
2017-08-21 17:18:030.00m/s42.30%28.30C
2017-08-21 17:47:030.06m/s42.70%28.20C
2017-08-21 17:40:030.00m/s42.30%28.20C
2017-08-21 17:50:030.00m/s42.70%28.20C
2017-08-21 17:53:030.00m/s42.60%28.20C
2017-08-21 17:54:030.00m/s42.70%28.20C
2017-08-21 17:41:030.06m/s42.20%28.20C
2017-08-21 17:26:030.00m/s41.00%28.20C
2017-08-21 17:58:030.00m/s43.00%28.20C
2017-08-21 18:03:030.00m/s43.00%28.20C
2017-08-21 18:20:034.00m/s41.80%27.70C
2017-08-21 18:06:030.00m/s42.90%28.20C
2017-08-21 18:11:030.00m/s42.80%28.20C
2017-08-21 18:21:020.00m/s41.80%27.70C
2017-08-21 18:22:030.00m/s41.80%27.70C
2017-08-21 18:33:030.00m/s42.50%27.80C
2017-08-21 18:38:030.00m/s43.10%27.70C
2017-08-21 18:41:030.00m/s42.90%27.70C
2017-08-21 18:40:020.00m/s43.00%27.70C
2017-08-21 18:55:030.00m/s43.70%27.50C
2017-08-21 19:01:020.00m/s43.70%27.30C
2017-08-21 19:05:030.00m/s43.90%27.20C
2017-08-21 19:20:030.00m/s45.50%26.90C
2017-08-21 19:21:030.00m/s45.50%26.90C
2017-08-21 19:26:030.00m/s45.50%26.90C
2017-08-21 19:09:020.06m/s44.20%27.20C
2017-08-21 18:52:030.00m/s43.00%27.50C
2017-08-21 19:04:030.00m/s44.00%27.20C
2017-08-21 19:43:030.06m/s47.30%26.50C
2017-08-21 19:27:030.00m/s45.50%26.80C
2017-08-21 19:31:030.00m/s46.30%26.70C
2017-08-21 19:36:030.00m/s46.70%26.60C
2017-08-21 19:38:030.00m/s47.10%26.60C
2017-08-21 19:45:030.00m/s47.90%26.40C
2017-08-21 21:01:030.00m/s53.70%24.50C
2017-08-21 21:10:030.00m/s54.50%24.30C
2017-08-21 21:11:020.00m/s54.50%24.30C
2017-08-21 21:12:030.00m/s54.40%24.30C
2017-08-21 21:19:030.00m/s54.90%24.10C
2017-08-21 21:27:020.00m/s55.20%23.90C
2017-08-21 21:29:030.00m/s55.30%23.80C
2017-08-21 21:31:030.00m/s55.40%23.80C
2017-08-21 21:45:030.00m/s56.10%23.50C
2017-08-21 21:46:020.00m/s56.00%23.40C
2017-08-21 21:47:020.00m/s56.00%23.40C
2017-08-21 21:49:020.00m/s56.00%23.40C
2017-08-21 21:51:030.00m/s55.90%23.30C
2017-08-21 21:55:030.00m/s56.30%23.20C
2017-08-21 22:27:030.00m/s57.80%22.60C
2017-08-21 22:28:030.00m/s57.80%22.50C
2017-08-21 22:33:020.00m/s58.10%22.50C
2017-08-21 22:36:030.00m/s58.20%22.40C
2017-08-21 22:08:030.00m/s56.90%22.90C
2017-08-21 22:24:020.00m/s57.60%22.60C
2017-08-21 22:40:020.00m/s58.30%22.30C
2017-08-21 22:41:030.00m/s58.40%22.30C
2017-08-21 22:45:030.00m/s58.60%22.20C
2017-08-21 22:46:030.00m/s58.70%22.30C
2017-08-21 22:47:030.00m/s58.60%22.20C
2017-08-21 22:50:030.00m/s58.90%22.20C
2017-08-21 23:24:030.00m/s60.40%21.60C
2017-08-21 23:34:030.00m/s60.60%21.40C
2017-08-21 22:54:020.00m/s59.10%22.10C
2017-08-21 23:00:030.00m/s59.30%22.00C
2017-08-21 23:46:030.00m/s61.40%21.30C
2017-08-22 00:02:030.00m/s61.90%21.10C
2017-08-22 00:15:030.00m/s62.40%20.90C
2017-08-22 00:16:030.00m/s62.50%20.90C
2017-08-22 00:23:030.00m/s62.60%20.80C
2017-08-22 00:24:020.00m/s62.60%20.80C
2017-08-22 00:28:020.00m/s62.90%20.80C
2017-08-22 00:30:030.00m/s62.90%20.70C
2017-08-22 00:13:030.00m/s62.30%21.00C
2017-08-22 00:41:020.00m/s63.50%20.60C
2017-08-22 00:49:030.00m/s63.80%20.50C
2017-08-22 00:53:030.00m/s63.70%20.40C
2017-08-22 00:55:030.00m/s63.70%20.40C
2017-08-22 00:56:030.00m/s63.60%20.30C
2017-08-22 00:59:030.00m/s63.90%20.30C
2017-08-22 01:00:030.00m/s63.90%20.30C
2017-08-22 01:01:030.00m/s64.10%20.30C
2017-08-22 00:35:030.00m/s63.00%20.70C
2017-08-22 01:07:030.00m/s64.10%20.20C
2017-08-22 01:09:020.00m/s64.40%20.20C
2017-08-22 01:12:020.00m/s64.50%20.10C
2017-08-22 01:15:030.00m/s64.90%20.10C
2017-08-22 01:31:030.00m/s65.70%19.90C
2017-08-22 01:33:030.00m/s65.70%19.90C
2017-08-22 01:35:030.00m/s65.70%19.80C
2017-08-22 01:21:030.00m/s65.30%20.00C
2017-08-22 01:23:030.00m/s65.50%20.00C
2017-08-22 01:37:030.00m/s65.70%19.80C
2017-08-22 01:42:020.00m/s65.60%19.70C
2017-08-22 01:47:030.00m/s65.60%19.70C
2017-08-22 01:52:030.00m/s65.90%19.60C
2017-08-22 01:59:030.00m/s66.20%19.50C
2017-08-22 02:01:020.00m/s66.10%19.50C
2017-08-22 02:07:030.00m/s65.90%19.40C
2017-08-22 02:21:030.00m/s66.90%19.20C
2017-08-22 02:05:030.00m/s66.40%19.40C
2017-08-22 02:54:030.06m/s68.00%18.90C
2017-08-22 02:33:030.00m/s67.50%19.10C
2017-08-22 02:37:030.00m/s67.60%19.10C
2017-08-22 02:39:030.00m/s67.70%19.00C
2017-08-22 02:40:030.00m/s67.50%19.00C
2017-08-22 02:47:020.00m/s67.80%19.00C
2017-08-22 02:50:030.00m/s67.10%19.00C
2017-08-22 02:55:030.00m/s68.00%18.90C
2017-08-22 02:46:030.00m/s68.00%19.00C
2017-08-22 03:04:030.00m/s68.50%18.90C
2017-08-22 03:07:020.00m/s68.10%18.80C
2017-08-22 03:08:020.00m/s68.70%18.80C
2017-08-22 03:12:020.00m/s68.20%18.80C
2017-08-22 03:14:020.00m/s68.20%18.80C
2017-08-22 03:22:030.00m/s68.40%18.70C
2017-08-22 03:23:030.00m/s68.80%18.70C
2017-08-22 03:33:030.00m/s69.00%18.70C
2017-08-22 03:37:030.00m/s69.00%18.70C
2017-08-22 04:12:030.06m/s69.50%18.40C
2017-08-22 03:49:030.00m/s69.40%18.60C
2017-08-22 04:14:020.00m/s69.70%18.40C
2017-08-22 04:15:030.00m/s69.60%18.40C
2017-08-22 04:17:030.00m/s69.80%18.40C
2017-08-22 03:40:030.00m/s69.00%18.70C
2017-08-22 03:42:030.00m/s69.00%18.60C
2017-08-22 03:59:030.00m/s69.00%18.50C
2017-08-22 04:04:020.00m/s70.00%18.50C
2017-08-22 04:27:030.00m/s69.80%18.30C
2017-08-22 04:28:030.00m/s69.80%18.30C
2017-08-22 04:30:040.00m/s70.10%18.30C
2017-08-22 04:39:030.00m/s70.10%18.20C
2017-08-22 05:01:030.00m/s70.30%18.10C
2017-08-22 04:49:030.00m/s70.20%18.20C
2017-08-22 04:29:030.00m/s70.00%18.30C
2017-08-22 04:36:030.00m/s70.00%18.20C
2017-08-22 04:41:020.00m/s70.00%18.20C
2017-08-22 05:04:030.00m/s70.50%18.10C
2017-08-22 05:22:030.00m/s70.40%17.90C
2017-08-22 05:43:030.00m/s70.90%17.80C
2017-08-22 05:49:020.00m/s71.10%17.80C
2017-08-22 05:08:020.00m/s70.10%18.00C
2017-08-22 05:10:030.00m/s70.50%18.00C
2017-08-22 05:11:030.00m/s70.50%18.00C
2017-08-22 05:40:030.00m/s71.00%17.90C
2017-08-22 05:48:030.00m/s71.00%17.80C
2017-08-22 05:54:020.00m/s71.10%17.80C
2017-08-22 05:59:030.00m/s71.30%17.80C
2017-08-22 06:02:030.00m/s71.40%17.70C
2017-08-22 06:03:030.00m/s71.10%17.70C
2017-08-22 06:16:030.00m/s71.60%17.70C
2017-08-22 06:19:020.00m/s71.40%17.60C
2017-08-22 06:25:030.00m/s71.80%17.60C
2017-08-22 06:36:030.00m/s71.90%17.50C
2017-08-22 06:33:030.00m/s72.00%17.50C
2017-08-22 06:38:030.00m/s72.20%17.50C
2017-08-22 06:46:030.00m/s72.30%17.50C
2017-08-22 06:52:020.00m/s72.50%17.40C
2017-08-22 07:00:040.00m/s72.40%17.40C
2017-08-02 00:21:330.00m/s62.90%21.60C
2017-08-02 01:01:020.00m/s63.80%21.10C
2017-08-02 01:22:030.00m/s64.60%20.90C
2017-08-02 01:24:020.00m/s64.80%20.90C
2017-08-02 01:40:030.00m/s65.20%20.70C
2017-08-02 01:47:030.00m/s65.50%20.60C
2017-08-02 01:50:030.00m/s65.40%20.60C
2017-08-02 01:56:020.00m/s65.60%20.50C
2017-08-02 01:52:030.00m/s65.60%20.60C
2017-08-02 01:54:040.00m/s65.60%20.60C
2017-08-02 01:57:030.00m/s65.80%20.50C
2017-08-02 02:11:030.00m/s66.30%20.40C
2017-08-02 02:15:020.00m/s66.30%20.40C
2017-08-02 02:17:030.00m/s66.30%20.40C
2017-08-02 02:18:030.00m/s66.30%20.40C
2017-08-02 02:27:030.00m/s66.20%20.30C
2017-08-02 02:28:020.00m/s66.20%20.30C
2017-08-02 02:29:020.00m/s66.20%20.30C
2017-08-02 02:32:030.00m/s66.10%20.20C
2017-08-02 02:41:030.00m/s66.70%20.20C
2017-08-02 03:11:030.00m/s66.30%19.90C
2017-08-02 02:34:030.00m/s66.00%20.20C
2017-08-02 02:40:030.00m/s66.00%20.10C
2017-08-02 02:48:030.00m/s66.00%20.10C
2017-08-02 02:49:030.00m/s66.00%20.10C
2017-08-02 03:07:030.00m/s66.90%19.90C
2017-08-02 03:23:030.00m/s67.00%19.90C
2017-08-02 03:03:030.00m/s66.90%20.00C
2017-08-02 04:03:030.06m/s67.30%19.80C
2017-08-02 03:54:030.00m/s67.20%19.70C
2017-08-02 04:07:030.00m/s67.20%19.70C
2017-08-02 04:09:030.00m/s67.40%19.70C
2017-08-02 03:26:030.00m/s66.50%19.90C
2017-08-02 03:33:030.00m/s66.50%19.90C
2017-08-02 03:49:030.00m/s66.90%19.80C
2017-08-02 03:28:030.00m/s66.90%19.90C
2017-08-02 03:29:030.00m/s66.80%19.80C
2017-08-02 04:10:030.00m/s67.40%19.70C
2017-08-02 04:25:030.00m/s68.10%19.60C
2017-08-02 04:27:030.00m/s67.80%19.60C
2017-08-02 04:28:030.00m/s68.10%19.60C
2017-08-02 04:29:030.00m/s67.80%19.60C
2017-08-02 04:30:030.00m/s67.90%19.60C
2017-08-02 04:33:030.00m/s67.80%19.60C
2017-08-02 04:35:020.00m/s67.80%19.60C
2017-08-02 04:36:030.00m/s67.90%19.60C
2017-08-02 05:15:030.06m/s68.00%19.40C
2017-08-02 04:38:030.00m/s67.80%19.60C
2017-08-02 04:47:020.00m/s68.20%19.50C
2017-08-02 05:08:030.00m/s67.90%19.40C
2017-08-02 05:13:030.00m/s67.90%19.40C
2017-08-02 05:16:030.00m/s67.80%19.40C
2017-08-02 04:44:030.00m/s68.00%19.60C
2017-08-02 05:10:030.00m/s68.00%19.40C
2017-08-02 05:26:030.00m/s68.00%19.40C
2017-08-02 05:29:030.06m/s68.30%19.40C
2017-08-02 05:40:030.00m/s68.40%19.30C
2017-08-02 05:41:040.00m/s68.40%19.30C
2017-08-02 05:47:030.00m/s68.20%19.30C
2017-08-02 05:57:020.00m/s68.50%19.30C
2017-08-02 05:30:030.00m/s68.00%19.30C
2017-08-02 05:58:030.00m/s68.30%19.30C
2017-08-02 06:00:030.00m/s68.30%19.30C
2017-08-02 06:06:030.00m/s68.20%19.20C
2017-08-02 06:17:030.00m/s68.30%19.20C
2017-08-02 06:31:020.00m/s68.70%19.20C
2017-08-02 06:32:030.00m/s68.60%19.20C
2017-08-02 06:36:030.00m/s68.80%19.10C
2017-08-02 06:37:030.00m/s68.90%19.20C
2017-08-02 06:40:030.00m/s68.80%19.20C
2017-08-02 06:45:030.00m/s68.80%19.10C
2017-08-02 06:48:030.00m/s68.80%19.10C
2017-08-02 06:56:030.00m/s69.00%19.10C
2017-08-02 07:35:020.06m/s69.80%19.00C
2017-08-02 06:59:030.00m/s68.90%19.00C
2017-08-02 07:12:030.00m/s69.30%19.00C
2017-08-02 07:14:030.00m/s69.10%19.00C
2017-08-02 07:27:030.00m/s69.30%19.00C
2017-08-02 07:01:030.00m/s69.10%19.10C
2017-08-02 07:03:030.00m/s69.10%19.10C
2017-08-02 07:05:030.00m/s69.00%19.00C
2017-08-02 07:31:030.00m/s70.00%19.00C
2017-08-02 07:55:030.00m/s70.20%19.10C
2017-08-02 07:59:030.00m/s70.30%19.10C
2017-08-02 08:07:030.00m/s70.40%19.10C
2017-08-02 08:24:030.00m/s71.70%19.30C
2017-08-02 07:37:030.00m/s69.90%19.00C
2017-08-02 07:42:030.00m/s69.90%19.00C
2017-08-02 07:45:030.00m/s69.80%19.00C
2017-08-02 07:51:030.00m/s70.10%19.10C
2017-08-02 08:03:030.00m/s71.00%19.10C
2017-08-02 08:29:020.00m/s72.60%19.20C
2017-08-02 08:36:030.00m/s72.70%19.20C
2017-08-02 08:42:030.00m/s72.70%19.20C
2017-08-02 08:48:030.00m/s72.70%19.20C
2017-08-02 08:50:040.00m/s72.30%19.20C
2017-08-02 08:58:020.00m/s72.40%19.20C
2017-08-02 09:09:030.00m/s72.50%19.30C
2017-08-02 08:26:030.00m/s72.00%19.20C
2017-08-02 08:44:030.00m/s72.20%19.20C
2017-08-02 09:18:030.85m/s72.40%19.30C
2017-08-02 09:23:030.85m/s72.10%19.30C
2017-08-02 09:46:030.85m/s71.90%19.50C
2017-08-02 10:00:040.06m/s70.90%19.70C
2017-08-02 09:17:030.00m/s72.40%19.30C
2017-08-02 09:26:030.00m/s72.10%19.30C
2017-08-02 09:35:020.00m/s71.80%19.30C
2017-08-02 09:43:030.00m/s71.80%19.40C
2017-08-02 09:59:030.00m/s70.80%19.70C
2017-08-02 10:28:033.21m/s68.80%20.30C
2017-08-02 11:11:030.85m/s63.90%21.30C
2017-08-02 10:41:030.00m/s66.40%20.50C
2017-08-02 11:07:030.00m/s64.60%21.20C
2017-08-02 11:09:030.00m/s64.10%21.30C
2017-08-02 11:13:020.00m/s62.50%21.40C
2017-08-02 10:19:030.00m/s69.10%20.10C
2017-08-02 10:36:030.00m/s67.40%20.40C
2017-08-02 11:00:030.00m/s64.90%21.00C
2017-08-02 11:26:034.00m/s61.10%21.70C
2017-08-02 12:24:031.64m/s58.30%22.90C
2017-08-02 11:28:030.00m/s61.40%21.70C
2017-08-02 12:18:030.00m/s57.40%22.80C
2017-08-02 12:19:030.00m/s57.10%22.80C
2017-08-02 12:20:030.00m/s57.70%22.80C
2017-08-02 11:36:030.00m/s60.90%21.90C
2017-08-02 11:49:030.00m/s59.80%22.00C
2017-08-02 12:22:030.00m/s58.00%22.80C
2017-08-02 12:47:022.42m/s54.60%23.30C
2017-08-02 12:58:032.42m/s54.50%23.70C
2017-08-02 12:36:030.06m/s55.70%23.10C
2017-08-02 12:40:030.06m/s55.60%23.20C
2017-08-02 12:49:030.06m/s54.10%23.40C
2017-08-02 12:26:030.00m/s57.70%22.90C
2017-08-02 12:37:030.00m/s55.70%23.10C
2017-08-02 12:50:030.00m/s53.70%23.40C
2017-08-02 13:02:020.00m/s52.80%23.80C
2017-08-02 14:12:035.57m/s46.10%25.20C
2017-08-02 13:07:020.85m/s53.10%24.00C
2017-08-02 13:15:030.00m/s50.80%24.20C
2017-08-02 13:40:030.00m/s49.20%24.70C
2017-08-02 13:58:030.00m/s47.60%25.10C
2017-08-02 14:26:030.00m/s46.30%25.50C
2017-08-02 13:09:020.00m/s53.10%24.10C
2017-08-02 13:25:020.00m/s50.40%24.40C
2017-08-02 13:43:030.00m/s50.00%24.80C
2017-08-02 14:30:037.14m/s45.90%25.50C
2017-08-02 15:17:037.14m/s43.60%25.10C
2017-08-02 15:20:033.21m/s44.30%25.10C
2017-08-02 14:36:036.35m/s44.60%25.60C
2017-08-02 15:21:030.85m/s44.30%25.10C
2017-08-02 15:31:030.06m/s46.00%25.20C
2017-08-02 14:43:030.00m/s43.50%25.60C
2017-08-02 14:44:030.00m/s43.70%25.60C
2017-08-02 15:33:020.85m/s46.20%25.20C
2017-08-02 16:19:0320.51m/s47.90%24.60C
2017-08-02 15:50:033.21m/s47.00%25.20C
2017-08-02 16:00:052.42m/s46.80%24.90C
2017-08-02 15:48:030.06m/s47.70%25.20C
2017-08-02 16:12:030.85m/s47.20%24.60C
2017-08-02 16:13:020.06m/s47.40%24.60C
2017-08-02 15:37:030.00m/s47.10%25.20C
2017-08-02 15:43:020.00m/s47.80%25.20C
2017-08-02 15:57:030.00m/s47.60%25.00C
2017-08-02 16:53:0310.29m/s47.50%24.50C
2017-08-02 16:37:034.00m/s49.30%24.60C
2017-08-02 16:35:030.06m/s49.20%24.60C
2017-08-02 16:50:031.64m/s47.80%24.50C
2017-08-02 17:00:030.00m/s47.90%24.50C
2017-08-02 16:22:030.85m/s48.60%24.60C
2017-08-02 17:01:030.85m/s47.50%24.50C
2017-08-02 16:28:020.00m/s49.00%24.60C
2017-08-02 16:52:020.00m/s48.00%24.50C
2017-08-02 17:14:0314.22m/s46.60%24.20C
2017-08-02 17:35:036.35m/s50.10%23.80C
2017-08-02 17:15:024.78m/s46.80%24.10C
2017-08-02 17:30:024.78m/s49.00%23.90C
2017-08-02 17:41:022.42m/s50.90%23.70C
2017-08-02 17:34:025.57m/s49.80%23.80C
2017-08-02 17:06:030.85m/s46.70%24.30C
2017-08-02 17:16:030.00m/s46.40%24.10C
2017-08-02 17:40:030.00m/s50.70%23.70C
2017-08-02 18:14:033.21m/s55.70%23.10C
2017-08-02 18:04:030.85m/s54.60%23.30C
2017-08-02 18:06:030.06m/s55.00%23.30C
2017-08-02 18:07:030.85m/s55.40%23.30C
2017-08-02 18:01:030.00m/s54.20%23.40C
2017-08-02 18:03:030.00m/s54.40%23.30C
2017-08-02 18:30:030.00m/s57.50%22.90C
2017-08-02 18:31:030.00m/s57.30%22.90C
2017-08-02 17:51:020.00m/s52.50%23.50C
2017-08-02 20:13:031.64m/s63.80%21.70C
2017-08-02 20:26:031.64m/s64.30%21.50C
2017-08-02 18:37:030.00m/s57.60%22.90C
2017-08-02 20:09:020.00m/s63.50%21.70C
2017-08-02 20:18:030.00m/s63.80%21.60C
2017-08-02 20:22:030.00m/s64.10%21.60C
2017-08-02 20:34:030.00m/s65.30%21.40C
2017-08-02 18:40:030.00m/s58.00%22.80C
2017-08-02 20:14:030.00m/s63.60%21.60C
2017-08-02 20:48:030.85m/s66.50%21.20C
2017-08-02 20:44:030.00m/s66.10%21.30C
2017-08-02 20:50:030.00m/s66.60%21.20C
2017-08-02 20:54:030.00m/s66.30%21.20C
2017-08-02 21:14:030.00m/s66.70%20.90C
2017-08-02 21:19:030.00m/s66.70%20.90C
2017-08-02 21:26:030.00m/s67.50%20.80C
2017-08-02 21:02:030.00m/s66.60%21.00C
2017-08-02 21:04:030.00m/s66.80%21.00C
2017-08-02 21:45:063.21m/s68.30%20.60C
2017-08-02 21:47:030.85m/s68.40%20.60C
2017-08-02 21:42:020.00m/s68.10%20.60C
2017-08-02 21:48:030.00m/s68.50%20.60C
2017-08-02 21:49:030.00m/s68.10%20.50C
2017-08-02 21:57:230.00m/s68.90%20.50C
2017-08-02 22:01:030.00m/s69.20%20.40C
2017-08-02 22:03:030.00m/s69.50%20.40C
2017-08-02 22:08:020.00m/s70.10%20.40C
2017-08-02 22:24:033.21m/s70.70%20.30C
2017-08-02 22:13:030.06m/s70.00%20.40C
2017-08-02 22:14:030.06m/s69.90%20.40C
2017-08-02 22:15:031.64m/s70.50%20.30C
2017-08-02 22:33:030.06m/s71.50%20.20C
2017-08-02 22:09:020.00m/s70.30%20.40C
2017-08-02 22:11:030.00m/s70.10%20.40C
2017-08-02 22:19:030.00m/s70.50%20.30C
2017-08-02 22:32:030.00m/s71.50%20.20C
2017-08-02 23:00:032.42m/s72.40%20.00C
2017-08-02 23:20:030.06m/s73.60%19.90C
2017-08-02 22:36:020.00m/s71.70%20.20C
2017-08-02 22:43:030.00m/s71.90%20.10C
2017-08-02 22:44:020.00m/s71.70%20.10C
2017-08-02 22:52:020.00m/s72.50%20.10C
2017-08-02 23:18:030.00m/s73.70%19.90C
2017-08-02 23:19:020.00m/s73.60%19.90C
2017-08-02 23:08:030.00m/s73.20%20.00C
2017-08-02 23:36:020.06m/s73.90%19.80C
2017-08-02 23:41:030.00m/s74.50%19.80C
2017-08-02 23:46:030.00m/s74.20%19.80C
2017-08-02 23:47:020.00m/s74.20%19.80C
2017-08-02 23:48:030.00m/s73.90%19.80C
2017-08-02 23:55:020.00m/s74.20%19.70C
2017-08-02 23:25:030.00m/s74.00%19.90C
2017-08-02 23:31:030.00m/s74.00%19.80C
2017-08-02 23:50:030.00m/s74.00%19.80C
2017-08-03 00:21:038.71m/s75.40%19.60C
2017-08-03 00:25:035.57m/s75.50%19.60C
2017-08-03 00:09:030.06m/s74.90%19.70C
2017-08-02 23:59:030.00m/s74.30%19.70C
2017-08-03 00:00:030.00m/s74.50%19.70C
2017-08-03 00:02:030.00m/s74.40%19.70C
2017-08-03 00:05:031.64m/s74.60%19.70C
2017-08-03 00:11:030.00m/s74.60%19.70C
2017-08-03 00:12:020.00m/s74.60%19.70C
2017-08-03 00:29:030.06m/s76.10%19.60C
2017-08-03 00:36:020.00m/s75.70%19.60C
2017-08-03 00:48:030.00m/s75.40%19.50C
2017-08-03 00:56:030.00m/s75.30%19.50C
2017-08-03 00:58:020.00m/s75.40%19.50C
2017-08-03 01:15:030.00m/s75.70%19.40C
2017-08-03 01:16:020.00m/s75.60%19.40C
2017-08-03 01:23:030.00m/s75.30%19.40C
2017-08-03 01:01:020.00m/s75.00%19.50C
2017-08-03 01:52:030.85m/s76.70%19.30C
2017-08-03 01:59:030.85m/s76.90%19.30C
2017-08-03 02:19:030.06m/s78.00%19.20C
2017-08-03 01:39:030.00m/s75.90%19.40C
2017-08-03 01:46:030.00m/s76.70%19.30C
2017-08-03 01:55:030.00m/s76.60%19.30C
2017-08-03 02:28:030.00m/s78.50%19.20C
2017-08-03 02:14:030.85m/s77.30%19.30C
2017-08-03 01:47:030.00m/s76.30%19.30C
2017-08-03 02:30:046.35m/s78.00%19.20C
2017-08-03 02:57:034.00m/s79.00%19.10C
2017-08-03 03:24:034.00m/s80.00%19.00C
2017-08-03 02:29:030.85m/s78.20%19.10C
2017-08-03 03:03:030.06m/s79.50%19.00C
2017-08-03 03:21:030.85m/s80.20%19.00C
2017-08-03 02:32:030.00m/s78.40%19.20C
2017-08-03 02:36:030.00m/s78.80%19.20C
2017-08-03 03:05:040.00m/s79.60%19.00C
2017-08-03 03:30:022.42m/s80.20%19.00C
2017-08-03 03:47:034.78m/s80.60%18.90C
2017-08-03 03:49:020.85m/s80.70%18.90C
2017-08-03 03:36:030.00m/s80.30%18.90C
2017-08-03 03:40:030.00m/s80.60%18.90C
2017-08-03 03:44:021.64m/s80.80%18.90C
2017-08-03 03:28:030.00m/s80.30%19.00C
2017-08-03 03:53:030.00m/s80.90%18.90C
2017-08-03 03:25:020.00m/s80.00%19.00C
2017-08-03 04:22:030.06m/s80.70%18.80C
2017-08-03 03:57:020.00m/s80.80%18.90C
2017-08-03 03:58:040.00m/s80.90%18.80C
2017-08-03 04:05:020.00m/s80.10%18.80C
2017-08-03 04:11:030.00m/s80.50%18.80C
2017-08-03 04:18:030.00m/s80.10%18.80C
2017-08-03 04:30:030.00m/s79.90%18.80C
2017-08-03 04:31:030.00m/s80.10%18.80C
2017-08-03 04:34:030.00m/s79.90%18.80C
2017-08-03 05:15:044.78m/s80.70%18.70C
2017-08-03 04:43:030.00m/s80.60%18.80C
2017-08-03 04:47:030.00m/s80.20%18.80C
2017-08-03 04:51:030.00m/s80.10%18.70C
2017-08-03 04:55:030.00m/s80.30%18.70C
2017-08-03 04:58:030.00m/s80.60%18.80C
2017-08-03 04:59:030.00m/s80.40%18.80C
2017-08-03 05:05:030.00m/s80.30%18.70C
2017-08-03 05:18:030.00m/s81.00%18.70C
2017-08-03 05:26:033.21m/s81.20%18.70C
2017-08-03 05:49:030.85m/s82.00%18.60C
2017-08-03 05:19:030.00m/s80.90%18.70C
2017-08-03 05:25:030.00m/s81.30%18.70C
2017-08-03 05:30:031.64m/s81.20%18.70C
2017-08-03 05:41:031.64m/s81.30%18.60C
2017-08-03 05:58:030.00m/s81.80%18.60C
2017-08-03 05:55:030.85m/s81.60%18.60C
2017-08-03 05:46:030.00m/s82.00%18.70C
2017-08-03 06:08:033.21m/s82.00%18.60C
2017-08-03 06:21:023.21m/s82.30%18.60C
2017-08-03 06:29:027.93m/s82.40%18.60C
2017-08-03 06:47:020.85m/s83.20%18.50C
2017-08-03 06:34:030.00m/s82.90%18.60C
2017-08-03 06:36:030.00m/s82.90%18.60C
2017-08-03 06:37:020.00m/s82.60%18.50C
2017-08-03 06:35:030.00m/s83.00%18.60C
2017-08-03 06:41:020.00m/s82.60%18.60C
2017-08-03 07:22:0310.29m/s85.40%18.60C
2017-08-03 06:50:032.42m/s83.60%18.50C
2017-08-03 07:14:034.00m/s85.00%18.60C
2017-08-03 06:48:030.85m/s83.30%18.60C
2017-08-03 07:05:030.06m/s84.50%18.60C
2017-08-03 06:53:030.00m/s83.70%18.60C
2017-08-03 07:16:030.00m/s85.50%18.60C
2017-08-03 07:19:030.85m/s85.60%18.60C
2017-08-03 07:04:031.64m/s84.60%18.60C
2017-08-03 07:29:037.93m/s85.20%18.60C
2017-08-03 07:58:043.21m/s86.20%18.70C
2017-08-03 07:48:038.71m/s85.40%18.70C
2017-08-03 07:39:032.42m/s85.60%18.60C
2017-08-03 07:23:030.00m/s85.90%18.60C
2017-08-03 07:24:020.00m/s85.50%18.60C
2017-08-03 07:51:030.00m/s85.80%18.70C
2017-08-03 07:52:030.00m/s85.90%18.70C
2017-08-03 07:49:030.00m/s86.00%18.70C
2017-08-03 08:01:0312.65m/s86.10%18.70C
2017-08-03 08:04:042.42m/s85.90%18.70C
2017-08-03 08:23:033.21m/s86.00%18.90C
2017-08-03 08:32:035.57m/s86.10%19.00C
2017-08-03 08:37:036.35m/s86.30%19.00C
2017-08-03 08:06:032.42m/s85.70%18.70C
2017-08-03 08:17:031.64m/s85.70%18.80C
2017-08-03 08:13:020.00m/s86.00%18.80C
2017-08-03 08:39:020.00m/s86.00%19.00C
2017-08-03 08:49:033.21m/s85.30%19.20C
2017-08-03 08:50:035.57m/s85.60%19.10C
2017-08-03 08:43:039.50m/s86.20%19.10C
2017-08-03 09:07:034.00m/s85.80%19.40C
2017-08-03 08:45:030.00m/s85.90%19.10C
2017-08-03 08:47:030.00m/s85.70%19.10C
2017-08-03 08:57:030.00m/s85.80%19.20C
2017-08-03 08:59:030.00m/s85.40%19.20C
2017-08-03 09:05:030.00m/s85.50%19.30C
2017-08-03 09:21:0314.22m/s84.70%19.70C
2017-08-03 09:27:023.21m/s84.30%19.70C
2017-08-03 09:28:032.42m/s84.50%19.70C
2017-08-03 09:29:033.21m/s84.20%19.70C
2017-08-03 09:36:037.14m/s84.60%19.80C
2017-08-03 09:13:023.21m/s85.50%19.50C
2017-08-03 09:14:030.85m/s85.50%19.60C
2017-08-03 09:30:030.06m/s84.40%19.80C
2017-08-03 09:46:030.85m/s84.80%19.80C
2017-08-03 10:07:0315.79m/s84.80%19.80C
2017-08-03 10:10:0211.07m/s84.80%19.80C
2017-08-03 10:21:033.21m/s85.90%19.80C
2017-08-03 09:47:032.42m/s84.70%19.70C
2017-08-03 09:50:046.35m/s84.80%19.80C
2017-08-03 10:03:037.93m/s84.80%19.80C
2017-08-03 09:55:030.00m/s84.80%19.80C
2017-08-03 09:58:030.00m/s84.80%19.80C
2017-08-03 10:26:040.00m/s86.00%19.80C
2017-08-03 11:23:0211.07m/s88.00%19.80C
2017-08-03 10:28:037.93m/s86.20%19.80C
2017-08-03 11:26:033.21m/s88.40%19.80C
2017-08-03 10:36:034.00m/s86.70%19.80C
2017-08-03 10:40:030.06m/s87.10%19.80C
2017-08-03 11:01:020.06m/s87.90%19.80C
2017-08-03 10:57:030.00m/s87.90%19.80C
2017-08-03 10:53:030.00m/s88.00%19.80C
2017-08-03 11:19:030.00m/s87.80%19.80C
2017-08-03 12:04:0311.86m/s82.00%20.80C
2017-08-03 11:31:023.21m/s89.00%19.90C
2017-08-03 11:35:0315.00m/s89.00%19.90C
2017-08-03 11:55:034.78m/s84.70%20.40C
2017-08-03 11:47:032.42m/s86.90%20.10C
2017-08-03 12:06:034.00m/s81.80%20.90C
2017-08-03 12:15:044.00m/s77.50%21.20C
2017-08-03 11:39:034.00m/s88.50%20.00C
2017-08-03 12:22:031.64m/s76.00%21.50C
2017-08-03 12:31:0318.94m/s73.00%21.80C
2017-08-03 12:43:0313.43m/s69.70%22.20C
2017-08-03 13:22:0315.79m/s60.20%23.70C
2017-08-03 12:30:033.21m/s74.10%21.80C
2017-08-03 13:20:035.57m/s62.10%23.40C
2017-08-03 14:53:037.93m/s49.60%26.40C
2017-08-03 12:41:037.93m/s70.30%22.20C
2017-08-03 13:00:026.35m/s65.40%22.90C
2017-08-03 13:02:031.64m/s64.10%22.90C
2017-08-03 15:32:0311.86m/s44.80%27.00C
2017-08-03 15:34:0213.43m/s43.90%27.00C
2017-08-03 15:38:0311.86m/s43.00%26.90C
2017-08-03 15:24:0215.00m/s45.50%26.90C
2017-08-03 15:15:033.21m/s45.30%26.80C
2017-08-03 15:05:039.50m/s47.40%26.60C
2017-08-03 15:01:030.85m/s46.60%26.50C
2017-08-03 15:16:020.85m/s45.40%26.80C
2017-08-03 15:30:040.00m/s45.00%27.00C
2017-08-03 16:02:036.35m/s43.60%27.10C
2017-08-03 16:04:033.21m/s43.30%27.00C
2017-08-03 16:11:036.35m/s42.70%27.00C
2017-08-03 16:18:027.14m/s44.20%27.00C
2017-08-03 16:23:035.57m/s43.60%27.10C
2017-08-03 16:29:032.42m/s43.50%27.10C
2017-08-03 16:19:022.42m/s44.00%27.00C
2017-08-03 15:48:030.06m/s45.50%27.00C
2017-08-03 15:58:030.00m/s43.70%27.00C
2017-08-03 16:35:0312.65m/s43.00%27.10C
2017-08-03 16:37:0314.22m/s41.90%27.10C
2017-08-03 16:38:037.93m/s42.40%27.00C
2017-08-03 16:45:035.57m/s43.00%27.10C
2017-08-03 16:55:037.14m/s42.90%27.00C
2017-08-03 17:16:027.14m/s44.20%26.90C
2017-08-03 16:58:032.42m/s43.50%27.10C
2017-08-03 16:31:032.42m/s43.10%27.10C
2017-08-03 16:54:030.00m/s43.40%27.00C
2017-08-03 18:02:0322.08m/s43.90%26.30C
2017-08-03 17:17:0310.29m/s43.60%26.90C
2017-08-03 17:46:0315.79m/s43.40%26.50C
2017-08-03 18:09:0311.86m/s43.10%26.00C
2017-08-03 18:18:0314.22m/s44.50%25.90C
2017-08-03 17:21:039.50m/s44.00%26.90C
2017-08-03 17:55:039.50m/s44.20%26.40C
2017-08-03 17:53:037.93m/s44.40%26.40C
2017-08-03 17:43:031.64m/s44.20%26.50C
2017-08-03 18:41:0323.66m/s43.70%25.50C
2017-08-03 18:43:0215.79m/s43.90%25.50C
2017-08-03 18:35:036.35m/s43.40%25.70C
2017-08-03 18:36:038.71m/s43.20%25.60C
2017-08-03 18:45:038.71m/s44.30%25.40C
2017-08-03 18:48:035.57m/s44.50%25.40C
2017-08-03 18:23:034.78m/s44.00%25.90C
2017-08-03 18:28:034.00m/s44.80%25.90C
2017-08-03 18:39:039.50m/s43.60%25.50C
2017-08-03 19:13:0321.30m/s45.60%25.00C
2017-08-03 18:58:0311.07m/s44.50%25.40C
2017-08-03 19:07:0310.29m/s45.10%24.90C
2017-08-03 18:57:037.93m/s44.50%25.40C
2017-08-03 19:16:033.21m/s44.60%24.90C
2017-08-03 19:26:036.35m/s45.40%24.80C
2017-08-03 18:55:034.00m/s44.50%25.40C
2017-08-03 18:54:031.64m/s44.50%25.40C
2017-08-03 19:23:030.00m/s44.60%24.80C
2017-08-03 19:36:0320.51m/s45.70%24.60C
2017-08-03 20:03:0313.43m/s46.50%24.10C
2017-08-03 19:53:038.71m/s45.30%24.20C
2017-08-03 19:49:033.21m/s45.30%24.30C
2017-08-03 19:56:034.00m/s45.80%24.20C
2017-08-03 20:06:037.14m/s45.90%23.90C
2017-08-03 19:27:039.50m/s45.50%24.80C
2017-08-03 19:34:030.85m/s45.40%24.60C
2017-08-03 19:58:030.00m/s45.90%24.10C
2017-08-03 20:13:023.21m/s47.20%23.80C
2017-08-03 20:10:034.00m/s46.80%23.80C
2017-08-03 20:35:030.06m/s47.50%23.60C
2017-08-03 20:07:030.00m/s46.20%23.80C
2017-08-03 20:16:030.00m/s47.50%23.80C
2017-08-03 20:18:030.00m/s47.60%23.80C
2017-08-03 20:31:030.00m/s48.50%23.70C
2017-08-03 20:09:031.64m/s46.80%23.80C
2017-08-03 20:25:030.00m/s47.80%23.80C
2017-08-03 20:58:033.21m/s49.70%23.20C
2017-08-03 20:51:034.78m/s49.30%23.30C
2017-08-03 20:56:044.00m/s49.30%23.30C
2017-08-03 20:53:031.64m/s49.10%23.30C
2017-08-03 21:02:031.64m/s49.40%23.10C
2017-08-03 21:14:031.64m/s50.50%23.00C
2017-08-03 20:40:030.00m/s48.70%23.40C
2017-08-03 20:47:030.00m/s49.20%23.40C
2017-08-03 20:49:030.00m/s49.40%23.40C
2017-08-03 21:16:2810.29m/s50.40%22.90C
2017-08-03 21:33:0310.29m/s51.00%22.60C
2017-08-03 21:36:023.21m/s51.20%22.60C
2017-08-03 21:42:033.21m/s51.30%22.50C
2017-08-03 21:43:023.21m/s51.40%22.50C
2017-08-03 21:29:032.42m/s51.10%22.70C
2017-08-03 21:19:031.64m/s50.50%22.90C
2017-08-03 21:41:030.00m/s51.80%22.50C
2017-08-03 21:15:030.00m/s50.50%23.00C
2017-08-03 22:06:035.57m/s52.60%22.10C
2017-08-03 22:35:045.57m/s54.60%21.90C
2017-08-03 22:21:033.21m/s54.00%22.00C
2017-08-03 21:51:020.06m/s52.10%22.30C
2017-08-03 22:15:021.64m/s53.60%22.10C
2017-08-03 22:40:041.64m/s54.50%21.80C
2017-08-03 22:07:030.00m/s53.00%22.10C
2017-08-03 22:09:030.00m/s53.10%22.10C
2017-08-03 22:19:030.00m/s53.90%22.00C
2017-08-03 22:50:036.35m/s55.40%21.70C
2017-08-03 23:00:034.78m/s55.80%21.50C
2017-08-03 23:09:083.21m/s56.80%21.50C
2017-08-03 22:46:032.42m/s54.50%21.70C
2017-08-03 23:10:044.00m/s56.50%21.40C
2017-08-03 23:12:031.64m/s56.80%21.40C
2017-08-03 23:13:031.64m/s56.90%21.40C
2017-08-03 23:17:030.06m/s57.00%21.40C
2017-08-03 23:20:030.06m/s57.30%21.30C
2017-08-03 23:26:036.35m/s57.80%21.30C
2017-08-03 23:38:036.35m/s58.40%21.10C
2017-08-03 23:44:037.14m/s58.70%21.00C
2017-08-03 23:27:035.57m/s57.80%21.30C
2017-08-03 23:50:034.00m/s59.20%20.90C
2017-08-03 23:55:034.00m/s59.20%20.90C
2017-08-03 23:46:030.85m/s58.90%21.00C
2017-08-03 23:59:020.85m/s59.50%20.80C
2017-08-03 23:53:020.00m/s59.20%20.90C
2017-08-04 00:42:0314.22m/s61.40%20.30C
2017-08-04 00:57:034.00m/s61.70%20.20C
2017-08-04 00:23:034.00m/s60.00%20.50C
2017-08-04 00:40:030.06m/s61.20%20.30C
2017-08-04 00:47:030.85m/s61.50%20.30C
2017-08-04 00:49:030.06m/s61.40%20.20C
2017-08-04 00:52:030.06m/s61.50%20.20C
2017-08-04 00:19:030.00m/s60.10%20.60C
2017-08-04 00:48:030.00m/s61.40%20.20C
2017-08-04 01:22:022.42m/s62.60%19.80C
2017-08-04 01:43:037.14m/s63.20%19.70C
2017-08-04 01:15:036.35m/s62.30%19.90C
2017-08-04 02:01:034.00m/s63.70%19.50C
2017-08-04 02:00:030.06m/s63.60%19.50C
2017-08-04 00:58:030.00m/s61.50%20.10C
2017-08-04 01:20:030.00m/s62.60%19.90C
2017-08-04 01:27:020.00m/s62.80%19.80C
2017-08-04 01:08:030.00m/s61.90%20.00C
2017-08-04 02:10:0312.65m/s64.00%19.40C
2017-08-04 02:04:033.21m/s63.70%19.50C
2017-08-04 02:38:037.93m/s64.80%19.20C
2017-08-04 02:40:023.21m/s65.00%19.20C
2017-08-04 02:05:040.85m/s63.70%19.50C
2017-08-04 02:19:020.85m/s64.30%19.40C
2017-08-04 02:30:030.85m/s64.50%19.20C
2017-08-04 02:36:030.85m/s64.80%19.20C
2017-08-04 02:24:030.00m/s64.10%19.30C
2017-08-04 03:06:035.57m/s64.90%18.90C
2017-08-04 03:08:024.00m/s64.90%18.90C
2017-08-04 03:14:039.50m/s64.90%18.90C
2017-08-04 02:44:031.64m/s64.90%19.10C
2017-08-04 02:57:031.64m/s64.90%19.00C
2017-08-04 03:13:020.00m/s65.10%18.90C
2017-08-04 02:42:030.00m/s65.00%19.10C
2017-08-04 03:05:030.00m/s64.90%18.90C
2017-08-04 03:09:030.00m/s64.90%18.90C
2017-08-04 03:15:033.21m/s65.20%18.90C
2017-08-04 04:05:032.42m/s67.00%18.40C
2017-08-04 03:40:036.35m/s65.90%18.60C
2017-08-04 03:32:023.21m/s65.70%18.70C
2017-08-04 03:41:030.06m/s66.30%18.60C
2017-08-04 03:46:030.06m/s66.50%18.60C
2017-08-04 04:03:030.00m/s66.70%18.40C
2017-08-04 03:25:031.64m/s65.80%18.80C
2017-08-04 03:28:030.00m/s65.70%18.70C
2017-08-04 04:12:0311.07m/s67.50%18.30C
2017-08-04 04:09:037.93m/s67.00%18.40C
2017-08-04 04:30:035.57m/s68.40%18.20C
2017-08-04 04:17:026.35m/s67.70%18.30C
2017-08-04 04:06:034.00m/s67.00%18.40C
2017-08-04 04:31:020.00m/s68.50%18.20C
2017-08-04 04:32:030.00m/s68.50%18.20C
2017-08-04 04:14:030.85m/s67.30%18.30C
2017-08-04 04:10:030.00m/s67.00%18.30C
2017-08-04 05:01:0310.29m/s70.00%18.00C
2017-08-04 04:48:032.42m/s69.30%18.10C
2017-08-04 05:03:032.42m/s70.10%18.00C
2017-08-04 04:35:044.00m/s68.70%18.20C
2017-08-04 04:58:034.78m/s70.10%18.10C
2017-08-04 04:53:030.00m/s69.60%18.10C
2017-08-04 05:05:031.64m/s70.40%18.00C
2017-08-04 05:10:031.64m/s70.40%18.00C
2017-08-04 04:38:030.00m/s69.20%18.20C
2017-08-04 05:19:036.35m/s70.50%18.00C
2017-08-04 05:23:032.42m/s70.70%17.90C
2017-08-04 05:33:035.57m/s71.00%17.90C
2017-08-04 05:14:030.06m/s70.50%18.00C
2017-08-04 05:41:030.85m/s71.30%17.90C
2017-08-04 05:35:020.00m/s71.10%17.90C
2017-08-04 05:50:031.64m/s71.00%17.80C
2017-08-04 05:12:030.00m/s70.30%18.00C
2017-08-04 05:15:020.00m/s70.50%18.00C
2017-08-04 06:29:033.21m/s71.80%17.70C
2017-08-04 05:51:037.14m/s71.20%17.90C
2017-08-04 05:54:037.14m/s71.10%17.80C
2017-08-04 06:13:034.00m/s71.40%17.80C
2017-08-04 06:35:037.93m/s72.00%17.70C
2017-08-04 06:26:035.57m/s71.80%17.80C
2017-08-04 06:02:030.00m/s71.30%17.80C
2017-08-04 06:14:020.00m/s71.60%17.80C
2017-08-04 06:43:030.00m/s72.20%17.70C
2017-08-04 07:04:022.42m/s72.60%17.70C
2017-08-04 07:22:038.71m/s73.00%17.70C
2017-08-04 07:03:037.93m/s72.60%17.70C
2017-08-04 07:40:040.85m/s73.40%17.80C
2017-08-04 06:48:030.00m/s72.30%17.70C
2017-08-04 07:01:030.00m/s72.60%17.70C
2017-08-04 07:18:030.00m/s72.90%17.70C
2017-08-04 07:27:031.64m/s73.10%17.80C
2017-08-04 07:33:020.00m/s73.30%17.80C
2017-08-04 08:16:0320.51m/s74.80%17.90C
2017-08-04 08:10:0411.86m/s74.70%17.90C
2017-08-04 07:50:0312.65m/s73.80%17.80C
2017-08-04 07:42:033.21m/s73.40%17.80C
2017-08-04 07:58:033.21m/s74.50%17.90C
2017-08-04 07:59:036.35m/s74.20%17.80C
2017-08-04 07:56:037.14m/s74.20%17.90C
2017-08-04 07:41:030.85m/s73.50%17.80C
2017-08-04 07:45:040.06m/s73.60%17.80C
2017-08-04 10:08:0313.43m/s75.00%18.70C
2017-08-04 09:46:023.21m/s75.80%18.50C
2017-08-04 10:25:023.21m/s75.60%18.80C
2017-08-04 08:22:039.50m/s74.60%18.00C
2017-08-04 10:21:030.06m/s75.50%18.80C
2017-08-04 10:01:040.00m/s75.50%18.70C
2017-08-04 10:04:020.00m/s75.30%18.70C
2017-08-04 10:35:030.00m/s76.50%18.90C
2017-08-04 10:28:030.00m/s75.90%18.90C
2017-08-04 10:48:035.57m/s76.20%18.90C
2017-08-04 10:52:033.21m/s76.10%18.90C
2017-08-04 10:56:032.42m/s75.90%19.00C
2017-08-04 10:36:030.85m/s76.50%18.90C
2017-08-04 10:57:030.06m/s75.90%19.00C
2017-08-04 10:51:030.00m/s76.20%18.90C
2017-08-04 10:53:030.00m/s76.10%18.90C
2017-08-04 10:59:020.00m/s75.90%19.00C
2017-08-04 11:00:030.00m/s75.70%19.00C
2017-08-04 11:17:036.35m/s75.00%19.20C
2017-08-04 11:18:034.78m/s74.90%19.20C
2017-08-04 11:03:030.85m/s75.60%19.00C
2017-08-04 11:05:030.85m/s75.60%19.00C
2017-08-04 11:07:030.06m/s75.40%19.00C
2017-08-04 11:25:030.06m/s74.40%19.50C
2017-08-04 11:09:030.00m/s75.60%19.10C
2017-08-04 11:24:031.64m/s74.60%19.50C
2017-08-04 11:26:030.00m/s74.30%19.50C
2017-08-04 11:52:0223.66m/s66.50%20.70C
2017-08-04 11:58:0311.86m/s64.70%21.10C
2017-08-04 12:00:0410.29m/s64.10%21.20C
2017-08-04 11:57:0314.22m/s65.00%21.00C
2017-08-04 12:02:037.14m/s62.50%21.30C
2017-08-04 12:07:025.57m/s60.60%21.50C
2017-08-04 11:33:037.14m/s72.30%19.90C
2017-08-04 11:54:039.50m/s65.60%20.80C
2017-08-04 11:44:030.00m/s69.90%20.30C
2017-08-04 12:08:0311.86m/s60.70%21.60C
2017-08-04 12:12:0211.86m/s60.50%21.80C
2017-08-04 12:21:038.71m/s59.00%22.40C
2017-08-04 12:22:033.21m/s59.60%22.40C
2017-08-04 12:38:036.35m/s58.60%22.80C
2017-08-04 12:46:038.71m/s58.70%23.00C
2017-08-04 12:25:045.57m/s59.00%22.50C
2017-08-04 12:27:032.42m/s59.60%22.60C
2017-08-04 12:15:030.85m/s60.50%22.00C
2017-08-04 12:52:038.71m/s57.50%23.10C
2017-08-04 12:53:026.35m/s56.90%23.10C
2017-08-04 12:56:033.21m/s55.80%23.20C
2017-08-04 13:10:047.14m/s55.00%23.70C
2017-08-04 13:13:034.78m/s55.30%23.70C
2017-08-04 13:29:038.71m/s53.60%24.30C
2017-08-04 13:00:034.78m/s55.30%23.30C
2017-08-04 13:01:031.64m/s55.00%23.40C
2017-08-04 13:02:031.64m/s54.80%23.40C
2017-08-04 13:41:027.93m/s52.10%24.80C
2017-08-04 13:50:037.93m/s51.20%25.10C
2017-08-04 13:54:028.71m/s50.50%25.20C
2017-08-04 14:02:037.14m/s51.10%25.30C
2017-08-04 14:07:036.35m/s51.10%25.50C
2017-08-04 14:17:055.57m/s49.90%25.60C
2017-08-04 14:27:083.21m/s48.80%25.50C
2017-08-04 13:59:030.85m/s51.10%25.30C
2017-08-04 14:16:030.85m/s50.00%25.60C
2017-08-04 14:30:036.35m/s50.00%25.50C
2017-08-04 14:50:043.21m/s51.00%25.70C
2017-08-04 15:00:048.71m/s51.40%25.70C
2017-08-04 14:46:045.57m/s51.00%25.70C
2017-08-04 14:51:041.64m/s51.30%25.70C
2017-08-04 14:28:030.00m/s48.90%25.50C
2017-08-04 14:55:030.00m/s50.20%25.70C
2017-08-04 15:09:030.00m/s50.50%25.60C
2017-08-04 15:12:030.85m/s50.60%25.60C
2017-08-04 15:14:038.71m/s50.40%25.60C
2017-08-04 15:24:036.35m/s51.20%25.50C
2017-08-04 15:25:038.71m/s50.80%25.50C
2017-08-04 15:41:020.85m/s51.70%25.50C
2017-08-04 15:52:020.06m/s51.20%25.50C
2017-08-04 16:01:030.06m/s51.40%25.30C
2017-08-04 16:08:031.64m/s52.00%25.30C
2017-08-04 15:27:030.00m/s51.30%25.60C
2017-08-04 15:55:030.00m/s51.20%25.40C
2017-08-04 16:48:0215.79m/s51.10%25.30C
2017-08-04 16:12:033.21m/s52.50%25.30C
2017-08-04 16:41:034.00m/s52.70%25.30C
2017-08-04 16:44:032.42m/s52.60%25.30C
2017-08-04 16:17:031.64m/s52.40%25.30C
2017-08-04 16:32:030.85m/s53.10%25.30C
2017-08-04 16:16:020.00m/s52.40%25.30C
2017-08-04 16:22:030.00m/s52.70%25.30C
2017-08-04 16:30:030.00m/s52.70%25.30C
2017-08-04 16:58:037.93m/s49.20%25.30C
2017-08-04 17:03:037.14m/s47.80%25.30C
2017-08-04 17:10:048.71m/s48.20%25.60C
2017-08-04 17:14:027.14m/s47.90%25.70C
2017-08-04 17:33:033.21m/s46.30%25.90C
2017-08-04 17:34:037.14m/s46.10%26.00C
2017-08-04 17:37:033.21m/s46.50%26.10C
2017-08-04 17:15:024.00m/s47.80%25.70C
2017-08-04 17:28:030.00m/s45.70%25.80C
2017-08-04 17:53:035.57m/s45.20%26.30C
2017-08-04 17:55:033.21m/s45.20%26.30C
2017-08-04 18:00:048.71m/s45.70%26.40C
2017-08-04 18:39:036.35m/s46.20%26.20C
2017-08-04 18:40:031.64m/s46.30%26.10C
2017-08-04 18:04:030.00m/s45.20%26.40C
2017-08-04 18:10:030.00m/s45.20%26.40C
2017-08-04 18:02:031.64m/s45.40%26.40C
2017-08-04 18:18:020.00m/s46.00%26.30C
2017-08-04 19:05:047.93m/s47.30%25.80C
2017-08-04 18:47:031.64m/s45.80%26.10C
2017-08-04 18:59:030.85m/s46.70%25.90C
2017-08-04 19:26:030.85m/s47.90%25.40C
2017-08-04 18:42:030.00m/s45.90%26.10C
2017-08-04 19:07:030.00m/s46.50%25.80C
2017-08-04 19:23:030.00m/s47.50%25.40C
2017-08-04 18:54:030.00m/s46.90%25.90C
2017-08-04 18:46:030.00m/s46.10%26.10C
2017-08-04 19:27:030.06m/s47.60%25.40C
2017-08-04 19:31:030.06m/s48.00%25.30C
2017-08-04 19:42:030.06m/s49.50%25.20C
2017-08-04 19:49:030.85m/s49.70%25.10C
2017-08-04 19:34:020.00m/s48.50%25.30C
2017-08-04 19:36:030.00m/s48.70%25.20C
2017-08-04 19:43:030.00m/s49.60%25.20C
2017-08-04 19:50:030.00m/s49.80%25.10C
2017-08-04 19:40:040.00m/s49.20%25.20C
2017-08-04 20:08:023.21m/s50.70%24.80C
2017-08-04 20:09:034.78m/s50.60%24.70C
2017-08-04 20:02:031.64m/s50.80%24.90C
2017-08-04 20:04:030.00m/s50.70%24.80C
2017-08-04 20:10:030.00m/s50.60%24.70C
2017-08-04 20:13:020.00m/s50.50%24.60C
2017-08-04 19:51:030.00m/s50.20%25.00C
2017-08-04 19:57:030.00m/s49.90%24.90C
2017-08-04 20:15:040.00m/s50.60%24.60C
2017-08-04 20:23:0311.07m/s51.20%24.50C
2017-08-04 20:44:033.21m/s51.40%24.10C
2017-08-04 20:28:034.00m/s51.60%24.40C
2017-08-04 20:41:035.57m/s52.10%24.20C
2017-08-04 20:48:032.42m/s51.60%24.00C
2017-08-04 20:27:030.00m/s51.30%24.40C
2017-08-04 20:30:030.00m/s51.70%24.30C
2017-08-04 20:46:030.00m/s51.50%24.00C
2017-08-04 20:47:020.00m/s51.20%24.00C
2017-08-04 21:02:035.57m/s50.90%23.70C
2017-08-04 20:50:020.06m/s51.40%24.00C
2017-08-04 21:07:030.00m/s51.20%23.50C
2017-08-04 21:10:030.00m/s51.10%23.40C
2017-08-04 21:15:030.00m/s51.60%23.40C
2017-08-04 21:12:030.85m/s51.40%23.40C
2017-08-04 20:52:030.00m/s51.00%23.90C
2017-08-04 21:00:040.00m/s51.00%23.70C
2017-08-04 21:13:030.00m/s51.40%23.40C
2017-08-04 21:37:020.00m/s52.40%22.90C
2017-08-04 21:38:030.00m/s52.40%22.80C
2017-08-04 21:39:030.00m/s52.60%22.80C
2017-08-04 21:41:030.00m/s52.60%22.80C
2017-08-04 21:42:030.00m/s52.80%22.70C
2017-08-04 21:27:031.64m/s52.10%23.10C
2017-08-04 21:29:030.00m/s52.10%23.00C
2017-08-04 21:31:030.00m/s52.10%23.00C
2017-08-04 21:30:040.00m/s52.00%23.00C
2017-08-04 21:46:020.85m/s52.90%22.70C
2017-08-04 21:55:190.85m/s53.20%22.50C
2017-08-04 21:51:030.00m/s52.90%22.60C
2017-08-04 21:59:030.00m/s53.20%22.40C
2017-08-04 22:03:030.00m/s53.20%22.30C
2017-08-04 22:07:030.00m/s53.60%22.20C
2017-08-04 22:11:020.00m/s53.70%22.20C
2017-08-04 21:58:030.00m/s53.00%22.40C
2017-08-04 22:02:030.00m/s53.30%22.30C
2017-08-04 22:57:030.06m/s56.40%21.30C
2017-08-04 22:25:020.00m/s54.60%21.90C
2017-08-04 22:26:030.00m/s54.60%21.90C
2017-08-04 22:32:030.00m/s54.50%21.80C
2017-08-04 22:36:030.00m/s54.50%21.70C
2017-08-04 22:53:030.00m/s55.80%21.40C
2017-08-04 23:09:040.00m/s56.70%21.10C
2017-08-04 22:18:030.00m/s54.00%22.10C
2017-08-04 22:51:030.00m/s55.40%21.40C
2017-08-04 23:11:030.00m/s56.80%21.10C
2017-08-04 23:25:040.00m/s57.80%20.90C
2017-08-04 23:30:030.00m/s58.10%20.90C
2017-08-04 23:45:030.00m/s59.10%20.60C
2017-08-04 23:48:030.00m/s59.20%20.60C
2017-08-04 23:52:030.00m/s59.60%20.50C
2017-08-04 23:14:030.00m/s57.10%21.10C
2017-08-04 23:18:030.00m/s57.40%21.00C
2017-08-04 23:28:030.00m/s57.80%20.80C
2017-08-04 23:56:030.00m/s59.70%20.50C
2017-08-04 23:57:030.00m/s59.80%20.50C
2017-08-05 00:04:030.00m/s59.70%20.40C
2017-08-05 00:07:030.00m/s59.70%20.30C
2017-08-05 00:22:020.00m/s60.70%20.20C
2017-08-04 23:53:020.00m/s59.50%20.50C
2017-08-05 00:09:030.00m/s60.00%20.30C
2017-08-05 00:27:030.00m/s60.80%20.00C
2017-08-05 00:30:020.00m/s60.80%20.00C
2017-08-05 00:37:030.06m/s61.10%19.90C
2017-08-05 00:39:030.00m/s61.30%19.90C
2017-08-05 00:40:040.00m/s61.50%19.90C
2017-08-05 00:55:030.00m/s61.90%19.70C
2017-08-05 00:56:030.00m/s62.10%19.70C
2017-08-05 01:03:030.00m/s62.30%19.60C
2017-08-05 01:05:030.00m/s62.50%19.60C
2017-08-05 01:01:040.00m/s62.00%19.60C
2017-08-05 00:36:020.00m/s61.10%20.00C
2017-08-05 01:35:040.00m/s63.30%19.20C
2017-08-05 01:36:030.00m/s63.40%19.20C
2017-08-05 01:45:030.00m/s63.70%19.10C
2017-08-05 01:46:020.00m/s63.50%19.10C
2017-08-05 01:51:030.00m/s64.20%19.10C
2017-08-05 02:09:040.00m/s64.30%18.90C
2017-08-05 02:20:040.00m/s64.70%18.80C
2017-08-05 01:06:030.00m/s62.60%19.60C
2017-08-05 01:55:030.00m/s64.00%19.00C
2017-08-05 02:21:030.00m/s64.70%18.80C
2017-08-05 02:53:030.00m/s64.90%18.50C
2017-08-05 02:57:030.00m/s65.10%18.50C
2017-08-05 02:29:030.00m/s64.80%18.80C
2017-08-05 02:33:030.00m/s64.70%18.70C
2017-08-05 02:37:030.00m/s64.70%18.70C
2017-08-05 02:38:030.00m/s64.70%18.70C
2017-08-05 02:46:030.00m/s64.60%18.60C
2017-08-05 02:48:030.00m/s65.00%18.60C
2017-08-05 05:14:030.06m/s69.20%17.80C
2017-08-05 03:04:030.00m/s65.60%18.40C
2017-08-05 03:08:030.00m/s65.70%18.40C
2017-08-05 03:19:030.00m/s65.80%18.40C
2017-08-05 03:25:040.00m/s66.10%18.30C
2017-08-05 03:27:030.00m/s66.10%18.30C
2017-08-05 03:30:030.00m/s66.70%18.20C
2017-08-05 05:35:030.00m/s69.60%17.70C
2017-08-05 03:32:030.00m/s66.30%18.30C
2017-08-05 05:37:030.00m/s69.80%17.70C
2017-08-05 05:38:030.00m/s69.90%17.70C
2017-08-05 05:42:030.00m/s69.90%17.70C
2017-08-05 05:52:030.00m/s69.90%17.70C
2017-08-05 06:10:030.00m/s70.10%17.60C
2017-08-05 06:12:030.00m/s70.10%17.60C
2017-08-05 05:43:030.00m/s70.00%17.70C
2017-08-05 05:49:030.00m/s70.00%17.70C
2017-08-05 06:04:030.00m/s70.00%17.70C
2017-08-05 06:23:030.06m/s70.10%17.60C
2017-08-05 06:14:030.00m/s70.20%17.70C
2017-08-05 06:21:030.00m/s70.10%17.60C
2017-08-05 06:27:030.00m/s70.10%17.60C
2017-08-05 06:32:030.00m/s70.10%17.60C
2017-08-05 06:46:030.00m/s70.50%17.60C
2017-08-05 07:02:030.00m/s70.80%17.60C
2017-08-05 07:10:030.00m/s70.80%17.60C
2017-08-05 07:23:030.00m/s70.90%17.60C
2017-08-05 07:45:020.85m/s71.70%17.60C
2017-08-05 08:12:030.85m/s72.20%17.70C
2017-08-05 07:31:031.64m/s71.10%17.60C
2017-08-05 07:49:030.00m/s71.50%17.60C
2017-08-05 07:57:031.64m/s71.80%17.60C
2017-08-05 08:02:030.00m/s71.70%17.60C
2017-08-05 08:05:040.00m/s71.80%17.70C
2017-08-05 08:13:030.00m/s72.10%17.70C
2017-08-05 08:11:030.00m/s72.00%17.70C
2017-08-05 08:34:133.21m/s72.00%17.80C
2017-08-05 08:36:033.21m/s72.10%17.80C
2017-08-05 08:35:040.00m/s72.10%17.80C
2017-08-05 08:40:030.00m/s72.30%17.90C
2017-08-05 08:43:030.00m/s72.30%17.90C
2017-08-05 08:48:030.00m/s72.20%17.90C
2017-08-05 08:53:030.00m/s72.40%17.90C
2017-08-05 08:17:030.00m/s72.00%17.70C
2017-08-05 08:32:030.00m/s72.00%17.80C
2017-08-05 09:26:020.85m/s74.30%18.20C
2017-08-05 09:33:030.85m/s74.50%18.30C
2017-08-05 09:51:030.06m/s74.30%18.70C
2017-08-05 08:54:030.00m/s72.50%17.90C
2017-08-05 09:30:020.00m/s74.30%18.20C
2017-08-05 09:37:030.00m/s74.40%18.30C
2017-08-05 09:49:030.00m/s74.20%18.60C
2017-08-05 09:25:030.85m/s74.10%18.10C
2017-08-05 08:55:030.00m/s72.50%18.00C
2017-08-05 10:32:023.21m/s73.10%19.60C
2017-08-05 10:13:030.85m/s73.50%19.20C
2017-08-05 09:54:030.00m/s74.70%18.80C
2017-08-05 10:14:030.00m/s73.40%19.20C
2017-08-05 10:18:020.00m/s73.20%19.30C
2017-08-05 10:21:030.00m/s73.20%19.40C
2017-08-05 10:30:030.00m/s73.20%19.60C
2017-08-05 10:06:030.00m/s74.00%19.10C
2017-08-05 10:17:030.00m/s73.00%19.30C
2017-08-05 10:34:030.00m/s72.70%19.60C
2017-08-05 10:42:030.00m/s72.70%19.80C
2017-08-05 11:01:030.00m/s72.50%20.10C
2017-08-05 11:05:030.00m/s72.40%20.10C
2017-08-05 11:09:030.00m/s72.20%20.10C
2017-08-05 11:12:030.00m/s72.40%20.20C
2017-08-05 10:37:020.00m/s72.70%19.70C
2017-08-05 10:39:030.00m/s72.80%19.80C
2017-08-05 10:56:030.00m/s72.40%20.00C
2017-08-05 11:14:030.00m/s72.50%20.20C
2017-08-05 11:15:020.00m/s72.50%20.20C
2017-08-05 11:16:030.00m/s72.40%20.20C
2017-08-05 11:17:030.00m/s72.40%20.20C
2017-08-05 11:20:030.00m/s72.50%20.20C
2017-08-05 11:25:030.00m/s72.80%20.20C
2017-08-05 11:27:020.00m/s73.10%20.20C
2017-08-05 11:36:020.00m/s73.60%20.10C
2017-08-05 11:37:030.00m/s73.60%20.10C
2017-08-05 11:42:020.00m/s74.60%20.10C
2017-08-05 11:52:030.00m/s75.30%19.90C
2017-08-05 12:01:030.00m/s74.80%19.90C
2017-08-05 12:02:030.00m/s74.60%19.90C
2017-08-05 12:22:020.00m/s77.60%19.90C
2017-08-05 11:38:030.00m/s74.00%20.10C
2017-08-05 11:39:030.00m/s74.00%20.10C
2017-08-05 12:28:030.00m/s77.90%19.90C
2017-08-05 11:51:030.00m/s75.10%20.00C
2017-08-05 12:31:030.00m/s78.20%19.90C
2017-08-05 12:47:030.00m/s79.20%19.90C
2017-08-05 12:48:030.00m/s79.40%19.90C
2017-08-05 12:51:030.00m/s79.50%19.90C
2017-08-05 12:52:030.00m/s79.40%19.90C
2017-08-05 12:33:030.00m/s78.50%20.00C
2017-08-05 12:36:030.00m/s78.70%20.00C
2017-08-05 12:41:030.00m/s78.70%20.00C
2017-08-05 12:43:030.00m/s79.10%20.00C
2017-08-05 13:02:032.42m/s79.60%20.00C
2017-08-05 12:54:030.00m/s79.40%19.90C
2017-08-05 12:59:030.00m/s79.70%19.90C
2017-08-05 13:48:020.00m/s78.80%20.10C
2017-08-05 12:57:030.00m/s79.70%20.00C
2017-08-05 13:06:030.00m/s79.80%20.00C
2017-08-05 13:15:030.00m/s79.40%20.00C
2017-08-05 13:18:020.00m/s79.10%20.00C
2017-08-05 13:29:030.00m/s78.90%20.00C
2017-08-05 13:51:030.00m/s78.80%20.10C
2017-08-05 13:52:020.00m/s78.80%20.10C
2017-08-05 14:10:030.00m/s78.50%20.10C
2017-08-05 14:16:020.00m/s78.20%20.10C
2017-08-05 14:19:030.00m/s78.80%20.10C
2017-08-05 14:20:030.00m/s78.80%20.10C
2017-08-05 14:25:030.00m/s78.40%20.10C
2017-08-05 14:31:020.00m/s78.40%20.20C
2017-08-05 14:34:030.00m/s78.20%20.20C
2017-08-05 14:51:030.00m/s77.50%20.40C
2017-08-05 14:52:020.00m/s77.30%20.40C
2017-08-05 14:56:030.00m/s76.80%20.50C
2017-08-05 15:02:030.00m/s75.40%20.60C
2017-08-05 15:03:030.00m/s75.70%20.60C
2017-08-05 14:38:030.00m/s78.00%20.20C
2017-08-05 14:42:030.00m/s78.00%20.30C
2017-08-05 14:54:030.00m/s77.00%20.40C
2017-08-05 15:01:030.00m/s76.00%20.60C
2017-08-05 15:07:033.21m/s74.50%20.80C
2017-08-05 15:06:031.64m/s74.70%20.80C
2017-08-05 15:34:030.06m/s69.70%21.90C
2017-08-05 15:14:020.00m/s73.40%21.10C
2017-08-05 15:15:030.00m/s73.40%21.10C
2017-08-05 15:20:030.00m/s73.20%21.40C
2017-08-05 15:33:030.00m/s69.60%21.90C
2017-08-05 15:43:030.00m/s68.60%22.30C
2017-08-05 15:22:030.00m/s72.00%21.50C
2017-08-05 15:46:033.21m/s68.30%22.50C
2017-08-05 15:58:031.64m/s66.30%23.10C
2017-08-05 16:28:030.06m/s61.10%24.30C
2017-08-05 16:31:030.06m/s60.50%24.40C
2017-08-05 15:50:030.00m/s68.50%22.70C
2017-08-05 16:11:030.00m/s63.40%23.60C
2017-08-05 15:51:020.00m/s67.00%22.70C
2017-08-05 15:55:030.00m/s66.90%22.90C
2017-08-05 15:57:030.00m/s66.40%23.00C
2017-08-05 16:43:039.50m/s58.70%24.80C
2017-08-05 16:35:030.06m/s60.20%24.60C
2017-08-05 16:44:031.64m/s58.30%24.80C
2017-08-05 16:52:020.06m/s57.40%25.00C
2017-08-05 17:03:031.64m/s56.90%25.10C
2017-08-05 17:04:020.00m/s57.30%25.10C
2017-08-05 17:07:030.00m/s56.40%25.10C
2017-08-05 16:51:020.00m/s57.90%24.90C
2017-08-05 16:57:030.00m/s57.40%25.00C
2017-08-05 17:09:020.06m/s56.20%25.10C
2017-08-05 17:10:030.00m/s56.60%25.10C
2017-08-05 17:19:030.00m/s55.70%25.10C
2017-08-05 17:20:030.00m/s55.60%25.10C
2017-08-05 17:24:030.00m/s55.50%25.10C
2017-08-05 17:33:030.00m/s54.90%25.10C
2017-08-05 17:15:030.00m/s56.10%25.10C
2017-08-05 17:38:030.00m/s55.00%25.10C
2017-08-05 17:31:030.00m/s55.10%25.10C
2017-08-05 18:36:036.35m/s54.50%24.70C
2017-08-05 17:43:020.00m/s54.60%25.10C
2017-08-05 17:44:030.00m/s54.50%25.10C
2017-08-05 17:47:030.00m/s54.80%25.10C
2017-08-05 18:06:030.00m/s54.40%24.90C
2017-08-05 18:27:030.00m/s54.50%24.80C
2017-08-05 17:51:020.00m/s54.20%25.00C
2017-08-05 18:00:030.00m/s54.40%25.00C
2017-08-05 18:28:030.00m/s54.80%24.80C
2017-08-05 19:13:0310.29m/s54.70%24.20C
2017-08-05 19:09:030.85m/s54.00%24.20C
2017-08-05 18:39:030.00m/s54.40%24.70C
2017-08-05 18:43:030.00m/s53.70%24.60C
2017-08-05 18:46:030.00m/s53.90%24.60C
2017-08-05 18:47:020.00m/s53.80%24.50C
2017-08-05 19:03:020.00m/s53.50%24.30C
2017-08-05 19:07:030.00m/s54.20%24.30C
2017-08-05 19:11:030.00m/s53.90%24.20C
2017-08-05 19:21:033.21m/s54.20%24.10C
2017-08-05 19:52:022.42m/s54.90%23.60C
2017-08-05 19:26:030.85m/s53.90%24.00C
2017-08-05 19:16:030.00m/s54.10%24.20C
2017-08-05 19:32:030.00m/s54.30%23.90C
2017-08-05 19:37:030.00m/s54.90%23.80C
2017-08-05 19:38:020.00m/s54.60%23.80C
2017-08-05 19:34:030.00m/s54.00%23.80C
2017-08-05 19:44:020.00m/s54.70%23.70C
2017-08-05 20:06:033.21m/s55.30%23.20C
2017-08-05 20:42:034.78m/s55.00%22.30C
2017-08-05 20:00:032.42m/s55.00%23.40C
2017-08-05 20:31:032.42m/s55.40%22.70C
2017-08-05 20:25:020.00m/s55.40%22.80C
2017-08-05 20:34:030.00m/s55.30%22.60C
2017-08-05 20:54:030.00m/s56.80%22.10C
2017-08-05 21:01:030.00m/s57.50%22.00C
2017-08-05 21:02:030.00m/s57.40%22.00C
2017-08-05 21:11:030.00m/s58.30%21.80C
2017-08-05 21:23:030.00m/s58.90%21.50C
2017-08-05 21:26:020.00m/s59.20%21.50C
2017-08-05 21:41:020.00m/s60.30%21.20C
2017-08-05 21:05:020.00m/s57.90%21.90C
2017-08-05 21:39:030.00m/s60.30%21.30C
2017-08-05 21:42:030.00m/s60.20%21.20C
2017-08-05 21:33:020.00m/s60.00%21.40C
2017-08-05 21:38:020.00m/s60.00%21.30C
2017-08-05 21:58:030.00m/s61.20%20.90C
2017-08-05 22:00:020.00m/s61.50%20.90C
2017-08-05 22:27:030.00m/s62.80%20.50C
2017-08-05 22:29:030.00m/s62.90%20.40C
2017-08-05 22:35:030.00m/s63.30%20.40C
2017-08-05 22:14:030.00m/s62.70%20.70C
2017-08-05 22:21:030.00m/s62.60%20.60C
2017-08-05 22:28:030.00m/s63.50%20.50C
2017-08-05 21:52:030.00m/s61.00%21.00C
2017-08-06 00:12:020.00m/s67.20%18.90C
2017-08-06 00:20:020.00m/s67.40%18.70C
2017-08-06 00:41:030.00m/s68.10%18.40C
2017-08-06 00:46:020.00m/s67.90%18.40C
2017-08-06 00:54:030.00m/s68.10%18.30C
2017-08-06 00:07:030.00m/s66.90%18.90C
2017-08-06 00:39:030.00m/s67.50%18.50C
2017-08-06 00:52:030.00m/s68.30%18.30C
2017-08-06 00:58:030.00m/s68.20%18.20C
2017-08-06 01:03:030.00m/s68.30%18.20C
2017-08-06 01:07:020.00m/s68.80%18.10C
2017-08-06 01:09:030.00m/s68.80%18.10C
2017-08-06 01:41:030.00m/s69.60%17.70C
2017-08-06 01:43:020.00m/s70.10%17.70C
2017-08-06 01:47:030.00m/s69.90%17.70C
2017-08-06 01:20:030.00m/s69.20%18.00C
2017-08-06 01:37:030.00m/s69.70%17.70C
2017-08-06 01:17:030.00m/s69.00%18.00C
2017-08-06 01:51:020.00m/s70.10%17.60C
2017-08-06 01:53:030.00m/s70.10%17.60C
2017-08-06 02:03:030.00m/s70.10%17.50C
2017-08-06 02:05:030.00m/s70.20%17.40C
2017-08-06 02:11:030.00m/s70.50%17.40C
2017-08-06 02:15:030.00m/s70.50%17.30C
2017-08-06 02:32:030.00m/s70.90%17.20C
2017-08-06 02:28:030.00m/s71.00%17.20C
2017-08-06 01:58:030.00m/s70.00%17.50C
2017-08-06 02:37:030.00m/s71.20%17.10C
2017-08-06 02:47:020.00m/s71.20%17.10C
2017-08-06 03:00:030.00m/s71.50%16.90C
2017-08-06 03:05:020.00m/s71.50%16.90C
2017-08-06 03:06:030.00m/s71.50%16.90C
2017-08-06 03:10:030.00m/s71.80%16.90C
2017-08-06 03:22:030.00m/s72.10%16.80C
2017-08-06 02:51:030.00m/s71.20%17.00C
2017-08-06 03:16:030.00m/s72.00%16.80C
2017-08-06 03:34:030.00m/s72.10%16.70C
2017-08-06 03:44:030.00m/s72.20%16.60C
2017-08-06 03:49:030.00m/s72.30%16.60C
2017-08-06 03:50:030.00m/s72.40%16.60C
2017-08-06 03:55:030.00m/s72.40%16.50C
2017-08-06 03:26:020.00m/s72.00%16.70C
2017-08-06 03:31:030.00m/s72.00%16.70C
2017-08-06 03:32:030.00m/s72.00%16.70C
2017-08-06 04:00:030.00m/s72.50%16.50C
2017-08-06 04:04:020.00m/s72.40%16.50C
2017-08-06 04:07:030.00m/s72.60%16.50C
2017-08-06 04:09:030.00m/s72.60%16.40C
2017-08-06 04:11:030.00m/s72.60%16.40C
2017-08-06 04:16:020.00m/s72.70%16.30C
2017-08-06 04:19:030.00m/s72.70%16.30C
2017-08-06 04:27:020.00m/s72.90%16.30C
2017-08-06 04:51:030.00m/s73.30%16.10C
2017-08-06 04:53:020.00m/s73.40%16.10C
2017-08-06 04:55:020.00m/s73.40%16.10C
2017-08-06 05:23:030.00m/s74.10%15.90C
2017-08-06 05:31:030.00m/s74.30%15.80C
2017-08-06 05:37:030.00m/s74.50%15.80C
2017-08-06 05:16:030.00m/s73.90%15.90C
2017-08-06 05:19:030.00m/s74.00%15.90C
2017-08-06 05:22:030.00m/s74.00%15.90C
2017-08-06 05:24:030.00m/s74.00%15.80C
2017-08-06 05:29:020.00m/s74.00%15.80C
2017-08-06 06:22:030.06m/s74.50%15.50C
2017-08-06 05:48:030.00m/s74.70%15.70C
2017-08-06 06:00:020.00m/s74.60%15.60C
2017-08-06 06:07:030.00m/s74.60%15.60C
2017-08-06 06:13:030.00m/s74.60%15.60C
2017-08-06 06:16:030.00m/s74.50%15.50C
2017-08-06 06:18:030.00m/s74.50%15.50C
2017-08-06 06:27:030.00m/s74.50%15.50C
2017-08-06 06:30:030.00m/s74.40%15.40C
2017-08-06 06:36:030.00m/s74.80%15.50C
2017-08-06 06:51:030.00m/s75.10%15.40C
2017-08-06 07:02:020.00m/s75.10%15.40C
2017-08-06 07:13:030.00m/s75.40%15.30C
2017-08-06 07:15:030.00m/s75.50%15.30C
2017-08-06 07:16:030.00m/s75.70%15.30C
2017-08-06 07:18:030.00m/s75.60%15.30C
2017-08-06 07:21:020.00m/s75.70%15.30C
2017-08-06 06:35:030.00m/s74.50%15.50C
2017-08-06 08:07:020.85m/s77.90%15.20C
2017-08-06 08:09:030.06m/s78.10%15.20C
2017-08-06 07:24:030.00m/s75.80%15.30C
2017-08-06 07:35:030.00m/s76.20%15.30C
2017-08-06 07:37:030.00m/s76.30%15.20C
2017-08-06 07:48:030.00m/s77.10%15.20C
2017-08-06 08:04:030.00m/s77.70%15.20C
2017-08-06 08:05:030.00m/s77.90%15.20C
2017-08-06 07:26:030.00m/s76.00%15.30C
2017-08-06 08:18:023.21m/s78.50%15.30C
2017-08-06 08:26:032.42m/s79.20%15.30C
2017-08-06 08:25:030.06m/s79.20%15.30C
2017-08-06 08:15:030.00m/s78.50%15.20C
2017-08-06 08:29:030.00m/s79.40%15.30C
2017-08-06 08:38:020.00m/s79.80%15.40C
2017-08-06 08:41:031.64m/s80.00%15.50C
2017-08-06 08:51:030.00m/s80.60%15.50C
2017-08-06 08:49:030.85m/s80.50%15.50C
2017-08-06 09:56:033.21m/s79.00%17.20C
2017-08-06 09:54:030.00m/s79.20%17.10C
2017-08-06 09:55:030.00m/s79.00%17.10C
2017-08-06 10:01:030.00m/s78.30%17.30C
2017-08-06 09:42:030.06m/s80.00%16.70C
2017-08-06 09:00:030.00m/s80.80%15.70C
2017-08-06 09:22:020.00m/s80.90%16.10C
2017-08-06 09:38:030.00m/s80.10%16.50C
2017-08-06 09:41:030.00m/s79.90%16.60C
2017-08-06 10:21:032.42m/s75.60%18.20C
2017-08-06 10:25:022.42m/s74.80%18.30C
2017-08-06 10:40:033.21m/s72.10%19.00C
2017-08-06 10:03:030.00m/s78.20%17.40C
2017-08-06 10:05:030.00m/s77.80%17.50C
2017-08-06 10:22:030.00m/s75.30%18.20C
2017-08-06 10:23:030.00m/s75.40%18.30C
2017-08-06 10:31:030.00m/s73.90%18.60C
2017-08-06 10:32:030.00m/s74.00%18.70C
2017-08-06 10:52:033.21m/s69.20%19.40C
2017-08-06 10:58:035.57m/s68.30%19.70C
2017-08-06 11:13:035.57m/s66.70%20.30C
2017-08-06 10:51:034.00m/s69.20%19.40C
2017-08-06 10:44:020.06m/s71.10%19.20C
2017-08-06 11:14:030.06m/s66.20%20.30C
2017-08-06 10:57:031.64m/s68.30%19.60C
2017-08-06 11:17:030.00m/s66.30%20.50C
2017-08-06 11:18:030.00m/s65.80%20.50C
2017-08-06 11:45:034.00m/s61.40%21.90C
2017-08-06 11:28:030.85m/s63.80%21.00C
2017-08-06 11:30:030.85m/s64.00%21.10C
2017-08-06 11:25:030.00m/s64.60%20.90C
2017-08-06 11:26:030.00m/s64.70%20.90C
2017-08-06 11:31:030.00m/s63.90%21.20C
2017-08-06 11:32:030.00m/s63.40%21.20C
2017-08-06 11:34:030.00m/s63.80%21.30C
2017-08-06 11:40:030.00m/s62.70%21.70C
2017-08-06 12:05:034.78m/s59.10%22.60C
2017-08-06 11:54:022.42m/s59.60%22.20C
2017-08-06 11:55:032.42m/s59.50%22.20C
2017-08-06 12:14:034.00m/s52.70%23.10C
2017-08-06 11:46:033.21m/s61.90%21.90C
2017-08-06 12:00:020.85m/s59.30%22.40C
2017-08-06 11:59:020.00m/s59.80%22.30C
2017-08-06 12:03:020.00m/s59.70%22.50C
2017-08-06 12:06:020.00m/s58.90%22.70C
2017-08-06 12:15:038.71m/s47.10%22.90C
2017-08-06 12:24:033.21m/s48.80%22.70C
2017-08-06 12:46:023.21m/s50.30%24.40C
2017-08-06 12:29:032.42m/s49.90%22.80C
2017-08-06 12:48:032.42m/s49.70%24.50C
2017-08-06 12:30:030.06m/s50.20%22.90C
2017-08-06 12:35:031.64m/s50.90%23.50C
2017-08-06 12:39:030.06m/s50.10%23.90C
2017-08-06 12:19:030.00m/s50.30%22.50C
2017-08-06 13:23:0311.07m/s46.80%25.90C
2017-08-06 13:04:030.85m/s47.90%25.20C
2017-08-06 13:30:130.06m/s45.00%26.10C
2017-08-06 13:35:031.64m/s45.40%26.30C
2017-08-06 12:54:030.00m/s49.60%24.80C
2017-08-06 13:44:030.00m/s42.50%26.60C
2017-08-06 13:53:030.00m/s42.30%26.90C
2017-08-06 13:03:030.00m/s48.00%25.20C
2017-08-06 13:47:030.00m/s42.60%26.60C
2017-08-06 14:36:033.21m/s41.40%27.60C
2017-08-06 14:03:022.42m/s41.20%27.10C
2017-08-06 14:02:034.00m/s40.90%27.10C
2017-08-06 14:20:034.00m/s41.30%27.40C
2017-08-06 14:25:030.00m/s41.20%27.40C
2017-08-06 14:27:030.00m/s41.60%27.40C
2017-08-06 14:28:020.00m/s41.80%27.50C
2017-08-06 14:14:030.00m/s41.20%27.20C
2017-08-06 14:29:030.00m/s41.50%27.50C
2017-08-06 15:11:030.85m/s40.80%28.70C
2017-08-06 15:13:031.64m/s40.40%28.80C
2017-08-06 15:29:030.85m/s39.80%29.30C
2017-08-06 14:46:030.00m/s41.50%27.70C
2017-08-06 15:04:030.00m/s41.20%28.40C
2017-08-06 15:14:020.00m/s40.50%28.90C
2017-08-06 15:23:030.00m/s39.90%29.10C
2017-08-06 15:16:020.00m/s40.20%29.00C
2017-08-06 15:19:020.00m/s40.20%29.00C
2017-08-06 15:48:0310.29m/s39.20%29.30C
2017-08-06 16:18:034.78m/s40.10%28.90C
2017-08-06 15:52:036.35m/s39.40%29.40C
2017-08-06 15:46:023.21m/s39.40%29.40C
2017-08-06 15:40:030.85m/s39.50%29.40C
2017-08-06 15:41:031.64m/s39.40%29.40C
2017-08-06 15:53:020.00m/s39.00%29.40C
2017-08-06 16:00:020.00m/s39.20%29.20C
2017-08-06 16:09:030.00m/s40.00%29.00C
2017-08-06 16:20:034.00m/s40.10%28.90C
2017-08-06 16:40:030.06m/s39.90%28.60C
2017-08-06 17:02:030.06m/s40.80%28.30C
2017-08-06 17:04:080.06m/s40.40%28.30C
2017-08-06 16:19:020.00m/s40.10%28.90C
2017-08-06 16:39:030.00m/s39.90%28.60C
2017-08-06 16:44:030.00m/s40.20%28.50C
2017-08-06 17:06:030.00m/s40.40%28.20C
2017-08-06 16:31:030.00m/s40.00%28.70C
2017-08-06 17:19:032.42m/s40.40%28.00C
2017-08-06 17:18:030.06m/s40.90%28.10C
2017-08-06 17:08:030.00m/s40.70%28.20C
2017-08-06 17:12:030.00m/s40.80%28.20C
2017-08-06 18:47:020.00m/s43.70%27.50C
2017-08-06 19:10:030.00m/s42.60%27.20C
2017-08-06 19:21:030.00m/s43.80%26.90C
2017-08-06 17:26:030.00m/s41.10%28.00C
2017-08-06 18:34:180.00m/s40.60%28.00C
2017-08-06 19:44:026.35m/s45.40%26.70C
2017-08-06 19:36:021.64m/s45.30%26.80C
2017-08-06 19:23:030.00m/s43.50%26.90C
2017-08-06 19:27:030.00m/s44.10%26.90C
2017-08-06 19:55:020.00m/s45.80%26.50C
2017-08-06 19:58:030.00m/s45.60%26.40C
2017-08-06 20:05:030.00m/s46.60%26.30C
2017-08-06 20:08:030.00m/s46.40%26.20C
2017-08-06 20:11:030.00m/s46.40%26.10C
2017-08-06 20:21:030.00m/s46.70%25.90C
2017-08-06 20:24:030.00m/s46.80%25.90C
2017-08-06 20:32:030.00m/s47.30%25.70C
2017-08-06 20:34:030.00m/s47.10%25.60C
2017-08-06 20:45:020.00m/s47.30%25.20C
2017-08-06 20:52:020.00m/s47.70%25.10C
2017-08-06 20:53:030.00m/s47.80%25.10C
2017-08-06 20:18:030.00m/s46.30%26.00C
2017-08-06 20:36:030.00m/s47.00%25.50C
2017-08-06 21:36:030.06m/s50.60%24.00C
2017-08-06 21:07:030.00m/s48.30%24.70C
2017-08-06 21:18:020.00m/s49.20%24.50C
2017-08-06 21:19:030.00m/s49.20%24.40C
2017-08-06 21:42:030.00m/s51.20%23.90C
2017-08-06 20:59:030.00m/s48.00%24.80C
2017-08-06 21:29:030.00m/s50.20%24.20C
2017-08-06 21:31:030.00m/s50.20%24.20C
2017-08-06 21:32:030.00m/s50.10%24.10C
2017-08-06 21:57:030.00m/s52.20%23.40C
2017-08-06 22:03:020.00m/s52.60%23.30C
2017-08-06 22:05:030.00m/s52.60%23.20C
2017-08-06 22:08:030.00m/s53.10%23.20C
2017-08-06 22:23:030.00m/s53.90%22.80C
2017-08-06 21:50:030.00m/s51.60%23.60C
2017-08-06 22:07:030.00m/s53.00%23.20C
2017-08-06 22:14:030.00m/s53.20%23.00C
2017-08-06 22:22:030.00m/s53.80%22.80C
2017-08-06 22:25:030.00m/s53.90%22.80C
2017-08-06 22:30:030.00m/s54.40%22.70C
2017-08-06 22:32:020.00m/s54.40%22.60C
2017-08-06 22:44:030.00m/s55.10%22.40C
2017-08-06 22:52:030.00m/s54.90%22.20C
2017-08-06 22:47:030.00m/s55.00%22.30C
2017-08-06 23:00:030.00m/s55.50%22.00C
2017-08-06 23:01:030.00m/s55.60%22.00C
2017-08-06 23:07:030.00m/s55.90%21.90C
2017-08-06 23:33:030.00m/s56.90%21.40C
2017-08-06 23:38:030.00m/s56.90%21.30C
2017-08-06 23:42:030.00m/s57.10%21.20C
2017-08-07 00:03:030.00m/s58.10%20.90C
2017-08-07 00:13:030.00m/s58.50%20.70C
2017-08-06 23:10:030.00m/s56.00%21.80C
2017-08-06 23:22:030.00m/s56.60%21.60C
2017-08-06 23:24:020.00m/s56.60%21.60C
2017-08-06 23:59:030.00m/s57.80%21.00C
2017-08-07 00:15:030.00m/s58.60%20.70C
2017-08-07 00:16:030.00m/s58.60%20.70C
2017-08-07 00:29:030.00m/s59.70%20.50C
2017-08-07 00:32:030.00m/s59.70%20.50C
2017-08-07 00:57:030.00m/s59.80%20.10C
2017-08-07 00:58:030.00m/s59.90%20.10C
2017-08-07 01:11:030.00m/s60.50%19.90C
2017-08-07 01:20:030.00m/s60.50%19.70C
2017-08-07 00:19:020.00m/s59.00%20.70C
2017-08-07 02:06:020.06m/s62.00%19.10C
2017-08-07 01:27:030.00m/s60.50%19.60C
2017-08-07 01:34:030.00m/s60.80%19.50C
2017-08-07 01:45:030.00m/s61.20%19.40C
2017-08-07 01:56:030.00m/s61.40%19.20C
2017-08-07 01:55:020.00m/s61.30%19.30C
2017-08-07 01:28:020.00m/s60.60%19.60C
2017-08-07 02:10:030.00m/s61.80%19.00C
2017-08-07 02:16:030.00m/s62.10%19.00C
2017-08-07 02:28:030.06m/s62.20%18.80C
2017-08-07 02:27:030.00m/s62.20%18.80C
2017-08-07 02:42:030.00m/s63.10%18.60C
2017-08-07 02:46:030.00m/s63.10%18.60C
2017-08-07 02:47:030.00m/s62.80%18.60C
2017-08-07 03:00:030.00m/s64.30%18.40C
2017-08-07 03:03:030.00m/s63.60%18.40C
2017-08-07 02:41:030.00m/s62.70%18.70C
2017-08-07 03:05:030.00m/s64.00%18.40C
2017-08-07 03:06:030.06m/s63.90%18.40C
2017-08-07 03:11:020.00m/s64.20%18.30C
2017-08-07 03:16:030.00m/s64.20%18.30C
2017-08-07 03:25:030.00m/s64.10%18.20C
2017-08-07 03:14:020.00m/s64.30%18.30C
2017-08-07 03:34:030.00m/s64.10%18.10C
2017-08-07 03:35:030.00m/s64.10%18.10C
2017-08-07 03:41:030.00m/s64.20%18.00C
2017-08-07 03:44:030.00m/s64.10%18.00C
2017-08-07 03:50:030.00m/s64.50%17.90C
2017-08-07 04:07:030.00m/s65.10%17.80C
2017-08-07 04:13:020.00m/s65.30%17.70C
2017-08-07 04:14:030.00m/s65.60%17.70C
2017-08-07 04:33:030.00m/s65.80%17.50C
2017-08-07 04:37:030.00m/s65.90%17.50C
2017-08-07 03:59:030.00m/s65.00%17.80C
2017-08-07 04:30:030.00m/s66.00%17.50C
2017-08-07 03:45:030.00m/s65.00%18.00C
2017-08-07 04:41:020.00m/s66.20%17.50C
2017-08-07 04:55:040.00m/s66.40%17.30C
2017-08-07 05:07:030.00m/s66.80%17.20C
2017-08-07 05:15:030.00m/s66.90%17.10C
2017-08-07 05:28:030.00m/s67.20%17.10C
2017-08-07 05:16:030.00m/s67.00%17.10C
2017-08-07 05:20:030.00m/s67.00%17.10C
2017-08-07 05:23:030.00m/s66.90%17.00C
2017-08-07 05:27:030.00m/s67.30%17.00C
2017-08-07 05:41:030.00m/s67.10%16.90C
2017-08-07 05:49:030.00m/s67.30%16.90C
2017-08-07 05:51:030.00m/s67.30%16.90C
2017-08-07 05:58:080.00m/s67.40%16.80C
2017-08-07 05:29:020.06m/s67.00%17.00C
2017-08-07 05:33:030.00m/s67.10%17.00C
2017-08-07 05:40:030.00m/s67.10%17.00C
2017-08-07 05:30:040.00m/s67.00%17.00C
2017-08-07 05:34:030.00m/s67.00%17.00C
2017-08-07 05:59:030.00m/s67.30%16.80C
2017-08-07 06:08:030.00m/s67.60%16.80C
2017-08-07 06:09:030.00m/s67.60%16.80C
2017-08-07 06:28:030.00m/s67.70%16.60C
2017-08-07 06:33:030.00m/s67.70%16.60C
2017-08-07 06:36:030.00m/s67.80%16.60C
2017-08-07 06:41:020.00m/s68.00%16.60C
2017-08-07 06:47:020.00m/s68.00%16.50C
2017-08-07 06:53:030.00m/s68.00%16.50C
2017-08-07 06:54:030.00m/s68.10%16.50C
2017-08-07 06:57:030.00m/s68.10%16.40C
2017-08-07 06:58:020.00m/s68.10%16.50C
2017-08-07 07:19:020.00m/s68.90%16.30C
2017-08-07 07:21:030.00m/s68.60%16.30C
2017-08-07 07:23:030.00m/s68.90%16.30C
2017-08-07 07:24:020.00m/s68.80%16.30C
2017-08-07 07:04:030.06m/s68.40%16.40C
2017-08-07 06:56:020.00m/s68.00%16.50C
2017-08-07 07:30:030.00m/s68.90%16.30C
2017-08-07 07:31:030.00m/s68.90%16.30C
2017-08-07 07:35:030.00m/s68.90%16.30C
2017-08-07 07:48:030.00m/s69.40%16.20C
2017-08-07 07:55:030.00m/s69.80%16.30C
2017-08-07 07:57:030.00m/s69.60%16.20C
2017-08-07 07:58:030.00m/s69.50%16.20C
2017-08-07 08:14:030.00m/s70.60%16.30C
2017-08-07 08:21:030.00m/s70.80%16.30C
2017-08-07 09:19:032.42m/s73.30%17.10C
2017-08-07 09:10:024.00m/s74.80%16.80C
2017-08-07 08:29:030.00m/s71.10%16.30C
2017-08-07 08:34:031.64m/s71.80%16.40C
2017-08-07 08:58:030.00m/s73.20%16.70C
2017-08-07 09:25:030.00m/s72.80%17.20C
2017-08-07 08:44:020.00m/s72.00%16.50C
2017-08-07 08:48:030.00m/s72.00%16.50C
2017-08-07 09:23:030.00m/s73.00%17.20C
2017-08-07 10:04:032.42m/s68.20%18.30C
2017-08-07 09:29:030.85m/s72.40%17.30C
2017-08-07 10:05:030.06m/s68.10%18.40C
2017-08-07 09:26:030.00m/s72.80%17.30C
2017-08-07 09:31:030.00m/s72.20%17.40C
2017-08-07 09:36:031.64m/s71.90%17.50C
2017-08-07 09:43:020.00m/s71.10%17.70C
2017-08-07 10:07:030.00m/s67.90%18.50C
2017-08-07 10:09:030.00m/s67.70%18.60C
2017-08-07 10:13:022.42m/s67.10%18.70C
2017-08-07 10:20:033.21m/s65.80%19.00C
2017-08-07 10:30:034.00m/s64.80%19.30C
2017-08-07 10:17:020.85m/s66.70%18.80C
2017-08-07 10:35:030.06m/s64.00%19.50C
2017-08-07 10:38:030.85m/s64.00%19.70C
2017-08-07 10:10:030.00m/s67.50%18.60C
2017-08-07 10:11:030.00m/s67.40%18.60C
2017-08-07 10:28:030.00m/s65.00%19.20C
2017-08-07 11:20:035.57m/s57.40%21.40C
2017-08-07 10:39:030.06m/s63.90%19.70C
2017-08-07 10:43:030.06m/s63.00%19.80C
2017-08-07 11:16:031.64m/s59.00%21.20C
2017-08-07 11:25:030.00m/s57.40%21.60C
2017-08-07 11:28:030.00m/s56.60%21.70C
2017-08-07 11:24:020.06m/s57.50%21.50C
2017-08-07 11:11:020.00m/s58.90%21.00C
2017-08-07 10:46:020.00m/s62.50%20.00C
2017-08-07 11:45:027.14m/s55.20%22.50C
2017-08-07 12:08:033.21m/s52.20%23.50C
2017-08-07 12:20:033.21m/s52.10%24.10C
2017-08-07 11:34:030.85m/s56.40%22.00C
2017-08-07 11:58:020.85m/s53.50%23.10C
2017-08-07 12:03:020.06m/s53.10%23.30C
2017-08-07 11:29:030.00m/s56.40%21.80C
2017-08-07 12:13:030.00m/s52.40%23.80C
2017-08-07 12:27:030.00m/s50.30%24.30C
2017-08-07 14:03:036.35m/s40.90%28.50C
2017-08-07 14:15:044.00m/s40.40%29.00C
2017-08-07 13:52:030.85m/s39.50%27.90C
2017-08-07 13:59:020.00m/s41.10%28.20C
2017-08-07 14:09:030.00m/s40.60%28.70C
2017-08-07 14:14:030.00m/s40.60%28.90C
2017-08-07 14:18:030.00m/s40.20%29.10C
2017-08-07 14:22:030.00m/s40.40%29.30C
2017-08-07 14:02:020.00m/s41.00%28.40C
2017-08-07 14:49:030.06m/s38.30%30.20C
2017-08-07 14:31:020.00m/s39.40%29.70C
2017-08-07 14:37:030.00m/s38.20%29.80C
2017-08-07 14:50:030.00m/s38.40%30.20C
2017-08-07 15:02:030.00m/s37.60%30.70C
2017-08-07 15:04:030.00m/s36.90%30.70C
2017-08-07 14:40:030.00m/s37.90%29.90C
2017-08-07 15:07:020.00m/s36.90%30.90C
2017-08-07 14:44:030.00m/s38.40%30.00C
2017-08-07 15:13:032.42m/s36.60%31.00C
2017-08-07 15:22:033.21m/s35.40%31.10C
2017-08-07 15:17:030.85m/s35.80%31.00C
2017-08-07 15:33:031.64m/s34.90%31.30C
2017-08-07 15:24:030.00m/s35.70%31.20C
2017-08-07 15:48:030.00m/s35.10%31.60C
2017-08-07 15:54:030.00m/s34.20%31.70C
2017-08-07 15:58:030.00m/s34.10%31.80C
2017-08-07 15:15:030.00m/s36.20%31.00C
2017-08-07 16:19:025.57m/s33.30%32.00C
2017-08-07 16:04:030.85m/s34.10%31.90C
2017-08-07 16:02:030.00m/s34.40%31.90C
2017-08-07 16:03:030.00m/s34.20%31.90C
2017-08-07 16:07:030.00m/s33.80%31.90C
2017-08-07 16:12:030.00m/s33.60%32.00C
2017-08-07 16:15:020.00m/s33.40%32.00C
2017-08-07 16:16:020.00m/s33.40%32.00C
2017-08-07 16:29:030.00m/s32.70%32.00C
2017-08-07 16:37:030.06m/s32.60%32.10C
2017-08-07 17:12:030.06m/s32.20%32.00C
2017-08-07 16:38:030.00m/s32.60%32.10C
2017-08-07 16:33:030.00m/s32.80%32.00C
2017-08-07 16:34:030.00m/s32.60%32.00C
2017-08-07 16:49:020.00m/s31.80%32.00C
2017-08-07 17:05:030.00m/s32.10%32.00C
2017-08-07 17:08:020.00m/s31.60%32.00C
2017-08-07 16:48:034.78m/s32.00%32.00C
2017-08-07 17:23:030.00m/s32.80%32.10C
2017-08-07 17:39:030.00m/s33.30%32.10C
2017-08-07 17:57:020.00m/s34.10%31.90C
2017-08-07 18:03:030.00m/s33.50%31.90C
2017-08-07 18:04:020.00m/s33.40%31.80C
2017-08-07 18:05:020.00m/s34.20%31.80C
2017-08-07 17:44:030.00m/s33.00%32.10C
2017-08-07 17:50:030.00m/s33.50%32.00C
2017-08-07 18:13:030.00m/s33.70%31.70C
2017-08-07 18:44:032.42m/s35.40%31.10C
2017-08-07 18:19:030.00m/s34.30%31.50C
2017-08-07 18:25:020.00m/s34.30%31.40C
2017-08-07 18:31:030.06m/s34.90%31.40C
2017-08-07 18:29:030.00m/s34.90%31.40C
2017-08-07 18:34:020.00m/s34.90%31.30C
2017-08-07 18:36:030.00m/s35.40%31.30C
2017-08-07 18:37:030.00m/s35.40%31.30C
2017-08-07 18:18:030.00m/s34.60%31.60C
2017-08-07 19:36:022.42m/s38.40%29.80C
2017-08-07 19:11:030.06m/s36.80%30.60C
2017-08-07 19:27:030.06m/s37.60%30.10C
2017-08-07 19:01:030.00m/s36.50%30.70C
2017-08-07 19:02:030.00m/s36.40%30.70C
2017-08-07 19:12:030.00m/s36.90%30.50C
2017-08-07 19:22:030.00m/s37.50%30.30C
2017-08-07 19:25:030.00m/s37.50%30.20C
2017-08-07 18:47:030.00m/s35.70%31.00C
2017-08-07 19:41:032.42m/s38.70%29.70C
2017-08-07 19:38:030.06m/s38.70%29.80C
2017-08-07 20:00:030.06m/s39.70%29.10C
2017-08-07 19:47:020.00m/s39.10%29.50C
2017-08-07 19:54:030.00m/s39.50%29.30C
2017-08-07 19:58:030.00m/s39.80%29.20C
2017-08-07 20:11:030.00m/s40.10%28.80C
2017-08-07 20:05:030.00m/s40.20%29.00C
2017-08-07 20:13:030.00m/s40.00%28.70C
2017-08-07 20:27:030.06m/s41.20%28.40C
2017-08-07 20:16:030.00m/s39.90%28.60C
2017-08-07 20:23:030.00m/s40.90%28.50C
2017-08-07 20:47:020.00m/s42.30%27.60C
2017-08-07 20:59:030.00m/s43.30%27.20C
2017-08-07 21:02:030.00m/s43.80%27.20C
2017-08-07 20:26:030.00m/s41.40%28.40C
2017-08-07 20:36:030.00m/s41.50%28.00C
2017-08-07 20:37:030.00m/s41.70%28.00C
2017-08-07 21:18:030.85m/s44.90%26.60C
2017-08-07 21:05:030.00m/s43.90%27.10C
2017-08-07 21:08:030.00m/s43.50%26.90C
2017-08-07 21:15:030.00m/s44.80%26.70C
2017-08-07 21:20:030.00m/s45.20%26.50C
2017-08-07 21:22:020.00m/s45.20%26.40C
2017-08-07 21:25:030.00m/s45.40%26.30C
2017-08-07 21:28:030.00m/s46.10%26.20C
2017-08-07 21:10:030.00m/s43.90%26.90C
2017-08-07 21:38:020.00m/s47.10%25.90C
2017-08-07 21:42:020.00m/s47.60%25.80C
2017-08-07 21:46:030.00m/s48.20%25.60C
2017-08-07 21:47:030.00m/s48.10%25.60C
2017-08-07 21:54:030.00m/s48.80%25.40C
2017-08-07 21:35:030.00m/s46.60%26.00C
2017-08-07 21:36:030.00m/s46.80%26.00C
2017-08-07 21:37:030.00m/s47.60%26.00C
2017-08-07 21:55:030.00m/s49.00%25.40C
2017-08-07 22:32:022.42m/s53.90%23.90C
2017-08-07 22:01:030.00m/s49.20%25.30C
2017-08-07 22:02:030.00m/s49.50%25.30C
2017-08-07 22:07:030.00m/s49.80%25.10C
2017-08-07 22:11:030.00m/s50.70%24.80C
2017-08-07 22:26:030.00m/s54.40%23.90C
2017-08-07 22:27:020.00m/s54.40%24.00C
2017-08-07 22:28:030.00m/s54.40%24.00C
2017-08-07 22:31:030.00m/s54.10%24.00C
2017-08-07 22:52:030.06m/s54.30%23.70C
2017-08-07 22:38:030.00m/s54.20%23.90C
2017-08-07 22:42:030.00m/s54.10%23.80C
2017-08-07 22:48:030.00m/s54.40%23.70C
2017-08-07 22:53:030.00m/s54.40%23.60C
2017-08-07 22:55:030.00m/s54.00%23.60C
2017-08-07 23:01:020.00m/s54.50%23.50C
2017-08-07 23:12:030.00m/s55.00%23.20C
2017-08-07 23:14:030.00m/s55.20%23.20C
2017-08-07 23:31:030.06m/s55.50%22.90C
2017-08-07 23:17:030.00m/s55.40%23.20C
2017-08-07 23:18:030.00m/s55.10%23.20C
2017-08-07 23:29:030.00m/s55.50%22.90C
2017-08-07 23:34:030.00m/s55.40%22.80C
2017-08-07 23:42:030.00m/s56.10%22.70C
2017-08-07 23:51:030.00m/s56.60%22.50C
2017-08-07 23:27:030.00m/s55.60%23.00C
2017-08-07 23:28:080.00m/s55.60%23.00C
2017-08-08 00:07:033.21m/s57.40%22.20C
2017-08-07 23:59:035.57m/s57.10%22.40C
2017-08-07 23:53:030.00m/s56.70%22.50C
2017-08-08 00:10:030.00m/s57.50%22.20C
2017-08-08 00:32:020.00m/s58.30%21.80C
2017-08-08 00:34:030.00m/s58.60%21.80C
2017-08-07 23:58:020.00m/s57.00%22.40C
2017-08-08 00:27:030.00m/s58.00%21.90C
2017-08-08 00:29:030.00m/s57.90%21.90C
2017-08-08 01:26:034.78m/s60.20%21.00C
2017-08-08 00:35:032.42m/s58.60%21.80C
2017-08-08 01:17:032.42m/s60.20%21.20C
2017-08-08 01:00:030.00m/s59.70%21.40C
2017-08-08 01:18:030.00m/s60.40%21.20C
2017-08-08 01:23:020.00m/s59.90%21.10C
2017-08-08 00:55:030.06m/s59.50%21.50C
2017-08-08 00:45:030.00m/s58.60%21.60C
2017-08-08 00:48:030.00m/s59.00%21.50C
2017-08-08 01:57:033.21m/s61.30%20.60C
2017-08-08 01:43:034.00m/s60.20%20.80C
2017-08-08 01:34:030.06m/s60.60%20.90C
2017-08-08 01:45:030.85m/s60.60%20.80C
2017-08-08 01:59:030.85m/s61.30%20.60C
2017-08-08 02:09:031.64m/s62.00%20.50C
2017-08-08 01:44:030.00m/s60.20%20.80C
2017-08-08 01:49:030.00m/s60.80%20.70C
2017-08-08 02:13:030.00m/s61.90%20.50C
2017-08-08 02:35:024.00m/s62.80%20.20C
2017-08-08 02:45:034.00m/s63.40%20.20C
2017-08-08 02:16:020.06m/s61.70%20.40C
2017-08-08 02:36:031.64m/s62.90%20.20C
2017-08-08 02:46:030.85m/s63.50%20.10C
2017-08-08 02:15:030.00m/s62.30%20.40C
2017-08-08 02:17:030.00m/s61.90%20.40C
2017-08-08 02:30:030.00m/s62.60%20.30C
2017-08-08 02:52:030.00m/s63.80%20.10C
2017-08-08 03:52:032.42m/s64.60%19.60C
2017-08-08 03:16:030.00m/s64.50%19.90C
2017-08-08 03:32:030.00m/s64.60%19.70C
2017-08-08 03:35:030.00m/s64.50%19.70C
2017-08-08 03:51:090.00m/s64.90%19.60C
2017-08-08 03:42:030.00m/s64.70%19.70C
2017-08-08 02:56:030.00m/s63.80%20.00C
2017-08-08 03:00:030.00m/s63.90%20.00C
2017-08-08 03:01:020.00m/s63.70%20.00C
2017-08-08 03:57:034.00m/s65.20%19.60C
2017-08-08 03:58:030.06m/s65.50%19.60C
2017-08-08 03:55:030.00m/s65.40%19.60C
2017-08-08 03:56:020.00m/s65.10%19.60C
2017-08-08 04:16:030.00m/s65.30%19.40C
2017-08-08 04:20:030.00m/s65.30%19.40C
2017-08-08 04:22:020.00m/s65.30%19.40C
2017-08-08 04:23:030.00m/s65.30%19.40C
2017-08-08 04:25:030.00m/s65.30%19.40C
2017-08-08 04:28:030.00m/s65.30%19.40C
2017-08-08 04:38:030.00m/s65.20%19.30C
2017-08-08 04:39:030.00m/s65.40%19.30C
2017-08-08 04:53:030.00m/s65.80%19.20C
2017-08-08 05:00:030.00m/s66.30%19.20C
2017-08-08 05:02:030.00m/s65.80%19.10C
2017-08-08 05:07:020.00m/s66.20%19.10C
2017-08-08 05:17:020.00m/s66.30%19.00C
2017-08-08 05:18:030.00m/s66.10%19.00C
2017-08-08 05:55:030.06m/s66.80%18.70C
2017-08-08 05:27:020.00m/s66.50%18.90C
2017-08-08 05:29:030.00m/s66.50%18.90C
2017-08-08 05:32:020.00m/s66.40%18.90C
2017-08-08 05:44:020.00m/s66.60%18.80C
2017-08-08 05:56:020.00m/s66.90%18.70C
2017-08-08 05:19:030.00m/s66.20%19.00C
2017-08-08 05:54:030.00m/s66.70%18.70C
2017-08-08 06:03:030.00m/s67.00%18.70C
2017-08-08 06:36:030.85m/s67.90%18.50C
2017-08-08 06:13:030.00m/s67.10%18.60C
2017-08-08 06:15:030.00m/s67.10%18.60C
2017-08-08 06:18:030.00m/s67.30%18.60C
2017-08-08 06:20:040.00m/s67.30%18.60C
2017-08-08 06:38:020.00m/s67.70%18.50C
2017-08-08 06:39:030.00m/s67.70%18.50C
2017-08-08 06:14:030.00m/s67.00%18.60C
2017-08-08 06:53:030.00m/s68.00%18.50C
2017-08-08 06:57:031.64m/s68.00%18.40C
2017-08-08 07:06:030.00m/s68.30%18.40C
2017-08-08 07:09:030.00m/s68.30%18.40C
2017-08-08 07:16:030.00m/s68.60%18.40C
2017-08-08 07:25:030.00m/s68.50%18.40C
2017-08-08 07:26:030.00m/s68.60%18.40C
2017-08-08 07:27:030.00m/s68.70%18.40C
2017-08-08 08:51:020.00m/s70.10%18.60C
2017-08-08 09:17:030.00m/s70.00%18.80C
2017-08-08 09:56:030.06m/s69.60%19.00C
2017-08-08 09:19:030.00m/s69.70%18.80C
2017-08-08 09:26:030.00m/s69.50%18.80C
2017-08-08 09:31:030.00m/s69.40%18.80C
2017-08-08 09:40:030.00m/s69.80%18.90C
2017-08-08 09:50:020.00m/s69.40%18.90C
2017-08-08 09:59:030.00m/s69.50%19.00C
2017-08-08 10:00:030.00m/s69.50%19.00C
2017-08-08 10:03:020.00m/s69.20%19.00C
2017-08-08 10:05:030.00m/s69.20%19.10C
2017-08-08 10:25:030.00m/s68.90%19.20C
2017-08-08 10:32:030.00m/s68.80%19.20C
2017-08-08 10:38:030.00m/s69.20%19.30C
2017-08-08 10:43:030.00m/s69.40%19.30C
2017-08-08 10:04:020.00m/s69.20%19.00C
2017-08-08 10:13:020.00m/s69.00%19.10C
2017-08-08 10:52:030.00m/s69.00%19.30C
2017-08-08 10:39:030.00m/s69.30%19.30C
2017-08-08 10:54:030.00m/s69.10%19.30C
2017-08-08 10:55:030.00m/s69.10%19.30C
2017-08-08 10:56:030.00m/s68.90%19.30C
2017-08-08 11:02:030.00m/s69.20%19.30C
2017-08-08 11:04:030.00m/s68.80%19.30C
2017-08-08 11:11:030.00m/s68.90%19.40C
2017-08-08 11:24:020.00m/s69.60%19.40C
2017-08-08 11:27:020.00m/s69.70%19.40C
2017-08-08 11:00:020.00m/s69.00%19.40C
2017-08-08 11:31:030.00m/s69.90%19.40C
2017-08-08 11:32:030.00m/s69.80%19.40C
2017-08-08 11:40:020.00m/s70.60%19.40C
2017-08-08 11:46:030.00m/s70.30%19.40C
2017-08-08 11:54:030.00m/s70.90%19.40C
2017-08-08 12:00:030.00m/s71.50%19.40C
2017-08-08 12:02:030.00m/s71.80%19.40C
2017-08-08 12:03:030.00m/s71.80%19.40C
2017-08-08 11:55:020.00m/s71.00%19.40C
2017-08-08 12:04:020.06m/s71.80%19.40C
2017-08-08 12:15:030.00m/s72.90%19.50C
2017-08-08 12:19:030.00m/s72.90%19.50C
2017-08-08 12:23:030.00m/s73.10%19.60C
2017-08-08 12:26:030.00m/s73.50%19.60C
2017-08-08 12:42:030.00m/s73.50%19.70C
2017-08-08 12:46:030.00m/s73.40%19.70C
2017-08-08 12:32:020.00m/s73.60%19.60C
2017-08-08 12:33:030.00m/s73.60%19.60C
2017-08-08 12:51:030.00m/s73.50%19.80C
2017-08-08 13:07:030.00m/s72.70%19.80C
2017-08-08 13:19:020.00m/s72.60%19.90C
2017-08-08 13:20:030.00m/s72.70%19.90C
2017-08-08 13:24:020.00m/s72.60%19.90C
2017-08-08 13:26:030.00m/s72.80%19.90C
2017-08-08 13:28:030.00m/s72.30%19.90C
2017-08-08 13:29:030.00m/s72.70%19.90C
2017-08-08 13:17:030.00m/s72.90%19.90C
2017-08-08 13:31:020.00m/s72.60%19.90C
2017-08-08 13:33:030.00m/s72.70%19.90C
2017-08-08 13:40:030.00m/s72.50%19.90C
2017-08-08 14:11:030.00m/s72.60%19.90C
2017-08-08 13:47:030.00m/s72.90%20.00C
2017-08-08 13:57:030.00m/s72.60%20.00C
2017-08-08 13:58:030.00m/s72.90%20.00C
2017-08-08 14:04:020.00m/s72.70%20.00C
2017-08-08 14:10:030.00m/s72.90%20.00C
2017-08-08 14:44:030.06m/s74.50%19.90C
2017-08-08 14:20:030.00m/s72.70%19.90C
2017-08-08 14:33:030.00m/s73.40%19.90C
2017-08-08 14:34:030.00m/s73.50%19.90C
2017-08-08 14:47:020.00m/s74.60%19.90C
2017-08-08 14:39:030.00m/s73.90%19.90C
2017-08-08 14:49:030.00m/s74.00%19.80C
2017-08-08 14:15:030.00m/s72.90%20.00C
2017-08-08 14:19:030.00m/s72.70%20.00C
2017-08-08 14:58:030.06m/s74.40%19.80C
2017-08-08 14:52:030.00m/s74.30%19.80C
2017-08-08 14:55:030.00m/s74.20%19.80C
2017-08-08 14:56:030.00m/s74.40%19.80C
2017-08-08 14:57:030.00m/s74.70%19.80C
2017-08-08 14:59:030.00m/s74.20%19.80C
2017-08-08 15:03:020.00m/s74.90%19.80C
2017-08-08 15:17:030.00m/s75.40%19.80C
2017-08-08 15:22:020.00m/s75.60%19.70C
2017-08-08 15:24:030.00m/s75.80%19.70C
2017-08-08 15:25:030.00m/s75.90%19.70C
2017-08-08 15:31:030.00m/s75.80%19.70C
2017-08-08 15:33:020.00m/s76.20%19.70C
2017-08-08 15:35:020.00m/s76.10%19.70C
2017-08-08 15:38:020.00m/s76.10%19.70C
2017-08-08 15:40:030.00m/s76.30%19.60C
2017-08-08 15:34:030.00m/s76.00%19.70C
2017-08-08 15:39:030.00m/s76.60%19.60C
2017-08-08 15:46:031.64m/s76.40%19.60C
2017-08-08 15:47:030.00m/s76.20%19.60C
2017-08-08 15:52:030.00m/s76.30%19.60C
2017-08-08 15:53:020.00m/s75.70%19.60C
2017-08-08 16:05:030.00m/s76.30%19.50C
2017-08-08 16:17:030.00m/s76.30%19.40C
2017-08-08 16:26:030.00m/s76.50%19.40C
2017-08-08 15:57:020.00m/s76.00%19.50C
2017-08-08 16:21:030.00m/s76.40%19.40C
2017-08-08 16:55:030.06m/s77.10%19.20C
2017-08-08 16:29:030.00m/s77.10%19.40C
2017-08-08 16:40:030.00m/s77.40%19.30C
2017-08-08 16:50:020.00m/s78.10%19.30C
2017-08-08 16:52:030.00m/s78.10%19.30C
2017-08-08 16:57:020.00m/s77.40%19.30C
2017-08-08 16:58:030.00m/s78.10%19.30C
2017-08-08 16:38:030.00m/s77.00%19.30C
2017-08-08 16:51:030.00m/s78.00%19.30C
2017-08-08 17:00:020.06m/s78.00%19.20C
2017-08-08 17:08:020.85m/s78.00%19.20C
2017-08-08 17:21:030.06m/s78.50%19.10C
2017-08-08 17:10:030.00m/s78.00%19.20C
2017-08-08 17:12:020.00m/s78.00%19.20C
2017-08-08 17:13:030.00m/s78.00%19.20C
2017-08-08 17:16:030.00m/s78.00%19.20C
2017-08-08 17:17:030.00m/s78.00%19.20C
2017-08-08 17:19:020.00m/s78.00%19.20C
2017-08-08 17:59:034.00m/s83.90%19.00C
2017-08-08 1